<?xml version="1.0" encoding="UTF-8" standalone="no" ?>
<gpx xmlns="http://www.topografix.com/GPX/1/1" xmlns:xsi="http://www.w3.org/2001/XMLSchema-instance" xsi:schemaLocation="http://www.topografix.com/GPX/1/1 http://www.topografix.com/GPX/1/1/gpx.xsd" version="1.1" creator="VisuGPX - https://www.visugpx.com">
  <metadata>
    <name>83-cd-2011-13-11-Comps - La Souche</name>
    <desc><![CDATA[Comps - La Souche]]></desc>
  </metadata>
  <trk>
    <name><![CDATA[2011-11-13-comps-sur-artuby]]></name>
    <trkseg>
      <trkpt lat="43.71752" lon="6.524">
        <ele>800.835449</ele>
        <time>2011-11-13T08:24:53Z</time>
      </trkpt>
      <trkpt lat="43.71752" lon="6.524">
        <ele>800.507995</ele>
        <time>2011-11-13T08:24:54Z</time>
      </trkpt>
      <trkpt lat="43.71753" lon="6.52402">
        <ele>799.3</ele>
        <time>2011-11-13T08:25:03Z</time>
      </trkpt>
      <trkpt lat="43.71752" lon="6.524">
        <ele>798.9</ele>
        <time>2011-11-13T08:25:08Z</time>
      </trkpt>
      <trkpt lat="43.71752" lon="6.52399">
        <ele>799.3</ele>
        <time>2011-11-13T08:25:13Z</time>
      </trkpt>
      <trkpt lat="43.71752" lon="6.52399">
        <ele>799.4</ele>
        <time>2011-11-13T08:25:18Z</time>
      </trkpt>
      <trkpt lat="43.71753" lon="6.52399">
        <ele>799.6</ele>
        <time>2011-11-13T08:25:23Z</time>
      </trkpt>
      <trkpt lat="43.71753" lon="6.524">
        <ele>799.9</ele>
        <time>2011-11-13T08:25:28Z</time>
      </trkpt>
      <trkpt lat="43.71754" lon="6.524">
        <ele>799.9</ele>
        <time>2011-11-13T08:25:33Z</time>
      </trkpt>
      <trkpt lat="43.71754" lon="6.524">
        <ele>799.8</ele>
        <time>2011-11-13T08:25:38Z</time>
      </trkpt>
      <trkpt lat="43.71753" lon="6.52399">
        <ele>799.5</ele>
        <time>2011-11-13T08:25:43Z</time>
      </trkpt>
      <trkpt lat="43.71753" lon="6.52399">
        <ele>799.6</ele>
        <time>2011-11-13T08:25:48Z</time>
      </trkpt>
      <trkpt lat="43.71753" lon="6.52399">
        <ele>800</ele>
        <time>2011-11-13T08:25:53Z</time>
      </trkpt>
      <trkpt lat="43.71752" lon="6.52399">
        <ele>799.7</ele>
        <time>2011-11-13T08:25:58Z</time>
      </trkpt>
      <trkpt lat="43.71752" lon="6.524">
        <ele>799.5</ele>
        <time>2011-11-13T08:25:59Z</time>
      </trkpt>
      <trkpt lat="43.71752" lon="6.524">
        <ele>799.9</ele>
        <time>2011-11-13T08:26:08Z</time>
      </trkpt>
      <trkpt lat="43.71753" lon="6.524">
        <ele>799.7</ele>
        <time>2011-11-13T08:26:13Z</time>
      </trkpt>
      <trkpt lat="43.71753" lon="6.524">
        <ele>799.5</ele>
        <time>2011-11-13T08:26:18Z</time>
      </trkpt>
      <trkpt lat="43.71754" lon="6.524">
        <ele>799.6</ele>
        <time>2011-11-13T08:26:23Z</time>
      </trkpt>
      <trkpt lat="43.71756" lon="6.52398">
        <ele>799.7</ele>
        <time>2011-11-13T08:26:28Z</time>
      </trkpt>
      <trkpt lat="43.71758" lon="6.52396">
        <ele>799.6</ele>
        <time>2011-11-13T08:26:33Z</time>
      </trkpt>
      <trkpt lat="43.71757" lon="6.52396">
        <ele>799.7</ele>
        <time>2011-11-13T08:26:38Z</time>
      </trkpt>
      <trkpt lat="43.71756" lon="6.52395">
        <ele>799.5</ele>
        <time>2011-11-13T08:26:43Z</time>
      </trkpt>
      <trkpt lat="43.71755" lon="6.52394">
        <ele>799.5</ele>
        <time>2011-11-13T08:26:48Z</time>
      </trkpt>
      <trkpt lat="43.71756" lon="6.52394">
        <ele>799.5</ele>
        <time>2011-11-13T08:26:53Z</time>
      </trkpt>
      <trkpt lat="43.71756" lon="6.52394">
        <ele>799.5</ele>
        <time>2011-11-13T08:26:58Z</time>
      </trkpt>
      <trkpt lat="43.71759" lon="6.52394">
        <ele>800</ele>
        <time>2011-11-13T08:27:03Z</time>
      </trkpt>
      <trkpt lat="43.7176" lon="6.52394">
        <ele>800.1</ele>
        <time>2011-11-13T08:27:04Z</time>
      </trkpt>
      <trkpt lat="43.71761" lon="6.52394">
        <ele>799.7</ele>
        <time>2011-11-13T08:27:13Z</time>
      </trkpt>
      <trkpt lat="43.71762" lon="6.52393">
        <ele>799.4</ele>
        <time>2011-11-13T08:27:18Z</time>
      </trkpt>
      <trkpt lat="43.71763" lon="6.52391">
        <ele>799.1</ele>
        <time>2011-11-13T08:27:23Z</time>
      </trkpt>
      <trkpt lat="43.71763" lon="6.52391">
        <ele>799.7</ele>
        <time>2011-11-13T08:27:28Z</time>
      </trkpt>
      <trkpt lat="43.71763" lon="6.52391">
        <ele>799.5</ele>
        <time>2011-11-13T08:27:33Z</time>
      </trkpt>
      <trkpt lat="43.71763" lon="6.52391">
        <ele>799.4</ele>
        <time>2011-11-13T08:27:38Z</time>
      </trkpt>
      <trkpt lat="43.71762" lon="6.52391">
        <ele>799.2</ele>
        <time>2011-11-13T08:27:43Z</time>
      </trkpt>
      <trkpt lat="43.71762" lon="6.5239">
        <ele>799.2</ele>
        <time>2011-11-13T08:27:48Z</time>
      </trkpt>
      <trkpt lat="43.71762" lon="6.5239">
        <ele>798.7</ele>
        <time>2011-11-13T08:27:53Z</time>
      </trkpt>
      <trkpt lat="43.71763" lon="6.52389">
        <ele>798.8</ele>
        <time>2011-11-13T08:27:58Z</time>
      </trkpt>
      <trkpt lat="43.71763" lon="6.52388">
        <ele>799.1</ele>
        <time>2011-11-13T08:28:03Z</time>
      </trkpt>
      <trkpt lat="43.71763" lon="6.52388">
        <ele>799.1</ele>
        <time>2011-11-13T08:28:08Z</time>
      </trkpt>
      <trkpt lat="43.71763" lon="6.52388">
        <ele>799.4</ele>
        <time>2011-11-13T08:28:09Z</time>
      </trkpt>
      <trkpt lat="43.71762" lon="6.52389">
        <ele>799.5</ele>
        <time>2011-11-13T08:28:18Z</time>
      </trkpt>
      <trkpt lat="43.71763" lon="6.5239">
        <ele>799.6</ele>
        <time>2011-11-13T08:28:23Z</time>
      </trkpt>
      <trkpt lat="43.71762" lon="6.52392">
        <ele>799.3</ele>
        <time>2011-11-13T08:28:28Z</time>
      </trkpt>
      <trkpt lat="43.71762" lon="6.52392">
        <ele>799.6</ele>
        <time>2011-11-13T08:28:33Z</time>
      </trkpt>
      <trkpt lat="43.71763" lon="6.52391">
        <ele>799.6</ele>
        <time>2011-11-13T08:28:38Z</time>
      </trkpt>
      <trkpt lat="43.71763" lon="6.5239">
        <ele>799.7</ele>
        <time>2011-11-13T08:28:43Z</time>
      </trkpt>
      <trkpt lat="43.71764" lon="6.5239">
        <ele>799.6</ele>
        <time>2011-11-13T08:28:48Z</time>
      </trkpt>
      <trkpt lat="43.71764" lon="6.52391">
        <ele>799.7</ele>
        <time>2011-11-13T08:28:53Z</time>
      </trkpt>
      <trkpt lat="43.71764" lon="6.52391">
        <ele>800</ele>
        <time>2011-11-13T08:28:58Z</time>
      </trkpt>
      <trkpt lat="43.71765" lon="6.52392">
        <ele>799.8</ele>
        <time>2011-11-13T08:29:03Z</time>
      </trkpt>
      <trkpt lat="43.71765" lon="6.52392">
        <ele>799.9</ele>
        <time>2011-11-13T08:29:08Z</time>
      </trkpt>
      <trkpt lat="43.71765" lon="6.52392">
        <ele>799.7</ele>
        <time>2011-11-13T08:29:13Z</time>
      </trkpt>
      <trkpt lat="43.71765" lon="6.52392">
        <ele>799.7</ele>
        <time>2011-11-13T08:29:14Z</time>
      </trkpt>
      <trkpt lat="43.71764" lon="6.52392">
        <ele>799.6</ele>
        <time>2011-11-13T08:29:23Z</time>
      </trkpt>
      <trkpt lat="43.71764" lon="6.52393">
        <ele>799.8</ele>
        <time>2011-11-13T08:29:28Z</time>
      </trkpt>
      <trkpt lat="43.71764" lon="6.52393">
        <ele>799.9</ele>
        <time>2011-11-13T08:29:33Z</time>
      </trkpt>
      <trkpt lat="43.71763" lon="6.52394">
        <ele>799.9</ele>
        <time>2011-11-13T08:29:38Z</time>
      </trkpt>
      <trkpt lat="43.71764" lon="6.52393">
        <ele>799.8</ele>
        <time>2011-11-13T08:29:43Z</time>
      </trkpt>
      <trkpt lat="43.71764" lon="6.52393">
        <ele>799.4</ele>
        <time>2011-11-13T08:29:48Z</time>
      </trkpt>
      <trkpt lat="43.71764" lon="6.52393">
        <ele>799.2</ele>
        <time>2011-11-13T08:29:53Z</time>
      </trkpt>
      <trkpt lat="43.71764" lon="6.52393">
        <ele>799.8</ele>
        <time>2011-11-13T08:29:58Z</time>
      </trkpt>
      <trkpt lat="43.71764" lon="6.52393">
        <ele>799.7</ele>
        <time>2011-11-13T08:30:03Z</time>
      </trkpt>
      <trkpt lat="43.71764" lon="6.52392">
        <ele>799.6</ele>
        <time>2011-11-13T08:30:08Z</time>
      </trkpt>
      <trkpt lat="43.71764" lon="6.52391">
        <ele>799.7</ele>
        <time>2011-11-13T08:30:13Z</time>
      </trkpt>
      <trkpt lat="43.71764" lon="6.52391">
        <ele>799.7</ele>
        <time>2011-11-13T08:30:18Z</time>
      </trkpt>
      <trkpt lat="43.71764" lon="6.52391">
        <ele>799.6</ele>
        <time>2011-11-13T08:30:19Z</time>
      </trkpt>
      <trkpt lat="43.71764" lon="6.5239">
        <ele>799.5</ele>
        <time>2011-11-13T08:30:28Z</time>
      </trkpt>
      <trkpt lat="43.71764" lon="6.52389">
        <ele>799.9</ele>
        <time>2011-11-13T08:30:33Z</time>
      </trkpt>
      <trkpt lat="43.71763" lon="6.5239">
        <ele>799.6</ele>
        <time>2011-11-13T08:30:38Z</time>
      </trkpt>
      <trkpt lat="43.71763" lon="6.5239">
        <ele>799.4</ele>
        <time>2011-11-13T08:30:43Z</time>
      </trkpt>
      <trkpt lat="43.71763" lon="6.52388">
        <ele>799.2</ele>
        <time>2011-11-13T08:30:48Z</time>
      </trkpt>
      <trkpt lat="43.71763" lon="6.52387">
        <ele>799.3</ele>
        <time>2011-11-13T08:30:53Z</time>
      </trkpt>
      <trkpt lat="43.71763" lon="6.52386">
        <ele>799.3</ele>
        <time>2011-11-13T08:30:58Z</time>
      </trkpt>
      <trkpt lat="43.71763" lon="6.52388">
        <ele>799.7</ele>
        <time>2011-11-13T08:31:03Z</time>
      </trkpt>
      <trkpt lat="43.71763" lon="6.52393">
        <ele>799.6</ele>
        <time>2011-11-13T08:31:08Z</time>
      </trkpt>
      <trkpt lat="43.71762" lon="6.52398">
        <ele>799.8</ele>
        <time>2011-11-13T08:31:13Z</time>
      </trkpt>
      <trkpt lat="43.71762" lon="6.52405">
        <ele>799.9</ele>
        <time>2011-11-13T08:31:18Z</time>
      </trkpt>
      <trkpt lat="43.71762" lon="6.52412">
        <ele>799.5</ele>
        <time>2011-11-13T08:31:23Z</time>
      </trkpt>
      <trkpt lat="43.71762" lon="6.52413">
        <ele>799.8</ele>
        <time>2011-11-13T08:31:24Z</time>
      </trkpt>
      <trkpt lat="43.71762" lon="6.52423">
        <ele>800.1</ele>
        <time>2011-11-13T08:31:33Z</time>
      </trkpt>
      <trkpt lat="43.71762" lon="6.52425">
        <ele>800.2</ele>
        <time>2011-11-13T08:31:38Z</time>
      </trkpt>
      <trkpt lat="43.71764" lon="6.52428">
        <ele>800.1</ele>
        <time>2011-11-13T08:31:43Z</time>
      </trkpt>
      <trkpt lat="43.71765" lon="6.52432">
        <ele>800.5</ele>
        <time>2011-11-13T08:31:48Z</time>
      </trkpt>
      <trkpt lat="43.71764" lon="6.5243">
        <ele>800.4</ele>
        <time>2011-11-13T08:31:53Z</time>
      </trkpt>
      <trkpt lat="43.71764" lon="6.52432">
        <ele>800.2</ele>
        <time>2011-11-13T08:31:58Z</time>
      </trkpt>
      <trkpt lat="43.71765" lon="6.52438">
        <ele>800.4</ele>
        <time>2011-11-13T08:32:03Z</time>
      </trkpt>
      <trkpt lat="43.71765" lon="6.52444">
        <ele>800.4</ele>
        <time>2011-11-13T08:32:08Z</time>
      </trkpt>
      <trkpt lat="43.71764" lon="6.52448">
        <ele>800.9</ele>
        <time>2011-11-13T08:32:13Z</time>
      </trkpt>
      <trkpt lat="43.71764" lon="6.52454">
        <ele>801</ele>
        <time>2011-11-13T08:32:18Z</time>
      </trkpt>
      <trkpt lat="43.71765" lon="6.52461">
        <ele>800.7</ele>
        <time>2011-11-13T08:32:23Z</time>
      </trkpt>
      <trkpt lat="43.71765" lon="6.52468">
        <ele>801.1</ele>
        <time>2011-11-13T08:32:28Z</time>
      </trkpt>
      <trkpt lat="43.71765" lon="6.52469">
        <ele>801</ele>
        <time>2011-11-13T08:32:29Z</time>
      </trkpt>
      <trkpt lat="43.71763" lon="6.52482">
        <ele>800.9</ele>
        <time>2011-11-13T08:32:38Z</time>
      </trkpt>
      <trkpt lat="43.71763" lon="6.5249">
        <ele>801.1</ele>
        <time>2011-11-13T08:32:43Z</time>
      </trkpt>
      <trkpt lat="43.71764" lon="6.52497">
        <ele>801.1</ele>
        <time>2011-11-13T08:32:48Z</time>
      </trkpt>
      <trkpt lat="43.71764" lon="6.52502">
        <ele>801.6</ele>
        <time>2011-11-13T08:32:53Z</time>
      </trkpt>
      <trkpt lat="43.71764" lon="6.52508">
        <ele>801.7</ele>
        <time>2011-11-13T08:32:58Z</time>
      </trkpt>
      <trkpt lat="43.71764" lon="6.52514">
        <ele>801.5</ele>
        <time>2011-11-13T08:33:03Z</time>
      </trkpt>
      <trkpt lat="43.71764" lon="6.52521">
        <ele>802</ele>
        <time>2011-11-13T08:33:08Z</time>
      </trkpt>
      <trkpt lat="43.71762" lon="6.52529">
        <ele>801.6</ele>
        <time>2011-11-13T08:33:13Z</time>
      </trkpt>
      <trkpt lat="43.71762" lon="6.52537">
        <ele>801.7</ele>
        <time>2011-11-13T08:33:18Z</time>
      </trkpt>
      <trkpt lat="43.71763" lon="6.52544">
        <ele>802.1</ele>
        <time>2011-11-13T08:33:23Z</time>
      </trkpt>
      <trkpt lat="43.71763" lon="6.5255">
        <ele>802</ele>
        <time>2011-11-13T08:33:28Z</time>
      </trkpt>
      <trkpt lat="43.71765" lon="6.52556">
        <ele>802.3</ele>
        <time>2011-11-13T08:33:33Z</time>
      </trkpt>
      <trkpt lat="43.71765" lon="6.52557">
        <ele>802.2</ele>
        <time>2011-11-13T08:33:34Z</time>
      </trkpt>
      <trkpt lat="43.71766" lon="6.52566">
        <ele>802.1</ele>
        <time>2011-11-13T08:33:43Z</time>
      </trkpt>
      <trkpt lat="43.71766" lon="6.52573">
        <ele>802</ele>
        <time>2011-11-13T08:33:48Z</time>
      </trkpt>
      <trkpt lat="43.71767" lon="6.5258">
        <ele>801.8</ele>
        <time>2011-11-13T08:33:53Z</time>
      </trkpt>
      <trkpt lat="43.71765" lon="6.52585">
        <ele>801.3</ele>
        <time>2011-11-13T08:33:58Z</time>
      </trkpt>
      <trkpt lat="43.71765" lon="6.52592">
        <ele>801.4</ele>
        <time>2011-11-13T08:34:03Z</time>
      </trkpt>
      <trkpt lat="43.71766" lon="6.52598">
        <ele>801.7</ele>
        <time>2011-11-13T08:34:08Z</time>
      </trkpt>
      <trkpt lat="43.71767" lon="6.52604">
        <ele>801.5</ele>
        <time>2011-11-13T08:34:13Z</time>
      </trkpt>
      <trkpt lat="43.71767" lon="6.5261">
        <ele>801.7</ele>
        <time>2011-11-13T08:34:18Z</time>
      </trkpt>
      <trkpt lat="43.71766" lon="6.52617">
        <ele>801.4</ele>
        <time>2011-11-13T08:34:23Z</time>
      </trkpt>
      <trkpt lat="43.71766" lon="6.52624">
        <ele>801.2</ele>
        <time>2011-11-13T08:34:28Z</time>
      </trkpt>
      <trkpt lat="43.71765" lon="6.52632">
        <ele>801.4</ele>
        <time>2011-11-13T08:34:33Z</time>
      </trkpt>
      <trkpt lat="43.71764" lon="6.52639">
        <ele>801.4</ele>
        <time>2011-11-13T08:34:38Z</time>
      </trkpt>
      <trkpt lat="43.71763" lon="6.5264">
        <ele>801.2</ele>
        <time>2011-11-13T08:34:39Z</time>
      </trkpt>
      <trkpt lat="43.7176" lon="6.52654">
        <ele>801.4</ele>
        <time>2011-11-13T08:34:48Z</time>
      </trkpt>
      <trkpt lat="43.71758" lon="6.52661">
        <ele>801.1</ele>
        <time>2011-11-13T08:34:53Z</time>
      </trkpt>
      <trkpt lat="43.71755" lon="6.52669">
        <ele>801.3</ele>
        <time>2011-11-13T08:34:58Z</time>
      </trkpt>
      <trkpt lat="43.71753" lon="6.52677">
        <ele>800.7</ele>
        <time>2011-11-13T08:35:03Z</time>
      </trkpt>
      <trkpt lat="43.71751" lon="6.52684">
        <ele>800.7</ele>
        <time>2011-11-13T08:35:08Z</time>
      </trkpt>
      <trkpt lat="43.71749" lon="6.52691">
        <ele>801.1</ele>
        <time>2011-11-13T08:35:13Z</time>
      </trkpt>
      <trkpt lat="43.71747" lon="6.52699">
        <ele>801.1</ele>
        <time>2011-11-13T08:35:18Z</time>
      </trkpt>
      <trkpt lat="43.71746" lon="6.52706">
        <ele>801.4</ele>
        <time>2011-11-13T08:35:23Z</time>
      </trkpt>
      <trkpt lat="43.71744" lon="6.52713">
        <ele>801.4</ele>
        <time>2011-11-13T08:35:28Z</time>
      </trkpt>
      <trkpt lat="43.71744" lon="6.52719">
        <ele>801.8</ele>
        <time>2011-11-13T08:35:33Z</time>
      </trkpt>
      <trkpt lat="43.71743" lon="6.52724">
        <ele>801.8</ele>
        <time>2011-11-13T08:35:38Z</time>
      </trkpt>
      <trkpt lat="43.71743" lon="6.52731">
        <ele>802.2</ele>
        <time>2011-11-13T08:35:43Z</time>
      </trkpt>
      <trkpt lat="43.71744" lon="6.52733">
        <ele>802.2</ele>
        <time>2011-11-13T08:35:44Z</time>
      </trkpt>
      <trkpt lat="43.71744" lon="6.52747">
        <ele>802.4</ele>
        <time>2011-11-13T08:35:53Z</time>
      </trkpt>
      <trkpt lat="43.71744" lon="6.52755">
        <ele>802.3</ele>
        <time>2011-11-13T08:35:58Z</time>
      </trkpt>
      <trkpt lat="43.71745" lon="6.52763">
        <ele>802.1</ele>
        <time>2011-11-13T08:36:03Z</time>
      </trkpt>
      <trkpt lat="43.71745" lon="6.52771">
        <ele>802.4</ele>
        <time>2011-11-13T08:36:08Z</time>
      </trkpt>
      <trkpt lat="43.71745" lon="6.5278">
        <ele>802.8</ele>
        <time>2011-11-13T08:36:13Z</time>
      </trkpt>
      <trkpt lat="43.71747" lon="6.52788">
        <ele>802.8</ele>
        <time>2011-11-13T08:36:18Z</time>
      </trkpt>
      <trkpt lat="43.71747" lon="6.52795">
        <ele>802.8</ele>
        <time>2011-11-13T08:36:23Z</time>
      </trkpt>
      <trkpt lat="43.71747" lon="6.52801">
        <ele>802.5</ele>
        <time>2011-11-13T08:36:28Z</time>
      </trkpt>
      <trkpt lat="43.71748" lon="6.5281">
        <ele>802.3</ele>
        <time>2011-11-13T08:36:33Z</time>
      </trkpt>
      <trkpt lat="43.71748" lon="6.52818">
        <ele>802.6</ele>
        <time>2011-11-13T08:36:38Z</time>
      </trkpt>
      <trkpt lat="43.71748" lon="6.52825">
        <ele>803</ele>
        <time>2011-11-13T08:36:43Z</time>
      </trkpt>
      <trkpt lat="43.71749" lon="6.52832">
        <ele>802.7</ele>
        <time>2011-11-13T08:36:48Z</time>
      </trkpt>
      <trkpt lat="43.71749" lon="6.52834">
        <ele>802.8</ele>
        <time>2011-11-13T08:36:49Z</time>
      </trkpt>
      <trkpt lat="43.7175" lon="6.52849">
        <ele>803</ele>
        <time>2011-11-13T08:36:58Z</time>
      </trkpt>
      <trkpt lat="43.7175" lon="6.52858">
        <ele>803.1</ele>
        <time>2011-11-13T08:37:03Z</time>
      </trkpt>
      <trkpt lat="43.71751" lon="6.52867">
        <ele>803.4</ele>
        <time>2011-11-13T08:37:08Z</time>
      </trkpt>
      <trkpt lat="43.71752" lon="6.52874">
        <ele>803.8</ele>
        <time>2011-11-13T08:37:13Z</time>
      </trkpt>
      <trkpt lat="43.71752" lon="6.52882">
        <ele>804</ele>
        <time>2011-11-13T08:37:18Z</time>
      </trkpt>
      <trkpt lat="43.71751" lon="6.52889">
        <ele>804.4</ele>
        <time>2011-11-13T08:37:23Z</time>
      </trkpt>
      <trkpt lat="43.71752" lon="6.52896">
        <ele>804.6</ele>
        <time>2011-11-13T08:37:28Z</time>
      </trkpt>
      <trkpt lat="43.71751" lon="6.52903">
        <ele>804.3</ele>
        <time>2011-11-13T08:37:33Z</time>
      </trkpt>
      <trkpt lat="43.7175" lon="6.5291">
        <ele>804.5</ele>
        <time>2011-11-13T08:37:38Z</time>
      </trkpt>
      <trkpt lat="43.71749" lon="6.52917">
        <ele>804.1</ele>
        <time>2011-11-13T08:37:43Z</time>
      </trkpt>
      <trkpt lat="43.71749" lon="6.52924">
        <ele>804.6</ele>
        <time>2011-11-13T08:37:48Z</time>
      </trkpt>
      <trkpt lat="43.71749" lon="6.52931">
        <ele>805.1</ele>
        <time>2011-11-13T08:37:53Z</time>
      </trkpt>
      <trkpt lat="43.71749" lon="6.52932">
        <ele>805.1</ele>
        <time>2011-11-13T08:37:54Z</time>
      </trkpt>
      <trkpt lat="43.7175" lon="6.52946">
        <ele>806</ele>
        <time>2011-11-13T08:38:03Z</time>
      </trkpt>
      <trkpt lat="43.7175" lon="6.52953">
        <ele>807.3</ele>
        <time>2011-11-13T08:38:08Z</time>
      </trkpt>
      <trkpt lat="43.71749" lon="6.5296">
        <ele>807.8</ele>
        <time>2011-11-13T08:38:13Z</time>
      </trkpt>
      <trkpt lat="43.7175" lon="6.52966">
        <ele>807.3</ele>
        <time>2011-11-13T08:38:18Z</time>
      </trkpt>
      <trkpt lat="43.71749" lon="6.52973">
        <ele>808.1</ele>
        <time>2011-11-13T08:38:23Z</time>
      </trkpt>
      <trkpt lat="43.71749" lon="6.52979">
        <ele>808.9</ele>
        <time>2011-11-13T08:38:28Z</time>
      </trkpt>
      <trkpt lat="43.7175" lon="6.52987">
        <ele>809.5</ele>
        <time>2011-11-13T08:38:33Z</time>
      </trkpt>
      <trkpt lat="43.71751" lon="6.52992">
        <ele>810.1</ele>
        <time>2011-11-13T08:38:38Z</time>
      </trkpt>
      <trkpt lat="43.71754" lon="6.52999">
        <ele>811.1</ele>
        <time>2011-11-13T08:38:43Z</time>
      </trkpt>
      <trkpt lat="43.71758" lon="6.53005">
        <ele>811.7</ele>
        <time>2011-11-13T08:38:48Z</time>
      </trkpt>
      <trkpt lat="43.71761" lon="6.53011">
        <ele>813</ele>
        <time>2011-11-13T08:38:53Z</time>
      </trkpt>
      <trkpt lat="43.71764" lon="6.53015">
        <ele>813.4</ele>
        <time>2011-11-13T08:38:58Z</time>
      </trkpt>
      <trkpt lat="43.71764" lon="6.53016">
        <ele>813.7</ele>
        <time>2011-11-13T08:38:59Z</time>
      </trkpt>
      <trkpt lat="43.71771" lon="6.53025">
        <ele>814.8</ele>
        <time>2011-11-13T08:39:08Z</time>
      </trkpt>
      <trkpt lat="43.71775" lon="6.53028">
        <ele>816</ele>
        <time>2011-11-13T08:39:13Z</time>
      </trkpt>
      <trkpt lat="43.71778" lon="6.53032">
        <ele>816.6</ele>
        <time>2011-11-13T08:39:18Z</time>
      </trkpt>
      <trkpt lat="43.71781" lon="6.53035">
        <ele>817.5</ele>
        <time>2011-11-13T08:39:23Z</time>
      </trkpt>
      <trkpt lat="43.71785" lon="6.53039">
        <ele>818.5</ele>
        <time>2011-11-13T08:39:28Z</time>
      </trkpt>
      <trkpt lat="43.71788" lon="6.53043">
        <ele>819.7</ele>
        <time>2011-11-13T08:39:33Z</time>
      </trkpt>
      <trkpt lat="43.7179" lon="6.53048">
        <ele>820.7</ele>
        <time>2011-11-13T08:39:38Z</time>
      </trkpt>
      <trkpt lat="43.71793" lon="6.53053">
        <ele>821.5</ele>
        <time>2011-11-13T08:39:43Z</time>
      </trkpt>
      <trkpt lat="43.71795" lon="6.53058">
        <ele>822.5</ele>
        <time>2011-11-13T08:39:48Z</time>
      </trkpt>
      <trkpt lat="43.71798" lon="6.53063">
        <ele>823.4</ele>
        <time>2011-11-13T08:39:53Z</time>
      </trkpt>
      <trkpt lat="43.71801" lon="6.53068">
        <ele>824.1</ele>
        <time>2011-11-13T08:39:58Z</time>
      </trkpt>
      <trkpt lat="43.71803" lon="6.53073">
        <ele>824.9</ele>
        <time>2011-11-13T08:40:03Z</time>
      </trkpt>
      <trkpt lat="43.71803" lon="6.53074">
        <ele>825.1</ele>
        <time>2011-11-13T08:40:04Z</time>
      </trkpt>
      <trkpt lat="43.71807" lon="6.53083">
        <ele>827</ele>
        <time>2011-11-13T08:40:13Z</time>
      </trkpt>
      <trkpt lat="43.71808" lon="6.53088">
        <ele>828.1</ele>
        <time>2011-11-13T08:40:18Z</time>
      </trkpt>
      <trkpt lat="43.71809" lon="6.53094">
        <ele>828.8</ele>
        <time>2011-11-13T08:40:23Z</time>
      </trkpt>
      <trkpt lat="43.71811" lon="6.53099">
        <ele>829.4</ele>
        <time>2011-11-13T08:40:28Z</time>
      </trkpt>
      <trkpt lat="43.71811" lon="6.53104">
        <ele>830.7</ele>
        <time>2011-11-13T08:40:33Z</time>
      </trkpt>
      <trkpt lat="43.71812" lon="6.53109">
        <ele>831.4</ele>
        <time>2011-11-13T08:40:38Z</time>
      </trkpt>
      <trkpt lat="43.71813" lon="6.53114">
        <ele>832.5</ele>
        <time>2011-11-13T08:40:43Z</time>
      </trkpt>
      <trkpt lat="43.71814" lon="6.5312">
        <ele>833.1</ele>
        <time>2011-11-13T08:40:48Z</time>
      </trkpt>
      <trkpt lat="43.71815" lon="6.53126">
        <ele>833.6</ele>
        <time>2011-11-13T08:40:53Z</time>
      </trkpt>
      <trkpt lat="43.71817" lon="6.53131">
        <ele>833.9</ele>
        <time>2011-11-13T08:40:58Z</time>
      </trkpt>
      <trkpt lat="43.71818" lon="6.53136">
        <ele>834.7</ele>
        <time>2011-11-13T08:41:03Z</time>
      </trkpt>
      <trkpt lat="43.7182" lon="6.5314">
        <ele>835.8</ele>
        <time>2011-11-13T08:41:08Z</time>
      </trkpt>
      <trkpt lat="43.7182" lon="6.53141">
        <ele>835.9</ele>
        <time>2011-11-13T08:41:09Z</time>
      </trkpt>
      <trkpt lat="43.71824" lon="6.53146">
        <ele>837.5</ele>
        <time>2011-11-13T08:41:18Z</time>
      </trkpt>
      <trkpt lat="43.71826" lon="6.5315">
        <ele>838.5</ele>
        <time>2011-11-13T08:41:23Z</time>
      </trkpt>
      <trkpt lat="43.71827" lon="6.53155">
        <ele>839.6</ele>
        <time>2011-11-13T08:41:28Z</time>
      </trkpt>
      <trkpt lat="43.71829" lon="6.53159">
        <ele>840.4</ele>
        <time>2011-11-13T08:41:33Z</time>
      </trkpt>
      <trkpt lat="43.71831" lon="6.53163">
        <ele>841</ele>
        <time>2011-11-13T08:41:38Z</time>
      </trkpt>
      <trkpt lat="43.71834" lon="6.53168">
        <ele>841.7</ele>
        <time>2011-11-13T08:41:43Z</time>
      </trkpt>
      <trkpt lat="43.71837" lon="6.53169">
        <ele>842.4</ele>
        <time>2011-11-13T08:41:48Z</time>
      </trkpt>
      <trkpt lat="43.71839" lon="6.53169">
        <ele>843.8</ele>
        <time>2011-11-13T08:41:53Z</time>
      </trkpt>
      <trkpt lat="43.71841" lon="6.5317">
        <ele>844.5</ele>
        <time>2011-11-13T08:41:58Z</time>
      </trkpt>
      <trkpt lat="43.71845" lon="6.53172">
        <ele>845.4</ele>
        <time>2011-11-13T08:42:03Z</time>
      </trkpt>
      <trkpt lat="43.71848" lon="6.53171">
        <ele>846.2</ele>
        <time>2011-11-13T08:42:08Z</time>
      </trkpt>
      <trkpt lat="43.71852" lon="6.5317">
        <ele>847.4</ele>
        <time>2011-11-13T08:42:13Z</time>
      </trkpt>
      <trkpt lat="43.71853" lon="6.53169">
        <ele>847.6</ele>
        <time>2011-11-13T08:42:14Z</time>
      </trkpt>
      <trkpt lat="43.71859" lon="6.53166">
        <ele>849.3</ele>
        <time>2011-11-13T08:42:23Z</time>
      </trkpt>
      <trkpt lat="43.71862" lon="6.53164">
        <ele>849.6</ele>
        <time>2011-11-13T08:42:28Z</time>
      </trkpt>
      <trkpt lat="43.71866" lon="6.53162">
        <ele>850.6</ele>
        <time>2011-11-13T08:42:33Z</time>
      </trkpt>
      <trkpt lat="43.71869" lon="6.53159">
        <ele>851.7</ele>
        <time>2011-11-13T08:42:38Z</time>
      </trkpt>
      <trkpt lat="43.71872" lon="6.53157">
        <ele>852.3</ele>
        <time>2011-11-13T08:42:43Z</time>
      </trkpt>
      <trkpt lat="43.71875" lon="6.53154">
        <ele>853.1</ele>
        <time>2011-11-13T08:42:48Z</time>
      </trkpt>
      <trkpt lat="43.71878" lon="6.53151">
        <ele>854</ele>
        <time>2011-11-13T08:42:53Z</time>
      </trkpt>
      <trkpt lat="43.71881" lon="6.53148">
        <ele>854.6</ele>
        <time>2011-11-13T08:42:58Z</time>
      </trkpt>
      <trkpt lat="43.71884" lon="6.53144">
        <ele>855.9</ele>
        <time>2011-11-13T08:43:03Z</time>
      </trkpt>
      <trkpt lat="43.71887" lon="6.53141">
        <ele>856.7</ele>
        <time>2011-11-13T08:43:08Z</time>
      </trkpt>
      <trkpt lat="43.7189" lon="6.53138">
        <ele>857.5</ele>
        <time>2011-11-13T08:43:13Z</time>
      </trkpt>
      <trkpt lat="43.71892" lon="6.53134">
        <ele>858</ele>
        <time>2011-11-13T08:43:18Z</time>
      </trkpt>
      <trkpt lat="43.71893" lon="6.53133">
        <ele>858.3</ele>
        <time>2011-11-13T08:43:19Z</time>
      </trkpt>
      <trkpt lat="43.71899" lon="6.53126">
        <ele>859.7</ele>
        <time>2011-11-13T08:43:28Z</time>
      </trkpt>
      <trkpt lat="43.71902" lon="6.53122">
        <ele>860</ele>
        <time>2011-11-13T08:43:33Z</time>
      </trkpt>
      <trkpt lat="43.71906" lon="6.53118">
        <ele>860.3</ele>
        <time>2011-11-13T08:43:38Z</time>
      </trkpt>
      <trkpt lat="43.71909" lon="6.53115">
        <ele>860.7</ele>
        <time>2011-11-13T08:43:43Z</time>
      </trkpt>
      <trkpt lat="43.71912" lon="6.53111">
        <ele>861.8</ele>
        <time>2011-11-13T08:43:48Z</time>
      </trkpt>
      <trkpt lat="43.71915" lon="6.53108">
        <ele>862.1</ele>
        <time>2011-11-13T08:43:53Z</time>
      </trkpt>
      <trkpt lat="43.71919" lon="6.53103">
        <ele>862.2</ele>
        <time>2011-11-13T08:43:58Z</time>
      </trkpt>
      <trkpt lat="43.71923" lon="6.53099">
        <ele>862.8</ele>
        <time>2011-11-13T08:44:03Z</time>
      </trkpt>
      <trkpt lat="43.71927" lon="6.53095">
        <ele>863.2</ele>
        <time>2011-11-13T08:44:08Z</time>
      </trkpt>
      <trkpt lat="43.71931" lon="6.53091">
        <ele>863.2</ele>
        <time>2011-11-13T08:44:13Z</time>
      </trkpt>
      <trkpt lat="43.71934" lon="6.53087">
        <ele>863.6</ele>
        <time>2011-11-13T08:44:18Z</time>
      </trkpt>
      <trkpt lat="43.71938" lon="6.53083">
        <ele>864</ele>
        <time>2011-11-13T08:44:23Z</time>
      </trkpt>
      <trkpt lat="43.71939" lon="6.53082">
        <ele>864.1</ele>
        <time>2011-11-13T08:44:24Z</time>
      </trkpt>
      <trkpt lat="43.71945" lon="6.53074">
        <ele>864.6</ele>
        <time>2011-11-13T08:44:33Z</time>
      </trkpt>
      <trkpt lat="43.71949" lon="6.53069">
        <ele>864.3</ele>
        <time>2011-11-13T08:44:38Z</time>
      </trkpt>
      <trkpt lat="43.71953" lon="6.53065">
        <ele>864.9</ele>
        <time>2011-11-13T08:44:43Z</time>
      </trkpt>
      <trkpt lat="43.71957" lon="6.5306">
        <ele>865.2</ele>
        <time>2011-11-13T08:44:48Z</time>
      </trkpt>
      <trkpt lat="43.71961" lon="6.53054">
        <ele>864.9</ele>
        <time>2011-11-13T08:44:53Z</time>
      </trkpt>
      <trkpt lat="43.71965" lon="6.53048">
        <ele>865.7</ele>
        <time>2011-11-13T08:44:58Z</time>
      </trkpt>
      <trkpt lat="43.71969" lon="6.53042">
        <ele>865.2</ele>
        <time>2011-11-13T08:45:03Z</time>
      </trkpt>
      <trkpt lat="43.71973" lon="6.53037">
        <ele>865.1</ele>
        <time>2011-11-13T08:45:08Z</time>
      </trkpt>
      <trkpt lat="43.71977" lon="6.53032">
        <ele>865.5</ele>
        <time>2011-11-13T08:45:13Z</time>
      </trkpt>
      <trkpt lat="43.71981" lon="6.53027">
        <ele>865.9</ele>
        <time>2011-11-13T08:45:18Z</time>
      </trkpt>
      <trkpt lat="43.71985" lon="6.53022">
        <ele>865.8</ele>
        <time>2011-11-13T08:45:23Z</time>
      </trkpt>
      <trkpt lat="43.71988" lon="6.53019">
        <ele>865.8</ele>
        <time>2011-11-13T08:45:28Z</time>
      </trkpt>
      <trkpt lat="43.71989" lon="6.53018">
        <ele>865.8</ele>
        <time>2011-11-13T08:45:29Z</time>
      </trkpt>
      <trkpt lat="43.71996" lon="6.53008">
        <ele>866.1</ele>
        <time>2011-11-13T08:45:38Z</time>
      </trkpt>
      <trkpt lat="43.72" lon="6.53004">
        <ele>866.4</ele>
        <time>2011-11-13T08:45:43Z</time>
      </trkpt>
      <trkpt lat="43.72002" lon="6.52999">
        <ele>866.5</ele>
        <time>2011-11-13T08:45:48Z</time>
      </trkpt>
      <trkpt lat="43.72005" lon="6.52995">
        <ele>866.6</ele>
        <time>2011-11-13T08:45:53Z</time>
      </trkpt>
      <trkpt lat="43.72008" lon="6.5299">
        <ele>867.3</ele>
        <time>2011-11-13T08:45:58Z</time>
      </trkpt>
      <trkpt lat="43.72011" lon="6.52985">
        <ele>867.6</ele>
        <time>2011-11-13T08:46:03Z</time>
      </trkpt>
      <trkpt lat="43.72014" lon="6.5298">
        <ele>868.2</ele>
        <time>2011-11-13T08:46:08Z</time>
      </trkpt>
      <trkpt lat="43.72017" lon="6.52974">
        <ele>868.7</ele>
        <time>2011-11-13T08:46:13Z</time>
      </trkpt>
      <trkpt lat="43.7202" lon="6.52969">
        <ele>869.4</ele>
        <time>2011-11-13T08:46:18Z</time>
      </trkpt>
      <trkpt lat="43.72023" lon="6.52963">
        <ele>870.4</ele>
        <time>2011-11-13T08:46:23Z</time>
      </trkpt>
      <trkpt lat="43.72026" lon="6.52957">
        <ele>870.5</ele>
        <time>2011-11-13T08:46:28Z</time>
      </trkpt>
      <trkpt lat="43.72029" lon="6.52951">
        <ele>871.4</ele>
        <time>2011-11-13T08:46:33Z</time>
      </trkpt>
      <trkpt lat="43.7203" lon="6.52949">
        <ele>871.6</ele>
        <time>2011-11-13T08:46:34Z</time>
      </trkpt>
      <trkpt lat="43.72035" lon="6.52939">
        <ele>872.4</ele>
        <time>2011-11-13T08:46:43Z</time>
      </trkpt>
      <trkpt lat="43.72038" lon="6.52933">
        <ele>873.8</ele>
        <time>2011-11-13T08:46:48Z</time>
      </trkpt>
      <trkpt lat="43.72041" lon="6.52926">
        <ele>874.1</ele>
        <time>2011-11-13T08:46:53Z</time>
      </trkpt>
      <trkpt lat="43.72044" lon="6.5292">
        <ele>874.5</ele>
        <time>2011-11-13T08:46:58Z</time>
      </trkpt>
      <trkpt lat="43.72049" lon="6.52912">
        <ele>875</ele>
        <time>2011-11-13T08:47:05Z</time>
      </trkpt>
      <trkpt lat="43.72052" lon="6.52907">
        <ele>876.7</ele>
        <time>2011-11-13T08:47:10Z</time>
      </trkpt>
      <trkpt lat="43.72055" lon="6.52901">
        <ele>877.1</ele>
        <time>2011-11-13T08:47:15Z</time>
      </trkpt>
      <trkpt lat="43.72059" lon="6.52895">
        <ele>877.7</ele>
        <time>2011-11-13T08:47:20Z</time>
      </trkpt>
      <trkpt lat="43.72061" lon="6.52891">
        <ele>878.9</ele>
        <time>2011-11-13T08:47:25Z</time>
      </trkpt>
      <trkpt lat="43.72064" lon="6.52886">
        <ele>879.3</ele>
        <time>2011-11-13T08:47:30Z</time>
      </trkpt>
      <trkpt lat="43.72067" lon="6.52881">
        <ele>880.1</ele>
        <time>2011-11-13T08:47:35Z</time>
      </trkpt>
      <trkpt lat="43.72068" lon="6.5288">
        <ele>879.9</ele>
        <time>2011-11-13T08:47:36Z</time>
      </trkpt>
      <trkpt lat="43.72074" lon="6.52869">
        <ele>880.9</ele>
        <time>2011-11-13T08:47:45Z</time>
      </trkpt>
      <trkpt lat="43.72077" lon="6.52862">
        <ele>881.9</ele>
        <time>2011-11-13T08:47:50Z</time>
      </trkpt>
      <trkpt lat="43.72081" lon="6.52857">
        <ele>882.7</ele>
        <time>2011-11-13T08:47:55Z</time>
      </trkpt>
      <trkpt lat="43.72083" lon="6.52851">
        <ele>883.1</ele>
        <time>2011-11-13T08:48:00Z</time>
      </trkpt>
      <trkpt lat="43.72087" lon="6.52846">
        <ele>883.4</ele>
        <time>2011-11-13T08:48:05Z</time>
      </trkpt>
      <trkpt lat="43.7209" lon="6.52842">
        <ele>884.1</ele>
        <time>2011-11-13T08:48:10Z</time>
      </trkpt>
      <trkpt lat="43.72093" lon="6.52838">
        <ele>884.2</ele>
        <time>2011-11-13T08:48:15Z</time>
      </trkpt>
      <trkpt lat="43.72096" lon="6.52834">
        <ele>884.3</ele>
        <time>2011-11-13T08:48:20Z</time>
      </trkpt>
      <trkpt lat="43.72099" lon="6.52831">
        <ele>884.7</ele>
        <time>2011-11-13T08:48:25Z</time>
      </trkpt>
      <trkpt lat="43.72104" lon="6.52828">
        <ele>885.8</ele>
        <time>2011-11-13T08:48:30Z</time>
      </trkpt>
      <trkpt lat="43.72109" lon="6.52824">
        <ele>886.2</ele>
        <time>2011-11-13T08:48:35Z</time>
      </trkpt>
      <trkpt lat="43.72114" lon="6.52821">
        <ele>886.9</ele>
        <time>2011-11-13T08:48:40Z</time>
      </trkpt>
      <trkpt lat="43.72115" lon="6.5282">
        <ele>886.9</ele>
        <time>2011-11-13T08:48:41Z</time>
      </trkpt>
      <trkpt lat="43.72122" lon="6.52814">
        <ele>887.8</ele>
        <time>2011-11-13T08:48:50Z</time>
      </trkpt>
      <trkpt lat="43.72126" lon="6.52809">
        <ele>888.5</ele>
        <time>2011-11-13T08:48:55Z</time>
      </trkpt>
      <trkpt lat="43.72129" lon="6.52804">
        <ele>889</ele>
        <time>2011-11-13T08:49:00Z</time>
      </trkpt>
      <trkpt lat="43.72132" lon="6.52799">
        <ele>889.9</ele>
        <time>2011-11-13T08:49:05Z</time>
      </trkpt>
      <trkpt lat="43.72133" lon="6.52798">
        <ele>890.1</ele>
        <time>2011-11-13T08:49:10Z</time>
      </trkpt>
      <trkpt lat="43.72134" lon="6.52797">
        <ele>890.5</ele>
        <time>2011-11-13T08:49:15Z</time>
      </trkpt>
      <trkpt lat="43.72136" lon="6.52793">
        <ele>890.7</ele>
        <time>2011-11-13T08:49:20Z</time>
      </trkpt>
      <trkpt lat="43.72137" lon="6.5279">
        <ele>890.9</ele>
        <time>2011-11-13T08:49:25Z</time>
      </trkpt>
      <trkpt lat="43.72139" lon="6.52788">
        <ele>891.1</ele>
        <time>2011-11-13T08:49:30Z</time>
      </trkpt>
      <trkpt lat="43.7214" lon="6.52789">
        <ele>891.2</ele>
        <time>2011-11-13T08:49:35Z</time>
      </trkpt>
      <trkpt lat="43.72141" lon="6.52789">
        <ele>891.3</ele>
        <time>2011-11-13T08:49:40Z</time>
      </trkpt>
      <trkpt lat="43.7214" lon="6.52788">
        <ele>890.9</ele>
        <time>2011-11-13T08:49:45Z</time>
      </trkpt>
      <trkpt lat="43.72141" lon="6.52789">
        <ele>891</ele>
        <time>2011-11-13T08:49:46Z</time>
      </trkpt>
      <trkpt lat="43.72141" lon="6.5279">
        <ele>891</ele>
        <time>2011-11-13T08:49:55Z</time>
      </trkpt>
      <trkpt lat="43.7214" lon="6.52789">
        <ele>890.4</ele>
        <time>2011-11-13T08:50:00Z</time>
      </trkpt>
      <trkpt lat="43.7214" lon="6.52788">
        <ele>890.3</ele>
        <time>2011-11-13T08:50:05Z</time>
      </trkpt>
      <trkpt lat="43.72139" lon="6.52787">
        <ele>890</ele>
        <time>2011-11-13T08:50:10Z</time>
      </trkpt>
      <trkpt lat="43.72139" lon="6.52787">
        <ele>891.1</ele>
        <time>2011-11-13T08:50:15Z</time>
      </trkpt>
      <trkpt lat="43.72139" lon="6.52788">
        <ele>891.5</ele>
        <time>2011-11-13T08:50:20Z</time>
      </trkpt>
      <trkpt lat="43.72139" lon="6.52789">
        <ele>891.8</ele>
        <time>2011-11-13T08:50:25Z</time>
      </trkpt>
      <trkpt lat="43.72138" lon="6.5279">
        <ele>891.4</ele>
        <time>2011-11-13T08:50:30Z</time>
      </trkpt>
      <trkpt lat="43.72138" lon="6.5279">
        <ele>891.5</ele>
        <time>2011-11-13T08:50:35Z</time>
      </trkpt>
      <trkpt lat="43.72139" lon="6.5279">
        <ele>891.3</ele>
        <time>2011-11-13T08:50:40Z</time>
      </trkpt>
      <trkpt lat="43.72138" lon="6.52789">
        <ele>891.6</ele>
        <time>2011-11-13T08:50:45Z</time>
      </trkpt>
      <trkpt lat="43.72138" lon="6.52789">
        <ele>891.8</ele>
        <time>2011-11-13T08:50:50Z</time>
      </trkpt>
      <trkpt lat="43.72137" lon="6.52789">
        <ele>891.7</ele>
        <time>2011-11-13T08:50:51Z</time>
      </trkpt>
      <trkpt lat="43.72137" lon="6.52788">
        <ele>891.3</ele>
        <time>2011-11-13T08:51:00Z</time>
      </trkpt>
      <trkpt lat="43.72137" lon="6.52788">
        <ele>891.9</ele>
        <time>2011-11-13T08:51:05Z</time>
      </trkpt>
      <trkpt lat="43.72137" lon="6.52787">
        <ele>891.6</ele>
        <time>2011-11-13T08:51:10Z</time>
      </trkpt>
      <trkpt lat="43.72137" lon="6.52787">
        <ele>891.6</ele>
        <time>2011-11-13T08:51:15Z</time>
      </trkpt>
      <trkpt lat="43.72137" lon="6.52787">
        <ele>891.9</ele>
        <time>2011-11-13T08:51:20Z</time>
      </trkpt>
      <trkpt lat="43.72137" lon="6.52787">
        <ele>892.2</ele>
        <time>2011-11-13T08:51:25Z</time>
      </trkpt>
      <trkpt lat="43.72137" lon="6.52787">
        <ele>891.6</ele>
        <time>2011-11-13T08:51:30Z</time>
      </trkpt>
      <trkpt lat="43.72137" lon="6.52787">
        <ele>891.7</ele>
        <time>2011-11-13T08:51:35Z</time>
      </trkpt>
      <trkpt lat="43.72137" lon="6.52786">
        <ele>891.5</ele>
        <time>2011-11-13T08:51:40Z</time>
      </trkpt>
      <trkpt lat="43.72138" lon="6.52786">
        <ele>891.6</ele>
        <time>2011-11-13T08:51:45Z</time>
      </trkpt>
      <trkpt lat="43.72137" lon="6.52786">
        <ele>891.8</ele>
        <time>2011-11-13T08:51:50Z</time>
      </trkpt>
      <trkpt lat="43.72136" lon="6.52787">
        <ele>891.8</ele>
        <time>2011-11-13T08:51:55Z</time>
      </trkpt>
      <trkpt lat="43.72136" lon="6.52787">
        <ele>891.9</ele>
        <time>2011-11-13T08:51:56Z</time>
      </trkpt>
      <trkpt lat="43.72137" lon="6.52787">
        <ele>892.4</ele>
        <time>2011-11-13T08:52:05Z</time>
      </trkpt>
      <trkpt lat="43.72137" lon="6.52787">
        <ele>891.9</ele>
        <time>2011-11-13T08:52:10Z</time>
      </trkpt>
      <trkpt lat="43.72138" lon="6.52788">
        <ele>891.9</ele>
        <time>2011-11-13T08:52:15Z</time>
      </trkpt>
      <trkpt lat="43.72138" lon="6.52789">
        <ele>891.7</ele>
        <time>2011-11-13T08:52:20Z</time>
      </trkpt>
      <trkpt lat="43.72138" lon="6.5279">
        <ele>899.5</ele>
        <time>2011-11-13T08:52:25Z</time>
      </trkpt>
      <trkpt lat="43.72139" lon="6.5279">
        <ele>916.2</ele>
        <time>2011-11-13T08:52:30Z</time>
      </trkpt>
      <trkpt lat="43.72139" lon="6.52789">
        <ele>920.1</ele>
        <time>2011-11-13T08:52:35Z</time>
      </trkpt>
      <trkpt lat="43.7214" lon="6.52788">
        <ele>921.1</ele>
        <time>2011-11-13T08:52:40Z</time>
      </trkpt>
      <trkpt lat="43.7214" lon="6.52788">
        <ele>921.4</ele>
        <time>2011-11-13T08:52:45Z</time>
      </trkpt>
      <trkpt lat="43.72142" lon="6.52786">
        <ele>921.5</ele>
        <time>2011-11-13T08:52:50Z</time>
      </trkpt>
      <trkpt lat="43.72144" lon="6.52784">
        <ele>921.8</ele>
        <time>2011-11-13T08:52:55Z</time>
      </trkpt>
      <trkpt lat="43.72144" lon="6.52783">
        <ele>921.9</ele>
        <time>2011-11-13T08:53:00Z</time>
      </trkpt>
      <trkpt lat="43.72144" lon="6.52784">
        <ele>921.7</ele>
        <time>2011-11-13T08:53:01Z</time>
      </trkpt>
      <trkpt lat="43.72144" lon="6.52784">
        <ele>922.1</ele>
        <time>2011-11-13T08:53:10Z</time>
      </trkpt>
      <trkpt lat="43.72144" lon="6.52784">
        <ele>921.2</ele>
        <time>2011-11-13T08:53:15Z</time>
      </trkpt>
      <trkpt lat="43.72144" lon="6.52784">
        <ele>921.5</ele>
        <time>2011-11-13T08:53:20Z</time>
      </trkpt>
      <trkpt lat="43.72143" lon="6.52784">
        <ele>921.4</ele>
        <time>2011-11-13T08:53:25Z</time>
      </trkpt>
      <trkpt lat="43.72143" lon="6.52785">
        <ele>921.5</ele>
        <time>2011-11-13T08:53:30Z</time>
      </trkpt>
      <trkpt lat="43.72144" lon="6.52786">
        <ele>921.3</ele>
        <time>2011-11-13T08:53:35Z</time>
      </trkpt>
      <trkpt lat="43.72144" lon="6.52785">
        <ele>921.2</ele>
        <time>2011-11-13T08:53:40Z</time>
      </trkpt>
      <trkpt lat="43.72143" lon="6.52785">
        <ele>921.4</ele>
        <time>2011-11-13T08:53:45Z</time>
      </trkpt>
      <trkpt lat="43.72143" lon="6.52785">
        <ele>921.6</ele>
        <time>2011-11-13T08:53:50Z</time>
      </trkpt>
      <trkpt lat="43.72142" lon="6.52783">
        <ele>921</ele>
        <time>2011-11-13T08:53:55Z</time>
      </trkpt>
      <trkpt lat="43.72141" lon="6.52782">
        <ele>921.4</ele>
        <time>2011-11-13T08:54:00Z</time>
      </trkpt>
      <trkpt lat="43.72141" lon="6.52782">
        <ele>921.5</ele>
        <time>2011-11-13T08:54:05Z</time>
      </trkpt>
      <trkpt lat="43.7214" lon="6.52782">
        <ele>921.6</ele>
        <time>2011-11-13T08:54:06Z</time>
      </trkpt>
      <trkpt lat="43.7214" lon="6.52782">
        <ele>921.4</ele>
        <time>2011-11-13T08:54:15Z</time>
      </trkpt>
      <trkpt lat="43.7214" lon="6.52781">
        <ele>922.2</ele>
        <time>2011-11-13T08:54:20Z</time>
      </trkpt>
      <trkpt lat="43.72141" lon="6.5278">
        <ele>921.9</ele>
        <time>2011-11-13T08:54:25Z</time>
      </trkpt>
      <trkpt lat="43.72141" lon="6.5278">
        <ele>922.3</ele>
        <time>2011-11-13T08:54:30Z</time>
      </trkpt>
      <trkpt lat="43.72141" lon="6.52781">
        <ele>922.1</ele>
        <time>2011-11-13T08:54:35Z</time>
      </trkpt>
      <trkpt lat="43.72141" lon="6.5278">
        <ele>922.2</ele>
        <time>2011-11-13T08:54:40Z</time>
      </trkpt>
      <trkpt lat="43.72141" lon="6.5278">
        <ele>922.1</ele>
        <time>2011-11-13T08:54:45Z</time>
      </trkpt>
      <trkpt lat="43.7214" lon="6.52782">
        <ele>921.9</ele>
        <time>2011-11-13T08:54:50Z</time>
      </trkpt>
      <trkpt lat="43.7214" lon="6.52782">
        <ele>921.8</ele>
        <time>2011-11-13T08:54:55Z</time>
      </trkpt>
      <trkpt lat="43.72139" lon="6.52783">
        <ele>921.9</ele>
        <time>2011-11-13T08:55:00Z</time>
      </trkpt>
      <trkpt lat="43.7214" lon="6.52784">
        <ele>922.3</ele>
        <time>2011-11-13T08:55:05Z</time>
      </trkpt>
      <trkpt lat="43.72139" lon="6.52784">
        <ele>921.9</ele>
        <time>2011-11-13T08:55:10Z</time>
      </trkpt>
      <trkpt lat="43.72139" lon="6.52784">
        <ele>921.9</ele>
        <time>2011-11-13T08:55:11Z</time>
      </trkpt>
      <trkpt lat="43.72139" lon="6.52782">
        <ele>922.3</ele>
        <time>2011-11-13T08:55:20Z</time>
      </trkpt>
      <trkpt lat="43.72138" lon="6.52782">
        <ele>922.2</ele>
        <time>2011-11-13T08:55:25Z</time>
      </trkpt>
      <trkpt lat="43.72138" lon="6.52782">
        <ele>922.1</ele>
        <time>2011-11-13T08:55:30Z</time>
      </trkpt>
      <trkpt lat="43.72139" lon="6.52783">
        <ele>921.7</ele>
        <time>2011-11-13T08:55:35Z</time>
      </trkpt>
      <trkpt lat="43.72139" lon="6.52783">
        <ele>922.3</ele>
        <time>2011-11-13T08:55:40Z</time>
      </trkpt>
      <trkpt lat="43.72141" lon="6.52782">
        <ele>922.2</ele>
        <time>2011-11-13T08:55:45Z</time>
      </trkpt>
      <trkpt lat="43.72143" lon="6.52779">
        <ele>922.5</ele>
        <time>2011-11-13T08:55:50Z</time>
      </trkpt>
      <trkpt lat="43.72144" lon="6.52776">
        <ele>922.8</ele>
        <time>2011-11-13T08:55:55Z</time>
      </trkpt>
      <trkpt lat="43.72146" lon="6.52774">
        <ele>923</ele>
        <time>2011-11-13T08:56:00Z</time>
      </trkpt>
      <trkpt lat="43.72148" lon="6.52771">
        <ele>923.8</ele>
        <time>2011-11-13T08:56:05Z</time>
      </trkpt>
      <trkpt lat="43.72149" lon="6.52768">
        <ele>924.1</ele>
        <time>2011-11-13T08:56:10Z</time>
      </trkpt>
      <trkpt lat="43.72152" lon="6.52764">
        <ele>924.6</ele>
        <time>2011-11-13T08:56:15Z</time>
      </trkpt>
      <trkpt lat="43.72153" lon="6.52764">
        <ele>924.5</ele>
        <time>2011-11-13T08:56:16Z</time>
      </trkpt>
      <trkpt lat="43.72159" lon="6.52759">
        <ele>925.3</ele>
        <time>2011-11-13T08:56:25Z</time>
      </trkpt>
      <trkpt lat="43.72161" lon="6.52757">
        <ele>925.7</ele>
        <time>2011-11-13T08:56:30Z</time>
      </trkpt>
      <trkpt lat="43.72165" lon="6.52754">
        <ele>926.1</ele>
        <time>2011-11-13T08:56:35Z</time>
      </trkpt>
      <trkpt lat="43.72168" lon="6.52751">
        <ele>926.5</ele>
        <time>2011-11-13T08:56:40Z</time>
      </trkpt>
      <trkpt lat="43.72172" lon="6.52747">
        <ele>927</ele>
        <time>2011-11-13T08:56:45Z</time>
      </trkpt>
      <trkpt lat="43.72175" lon="6.52745">
        <ele>927.8</ele>
        <time>2011-11-13T08:56:50Z</time>
      </trkpt>
      <trkpt lat="43.72179" lon="6.52742">
        <ele>928</ele>
        <time>2011-11-13T08:56:55Z</time>
      </trkpt>
      <trkpt lat="43.72182" lon="6.5274">
        <ele>929.4</ele>
        <time>2011-11-13T08:57:00Z</time>
      </trkpt>
      <trkpt lat="43.72185" lon="6.52737">
        <ele>929.9</ele>
        <time>2011-11-13T08:57:05Z</time>
      </trkpt>
      <trkpt lat="43.72189" lon="6.52735">
        <ele>930.2</ele>
        <time>2011-11-13T08:57:10Z</time>
      </trkpt>
      <trkpt lat="43.72193" lon="6.52732">
        <ele>930.3</ele>
        <time>2011-11-13T08:57:15Z</time>
      </trkpt>
      <trkpt lat="43.72197" lon="6.5273">
        <ele>931.9</ele>
        <time>2011-11-13T08:57:20Z</time>
      </trkpt>
      <trkpt lat="43.72198" lon="6.5273">
        <ele>931.7</ele>
        <time>2011-11-13T08:57:21Z</time>
      </trkpt>
      <trkpt lat="43.72205" lon="6.52724">
        <ele>932.2</ele>
        <time>2011-11-13T08:57:30Z</time>
      </trkpt>
      <trkpt lat="43.72211" lon="6.52722">
        <ele>932.6</ele>
        <time>2011-11-13T08:57:35Z</time>
      </trkpt>
      <trkpt lat="43.72215" lon="6.52719">
        <ele>932.5</ele>
        <time>2011-11-13T08:57:40Z</time>
      </trkpt>
      <trkpt lat="43.7222" lon="6.52715">
        <ele>932.9</ele>
        <time>2011-11-13T08:57:45Z</time>
      </trkpt>
      <trkpt lat="43.72225" lon="6.52712">
        <ele>932.9</ele>
        <time>2011-11-13T08:57:50Z</time>
      </trkpt>
      <trkpt lat="43.7223" lon="6.5271">
        <ele>933</ele>
        <time>2011-11-13T08:57:55Z</time>
      </trkpt>
      <trkpt lat="43.72235" lon="6.52708">
        <ele>933.3</ele>
        <time>2011-11-13T08:58:00Z</time>
      </trkpt>
      <trkpt lat="43.7224" lon="6.52705">
        <ele>933.5</ele>
        <time>2011-11-13T08:58:05Z</time>
      </trkpt>
      <trkpt lat="43.72245" lon="6.52701">
        <ele>933.6</ele>
        <time>2011-11-13T08:58:10Z</time>
      </trkpt>
      <trkpt lat="43.7225" lon="6.52697">
        <ele>933.5</ele>
        <time>2011-11-13T08:58:15Z</time>
      </trkpt>
      <trkpt lat="43.72255" lon="6.52696">
        <ele>933.8</ele>
        <time>2011-11-13T08:58:20Z</time>
      </trkpt>
      <trkpt lat="43.7226" lon="6.52696">
        <ele>934.1</ele>
        <time>2011-11-13T08:58:25Z</time>
      </trkpt>
      <trkpt lat="43.72261" lon="6.52696">
        <ele>933.9</ele>
        <time>2011-11-13T08:58:26Z</time>
      </trkpt>
      <trkpt lat="43.72269" lon="6.52698">
        <ele>934.6</ele>
        <time>2011-11-13T08:58:35Z</time>
      </trkpt>
      <trkpt lat="43.72273" lon="6.527">
        <ele>934.1</ele>
        <time>2011-11-13T08:58:40Z</time>
      </trkpt>
      <trkpt lat="43.72277" lon="6.52703">
        <ele>934.6</ele>
        <time>2011-11-13T08:58:45Z</time>
      </trkpt>
      <trkpt lat="43.7228" lon="6.52706">
        <ele>934.9</ele>
        <time>2011-11-13T08:58:50Z</time>
      </trkpt>
      <trkpt lat="43.72283" lon="6.5271">
        <ele>935.2</ele>
        <time>2011-11-13T08:58:55Z</time>
      </trkpt>
      <trkpt lat="43.72285" lon="6.52715">
        <ele>935.7</ele>
        <time>2011-11-13T08:59:00Z</time>
      </trkpt>
      <trkpt lat="43.72288" lon="6.52719">
        <ele>935.9</ele>
        <time>2011-11-13T08:59:05Z</time>
      </trkpt>
      <trkpt lat="43.72291" lon="6.52723">
        <ele>936.4</ele>
        <time>2011-11-13T08:59:10Z</time>
      </trkpt>
      <trkpt lat="43.72293" lon="6.52728">
        <ele>936.5</ele>
        <time>2011-11-13T08:59:15Z</time>
      </trkpt>
      <trkpt lat="43.72296" lon="6.52733">
        <ele>937</ele>
        <time>2011-11-13T08:59:20Z</time>
      </trkpt>
      <trkpt lat="43.72298" lon="6.52739">
        <ele>937.5</ele>
        <time>2011-11-13T08:59:25Z</time>
      </trkpt>
      <trkpt lat="43.72302" lon="6.52743">
        <ele>938.1</ele>
        <time>2011-11-13T08:59:30Z</time>
      </trkpt>
      <trkpt lat="43.72303" lon="6.52744">
        <ele>938.3</ele>
        <time>2011-11-13T08:59:31Z</time>
      </trkpt>
      <trkpt lat="43.72312" lon="6.52751">
        <ele>939.3</ele>
        <time>2011-11-13T08:59:40Z</time>
      </trkpt>
      <trkpt lat="43.72316" lon="6.52753">
        <ele>938.8</ele>
        <time>2011-11-13T08:59:45Z</time>
      </trkpt>
      <trkpt lat="43.7232" lon="6.52755">
        <ele>938.3</ele>
        <time>2011-11-13T08:59:50Z</time>
      </trkpt>
      <trkpt lat="43.72325" lon="6.52758">
        <ele>938.2</ele>
        <time>2011-11-13T08:59:55Z</time>
      </trkpt>
      <trkpt lat="43.7233" lon="6.5276">
        <ele>938.4</ele>
        <time>2011-11-13T09:00:00Z</time>
      </trkpt>
      <trkpt lat="43.72335" lon="6.52761">
        <ele>938</ele>
        <time>2011-11-13T09:00:05Z</time>
      </trkpt>
      <trkpt lat="43.72341" lon="6.52761">
        <ele>938.2</ele>
        <time>2011-11-13T09:00:10Z</time>
      </trkpt>
      <trkpt lat="43.72346" lon="6.52759">
        <ele>937.3</ele>
        <time>2011-11-13T09:00:15Z</time>
      </trkpt>
      <trkpt lat="43.72352" lon="6.52757">
        <ele>938.1</ele>
        <time>2011-11-13T09:00:20Z</time>
      </trkpt>
      <trkpt lat="43.72356" lon="6.52754">
        <ele>938.4</ele>
        <time>2011-11-13T09:00:25Z</time>
      </trkpt>
      <trkpt lat="43.72361" lon="6.5275">
        <ele>938.4</ele>
        <time>2011-11-13T09:00:30Z</time>
      </trkpt>
      <trkpt lat="43.72366" lon="6.52746">
        <ele>938</ele>
        <time>2011-11-13T09:00:35Z</time>
      </trkpt>
      <trkpt lat="43.72367" lon="6.52744">
        <ele>938.2</ele>
        <time>2011-11-13T09:00:36Z</time>
      </trkpt>
      <trkpt lat="43.72372" lon="6.52734">
        <ele>938.3</ele>
        <time>2011-11-13T09:00:45Z</time>
      </trkpt>
      <trkpt lat="43.72374" lon="6.52729">
        <ele>937.5</ele>
        <time>2011-11-13T09:00:50Z</time>
      </trkpt>
      <trkpt lat="43.72377" lon="6.52724">
        <ele>937</ele>
        <time>2011-11-13T09:00:55Z</time>
      </trkpt>
      <trkpt lat="43.72378" lon="6.52718">
        <ele>936.6</ele>
        <time>2011-11-13T09:01:00Z</time>
      </trkpt>
      <trkpt lat="43.72381" lon="6.52714">
        <ele>936.2</ele>
        <time>2011-11-13T09:01:05Z</time>
      </trkpt>
      <trkpt lat="43.72383" lon="6.52711">
        <ele>935.2</ele>
        <time>2011-11-13T09:01:10Z</time>
      </trkpt>
      <trkpt lat="43.72385" lon="6.52708">
        <ele>934.7</ele>
        <time>2011-11-13T09:01:15Z</time>
      </trkpt>
      <trkpt lat="43.72387" lon="6.52707">
        <ele>933.6</ele>
        <time>2011-11-13T09:01:20Z</time>
      </trkpt>
      <trkpt lat="43.7239" lon="6.52707">
        <ele>933.8</ele>
        <time>2011-11-13T09:01:25Z</time>
      </trkpt>
      <trkpt lat="43.72391" lon="6.52709">
        <ele>933.7</ele>
        <time>2011-11-13T09:01:30Z</time>
      </trkpt>
      <trkpt lat="43.72393" lon="6.52713">
        <ele>933.5</ele>
        <time>2011-11-13T09:01:35Z</time>
      </trkpt>
      <trkpt lat="43.72395" lon="6.52717">
        <ele>934.2</ele>
        <time>2011-11-13T09:01:40Z</time>
      </trkpt>
      <trkpt lat="43.72396" lon="6.52718">
        <ele>934.5</ele>
        <time>2011-11-13T09:01:41Z</time>
      </trkpt>
      <trkpt lat="43.72401" lon="6.52724">
        <ele>935.5</ele>
        <time>2011-11-13T09:01:50Z</time>
      </trkpt>
      <trkpt lat="43.72405" lon="6.52728">
        <ele>935.9</ele>
        <time>2011-11-13T09:01:55Z</time>
      </trkpt>
      <trkpt lat="43.72409" lon="6.5273">
        <ele>936.1</ele>
        <time>2011-11-13T09:02:00Z</time>
      </trkpt>
      <trkpt lat="43.72413" lon="6.52733">
        <ele>937.2</ele>
        <time>2011-11-13T09:02:05Z</time>
      </trkpt>
      <trkpt lat="43.72417" lon="6.52736">
        <ele>937.2</ele>
        <time>2011-11-13T09:02:10Z</time>
      </trkpt>
      <trkpt lat="43.72421" lon="6.52738">
        <ele>937.7</ele>
        <time>2011-11-13T09:02:15Z</time>
      </trkpt>
      <trkpt lat="43.72424" lon="6.52739">
        <ele>938.1</ele>
        <time>2011-11-13T09:02:20Z</time>
      </trkpt>
      <trkpt lat="43.72429" lon="6.52742">
        <ele>938.9</ele>
        <time>2011-11-13T09:02:25Z</time>
      </trkpt>
      <trkpt lat="43.72433" lon="6.52744">
        <ele>939.9</ele>
        <time>2011-11-13T09:02:30Z</time>
      </trkpt>
      <trkpt lat="43.72437" lon="6.52746">
        <ele>940.6</ele>
        <time>2011-11-13T09:02:35Z</time>
      </trkpt>
      <trkpt lat="43.72441" lon="6.52748">
        <ele>940.9</ele>
        <time>2011-11-13T09:02:40Z</time>
      </trkpt>
      <trkpt lat="43.72446" lon="6.52751">
        <ele>942.2</ele>
        <time>2011-11-13T09:02:45Z</time>
      </trkpt>
      <trkpt lat="43.72447" lon="6.52752">
        <ele>942.7</ele>
        <time>2011-11-13T09:02:46Z</time>
      </trkpt>
      <trkpt lat="43.72455" lon="6.52757">
        <ele>944</ele>
        <time>2011-11-13T09:02:55Z</time>
      </trkpt>
      <trkpt lat="43.72459" lon="6.52759">
        <ele>944.7</ele>
        <time>2011-11-13T09:03:00Z</time>
      </trkpt>
      <trkpt lat="43.72463" lon="6.52762">
        <ele>945.3</ele>
        <time>2011-11-13T09:03:05Z</time>
      </trkpt>
      <trkpt lat="43.72468" lon="6.52765">
        <ele>945.9</ele>
        <time>2011-11-13T09:03:10Z</time>
      </trkpt>
      <trkpt lat="43.72473" lon="6.52767">
        <ele>946.6</ele>
        <time>2011-11-13T09:03:15Z</time>
      </trkpt>
      <trkpt lat="43.72477" lon="6.5277">
        <ele>947.5</ele>
        <time>2011-11-13T09:03:20Z</time>
      </trkpt>
      <trkpt lat="43.72482" lon="6.52772">
        <ele>948.4</ele>
        <time>2011-11-13T09:03:25Z</time>
      </trkpt>
      <trkpt lat="43.72487" lon="6.52774">
        <ele>949.4</ele>
        <time>2011-11-13T09:03:30Z</time>
      </trkpt>
      <trkpt lat="43.72493" lon="6.52775">
        <ele>949.9</ele>
        <time>2011-11-13T09:03:35Z</time>
      </trkpt>
      <trkpt lat="43.72498" lon="6.52775">
        <ele>950.7</ele>
        <time>2011-11-13T09:03:40Z</time>
      </trkpt>
      <trkpt lat="43.72503" lon="6.52775">
        <ele>950.6</ele>
        <time>2011-11-13T09:03:45Z</time>
      </trkpt>
      <trkpt lat="43.72508" lon="6.52776">
        <ele>950.6</ele>
        <time>2011-11-13T09:03:50Z</time>
      </trkpt>
      <trkpt lat="43.72509" lon="6.52776">
        <ele>950.9</ele>
        <time>2011-11-13T09:03:51Z</time>
      </trkpt>
      <trkpt lat="43.72518" lon="6.52778">
        <ele>952</ele>
        <time>2011-11-13T09:04:00Z</time>
      </trkpt>
      <trkpt lat="43.72523" lon="6.52779">
        <ele>953.1</ele>
        <time>2011-11-13T09:04:05Z</time>
      </trkpt>
      <trkpt lat="43.72528" lon="6.52782">
        <ele>953.5</ele>
        <time>2011-11-13T09:04:10Z</time>
      </trkpt>
      <trkpt lat="43.72532" lon="6.52786">
        <ele>954.7</ele>
        <time>2011-11-13T09:04:15Z</time>
      </trkpt>
      <trkpt lat="43.72536" lon="6.5279">
        <ele>955.4</ele>
        <time>2011-11-13T09:04:20Z</time>
      </trkpt>
      <trkpt lat="43.7254" lon="6.52793">
        <ele>956.3</ele>
        <time>2011-11-13T09:04:25Z</time>
      </trkpt>
      <trkpt lat="43.72544" lon="6.52796">
        <ele>956.5</ele>
        <time>2011-11-13T09:04:30Z</time>
      </trkpt>
      <trkpt lat="43.72548" lon="6.52798">
        <ele>957.6</ele>
        <time>2011-11-13T09:04:35Z</time>
      </trkpt>
      <trkpt lat="43.72552" lon="6.52798">
        <ele>958.1</ele>
        <time>2011-11-13T09:04:40Z</time>
      </trkpt>
      <trkpt lat="43.72554" lon="6.52797">
        <ele>959.6</ele>
        <time>2011-11-13T09:04:45Z</time>
      </trkpt>
      <trkpt lat="43.72556" lon="6.52794">
        <ele>959.5</ele>
        <time>2011-11-13T09:04:50Z</time>
      </trkpt>
      <trkpt lat="43.72558" lon="6.5279">
        <ele>960.1</ele>
        <time>2011-11-13T09:04:55Z</time>
      </trkpt>
      <trkpt lat="43.72558" lon="6.52789">
        <ele>959.9</ele>
        <time>2011-11-13T09:04:56Z</time>
      </trkpt>
      <trkpt lat="43.72562" lon="6.52777">
        <ele>962</ele>
        <time>2011-11-13T09:05:05Z</time>
      </trkpt>
      <trkpt lat="43.72562" lon="6.5277">
        <ele>961.8</ele>
        <time>2011-11-13T09:05:10Z</time>
      </trkpt>
      <trkpt lat="43.72563" lon="6.52763">
        <ele>961.4</ele>
        <time>2011-11-13T09:05:15Z</time>
      </trkpt>
      <trkpt lat="43.72564" lon="6.52753">
        <ele>960.7</ele>
        <time>2011-11-13T09:05:20Z</time>
      </trkpt>
      <trkpt lat="43.72565" lon="6.52745">
        <ele>961.4</ele>
        <time>2011-11-13T09:05:25Z</time>
      </trkpt>
      <trkpt lat="43.72568" lon="6.52739">
        <ele>960.7</ele>
        <time>2011-11-13T09:05:30Z</time>
      </trkpt>
      <trkpt lat="43.72573" lon="6.52738">
        <ele>961.9</ele>
        <time>2011-11-13T09:05:35Z</time>
      </trkpt>
      <trkpt lat="43.72579" lon="6.52739">
        <ele>962.9</ele>
        <time>2011-11-13T09:05:40Z</time>
      </trkpt>
      <trkpt lat="43.72584" lon="6.52737">
        <ele>962.7</ele>
        <time>2011-11-13T09:05:45Z</time>
      </trkpt>
      <trkpt lat="43.72587" lon="6.52734">
        <ele>962.9</ele>
        <time>2011-11-13T09:05:50Z</time>
      </trkpt>
      <trkpt lat="43.72591" lon="6.52732">
        <ele>963.2</ele>
        <time>2011-11-13T09:05:55Z</time>
      </trkpt>
      <trkpt lat="43.72593" lon="6.52731">
        <ele>963.8</ele>
        <time>2011-11-13T09:06:00Z</time>
      </trkpt>
      <trkpt lat="43.72593" lon="6.52732">
        <ele>963.5</ele>
        <time>2011-11-13T09:06:01Z</time>
      </trkpt>
      <trkpt lat="43.72596" lon="6.52732">
        <ele>963.8</ele>
        <time>2011-11-13T09:06:10Z</time>
      </trkpt>
      <trkpt lat="43.72598" lon="6.52732">
        <ele>962.6</ele>
        <time>2011-11-13T09:06:15Z</time>
      </trkpt>
      <trkpt lat="43.726" lon="6.52732">
        <ele>963.1</ele>
        <time>2011-11-13T09:06:20Z</time>
      </trkpt>
      <trkpt lat="43.72602" lon="6.52732">
        <ele>962.7</ele>
        <time>2011-11-13T09:06:25Z</time>
      </trkpt>
      <trkpt lat="43.72606" lon="6.52731">
        <ele>961.8</ele>
        <time>2011-11-13T09:06:30Z</time>
      </trkpt>
      <trkpt lat="43.7261" lon="6.52729">
        <ele>961.1</ele>
        <time>2011-11-13T09:06:35Z</time>
      </trkpt>
      <trkpt lat="43.72613" lon="6.52727">
        <ele>962.2</ele>
        <time>2011-11-13T09:06:40Z</time>
      </trkpt>
      <trkpt lat="43.72616" lon="6.52725">
        <ele>962.2</ele>
        <time>2011-11-13T09:06:45Z</time>
      </trkpt>
      <trkpt lat="43.72619" lon="6.52721">
        <ele>960.9</ele>
        <time>2011-11-13T09:06:50Z</time>
      </trkpt>
      <trkpt lat="43.72623" lon="6.52718">
        <ele>959.9</ele>
        <time>2011-11-13T09:06:55Z</time>
      </trkpt>
      <trkpt lat="43.72625" lon="6.52716">
        <ele>959.5</ele>
        <time>2011-11-13T09:07:00Z</time>
      </trkpt>
      <trkpt lat="43.72628" lon="6.52713">
        <ele>958.5</ele>
        <time>2011-11-13T09:07:05Z</time>
      </trkpt>
      <trkpt lat="43.72628" lon="6.52713">
        <ele>958.4</ele>
        <time>2011-11-13T09:07:06Z</time>
      </trkpt>
      <trkpt lat="43.72633" lon="6.52707">
        <ele>956.7</ele>
        <time>2011-11-13T09:07:15Z</time>
      </trkpt>
      <trkpt lat="43.72636" lon="6.52704">
        <ele>956.4</ele>
        <time>2011-11-13T09:07:20Z</time>
      </trkpt>
      <trkpt lat="43.72639" lon="6.527">
        <ele>956.1</ele>
        <time>2011-11-13T09:07:25Z</time>
      </trkpt>
      <trkpt lat="43.72642" lon="6.52696">
        <ele>955.1</ele>
        <time>2011-11-13T09:07:30Z</time>
      </trkpt>
      <trkpt lat="43.72645" lon="6.52692">
        <ele>954.9</ele>
        <time>2011-11-13T09:07:35Z</time>
      </trkpt>
      <trkpt lat="43.72649" lon="6.52687">
        <ele>953.7</ele>
        <time>2011-11-13T09:07:40Z</time>
      </trkpt>
      <trkpt lat="43.72652" lon="6.52682">
        <ele>954.1</ele>
        <time>2011-11-13T09:07:45Z</time>
      </trkpt>
      <trkpt lat="43.72655" lon="6.52677">
        <ele>953.4</ele>
        <time>2011-11-13T09:07:50Z</time>
      </trkpt>
      <trkpt lat="43.72659" lon="6.52673">
        <ele>952.8</ele>
        <time>2011-11-13T09:07:55Z</time>
      </trkpt>
      <trkpt lat="43.72662" lon="6.52671">
        <ele>952.6</ele>
        <time>2011-11-13T09:08:00Z</time>
      </trkpt>
      <trkpt lat="43.72665" lon="6.52667">
        <ele>952</ele>
        <time>2011-11-13T09:08:05Z</time>
      </trkpt>
      <trkpt lat="43.72669" lon="6.52664">
        <ele>951.4</ele>
        <time>2011-11-13T09:08:10Z</time>
      </trkpt>
      <trkpt lat="43.72669" lon="6.52663">
        <ele>951.4</ele>
        <time>2011-11-13T09:08:11Z</time>
      </trkpt>
      <trkpt lat="43.72678" lon="6.52656">
        <ele>950.1</ele>
        <time>2011-11-13T09:08:20Z</time>
      </trkpt>
      <trkpt lat="43.72682" lon="6.52654">
        <ele>949.3</ele>
        <time>2011-11-13T09:08:25Z</time>
      </trkpt>
      <trkpt lat="43.72686" lon="6.52651">
        <ele>948.8</ele>
        <time>2011-11-13T09:08:30Z</time>
      </trkpt>
      <trkpt lat="43.7269" lon="6.52649">
        <ele>948.2</ele>
        <time>2011-11-13T09:08:35Z</time>
      </trkpt>
      <trkpt lat="43.72691" lon="6.52646">
        <ele>948.4</ele>
        <time>2011-11-13T09:08:40Z</time>
      </trkpt>
      <trkpt lat="43.72695" lon="6.52643">
        <ele>948.5</ele>
        <time>2011-11-13T09:08:45Z</time>
      </trkpt>
      <trkpt lat="43.72698" lon="6.5264">
        <ele>948.6</ele>
        <time>2011-11-13T09:08:50Z</time>
      </trkpt>
      <trkpt lat="43.72702" lon="6.52636">
        <ele>949</ele>
        <time>2011-11-13T09:08:55Z</time>
      </trkpt>
      <trkpt lat="43.72706" lon="6.52632">
        <ele>950</ele>
        <time>2011-11-13T09:09:00Z</time>
      </trkpt>
      <trkpt lat="43.7271" lon="6.52629">
        <ele>950.6</ele>
        <time>2011-11-13T09:09:05Z</time>
      </trkpt>
      <trkpt lat="43.72713" lon="6.52625">
        <ele>950.6</ele>
        <time>2011-11-13T09:09:10Z</time>
      </trkpt>
      <trkpt lat="43.72716" lon="6.5262">
        <ele>950.6</ele>
        <time>2011-11-13T09:09:15Z</time>
      </trkpt>
      <trkpt lat="43.72717" lon="6.52619">
        <ele>950.6</ele>
        <time>2011-11-13T09:09:16Z</time>
      </trkpt>
      <trkpt lat="43.72723" lon="6.52612">
        <ele>951.2</ele>
        <time>2011-11-13T09:09:25Z</time>
      </trkpt>
      <trkpt lat="43.72726" lon="6.52606">
        <ele>951.7</ele>
        <time>2011-11-13T09:09:30Z</time>
      </trkpt>
      <trkpt lat="43.7273" lon="6.52603">
        <ele>951.8</ele>
        <time>2011-11-13T09:09:35Z</time>
      </trkpt>
      <trkpt lat="43.72733" lon="6.52598">
        <ele>951.7</ele>
        <time>2011-11-13T09:09:40Z</time>
      </trkpt>
      <trkpt lat="43.72737" lon="6.52592">
        <ele>951.1</ele>
        <time>2011-11-13T09:09:45Z</time>
      </trkpt>
      <trkpt lat="43.7274" lon="6.52588">
        <ele>951.3</ele>
        <time>2011-11-13T09:09:50Z</time>
      </trkpt>
      <trkpt lat="43.72744" lon="6.52582">
        <ele>951.9</ele>
        <time>2011-11-13T09:09:55Z</time>
      </trkpt>
      <trkpt lat="43.72749" lon="6.52579">
        <ele>951.3</ele>
        <time>2011-11-13T09:10:00Z</time>
      </trkpt>
      <trkpt lat="43.72752" lon="6.52574">
        <ele>951.2</ele>
        <time>2011-11-13T09:10:05Z</time>
      </trkpt>
      <trkpt lat="43.72756" lon="6.52569">
        <ele>951.8</ele>
        <time>2011-11-13T09:10:10Z</time>
      </trkpt>
      <trkpt lat="43.72759" lon="6.52563">
        <ele>951.6</ele>
        <time>2011-11-13T09:10:15Z</time>
      </trkpt>
      <trkpt lat="43.72762" lon="6.52556">
        <ele>951</ele>
        <time>2011-11-13T09:10:20Z</time>
      </trkpt>
      <trkpt lat="43.72763" lon="6.52555">
        <ele>950.8</ele>
        <time>2011-11-13T09:10:21Z</time>
      </trkpt>
      <trkpt lat="43.72767" lon="6.52543">
        <ele>951.1</ele>
        <time>2011-11-13T09:10:30Z</time>
      </trkpt>
      <trkpt lat="43.72768" lon="6.52536">
        <ele>951</ele>
        <time>2011-11-13T09:10:35Z</time>
      </trkpt>
      <trkpt lat="43.7277" lon="6.52528">
        <ele>951.4</ele>
        <time>2011-11-13T09:10:40Z</time>
      </trkpt>
      <trkpt lat="43.72771" lon="6.52521">
        <ele>951.9</ele>
        <time>2011-11-13T09:10:45Z</time>
      </trkpt>
      <trkpt lat="43.72773" lon="6.52515">
        <ele>953.2</ele>
        <time>2011-11-13T09:10:50Z</time>
      </trkpt>
      <trkpt lat="43.72774" lon="6.52508">
        <ele>953</ele>
        <time>2011-11-13T09:10:55Z</time>
      </trkpt>
      <trkpt lat="43.72775" lon="6.52502">
        <ele>953.7</ele>
        <time>2011-11-13T09:11:00Z</time>
      </trkpt>
      <trkpt lat="43.72778" lon="6.52499">
        <ele>954.3</ele>
        <time>2011-11-13T09:11:05Z</time>
      </trkpt>
      <trkpt lat="43.72781" lon="6.52492">
        <ele>954.8</ele>
        <time>2011-11-13T09:11:10Z</time>
      </trkpt>
      <trkpt lat="43.72784" lon="6.52485">
        <ele>955.5</ele>
        <time>2011-11-13T09:11:15Z</time>
      </trkpt>
      <trkpt lat="43.72786" lon="6.5248">
        <ele>955.9</ele>
        <time>2011-11-13T09:11:20Z</time>
      </trkpt>
      <trkpt lat="43.72787" lon="6.52474">
        <ele>955.9</ele>
        <time>2011-11-13T09:11:25Z</time>
      </trkpt>
      <trkpt lat="43.72788" lon="6.52473">
        <ele>955.9</ele>
        <time>2011-11-13T09:11:26Z</time>
      </trkpt>
      <trkpt lat="43.72786" lon="6.52461">
        <ele>957</ele>
        <time>2011-11-13T09:11:35Z</time>
      </trkpt>
      <trkpt lat="43.72786" lon="6.52456">
        <ele>957.1</ele>
        <time>2011-11-13T09:11:40Z</time>
      </trkpt>
      <trkpt lat="43.72787" lon="6.52449">
        <ele>957.4</ele>
        <time>2011-11-13T09:11:45Z</time>
      </trkpt>
      <trkpt lat="43.72787" lon="6.52442">
        <ele>958.3</ele>
        <time>2011-11-13T09:11:50Z</time>
      </trkpt>
      <trkpt lat="43.72787" lon="6.52437">
        <ele>958.6</ele>
        <time>2011-11-13T09:11:55Z</time>
      </trkpt>
      <trkpt lat="43.72787" lon="6.52431">
        <ele>959</ele>
        <time>2011-11-13T09:12:00Z</time>
      </trkpt>
      <trkpt lat="43.72788" lon="6.52424">
        <ele>959.1</ele>
        <time>2011-11-13T09:12:05Z</time>
      </trkpt>
      <trkpt lat="43.72789" lon="6.52417">
        <ele>959.5</ele>
        <time>2011-11-13T09:12:10Z</time>
      </trkpt>
      <trkpt lat="43.7279" lon="6.52409">
        <ele>959.7</ele>
        <time>2011-11-13T09:12:15Z</time>
      </trkpt>
      <trkpt lat="43.72791" lon="6.52402">
        <ele>960.4</ele>
        <time>2011-11-13T09:12:20Z</time>
      </trkpt>
      <trkpt lat="43.72791" lon="6.52396">
        <ele>961.2</ele>
        <time>2011-11-13T09:12:25Z</time>
      </trkpt>
      <trkpt lat="43.72792" lon="6.52389">
        <ele>960.8</ele>
        <time>2011-11-13T09:12:30Z</time>
      </trkpt>
      <trkpt lat="43.72792" lon="6.52389">
        <ele>960.9</ele>
        <time>2011-11-13T09:12:31Z</time>
      </trkpt>
      <trkpt lat="43.72793" lon="6.52377">
        <ele>961.5</ele>
        <time>2011-11-13T09:12:40Z</time>
      </trkpt>
      <trkpt lat="43.72793" lon="6.52369">
        <ele>961.2</ele>
        <time>2011-11-13T09:12:45Z</time>
      </trkpt>
      <trkpt lat="43.72794" lon="6.5236">
        <ele>961</ele>
        <time>2011-11-13T09:12:50Z</time>
      </trkpt>
      <trkpt lat="43.72794" lon="6.52352">
        <ele>961.7</ele>
        <time>2011-11-13T09:12:55Z</time>
      </trkpt>
      <trkpt lat="43.72795" lon="6.52344">
        <ele>962.2</ele>
        <time>2011-11-13T09:13:00Z</time>
      </trkpt>
      <trkpt lat="43.72797" lon="6.52337">
        <ele>962.5</ele>
        <time>2011-11-13T09:13:05Z</time>
      </trkpt>
      <trkpt lat="43.72798" lon="6.52329">
        <ele>962.5</ele>
        <time>2011-11-13T09:13:10Z</time>
      </trkpt>
      <trkpt lat="43.72799" lon="6.52323">
        <ele>962.7</ele>
        <time>2011-11-13T09:13:15Z</time>
      </trkpt>
      <trkpt lat="43.728" lon="6.52317">
        <ele>963</ele>
        <time>2011-11-13T09:13:20Z</time>
      </trkpt>
      <trkpt lat="43.728" lon="6.5231">
        <ele>963.5</ele>
        <time>2011-11-13T09:13:25Z</time>
      </trkpt>
      <trkpt lat="43.72801" lon="6.52303">
        <ele>964.2</ele>
        <time>2011-11-13T09:13:30Z</time>
      </trkpt>
      <trkpt lat="43.72802" lon="6.52296">
        <ele>964.2</ele>
        <time>2011-11-13T09:13:35Z</time>
      </trkpt>
      <trkpt lat="43.72802" lon="6.52295">
        <ele>964.5</ele>
        <time>2011-11-13T09:13:36Z</time>
      </trkpt>
      <trkpt lat="43.72802" lon="6.52284">
        <ele>966.1</ele>
        <time>2011-11-13T09:13:45Z</time>
      </trkpt>
      <trkpt lat="43.72803" lon="6.52277">
        <ele>966.2</ele>
        <time>2011-11-13T09:13:50Z</time>
      </trkpt>
      <trkpt lat="43.72803" lon="6.52271">
        <ele>966.9</ele>
        <time>2011-11-13T09:13:55Z</time>
      </trkpt>
      <trkpt lat="43.72804" lon="6.52264">
        <ele>967</ele>
        <time>2011-11-13T09:14:00Z</time>
      </trkpt>
      <trkpt lat="43.72805" lon="6.52258">
        <ele>968.1</ele>
        <time>2011-11-13T09:14:05Z</time>
      </trkpt>
      <trkpt lat="43.72806" lon="6.52251">
        <ele>968.8</ele>
        <time>2011-11-13T09:14:10Z</time>
      </trkpt>
      <trkpt lat="43.72808" lon="6.52244">
        <ele>969.3</ele>
        <time>2011-11-13T09:14:15Z</time>
      </trkpt>
      <trkpt lat="43.7281" lon="6.52239">
        <ele>969.5</ele>
        <time>2011-11-13T09:14:20Z</time>
      </trkpt>
      <trkpt lat="43.72811" lon="6.52233">
        <ele>970.4</ele>
        <time>2011-11-13T09:14:25Z</time>
      </trkpt>
      <trkpt lat="43.72813" lon="6.52227">
        <ele>970.5</ele>
        <time>2011-11-13T09:14:30Z</time>
      </trkpt>
      <trkpt lat="43.72814" lon="6.52221">
        <ele>971.3</ele>
        <time>2011-11-13T09:14:35Z</time>
      </trkpt>
      <trkpt lat="43.72815" lon="6.52215">
        <ele>972.4</ele>
        <time>2011-11-13T09:14:40Z</time>
      </trkpt>
      <trkpt lat="43.72815" lon="6.52214">
        <ele>972.3</ele>
        <time>2011-11-13T09:14:41Z</time>
      </trkpt>
      <trkpt lat="43.72816" lon="6.52202">
        <ele>972.9</ele>
        <time>2011-11-13T09:14:50Z</time>
      </trkpt>
      <trkpt lat="43.72817" lon="6.52196">
        <ele>973.2</ele>
        <time>2011-11-13T09:14:55Z</time>
      </trkpt>
      <trkpt lat="43.72819" lon="6.52191">
        <ele>974.1</ele>
        <time>2011-11-13T09:15:00Z</time>
      </trkpt>
      <trkpt lat="43.72818" lon="6.52187">
        <ele>974.2</ele>
        <time>2011-11-13T09:15:05Z</time>
      </trkpt>
      <trkpt lat="43.72818" lon="6.52184">
        <ele>974.1</ele>
        <time>2011-11-13T09:15:10Z</time>
      </trkpt>
      <trkpt lat="43.72819" lon="6.52183">
        <ele>974</ele>
        <time>2011-11-13T09:15:15Z</time>
      </trkpt>
      <trkpt lat="43.72821" lon="6.52178">
        <ele>973.4</ele>
        <time>2011-11-13T09:15:20Z</time>
      </trkpt>
      <trkpt lat="43.72823" lon="6.52174">
        <ele>973.3</ele>
        <time>2011-11-13T09:15:25Z</time>
      </trkpt>
      <trkpt lat="43.72825" lon="6.52169">
        <ele>972.8</ele>
        <time>2011-11-13T09:15:30Z</time>
      </trkpt>
      <trkpt lat="43.72827" lon="6.52163">
        <ele>972.4</ele>
        <time>2011-11-13T09:15:35Z</time>
      </trkpt>
      <trkpt lat="43.72829" lon="6.52157">
        <ele>971.8</ele>
        <time>2011-11-13T09:15:40Z</time>
      </trkpt>
      <trkpt lat="43.72831" lon="6.52151">
        <ele>971.6</ele>
        <time>2011-11-13T09:15:45Z</time>
      </trkpt>
      <trkpt lat="43.72831" lon="6.5215">
        <ele>971.5</ele>
        <time>2011-11-13T09:15:46Z</time>
      </trkpt>
      <trkpt lat="43.72836" lon="6.52141">
        <ele>970.9</ele>
        <time>2011-11-13T09:15:55Z</time>
      </trkpt>
      <trkpt lat="43.7284" lon="6.52137">
        <ele>970.5</ele>
        <time>2011-11-13T09:16:00Z</time>
      </trkpt>
      <trkpt lat="43.72843" lon="6.52134">
        <ele>970.6</ele>
        <time>2011-11-13T09:16:05Z</time>
      </trkpt>
      <trkpt lat="43.72849" lon="6.52131">
        <ele>970.3</ele>
        <time>2011-11-13T09:16:10Z</time>
      </trkpt>
      <trkpt lat="43.72854" lon="6.52129">
        <ele>969.8</ele>
        <time>2011-11-13T09:16:15Z</time>
      </trkpt>
      <trkpt lat="43.72859" lon="6.52127">
        <ele>970.1</ele>
        <time>2011-11-13T09:16:20Z</time>
      </trkpt>
      <trkpt lat="43.72865" lon="6.52127">
        <ele>969.5</ele>
        <time>2011-11-13T09:16:25Z</time>
      </trkpt>
      <trkpt lat="43.72869" lon="6.52126">
        <ele>969.7</ele>
        <time>2011-11-13T09:16:30Z</time>
      </trkpt>
      <trkpt lat="43.72875" lon="6.52124">
        <ele>969.8</ele>
        <time>2011-11-13T09:16:35Z</time>
      </trkpt>
      <trkpt lat="43.7288" lon="6.52122">
        <ele>969.6</ele>
        <time>2011-11-13T09:16:40Z</time>
      </trkpt>
      <trkpt lat="43.72885" lon="6.52119">
        <ele>969.9</ele>
        <time>2011-11-13T09:16:45Z</time>
      </trkpt>
      <trkpt lat="43.72889" lon="6.52118">
        <ele>969.7</ele>
        <time>2011-11-13T09:16:50Z</time>
      </trkpt>
      <trkpt lat="43.7289" lon="6.52118">
        <ele>969.7</ele>
        <time>2011-11-13T09:16:51Z</time>
      </trkpt>
      <trkpt lat="43.72896" lon="6.52113">
        <ele>970</ele>
        <time>2011-11-13T09:17:00Z</time>
      </trkpt>
      <trkpt lat="43.72901" lon="6.52109">
        <ele>970</ele>
        <time>2011-11-13T09:17:05Z</time>
      </trkpt>
      <trkpt lat="43.72907" lon="6.52106">
        <ele>970</ele>
        <time>2011-11-13T09:17:10Z</time>
      </trkpt>
      <trkpt lat="43.72911" lon="6.52103">
        <ele>970.6</ele>
        <time>2011-11-13T09:17:15Z</time>
      </trkpt>
      <trkpt lat="43.72915" lon="6.521">
        <ele>970.7</ele>
        <time>2011-11-13T09:17:20Z</time>
      </trkpt>
      <trkpt lat="43.72919" lon="6.52098">
        <ele>971</ele>
        <time>2011-11-13T09:17:25Z</time>
      </trkpt>
      <trkpt lat="43.72923" lon="6.52094">
        <ele>971.3</ele>
        <time>2011-11-13T09:17:30Z</time>
      </trkpt>
      <trkpt lat="43.72927" lon="6.52091">
        <ele>971.7</ele>
        <time>2011-11-13T09:17:35Z</time>
      </trkpt>
      <trkpt lat="43.72932" lon="6.52087">
        <ele>972</ele>
        <time>2011-11-13T09:17:40Z</time>
      </trkpt>
      <trkpt lat="43.72935" lon="6.52085">
        <ele>971.9</ele>
        <time>2011-11-13T09:17:45Z</time>
      </trkpt>
      <trkpt lat="43.7294" lon="6.52082">
        <ele>971.5</ele>
        <time>2011-11-13T09:17:50Z</time>
      </trkpt>
      <trkpt lat="43.72944" lon="6.52081">
        <ele>971.5</ele>
        <time>2011-11-13T09:17:55Z</time>
      </trkpt>
      <trkpt lat="43.72945" lon="6.52081">
        <ele>971.4</ele>
        <time>2011-11-13T09:17:56Z</time>
      </trkpt>
      <trkpt lat="43.72954" lon="6.52076">
        <ele>972.4</ele>
        <time>2011-11-13T09:18:05Z</time>
      </trkpt>
      <trkpt lat="43.7296" lon="6.52074">
        <ele>972</ele>
        <time>2011-11-13T09:18:10Z</time>
      </trkpt>
      <trkpt lat="43.72965" lon="6.52072">
        <ele>972.2</ele>
        <time>2011-11-13T09:18:15Z</time>
      </trkpt>
      <trkpt lat="43.7297" lon="6.52071">
        <ele>972.5</ele>
        <time>2011-11-13T09:18:20Z</time>
      </trkpt>
      <trkpt lat="43.72974" lon="6.5207">
        <ele>972.7</ele>
        <time>2011-11-13T09:18:25Z</time>
      </trkpt>
      <trkpt lat="43.7298" lon="6.52069">
        <ele>972.9</ele>
        <time>2011-11-13T09:18:30Z</time>
      </trkpt>
      <trkpt lat="43.72985" lon="6.52067">
        <ele>973.2</ele>
        <time>2011-11-13T09:18:35Z</time>
      </trkpt>
      <trkpt lat="43.72991" lon="6.52066">
        <ele>973.5</ele>
        <time>2011-11-13T09:18:40Z</time>
      </trkpt>
      <trkpt lat="43.72996" lon="6.52067">
        <ele>973.6</ele>
        <time>2011-11-13T09:18:45Z</time>
      </trkpt>
      <trkpt lat="43.73002" lon="6.52067">
        <ele>974</ele>
        <time>2011-11-13T09:18:50Z</time>
      </trkpt>
      <trkpt lat="43.73007" lon="6.52067">
        <ele>974</ele>
        <time>2011-11-13T09:18:55Z</time>
      </trkpt>
      <trkpt lat="43.73012" lon="6.52067">
        <ele>974</ele>
        <time>2011-11-13T09:19:00Z</time>
      </trkpt>
      <trkpt lat="43.73014" lon="6.52066">
        <ele>974.2</ele>
        <time>2011-11-13T09:19:01Z</time>
      </trkpt>
      <trkpt lat="43.73022" lon="6.52063">
        <ele>974.6</ele>
        <time>2011-11-13T09:19:10Z</time>
      </trkpt>
      <trkpt lat="43.73027" lon="6.52061">
        <ele>974.9</ele>
        <time>2011-11-13T09:19:15Z</time>
      </trkpt>
      <trkpt lat="43.73032" lon="6.52058">
        <ele>974.9</ele>
        <time>2011-11-13T09:19:20Z</time>
      </trkpt>
      <trkpt lat="43.73037" lon="6.52053">
        <ele>975.3</ele>
        <time>2011-11-13T09:19:25Z</time>
      </trkpt>
      <trkpt lat="43.7304" lon="6.52048">
        <ele>974.7</ele>
        <time>2011-11-13T09:19:30Z</time>
      </trkpt>
      <trkpt lat="43.73042" lon="6.52041">
        <ele>974.1</ele>
        <time>2011-11-13T09:19:35Z</time>
      </trkpt>
      <trkpt lat="43.73044" lon="6.52035">
        <ele>973.7</ele>
        <time>2011-11-13T09:19:40Z</time>
      </trkpt>
      <trkpt lat="43.73047" lon="6.5203">
        <ele>973.7</ele>
        <time>2011-11-13T09:19:45Z</time>
      </trkpt>
      <trkpt lat="43.7305" lon="6.52023">
        <ele>972.8</ele>
        <time>2011-11-13T09:19:50Z</time>
      </trkpt>
      <trkpt lat="43.73053" lon="6.52016">
        <ele>972.6</ele>
        <time>2011-11-13T09:19:55Z</time>
      </trkpt>
      <trkpt lat="43.73056" lon="6.52009">
        <ele>972.1</ele>
        <time>2011-11-13T09:20:00Z</time>
      </trkpt>
      <trkpt lat="43.73059" lon="6.52001">
        <ele>971.4</ele>
        <time>2011-11-13T09:20:05Z</time>
      </trkpt>
      <trkpt lat="43.7306" lon="6.52">
        <ele>971.4</ele>
        <time>2011-11-13T09:20:06Z</time>
      </trkpt>
      <trkpt lat="43.73064" lon="6.51992">
        <ele>971.1</ele>
        <time>2011-11-13T09:20:15Z</time>
      </trkpt>
      <trkpt lat="43.73069" lon="6.51989">
        <ele>971.3</ele>
        <time>2011-11-13T09:20:20Z</time>
      </trkpt>
      <trkpt lat="43.73075" lon="6.51988">
        <ele>971.5</ele>
        <time>2011-11-13T09:20:25Z</time>
      </trkpt>
      <trkpt lat="43.7308" lon="6.51987">
        <ele>971.7</ele>
        <time>2011-11-13T09:20:30Z</time>
      </trkpt>
      <trkpt lat="43.73085" lon="6.51987">
        <ele>971.9</ele>
        <time>2011-11-13T09:20:35Z</time>
      </trkpt>
      <trkpt lat="43.7309" lon="6.51986">
        <ele>972.3</ele>
        <time>2011-11-13T09:20:40Z</time>
      </trkpt>
      <trkpt lat="43.73095" lon="6.51984">
        <ele>971.8</ele>
        <time>2011-11-13T09:20:45Z</time>
      </trkpt>
      <trkpt lat="43.73101" lon="6.51982">
        <ele>972.6</ele>
        <time>2011-11-13T09:20:50Z</time>
      </trkpt>
      <trkpt lat="43.73105" lon="6.5198">
        <ele>972.4</ele>
        <time>2011-11-13T09:20:55Z</time>
      </trkpt>
      <trkpt lat="43.73111" lon="6.51981">
        <ele>973.1</ele>
        <time>2011-11-13T09:21:00Z</time>
      </trkpt>
      <trkpt lat="43.73116" lon="6.51981">
        <ele>973.3</ele>
        <time>2011-11-13T09:21:05Z</time>
      </trkpt>
      <trkpt lat="43.73121" lon="6.51981">
        <ele>973.1</ele>
        <time>2011-11-13T09:21:10Z</time>
      </trkpt>
      <trkpt lat="43.73121" lon="6.51981">
        <ele>973.2</ele>
        <time>2011-11-13T09:21:11Z</time>
      </trkpt>
      <trkpt lat="43.73128" lon="6.51977">
        <ele>973</ele>
        <time>2011-11-13T09:21:20Z</time>
      </trkpt>
      <trkpt lat="43.73131" lon="6.51975">
        <ele>973.5</ele>
        <time>2011-11-13T09:21:25Z</time>
      </trkpt>
      <trkpt lat="43.73135" lon="6.51973">
        <ele>973.4</ele>
        <time>2011-11-13T09:21:30Z</time>
      </trkpt>
      <trkpt lat="43.7314" lon="6.5197">
        <ele>973.8</ele>
        <time>2011-11-13T09:21:35Z</time>
      </trkpt>
      <trkpt lat="43.73146" lon="6.51966">
        <ele>973.9</ele>
        <time>2011-11-13T09:21:40Z</time>
      </trkpt>
      <trkpt lat="43.73153" lon="6.51962">
        <ele>974.4</ele>
        <time>2011-11-13T09:21:45Z</time>
      </trkpt>
      <trkpt lat="43.73158" lon="6.51958">
        <ele>974.6</ele>
        <time>2011-11-13T09:21:50Z</time>
      </trkpt>
      <trkpt lat="43.73164" lon="6.51954">
        <ele>975.2</ele>
        <time>2011-11-13T09:21:55Z</time>
      </trkpt>
      <trkpt lat="43.73169" lon="6.5195">
        <ele>975.5</ele>
        <time>2011-11-13T09:22:00Z</time>
      </trkpt>
      <trkpt lat="43.73174" lon="6.51946">
        <ele>975.6</ele>
        <time>2011-11-13T09:22:05Z</time>
      </trkpt>
      <trkpt lat="43.73179" lon="6.51942">
        <ele>976.6</ele>
        <time>2011-11-13T09:22:10Z</time>
      </trkpt>
      <trkpt lat="43.73184" lon="6.51939">
        <ele>976.9</ele>
        <time>2011-11-13T09:22:15Z</time>
      </trkpt>
      <trkpt lat="43.73185" lon="6.51938">
        <ele>976.9</ele>
        <time>2011-11-13T09:22:16Z</time>
      </trkpt>
      <trkpt lat="43.73193" lon="6.51932">
        <ele>977.3</ele>
        <time>2011-11-13T09:22:25Z</time>
      </trkpt>
      <trkpt lat="43.73197" lon="6.51929">
        <ele>977.7</ele>
        <time>2011-11-13T09:22:30Z</time>
      </trkpt>
      <trkpt lat="43.73202" lon="6.51926">
        <ele>977.9</ele>
        <time>2011-11-13T09:22:35Z</time>
      </trkpt>
      <trkpt lat="43.73206" lon="6.51923">
        <ele>978.2</ele>
        <time>2011-11-13T09:22:40Z</time>
      </trkpt>
      <trkpt lat="43.73209" lon="6.5192">
        <ele>978</ele>
        <time>2011-11-13T09:22:45Z</time>
      </trkpt>
      <trkpt lat="43.73214" lon="6.51917">
        <ele>978.4</ele>
        <time>2011-11-13T09:22:50Z</time>
      </trkpt>
      <trkpt lat="43.73219" lon="6.51913">
        <ele>979.1</ele>
        <time>2011-11-13T09:22:55Z</time>
      </trkpt>
      <trkpt lat="43.73224" lon="6.51908">
        <ele>979.2</ele>
        <time>2011-11-13T09:23:00Z</time>
      </trkpt>
      <trkpt lat="43.73229" lon="6.51904">
        <ele>979.6</ele>
        <time>2011-11-13T09:23:05Z</time>
      </trkpt>
      <trkpt lat="43.73235" lon="6.519">
        <ele>979.7</ele>
        <time>2011-11-13T09:23:10Z</time>
      </trkpt>
      <trkpt lat="43.7324" lon="6.51897">
        <ele>979.9</ele>
        <time>2011-11-13T09:23:15Z</time>
      </trkpt>
      <trkpt lat="43.73245" lon="6.51894">
        <ele>979.7</ele>
        <time>2011-11-13T09:23:20Z</time>
      </trkpt>
      <trkpt lat="43.73246" lon="6.51894">
        <ele>979.7</ele>
        <time>2011-11-13T09:23:21Z</time>
      </trkpt>
      <trkpt lat="43.73256" lon="6.5189">
        <ele>980.5</ele>
        <time>2011-11-13T09:23:30Z</time>
      </trkpt>
      <trkpt lat="43.73261" lon="6.51887">
        <ele>980.5</ele>
        <time>2011-11-13T09:23:35Z</time>
      </trkpt>
      <trkpt lat="43.73266" lon="6.51884">
        <ele>980.7</ele>
        <time>2011-11-13T09:23:40Z</time>
      </trkpt>
      <trkpt lat="43.73272" lon="6.51881">
        <ele>981</ele>
        <time>2011-11-13T09:23:45Z</time>
      </trkpt>
      <trkpt lat="43.73277" lon="6.51878">
        <ele>981</ele>
        <time>2011-11-13T09:23:50Z</time>
      </trkpt>
      <trkpt lat="43.73283" lon="6.51877">
        <ele>980.7</ele>
        <time>2011-11-13T09:23:55Z</time>
      </trkpt>
      <trkpt lat="43.73289" lon="6.51876">
        <ele>980.8</ele>
        <time>2011-11-13T09:24:00Z</time>
      </trkpt>
      <trkpt lat="43.73295" lon="6.51875">
        <ele>981.3</ele>
        <time>2011-11-13T09:24:05Z</time>
      </trkpt>
      <trkpt lat="43.733" lon="6.51875">
        <ele>980.9</ele>
        <time>2011-11-13T09:24:10Z</time>
      </trkpt>
      <trkpt lat="43.73306" lon="6.51874">
        <ele>981</ele>
        <time>2011-11-13T09:24:15Z</time>
      </trkpt>
      <trkpt lat="43.7331" lon="6.51873">
        <ele>981.2</ele>
        <time>2011-11-13T09:24:20Z</time>
      </trkpt>
      <trkpt lat="43.73311" lon="6.51873">
        <ele>981.2</ele>
        <time>2011-11-13T09:24:25Z</time>
      </trkpt>
      <trkpt lat="43.73311" lon="6.51873">
        <ele>981.3</ele>
        <time>2011-11-13T09:24:26Z</time>
      </trkpt>
      <trkpt lat="43.7331" lon="6.51872">
        <ele>981.2</ele>
        <time>2011-11-13T09:24:35Z</time>
      </trkpt>
      <trkpt lat="43.7331" lon="6.51873">
        <ele>980.7</ele>
        <time>2011-11-13T09:24:40Z</time>
      </trkpt>
      <trkpt lat="43.7331" lon="6.51873">
        <ele>980.7</ele>
        <time>2011-11-13T09:24:45Z</time>
      </trkpt>
      <trkpt lat="43.73309" lon="6.51873">
        <ele>980.9</ele>
        <time>2011-11-13T09:24:50Z</time>
      </trkpt>
      <trkpt lat="43.73309" lon="6.51873">
        <ele>980.1</ele>
        <time>2011-11-13T09:24:55Z</time>
      </trkpt>
      <trkpt lat="43.73309" lon="6.51873">
        <ele>979.6</ele>
        <time>2011-11-13T09:25:00Z</time>
      </trkpt>
      <trkpt lat="43.73308" lon="6.51872">
        <ele>980.1</ele>
        <time>2011-11-13T09:25:05Z</time>
      </trkpt>
      <trkpt lat="43.73308" lon="6.51873">
        <ele>980.6</ele>
        <time>2011-11-13T09:25:10Z</time>
      </trkpt>
      <trkpt lat="43.73308" lon="6.51873">
        <ele>981</ele>
        <time>2011-11-13T09:25:15Z</time>
      </trkpt>
      <trkpt lat="43.73308" lon="6.51872">
        <ele>980.9</ele>
        <time>2011-11-13T09:25:20Z</time>
      </trkpt>
      <trkpt lat="43.73307" lon="6.51872">
        <ele>980.8</ele>
        <time>2011-11-13T09:25:25Z</time>
      </trkpt>
      <trkpt lat="43.73307" lon="6.51872">
        <ele>980.9</ele>
        <time>2011-11-13T09:25:30Z</time>
      </trkpt>
      <trkpt lat="43.73307" lon="6.51872">
        <ele>980.9</ele>
        <time>2011-11-13T09:25:31Z</time>
      </trkpt>
      <trkpt lat="43.73306" lon="6.51873">
        <ele>981.2</ele>
        <time>2011-11-13T09:25:40Z</time>
      </trkpt>
      <trkpt lat="43.73306" lon="6.51872">
        <ele>981</ele>
        <time>2011-11-13T09:25:45Z</time>
      </trkpt>
      <trkpt lat="43.73306" lon="6.51872">
        <ele>981.1</ele>
        <time>2011-11-13T09:25:50Z</time>
      </trkpt>
      <trkpt lat="43.73306" lon="6.51872">
        <ele>981.1</ele>
        <time>2011-11-13T09:25:55Z</time>
      </trkpt>
      <trkpt lat="43.73306" lon="6.51871">
        <ele>980.9</ele>
        <time>2011-11-13T09:26:00Z</time>
      </trkpt>
      <trkpt lat="43.73306" lon="6.51871">
        <ele>980.8</ele>
        <time>2011-11-13T09:26:05Z</time>
      </trkpt>
      <trkpt lat="43.73305" lon="6.51871">
        <ele>980.5</ele>
        <time>2011-11-13T09:26:10Z</time>
      </trkpt>
      <trkpt lat="43.73305" lon="6.5187">
        <ele>980.8</ele>
        <time>2011-11-13T09:26:15Z</time>
      </trkpt>
      <trkpt lat="43.73305" lon="6.5187">
        <ele>980.9</ele>
        <time>2011-11-13T09:26:20Z</time>
      </trkpt>
      <trkpt lat="43.73305" lon="6.51871">
        <ele>981</ele>
        <time>2011-11-13T09:26:25Z</time>
      </trkpt>
      <trkpt lat="43.73304" lon="6.51868">
        <ele>980.8</ele>
        <time>2011-11-13T09:26:30Z</time>
      </trkpt>
      <trkpt lat="43.73305" lon="6.51869">
        <ele>980.9</ele>
        <time>2011-11-13T09:26:35Z</time>
      </trkpt>
      <trkpt lat="43.73305" lon="6.51869">
        <ele>980.9</ele>
        <time>2011-11-13T09:26:36Z</time>
      </trkpt>
      <trkpt lat="43.73306" lon="6.51872">
        <ele>980.9</ele>
        <time>2011-11-13T09:26:45Z</time>
      </trkpt>
      <trkpt lat="43.73306" lon="6.51872">
        <ele>980.8</ele>
        <time>2011-11-13T09:26:50Z</time>
      </trkpt>
      <trkpt lat="43.73306" lon="6.51873">
        <ele>981</ele>
        <time>2011-11-13T09:26:55Z</time>
      </trkpt>
      <trkpt lat="43.73305" lon="6.51873">
        <ele>980.6</ele>
        <time>2011-11-13T09:27:00Z</time>
      </trkpt>
      <trkpt lat="43.73306" lon="6.51874">
        <ele>980.4</ele>
        <time>2011-11-13T09:27:05Z</time>
      </trkpt>
      <trkpt lat="43.73306" lon="6.51874">
        <ele>980.7</ele>
        <time>2011-11-13T09:27:10Z</time>
      </trkpt>
      <trkpt lat="43.73306" lon="6.51874">
        <ele>980.8</ele>
        <time>2011-11-13T09:27:15Z</time>
      </trkpt>
      <trkpt lat="43.73307" lon="6.51874">
        <ele>980.3</ele>
        <time>2011-11-13T09:27:20Z</time>
      </trkpt>
      <trkpt lat="43.73307" lon="6.51875">
        <ele>980.7</ele>
        <time>2011-11-13T09:27:25Z</time>
      </trkpt>
      <trkpt lat="43.73307" lon="6.51875">
        <ele>980.4</ele>
        <time>2011-11-13T09:27:30Z</time>
      </trkpt>
      <trkpt lat="43.73306" lon="6.51874">
        <ele>980.4</ele>
        <time>2011-11-13T09:27:35Z</time>
      </trkpt>
      <trkpt lat="43.73307" lon="6.51875">
        <ele>980.6</ele>
        <time>2011-11-13T09:27:40Z</time>
      </trkpt>
      <trkpt lat="43.73307" lon="6.51875">
        <ele>980.5</ele>
        <time>2011-11-13T09:27:41Z</time>
      </trkpt>
      <trkpt lat="43.73308" lon="6.51877">
        <ele>980.4</ele>
        <time>2011-11-13T09:27:50Z</time>
      </trkpt>
      <trkpt lat="43.73308" lon="6.51877">
        <ele>980.6</ele>
        <time>2011-11-13T09:27:55Z</time>
      </trkpt>
      <trkpt lat="43.73308" lon="6.51878">
        <ele>980.3</ele>
        <time>2011-11-13T09:28:00Z</time>
      </trkpt>
      <trkpt lat="43.73307" lon="6.51878">
        <ele>980.4</ele>
        <time>2011-11-13T09:28:05Z</time>
      </trkpt>
      <trkpt lat="43.73307" lon="6.51877">
        <ele>980.2</ele>
        <time>2011-11-13T09:28:10Z</time>
      </trkpt>
      <trkpt lat="43.73307" lon="6.51877">
        <ele>980.3</ele>
        <time>2011-11-13T09:28:15Z</time>
      </trkpt>
      <trkpt lat="43.73307" lon="6.51877">
        <ele>980.8</ele>
        <time>2011-11-13T09:28:20Z</time>
      </trkpt>
      <trkpt lat="43.73307" lon="6.51877">
        <ele>980.2</ele>
        <time>2011-11-13T09:28:25Z</time>
      </trkpt>
      <trkpt lat="43.73307" lon="6.51877">
        <ele>980.1</ele>
        <time>2011-11-13T09:28:30Z</time>
      </trkpt>
      <trkpt lat="43.73307" lon="6.51877">
        <ele>980.2</ele>
        <time>2011-11-13T09:28:35Z</time>
      </trkpt>
      <trkpt lat="43.73307" lon="6.51877">
        <ele>980.8</ele>
        <time>2011-11-13T09:28:40Z</time>
      </trkpt>
      <trkpt lat="43.73306" lon="6.51877">
        <ele>980.7</ele>
        <time>2011-11-13T09:28:45Z</time>
      </trkpt>
      <trkpt lat="43.73306" lon="6.51877">
        <ele>980.6</ele>
        <time>2011-11-13T09:28:46Z</time>
      </trkpt>
      <trkpt lat="43.73306" lon="6.51878">
        <ele>980.4</ele>
        <time>2011-11-13T09:28:55Z</time>
      </trkpt>
      <trkpt lat="43.73308" lon="6.51878">
        <ele>980.4</ele>
        <time>2011-11-13T09:29:00Z</time>
      </trkpt>
      <trkpt lat="43.73308" lon="6.51877">
        <ele>980.6</ele>
        <time>2011-11-13T09:29:05Z</time>
      </trkpt>
      <trkpt lat="43.73309" lon="6.51877">
        <ele>980.5</ele>
        <time>2011-11-13T09:29:10Z</time>
      </trkpt>
      <trkpt lat="43.73309" lon="6.51876">
        <ele>980.5</ele>
        <time>2011-11-13T09:29:15Z</time>
      </trkpt>
      <trkpt lat="43.73309" lon="6.51876">
        <ele>980.4</ele>
        <time>2011-11-13T09:29:20Z</time>
      </trkpt>
      <trkpt lat="43.73309" lon="6.51876">
        <ele>980.3</ele>
        <time>2011-11-13T09:29:25Z</time>
      </trkpt>
      <trkpt lat="43.73309" lon="6.51876">
        <ele>980.2</ele>
        <time>2011-11-13T09:29:30Z</time>
      </trkpt>
      <trkpt lat="43.73309" lon="6.51876">
        <ele>980</ele>
        <time>2011-11-13T09:29:35Z</time>
      </trkpt>
      <trkpt lat="43.7331" lon="6.51876">
        <ele>980.2</ele>
        <time>2011-11-13T09:29:40Z</time>
      </trkpt>
      <trkpt lat="43.73309" lon="6.51875">
        <ele>980.1</ele>
        <time>2011-11-13T09:29:45Z</time>
      </trkpt>
      <trkpt lat="43.73309" lon="6.51875">
        <ele>980.1</ele>
        <time>2011-11-13T09:29:50Z</time>
      </trkpt>
      <trkpt lat="43.73309" lon="6.51875">
        <ele>980</ele>
        <time>2011-11-13T09:29:51Z</time>
      </trkpt>
      <trkpt lat="43.73309" lon="6.51874">
        <ele>980.5</ele>
        <time>2011-11-13T09:30:00Z</time>
      </trkpt>
      <trkpt lat="43.73309" lon="6.51875">
        <ele>980.5</ele>
        <time>2011-11-13T09:30:05Z</time>
      </trkpt>
      <trkpt lat="43.7331" lon="6.51875">
        <ele>980.8</ele>
        <time>2011-11-13T09:30:10Z</time>
      </trkpt>
      <trkpt lat="43.7331" lon="6.51875">
        <ele>980.6</ele>
        <time>2011-11-13T09:30:15Z</time>
      </trkpt>
      <trkpt lat="43.7331" lon="6.51875">
        <ele>980.1</ele>
        <time>2011-11-13T09:30:20Z</time>
      </trkpt>
      <trkpt lat="43.7331" lon="6.51875">
        <ele>980.2</ele>
        <time>2011-11-13T09:30:25Z</time>
      </trkpt>
      <trkpt lat="43.7331" lon="6.51876">
        <ele>980.3</ele>
        <time>2011-11-13T09:30:30Z</time>
      </trkpt>
      <trkpt lat="43.7331" lon="6.51876">
        <ele>980.3</ele>
        <time>2011-11-13T09:30:35Z</time>
      </trkpt>
      <trkpt lat="43.73311" lon="6.51876">
        <ele>980.7</ele>
        <time>2011-11-13T09:30:40Z</time>
      </trkpt>
      <trkpt lat="43.73311" lon="6.51876">
        <ele>980.8</ele>
        <time>2011-11-13T09:30:45Z</time>
      </trkpt>
      <trkpt lat="43.73311" lon="6.51876">
        <ele>980.7</ele>
        <time>2011-11-13T09:30:50Z</time>
      </trkpt>
      <trkpt lat="43.73311" lon="6.51875">
        <ele>980.9</ele>
        <time>2011-11-13T09:30:55Z</time>
      </trkpt>
      <trkpt lat="43.73311" lon="6.51875">
        <ele>980.5</ele>
        <time>2011-11-13T09:30:56Z</time>
      </trkpt>
      <trkpt lat="43.73311" lon="6.51878">
        <ele>980.5</ele>
        <time>2011-11-13T09:31:05Z</time>
      </trkpt>
      <trkpt lat="43.73311" lon="6.51878">
        <ele>980.6</ele>
        <time>2011-11-13T09:31:10Z</time>
      </trkpt>
      <trkpt lat="43.73311" lon="6.51878">
        <ele>980.5</ele>
        <time>2011-11-13T09:31:15Z</time>
      </trkpt>
      <trkpt lat="43.73311" lon="6.51878">
        <ele>980.4</ele>
        <time>2011-11-13T09:31:20Z</time>
      </trkpt>
      <trkpt lat="43.73312" lon="6.51876">
        <ele>980.4</ele>
        <time>2011-11-13T09:31:25Z</time>
      </trkpt>
      <trkpt lat="43.73313" lon="6.51875">
        <ele>980.4</ele>
        <time>2011-11-13T09:31:30Z</time>
      </trkpt>
      <trkpt lat="43.73313" lon="6.51875">
        <ele>980.2</ele>
        <time>2011-11-13T09:31:35Z</time>
      </trkpt>
      <trkpt lat="43.73313" lon="6.51873">
        <ele>980.6</ele>
        <time>2011-11-13T09:31:40Z</time>
      </trkpt>
      <trkpt lat="43.73312" lon="6.51873">
        <ele>980.8</ele>
        <time>2011-11-13T09:31:45Z</time>
      </trkpt>
      <trkpt lat="43.73312" lon="6.51874">
        <ele>980.5</ele>
        <time>2011-11-13T09:31:50Z</time>
      </trkpt>
      <trkpt lat="43.73312" lon="6.51874">
        <ele>980.7</ele>
        <time>2011-11-13T09:31:55Z</time>
      </trkpt>
      <trkpt lat="43.73311" lon="6.51874">
        <ele>980.4</ele>
        <time>2011-11-13T09:32:00Z</time>
      </trkpt>
      <trkpt lat="43.73311" lon="6.51874">
        <ele>980.5</ele>
        <time>2011-11-13T09:32:01Z</time>
      </trkpt>
      <trkpt lat="43.73312" lon="6.51875">
        <ele>980.4</ele>
        <time>2011-11-13T09:32:10Z</time>
      </trkpt>
      <trkpt lat="43.73311" lon="6.51875">
        <ele>980.4</ele>
        <time>2011-11-13T09:32:15Z</time>
      </trkpt>
      <trkpt lat="43.73311" lon="6.51875">
        <ele>980.1</ele>
        <time>2011-11-13T09:32:20Z</time>
      </trkpt>
      <trkpt lat="43.73311" lon="6.51875">
        <ele>980.3</ele>
        <time>2011-11-13T09:32:25Z</time>
      </trkpt>
      <trkpt lat="43.73315" lon="6.51873">
        <ele>980.7</ele>
        <time>2011-11-13T09:32:30Z</time>
      </trkpt>
      <trkpt lat="43.7332" lon="6.5187">
        <ele>980.3</ele>
        <time>2011-11-13T09:32:35Z</time>
      </trkpt>
      <trkpt lat="43.73324" lon="6.51869">
        <ele>980.4</ele>
        <time>2011-11-13T09:32:40Z</time>
      </trkpt>
      <trkpt lat="43.7333" lon="6.51868">
        <ele>980.1</ele>
        <time>2011-11-13T09:32:45Z</time>
      </trkpt>
      <trkpt lat="43.73334" lon="6.51864">
        <ele>979.9</ele>
        <time>2011-11-13T09:32:50Z</time>
      </trkpt>
      <trkpt lat="43.73334" lon="6.51854">
        <ele>980.1</ele>
        <time>2011-11-13T09:32:55Z</time>
      </trkpt>
      <trkpt lat="43.73334" lon="6.51844">
        <ele>980.2</ele>
        <time>2011-11-13T09:33:00Z</time>
      </trkpt>
      <trkpt lat="43.73334" lon="6.51834">
        <ele>980.1</ele>
        <time>2011-11-13T09:33:05Z</time>
      </trkpt>
      <trkpt lat="43.73335" lon="6.51834">
        <ele>980.1</ele>
        <time>2011-11-13T09:33:06Z</time>
      </trkpt>
      <trkpt lat="43.73349" lon="6.51833">
        <ele>979.8</ele>
        <time>2011-11-13T09:33:15Z</time>
      </trkpt>
      <trkpt lat="43.73356" lon="6.51833">
        <ele>978.8</ele>
        <time>2011-11-13T09:33:20Z</time>
      </trkpt>
      <trkpt lat="43.73365" lon="6.51835">
        <ele>979</ele>
        <time>2011-11-13T09:33:25Z</time>
      </trkpt>
      <trkpt lat="43.73373" lon="6.51834">
        <ele>977.8</ele>
        <time>2011-11-13T09:33:30Z</time>
      </trkpt>
      <trkpt lat="43.73378" lon="6.51831">
        <ele>978.4</ele>
        <time>2011-11-13T09:33:35Z</time>
      </trkpt>
      <trkpt lat="43.73383" lon="6.51828">
        <ele>977.7</ele>
        <time>2011-11-13T09:33:40Z</time>
      </trkpt>
      <trkpt lat="43.73388" lon="6.51825">
        <ele>977.8</ele>
        <time>2011-11-13T09:33:45Z</time>
      </trkpt>
      <trkpt lat="43.73391" lon="6.51824">
        <ele>977.4</ele>
        <time>2011-11-13T09:33:50Z</time>
      </trkpt>
      <trkpt lat="43.73393" lon="6.51822">
        <ele>977.3</ele>
        <time>2011-11-13T09:33:55Z</time>
      </trkpt>
      <trkpt lat="43.73397" lon="6.51821">
        <ele>976.8</ele>
        <time>2011-11-13T09:34:00Z</time>
      </trkpt>
      <trkpt lat="43.73401" lon="6.51819">
        <ele>976.5</ele>
        <time>2011-11-13T09:34:05Z</time>
      </trkpt>
      <trkpt lat="43.73405" lon="6.51817">
        <ele>976.4</ele>
        <time>2011-11-13T09:34:10Z</time>
      </trkpt>
      <trkpt lat="43.73405" lon="6.51816">
        <ele>976.3</ele>
        <time>2011-11-13T09:34:11Z</time>
      </trkpt>
      <trkpt lat="43.73411" lon="6.51812">
        <ele>975.5</ele>
        <time>2011-11-13T09:34:20Z</time>
      </trkpt>
      <trkpt lat="43.73414" lon="6.51809">
        <ele>975.8</ele>
        <time>2011-11-13T09:34:25Z</time>
      </trkpt>
      <trkpt lat="43.7342" lon="6.51806">
        <ele>975.3</ele>
        <time>2011-11-13T09:34:30Z</time>
      </trkpt>
      <trkpt lat="43.73425" lon="6.51803">
        <ele>975</ele>
        <time>2011-11-13T09:34:35Z</time>
      </trkpt>
      <trkpt lat="43.7343" lon="6.518">
        <ele>975.8</ele>
        <time>2011-11-13T09:34:40Z</time>
      </trkpt>
      <trkpt lat="43.73433" lon="6.51798">
        <ele>975.9</ele>
        <time>2011-11-13T09:34:45Z</time>
      </trkpt>
      <trkpt lat="43.73436" lon="6.51796">
        <ele>976.3</ele>
        <time>2011-11-13T09:34:50Z</time>
      </trkpt>
      <trkpt lat="43.73438" lon="6.51795">
        <ele>976</ele>
        <time>2011-11-13T09:34:55Z</time>
      </trkpt>
      <trkpt lat="43.73438" lon="6.51793">
        <ele>975.4</ele>
        <time>2011-11-13T09:35:00Z</time>
      </trkpt>
      <trkpt lat="43.73441" lon="6.51791">
        <ele>974.9</ele>
        <time>2011-11-13T09:35:05Z</time>
      </trkpt>
      <trkpt lat="43.73444" lon="6.51789">
        <ele>974.7</ele>
        <time>2011-11-13T09:35:10Z</time>
      </trkpt>
      <trkpt lat="43.73449" lon="6.51788">
        <ele>975.4</ele>
        <time>2011-11-13T09:35:15Z</time>
      </trkpt>
      <trkpt lat="43.7345" lon="6.51788">
        <ele>975.5</ele>
        <time>2011-11-13T09:35:16Z</time>
      </trkpt>
      <trkpt lat="43.73458" lon="6.51783">
        <ele>975.1</ele>
        <time>2011-11-13T09:35:25Z</time>
      </trkpt>
      <trkpt lat="43.73464" lon="6.5178">
        <ele>975.2</ele>
        <time>2011-11-13T09:35:30Z</time>
      </trkpt>
      <trkpt lat="43.73471" lon="6.51777">
        <ele>975.5</ele>
        <time>2011-11-13T09:35:35Z</time>
      </trkpt>
      <trkpt lat="43.73476" lon="6.51774">
        <ele>975.1</ele>
        <time>2011-11-13T09:35:40Z</time>
      </trkpt>
      <trkpt lat="43.73482" lon="6.51771">
        <ele>974.8</ele>
        <time>2011-11-13T09:35:45Z</time>
      </trkpt>
      <trkpt lat="43.73487" lon="6.5177">
        <ele>974.7</ele>
        <time>2011-11-13T09:35:50Z</time>
      </trkpt>
      <trkpt lat="43.73494" lon="6.51768">
        <ele>974.7</ele>
        <time>2011-11-13T09:35:55Z</time>
      </trkpt>
      <trkpt lat="43.73501" lon="6.51766">
        <ele>975</ele>
        <time>2011-11-13T09:36:00Z</time>
      </trkpt>
      <trkpt lat="43.73505" lon="6.51764">
        <ele>975.3</ele>
        <time>2011-11-13T09:36:05Z</time>
      </trkpt>
      <trkpt lat="43.73511" lon="6.51762">
        <ele>974.8</ele>
        <time>2011-11-13T09:36:10Z</time>
      </trkpt>
      <trkpt lat="43.73516" lon="6.51758">
        <ele>974.7</ele>
        <time>2011-11-13T09:36:15Z</time>
      </trkpt>
      <trkpt lat="43.73523" lon="6.51756">
        <ele>974.2</ele>
        <time>2011-11-13T09:36:20Z</time>
      </trkpt>
      <trkpt lat="43.73524" lon="6.51756">
        <ele>974.4</ele>
        <time>2011-11-13T09:36:21Z</time>
      </trkpt>
      <trkpt lat="43.73535" lon="6.51752">
        <ele>974.3</ele>
        <time>2011-11-13T09:36:30Z</time>
      </trkpt>
      <trkpt lat="43.73541" lon="6.51751">
        <ele>974.3</ele>
        <time>2011-11-13T09:36:35Z</time>
      </trkpt>
      <trkpt lat="43.73547" lon="6.51751">
        <ele>974.1</ele>
        <time>2011-11-13T09:36:40Z</time>
      </trkpt>
      <trkpt lat="43.73552" lon="6.51751">
        <ele>974.1</ele>
        <time>2011-11-13T09:36:45Z</time>
      </trkpt>
      <trkpt lat="43.73558" lon="6.5175">
        <ele>974</ele>
        <time>2011-11-13T09:36:50Z</time>
      </trkpt>
      <trkpt lat="43.73564" lon="6.51749">
        <ele>974.4</ele>
        <time>2011-11-13T09:36:55Z</time>
      </trkpt>
      <trkpt lat="43.73569" lon="6.51748">
        <ele>974.9</ele>
        <time>2011-11-13T09:37:00Z</time>
      </trkpt>
      <trkpt lat="43.73575" lon="6.51749">
        <ele>974.2</ele>
        <time>2011-11-13T09:37:05Z</time>
      </trkpt>
      <trkpt lat="43.73582" lon="6.51749">
        <ele>974.6</ele>
        <time>2011-11-13T09:37:10Z</time>
      </trkpt>
      <trkpt lat="43.73588" lon="6.51749">
        <ele>975.4</ele>
        <time>2011-11-13T09:37:15Z</time>
      </trkpt>
      <trkpt lat="43.73594" lon="6.5175">
        <ele>974.6</ele>
        <time>2011-11-13T09:37:20Z</time>
      </trkpt>
      <trkpt lat="43.73599" lon="6.51751">
        <ele>974.9</ele>
        <time>2011-11-13T09:37:25Z</time>
      </trkpt>
      <trkpt lat="43.73601" lon="6.51751">
        <ele>974.8</ele>
        <time>2011-11-13T09:37:26Z</time>
      </trkpt>
      <trkpt lat="43.73611" lon="6.51754">
        <ele>975.5</ele>
        <time>2011-11-13T09:37:35Z</time>
      </trkpt>
      <trkpt lat="43.73617" lon="6.51755">
        <ele>975.7</ele>
        <time>2011-11-13T09:37:40Z</time>
      </trkpt>
      <trkpt lat="43.73622" lon="6.51755">
        <ele>976.3</ele>
        <time>2011-11-13T09:37:45Z</time>
      </trkpt>
      <trkpt lat="43.73627" lon="6.51755">
        <ele>976.6</ele>
        <time>2011-11-13T09:37:50Z</time>
      </trkpt>
      <trkpt lat="43.73633" lon="6.51756">
        <ele>976.1</ele>
        <time>2011-11-13T09:37:55Z</time>
      </trkpt>
      <trkpt lat="43.73639" lon="6.51757">
        <ele>976.3</ele>
        <time>2011-11-13T09:38:00Z</time>
      </trkpt>
      <trkpt lat="43.73645" lon="6.51758">
        <ele>976.8</ele>
        <time>2011-11-13T09:38:05Z</time>
      </trkpt>
      <trkpt lat="43.7365" lon="6.51759">
        <ele>976.7</ele>
        <time>2011-11-13T09:38:10Z</time>
      </trkpt>
      <trkpt lat="43.73656" lon="6.5176">
        <ele>977</ele>
        <time>2011-11-13T09:38:15Z</time>
      </trkpt>
      <trkpt lat="43.73662" lon="6.51761">
        <ele>977</ele>
        <time>2011-11-13T09:38:20Z</time>
      </trkpt>
      <trkpt lat="43.73667" lon="6.51762">
        <ele>977</ele>
        <time>2011-11-13T09:38:25Z</time>
      </trkpt>
      <trkpt lat="43.73673" lon="6.51763">
        <ele>977</ele>
        <time>2011-11-13T09:38:30Z</time>
      </trkpt>
      <trkpt lat="43.73675" lon="6.51763">
        <ele>977</ele>
        <time>2011-11-13T09:38:31Z</time>
      </trkpt>
      <trkpt lat="43.73685" lon="6.51767">
        <ele>976.9</ele>
        <time>2011-11-13T09:38:40Z</time>
      </trkpt>
      <trkpt lat="43.7369" lon="6.51768">
        <ele>976.8</ele>
        <time>2011-11-13T09:38:45Z</time>
      </trkpt>
      <trkpt lat="43.73695" lon="6.5177">
        <ele>976.9</ele>
        <time>2011-11-13T09:38:50Z</time>
      </trkpt>
      <trkpt lat="43.737" lon="6.51772">
        <ele>977.3</ele>
        <time>2011-11-13T09:38:55Z</time>
      </trkpt>
      <trkpt lat="43.73706" lon="6.51773">
        <ele>976.7</ele>
        <time>2011-11-13T09:39:00Z</time>
      </trkpt>
      <trkpt lat="43.7371" lon="6.51774">
        <ele>976.2</ele>
        <time>2011-11-13T09:39:05Z</time>
      </trkpt>
      <trkpt lat="43.73714" lon="6.51775">
        <ele>976.1</ele>
        <time>2011-11-13T09:39:10Z</time>
      </trkpt>
      <trkpt lat="43.73718" lon="6.51777">
        <ele>976.2</ele>
        <time>2011-11-13T09:39:15Z</time>
      </trkpt>
      <trkpt lat="43.73723" lon="6.51778">
        <ele>976.3</ele>
        <time>2011-11-13T09:39:20Z</time>
      </trkpt>
      <trkpt lat="43.73726" lon="6.51779">
        <ele>976.1</ele>
        <time>2011-11-13T09:39:25Z</time>
      </trkpt>
      <trkpt lat="43.73729" lon="6.5178">
        <ele>976.6</ele>
        <time>2011-11-13T09:39:30Z</time>
      </trkpt>
      <trkpt lat="43.73731" lon="6.5178">
        <ele>976.5</ele>
        <time>2011-11-13T09:39:35Z</time>
      </trkpt>
      <trkpt lat="43.73731" lon="6.51781">
        <ele>976.5</ele>
        <time>2011-11-13T09:39:36Z</time>
      </trkpt>
      <trkpt lat="43.73738" lon="6.51783">
        <ele>976.8</ele>
        <time>2011-11-13T09:39:45Z</time>
      </trkpt>
      <trkpt lat="43.73739" lon="6.51782">
        <ele>976.6</ele>
        <time>2011-11-13T09:39:50Z</time>
      </trkpt>
      <trkpt lat="43.73741" lon="6.5178">
        <ele>976.2</ele>
        <time>2011-11-13T09:39:55Z</time>
      </trkpt>
      <trkpt lat="43.73742" lon="6.51779">
        <ele>976.1</ele>
        <time>2011-11-13T09:40:00Z</time>
      </trkpt>
      <trkpt lat="43.73745" lon="6.5178">
        <ele>976.2</ele>
        <time>2011-11-13T09:40:05Z</time>
      </trkpt>
      <trkpt lat="43.73748" lon="6.5178">
        <ele>975.8</ele>
        <time>2011-11-13T09:40:10Z</time>
      </trkpt>
      <trkpt lat="43.73751" lon="6.5178">
        <ele>976</ele>
        <time>2011-11-13T09:40:15Z</time>
      </trkpt>
      <trkpt lat="43.73753" lon="6.51782">
        <ele>975.8</ele>
        <time>2011-11-13T09:40:20Z</time>
      </trkpt>
      <trkpt lat="43.73755" lon="6.51783">
        <ele>975.5</ele>
        <time>2011-11-13T09:40:25Z</time>
      </trkpt>
      <trkpt lat="43.73758" lon="6.51785">
        <ele>975.4</ele>
        <time>2011-11-13T09:40:30Z</time>
      </trkpt>
      <trkpt lat="43.73761" lon="6.51787">
        <ele>975.4</ele>
        <time>2011-11-13T09:40:35Z</time>
      </trkpt>
      <trkpt lat="43.73764" lon="6.51791">
        <ele>974.9</ele>
        <time>2011-11-13T09:40:40Z</time>
      </trkpt>
      <trkpt lat="43.73764" lon="6.51792">
        <ele>974.6</ele>
        <time>2011-11-13T09:40:41Z</time>
      </trkpt>
      <trkpt lat="43.73768" lon="6.51795">
        <ele>974.2</ele>
        <time>2011-11-13T09:40:50Z</time>
      </trkpt>
      <trkpt lat="43.73771" lon="6.51797">
        <ele>974</ele>
        <time>2011-11-13T09:40:55Z</time>
      </trkpt>
      <trkpt lat="43.73775" lon="6.51796">
        <ele>974.4</ele>
        <time>2011-11-13T09:41:00Z</time>
      </trkpt>
      <trkpt lat="43.73778" lon="6.51797">
        <ele>973.9</ele>
        <time>2011-11-13T09:41:05Z</time>
      </trkpt>
      <trkpt lat="43.73782" lon="6.51798">
        <ele>974.2</ele>
        <time>2011-11-13T09:41:10Z</time>
      </trkpt>
      <trkpt lat="43.73785" lon="6.518">
        <ele>974.4</ele>
        <time>2011-11-13T09:41:15Z</time>
      </trkpt>
      <trkpt lat="43.73787" lon="6.51802">
        <ele>973.9</ele>
        <time>2011-11-13T09:41:20Z</time>
      </trkpt>
      <trkpt lat="43.73789" lon="6.51803">
        <ele>973.8</ele>
        <time>2011-11-13T09:41:25Z</time>
      </trkpt>
      <trkpt lat="43.7379" lon="6.51801">
        <ele>973.6</ele>
        <time>2011-11-13T09:41:30Z</time>
      </trkpt>
      <trkpt lat="43.73791" lon="6.51801">
        <ele>973.4</ele>
        <time>2011-11-13T09:41:35Z</time>
      </trkpt>
      <trkpt lat="43.73792" lon="6.51801">
        <ele>972.9</ele>
        <time>2011-11-13T09:41:40Z</time>
      </trkpt>
      <trkpt lat="43.73793" lon="6.518">
        <ele>972.2</ele>
        <time>2011-11-13T09:41:45Z</time>
      </trkpt>
      <trkpt lat="43.73793" lon="6.51799">
        <ele>972.2</ele>
        <time>2011-11-13T09:41:46Z</time>
      </trkpt>
      <trkpt lat="43.73794" lon="6.518">
        <ele>972.2</ele>
        <time>2011-11-13T09:41:55Z</time>
      </trkpt>
      <trkpt lat="43.73798" lon="6.51803">
        <ele>972.3</ele>
        <time>2011-11-13T09:42:00Z</time>
      </trkpt>
      <trkpt lat="43.738" lon="6.51804">
        <ele>972</ele>
        <time>2011-11-13T09:42:07Z</time>
      </trkpt>
      <trkpt lat="43.738" lon="6.51805">
        <ele>972.4</ele>
        <time>2011-11-13T09:42:12Z</time>
      </trkpt>
      <trkpt lat="43.73803" lon="6.51808">
        <ele>972.6</ele>
        <time>2011-11-13T09:42:17Z</time>
      </trkpt>
      <trkpt lat="43.73806" lon="6.5181">
        <ele>972.6</ele>
        <time>2011-11-13T09:42:22Z</time>
      </trkpt>
      <trkpt lat="43.73808" lon="6.51812">
        <ele>972.2</ele>
        <time>2011-11-13T09:42:27Z</time>
      </trkpt>
      <trkpt lat="43.73811" lon="6.51815">
        <ele>972.1</ele>
        <time>2011-11-13T09:42:32Z</time>
      </trkpt>
      <trkpt lat="43.73815" lon="6.51819">
        <ele>971.7</ele>
        <time>2011-11-13T09:42:37Z</time>
      </trkpt>
      <trkpt lat="43.73818" lon="6.51824">
        <ele>972</ele>
        <time>2011-11-13T09:42:42Z</time>
      </trkpt>
      <trkpt lat="43.73822" lon="6.51825">
        <ele>971.7</ele>
        <time>2011-11-13T09:42:47Z</time>
      </trkpt>
      <trkpt lat="43.73822" lon="6.51826">
        <ele>971.7</ele>
        <time>2011-11-13T09:42:48Z</time>
      </trkpt>
      <trkpt lat="43.73822" lon="6.51826">
        <ele>972.1</ele>
        <time>2011-11-13T09:42:57Z</time>
      </trkpt>
      <trkpt lat="43.73823" lon="6.51826">
        <ele>971.9</ele>
        <time>2011-11-13T09:43:02Z</time>
      </trkpt>
      <trkpt lat="43.73824" lon="6.51828">
        <ele>971.9</ele>
        <time>2011-11-13T09:43:07Z</time>
      </trkpt>
      <trkpt lat="43.73824" lon="6.51828">
        <ele>971.6</ele>
        <time>2011-11-13T09:43:12Z</time>
      </trkpt>
      <trkpt lat="43.73824" lon="6.51828">
        <ele>971.6</ele>
        <time>2011-11-13T09:43:17Z</time>
      </trkpt>
      <trkpt lat="43.73824" lon="6.51828">
        <ele>972</ele>
        <time>2011-11-13T09:43:22Z</time>
      </trkpt>
      <trkpt lat="43.73824" lon="6.51828">
        <ele>971.9</ele>
        <time>2011-11-13T09:43:27Z</time>
      </trkpt>
      <trkpt lat="43.73824" lon="6.51828">
        <ele>971.8</ele>
        <time>2011-11-13T09:43:32Z</time>
      </trkpt>
      <trkpt lat="43.73824" lon="6.51828">
        <ele>971.8</ele>
        <time>2011-11-13T09:43:37Z</time>
      </trkpt>
      <trkpt lat="43.73826" lon="6.5183">
        <ele>971.9</ele>
        <time>2011-11-13T09:43:42Z</time>
      </trkpt>
      <trkpt lat="43.7383" lon="6.51834">
        <ele>972.3</ele>
        <time>2011-11-13T09:43:47Z</time>
      </trkpt>
      <trkpt lat="43.73834" lon="6.51837">
        <ele>972.3</ele>
        <time>2011-11-13T09:43:52Z</time>
      </trkpt>
      <trkpt lat="43.73835" lon="6.51838">
        <ele>972.4</ele>
        <time>2011-11-13T09:43:53Z</time>
      </trkpt>
      <trkpt lat="43.73843" lon="6.51845">
        <ele>972.9</ele>
        <time>2011-11-13T09:44:02Z</time>
      </trkpt>
      <trkpt lat="43.73847" lon="6.51849">
        <ele>972.8</ele>
        <time>2011-11-13T09:44:07Z</time>
      </trkpt>
      <trkpt lat="43.7385" lon="6.51854">
        <ele>973.4</ele>
        <time>2011-11-13T09:44:12Z</time>
      </trkpt>
      <trkpt lat="43.73853" lon="6.5186">
        <ele>973.9</ele>
        <time>2011-11-13T09:44:17Z</time>
      </trkpt>
      <trkpt lat="43.73855" lon="6.51866">
        <ele>974.7</ele>
        <time>2011-11-13T09:44:22Z</time>
      </trkpt>
      <trkpt lat="43.73856" lon="6.51871">
        <ele>974</ele>
        <time>2011-11-13T09:44:27Z</time>
      </trkpt>
      <trkpt lat="43.73858" lon="6.51876">
        <ele>974.6</ele>
        <time>2011-11-13T09:44:32Z</time>
      </trkpt>
      <trkpt lat="43.73861" lon="6.51881">
        <ele>975.4</ele>
        <time>2011-11-13T09:44:37Z</time>
      </trkpt>
      <trkpt lat="43.73864" lon="6.51886">
        <ele>976.6</ele>
        <time>2011-11-13T09:44:42Z</time>
      </trkpt>
      <trkpt lat="43.73868" lon="6.51891">
        <ele>977.6</ele>
        <time>2011-11-13T09:44:47Z</time>
      </trkpt>
      <trkpt lat="43.73872" lon="6.51895">
        <ele>977.7</ele>
        <time>2011-11-13T09:44:52Z</time>
      </trkpt>
      <trkpt lat="43.73876" lon="6.51899">
        <ele>978.5</ele>
        <time>2011-11-13T09:44:57Z</time>
      </trkpt>
      <trkpt lat="43.73877" lon="6.519">
        <ele>978.5</ele>
        <time>2011-11-13T09:44:58Z</time>
      </trkpt>
      <trkpt lat="43.73884" lon="6.51909">
        <ele>978.7</ele>
        <time>2011-11-13T09:45:07Z</time>
      </trkpt>
      <trkpt lat="43.73888" lon="6.51914">
        <ele>978.5</ele>
        <time>2011-11-13T09:45:12Z</time>
      </trkpt>
      <trkpt lat="43.73892" lon="6.51919">
        <ele>978.7</ele>
        <time>2011-11-13T09:45:17Z</time>
      </trkpt>
      <trkpt lat="43.73895" lon="6.51925">
        <ele>979</ele>
        <time>2011-11-13T09:45:22Z</time>
      </trkpt>
      <trkpt lat="43.73899" lon="6.51929">
        <ele>980.2</ele>
        <time>2011-11-13T09:45:27Z</time>
      </trkpt>
      <trkpt lat="43.73902" lon="6.51935">
        <ele>980.5</ele>
        <time>2011-11-13T09:45:32Z</time>
      </trkpt>
      <trkpt lat="43.73905" lon="6.51941">
        <ele>981</ele>
        <time>2011-11-13T09:45:37Z</time>
      </trkpt>
      <trkpt lat="43.73907" lon="6.51946">
        <ele>980.9</ele>
        <time>2011-11-13T09:45:42Z</time>
      </trkpt>
      <trkpt lat="43.7391" lon="6.51952">
        <ele>981.1</ele>
        <time>2011-11-13T09:45:47Z</time>
      </trkpt>
      <trkpt lat="43.73912" lon="6.51958">
        <ele>982.5</ele>
        <time>2011-11-13T09:45:52Z</time>
      </trkpt>
      <trkpt lat="43.73914" lon="6.51963">
        <ele>983.1</ele>
        <time>2011-11-13T09:45:57Z</time>
      </trkpt>
      <trkpt lat="43.73916" lon="6.51969">
        <ele>983.9</ele>
        <time>2011-11-13T09:46:02Z</time>
      </trkpt>
      <trkpt lat="43.73916" lon="6.5197">
        <ele>983.8</ele>
        <time>2011-11-13T09:46:03Z</time>
      </trkpt>
      <trkpt lat="43.73919" lon="6.51982">
        <ele>985.1</ele>
        <time>2011-11-13T09:46:12Z</time>
      </trkpt>
      <trkpt lat="43.7392" lon="6.51988">
        <ele>985.7</ele>
        <time>2011-11-13T09:46:17Z</time>
      </trkpt>
      <trkpt lat="43.73922" lon="6.51994">
        <ele>986.5</ele>
        <time>2011-11-13T09:46:22Z</time>
      </trkpt>
      <trkpt lat="43.73923" lon="6.52001">
        <ele>986.7</ele>
        <time>2011-11-13T09:46:27Z</time>
      </trkpt>
      <trkpt lat="43.73925" lon="6.52007">
        <ele>987.6</ele>
        <time>2011-11-13T09:46:32Z</time>
      </trkpt>
      <trkpt lat="43.73926" lon="6.52013">
        <ele>988.3</ele>
        <time>2011-11-13T09:46:37Z</time>
      </trkpt>
      <trkpt lat="43.73928" lon="6.5202">
        <ele>989.2</ele>
        <time>2011-11-13T09:46:42Z</time>
      </trkpt>
      <trkpt lat="43.73929" lon="6.52026">
        <ele>990</ele>
        <time>2011-11-13T09:46:47Z</time>
      </trkpt>
      <trkpt lat="43.7393" lon="6.52032">
        <ele>990.1</ele>
        <time>2011-11-13T09:46:52Z</time>
      </trkpt>
      <trkpt lat="43.73931" lon="6.52038">
        <ele>991.4</ele>
        <time>2011-11-13T09:46:57Z</time>
      </trkpt>
      <trkpt lat="43.73932" lon="6.52045">
        <ele>992</ele>
        <time>2011-11-13T09:47:02Z</time>
      </trkpt>
      <trkpt lat="43.73932" lon="6.52051">
        <ele>993.3</ele>
        <time>2011-11-13T09:47:07Z</time>
      </trkpt>
      <trkpt lat="43.73932" lon="6.52053">
        <ele>993.4</ele>
        <time>2011-11-13T09:47:08Z</time>
      </trkpt>
      <trkpt lat="43.73934" lon="6.52065">
        <ele>994.6</ele>
        <time>2011-11-13T09:47:17Z</time>
      </trkpt>
      <trkpt lat="43.73934" lon="6.52071">
        <ele>995.4</ele>
        <time>2011-11-13T09:47:22Z</time>
      </trkpt>
      <trkpt lat="43.73935" lon="6.52078">
        <ele>996.1</ele>
        <time>2011-11-13T09:47:27Z</time>
      </trkpt>
      <trkpt lat="43.73936" lon="6.52085">
        <ele>996.8</ele>
        <time>2011-11-13T09:47:32Z</time>
      </trkpt>
      <trkpt lat="43.73937" lon="6.52092">
        <ele>997</ele>
        <time>2011-11-13T09:47:37Z</time>
      </trkpt>
      <trkpt lat="43.73938" lon="6.52099">
        <ele>997.6</ele>
        <time>2011-11-13T09:47:42Z</time>
      </trkpt>
      <trkpt lat="43.7394" lon="6.52105">
        <ele>997.9</ele>
        <time>2011-11-13T09:47:47Z</time>
      </trkpt>
      <trkpt lat="43.73941" lon="6.52112">
        <ele>998.4</ele>
        <time>2011-11-13T09:47:52Z</time>
      </trkpt>
      <trkpt lat="43.73944" lon="6.52119">
        <ele>999.1</ele>
        <time>2011-11-13T09:47:57Z</time>
      </trkpt>
      <trkpt lat="43.73947" lon="6.52124">
        <ele>999.6</ele>
        <time>2011-11-13T09:48:02Z</time>
      </trkpt>
      <trkpt lat="43.7395" lon="6.5213">
        <ele>1000.2</ele>
        <time>2011-11-13T09:48:07Z</time>
      </trkpt>
      <trkpt lat="43.73952" lon="6.52135">
        <ele>1000.7</ele>
        <time>2011-11-13T09:48:12Z</time>
      </trkpt>
      <trkpt lat="43.73953" lon="6.52136">
        <ele>1000.7</ele>
        <time>2011-11-13T09:48:13Z</time>
      </trkpt>
      <trkpt lat="43.73958" lon="6.52147">
        <ele>1001.8</ele>
        <time>2011-11-13T09:48:22Z</time>
      </trkpt>
      <trkpt lat="43.7396" lon="6.52153">
        <ele>1002.4</ele>
        <time>2011-11-13T09:48:27Z</time>
      </trkpt>
      <trkpt lat="43.73962" lon="6.52158">
        <ele>1002.6</ele>
        <time>2011-11-13T09:48:32Z</time>
      </trkpt>
      <trkpt lat="43.73964" lon="6.52163">
        <ele>1003</ele>
        <time>2011-11-13T09:48:37Z</time>
      </trkpt>
      <trkpt lat="43.73967" lon="6.52169">
        <ele>1003.2</ele>
        <time>2011-11-13T09:48:42Z</time>
      </trkpt>
      <trkpt lat="43.7397" lon="6.52173">
        <ele>1003.7</ele>
        <time>2011-11-13T09:48:47Z</time>
      </trkpt>
      <trkpt lat="43.73972" lon="6.52177">
        <ele>1004.9</ele>
        <time>2011-11-13T09:48:52Z</time>
      </trkpt>
      <trkpt lat="43.73976" lon="6.5218">
        <ele>1005.8</ele>
        <time>2011-11-13T09:48:57Z</time>
      </trkpt>
      <trkpt lat="43.7398" lon="6.52181">
        <ele>1006</ele>
        <time>2011-11-13T09:49:02Z</time>
      </trkpt>
      <trkpt lat="43.73986" lon="6.52182">
        <ele>1007.3</ele>
        <time>2011-11-13T09:49:07Z</time>
      </trkpt>
      <trkpt lat="43.73991" lon="6.52186">
        <ele>1007.4</ele>
        <time>2011-11-13T09:49:12Z</time>
      </trkpt>
      <trkpt lat="43.73995" lon="6.5219">
        <ele>1007.8</ele>
        <time>2011-11-13T09:49:17Z</time>
      </trkpt>
      <trkpt lat="43.73996" lon="6.52191">
        <ele>1007.8</ele>
        <time>2011-11-13T09:49:18Z</time>
      </trkpt>
      <trkpt lat="43.74004" lon="6.52195">
        <ele>1008.3</ele>
        <time>2011-11-13T09:49:27Z</time>
      </trkpt>
      <trkpt lat="43.74009" lon="6.52195">
        <ele>1008.6</ele>
        <time>2011-11-13T09:49:32Z</time>
      </trkpt>
      <trkpt lat="43.74014" lon="6.52195">
        <ele>1009.1</ele>
        <time>2011-11-13T09:49:37Z</time>
      </trkpt>
      <trkpt lat="43.74019" lon="6.52197">
        <ele>1009.7</ele>
        <time>2011-11-13T09:49:42Z</time>
      </trkpt>
      <trkpt lat="43.74024" lon="6.52202">
        <ele>1009.5</ele>
        <time>2011-11-13T09:49:47Z</time>
      </trkpt>
      <trkpt lat="43.74028" lon="6.52209">
        <ele>1010.2</ele>
        <time>2011-11-13T09:49:52Z</time>
      </trkpt>
      <trkpt lat="43.74031" lon="6.52215">
        <ele>1011</ele>
        <time>2011-11-13T09:49:57Z</time>
      </trkpt>
      <trkpt lat="43.74033" lon="6.52223">
        <ele>1011.8</ele>
        <time>2011-11-13T09:50:02Z</time>
      </trkpt>
      <trkpt lat="43.74035" lon="6.5223">
        <ele>1012.6</ele>
        <time>2011-11-13T09:50:07Z</time>
      </trkpt>
      <trkpt lat="43.74036" lon="6.52236">
        <ele>1013.2</ele>
        <time>2011-11-13T09:50:12Z</time>
      </trkpt>
      <trkpt lat="43.74036" lon="6.52244">
        <ele>1014.3</ele>
        <time>2011-11-13T09:50:17Z</time>
      </trkpt>
      <trkpt lat="43.74038" lon="6.52251">
        <ele>1014.4</ele>
        <time>2011-11-13T09:50:22Z</time>
      </trkpt>
      <trkpt lat="43.74038" lon="6.52252">
        <ele>1014.5</ele>
        <time>2011-11-13T09:50:23Z</time>
      </trkpt>
      <trkpt lat="43.74038" lon="6.52264">
        <ele>1016.6</ele>
        <time>2011-11-13T09:50:32Z</time>
      </trkpt>
      <trkpt lat="43.74038" lon="6.5227">
        <ele>1017.1</ele>
        <time>2011-11-13T09:50:37Z</time>
      </trkpt>
      <trkpt lat="43.74039" lon="6.52277">
        <ele>1017.7</ele>
        <time>2011-11-13T09:50:42Z</time>
      </trkpt>
      <trkpt lat="43.74038" lon="6.52283">
        <ele>1018.4</ele>
        <time>2011-11-13T09:50:47Z</time>
      </trkpt>
      <trkpt lat="43.74039" lon="6.5229">
        <ele>1019</ele>
        <time>2011-11-13T09:50:52Z</time>
      </trkpt>
      <trkpt lat="43.7404" lon="6.52297">
        <ele>1020.2</ele>
        <time>2011-11-13T09:50:57Z</time>
      </trkpt>
      <trkpt lat="43.7404" lon="6.52303">
        <ele>1020.7</ele>
        <time>2011-11-13T09:51:02Z</time>
      </trkpt>
      <trkpt lat="43.7404" lon="6.5231">
        <ele>1021.1</ele>
        <time>2011-11-13T09:51:07Z</time>
      </trkpt>
      <trkpt lat="43.7404" lon="6.52316">
        <ele>1021.8</ele>
        <time>2011-11-13T09:51:12Z</time>
      </trkpt>
      <trkpt lat="43.74041" lon="6.52322">
        <ele>1022.7</ele>
        <time>2011-11-13T09:51:17Z</time>
      </trkpt>
      <trkpt lat="43.7404" lon="6.52329">
        <ele>1023.3</ele>
        <time>2011-11-13T09:51:22Z</time>
      </trkpt>
      <trkpt lat="43.7404" lon="6.52335">
        <ele>1023.8</ele>
        <time>2011-11-13T09:51:27Z</time>
      </trkpt>
      <trkpt lat="43.7404" lon="6.52336">
        <ele>1023.9</ele>
        <time>2011-11-13T09:51:28Z</time>
      </trkpt>
      <trkpt lat="43.7404" lon="6.52347">
        <ele>1025.2</ele>
        <time>2011-11-13T09:51:37Z</time>
      </trkpt>
      <trkpt lat="43.7404" lon="6.52353">
        <ele>1025.3</ele>
        <time>2011-11-13T09:51:42Z</time>
      </trkpt>
      <trkpt lat="43.74039" lon="6.5236">
        <ele>1026.3</ele>
        <time>2011-11-13T09:51:47Z</time>
      </trkpt>
      <trkpt lat="43.74038" lon="6.52367">
        <ele>1026.4</ele>
        <time>2011-11-13T09:51:52Z</time>
      </trkpt>
      <trkpt lat="43.74038" lon="6.52374">
        <ele>1027.5</ele>
        <time>2011-11-13T09:51:57Z</time>
      </trkpt>
      <trkpt lat="43.74037" lon="6.52381">
        <ele>1027.8</ele>
        <time>2011-11-13T09:52:02Z</time>
      </trkpt>
      <trkpt lat="43.74037" lon="6.52388">
        <ele>1027.8</ele>
        <time>2011-11-13T09:52:07Z</time>
      </trkpt>
      <trkpt lat="43.74037" lon="6.52395">
        <ele>1028.2</ele>
        <time>2011-11-13T09:52:12Z</time>
      </trkpt>
      <trkpt lat="43.74036" lon="6.52401">
        <ele>1028.6</ele>
        <time>2011-11-13T09:52:17Z</time>
      </trkpt>
      <trkpt lat="43.74036" lon="6.52409">
        <ele>1028.6</ele>
        <time>2011-11-13T09:52:22Z</time>
      </trkpt>
      <trkpt lat="43.74035" lon="6.52417">
        <ele>1028.6</ele>
        <time>2011-11-13T09:52:27Z</time>
      </trkpt>
      <trkpt lat="43.74035" lon="6.52424">
        <ele>1028.9</ele>
        <time>2011-11-13T09:52:32Z</time>
      </trkpt>
      <trkpt lat="43.74035" lon="6.52426">
        <ele>1028.9</ele>
        <time>2011-11-13T09:52:33Z</time>
      </trkpt>
      <trkpt lat="43.74033" lon="6.5244">
        <ele>1029.4</ele>
        <time>2011-11-13T09:52:42Z</time>
      </trkpt>
      <trkpt lat="43.74033" lon="6.52446">
        <ele>1029.2</ele>
        <time>2011-11-13T09:52:47Z</time>
      </trkpt>
      <trkpt lat="43.74033" lon="6.52451">
        <ele>1028.9</ele>
        <time>2011-11-13T09:52:52Z</time>
      </trkpt>
      <trkpt lat="43.74033" lon="6.52456">
        <ele>1028.3</ele>
        <time>2011-11-13T09:52:57Z</time>
      </trkpt>
      <trkpt lat="43.74034" lon="6.52463">
        <ele>1027.6</ele>
        <time>2011-11-13T09:53:02Z</time>
      </trkpt>
      <trkpt lat="43.74034" lon="6.5247">
        <ele>1026.8</ele>
        <time>2011-11-13T09:53:07Z</time>
      </trkpt>
      <trkpt lat="43.74033" lon="6.52476">
        <ele>1026.4</ele>
        <time>2011-11-13T09:53:12Z</time>
      </trkpt>
      <trkpt lat="43.74034" lon="6.52482">
        <ele>1026.2</ele>
        <time>2011-11-13T09:53:17Z</time>
      </trkpt>
      <trkpt lat="43.74032" lon="6.5249">
        <ele>1025.4</ele>
        <time>2011-11-13T09:53:22Z</time>
      </trkpt>
      <trkpt lat="43.74031" lon="6.52498">
        <ele>1024.6</ele>
        <time>2011-11-13T09:53:27Z</time>
      </trkpt>
      <trkpt lat="43.74031" lon="6.52505">
        <ele>1023.7</ele>
        <time>2011-11-13T09:53:32Z</time>
      </trkpt>
      <trkpt lat="43.74031" lon="6.52512">
        <ele>1023.2</ele>
        <time>2011-11-13T09:53:37Z</time>
      </trkpt>
      <trkpt lat="43.74031" lon="6.52513">
        <ele>1023.1</ele>
        <time>2011-11-13T09:53:38Z</time>
      </trkpt>
      <trkpt lat="43.74028" lon="6.52524">
        <ele>1021.7</ele>
        <time>2011-11-13T09:53:47Z</time>
      </trkpt>
      <trkpt lat="43.74027" lon="6.52531">
        <ele>1021.1</ele>
        <time>2011-11-13T09:53:52Z</time>
      </trkpt>
      <trkpt lat="43.74027" lon="6.52538">
        <ele>1020.9</ele>
        <time>2011-11-13T09:53:57Z</time>
      </trkpt>
      <trkpt lat="43.74026" lon="6.52545">
        <ele>1020.1</ele>
        <time>2011-11-13T09:54:02Z</time>
      </trkpt>
      <trkpt lat="43.74026" lon="6.5255">
        <ele>1019.5</ele>
        <time>2011-11-13T09:54:07Z</time>
      </trkpt>
      <trkpt lat="43.74026" lon="6.52555">
        <ele>1019.1</ele>
        <time>2011-11-13T09:54:12Z</time>
      </trkpt>
      <trkpt lat="43.74027" lon="6.52557">
        <ele>1018.7</ele>
        <time>2011-11-13T09:54:17Z</time>
      </trkpt>
      <trkpt lat="43.74028" lon="6.52558">
        <ele>1018.7</ele>
        <time>2011-11-13T09:54:22Z</time>
      </trkpt>
      <trkpt lat="43.74028" lon="6.52559">
        <ele>1018.6</ele>
        <time>2011-11-13T09:54:27Z</time>
      </trkpt>
      <trkpt lat="43.74028" lon="6.5256">
        <ele>1018.5</ele>
        <time>2011-11-13T09:54:32Z</time>
      </trkpt>
      <trkpt lat="43.74028" lon="6.5256">
        <ele>1018.5</ele>
        <time>2011-11-13T09:54:37Z</time>
      </trkpt>
      <trkpt lat="43.74029" lon="6.52561">
        <ele>1018.7</ele>
        <time>2011-11-13T09:54:42Z</time>
      </trkpt>
      <trkpt lat="43.74029" lon="6.52561">
        <ele>1018.6</ele>
        <time>2011-11-13T09:54:43Z</time>
      </trkpt>
      <trkpt lat="43.7403" lon="6.52561">
        <ele>1018.6</ele>
        <time>2011-11-13T09:54:52Z</time>
      </trkpt>
      <trkpt lat="43.74031" lon="6.52562">
        <ele>1018.5</ele>
        <time>2011-11-13T09:54:57Z</time>
      </trkpt>
      <trkpt lat="43.74033" lon="6.52562">
        <ele>1018.8</ele>
        <time>2011-11-13T09:55:02Z</time>
      </trkpt>
      <trkpt lat="43.74033" lon="6.52562">
        <ele>1019.2</ele>
        <time>2011-11-13T09:55:07Z</time>
      </trkpt>
      <trkpt lat="43.74035" lon="6.52562">
        <ele>1018.8</ele>
        <time>2011-11-13T09:55:12Z</time>
      </trkpt>
      <trkpt lat="43.74034" lon="6.52562">
        <ele>1018.4</ele>
        <time>2011-11-13T09:55:17Z</time>
      </trkpt>
      <trkpt lat="43.74033" lon="6.52562">
        <ele>1018.6</ele>
        <time>2011-11-13T09:55:22Z</time>
      </trkpt>
      <trkpt lat="43.74031" lon="6.52563">
        <ele>1018.2</ele>
        <time>2011-11-13T09:55:27Z</time>
      </trkpt>
      <trkpt lat="43.7403" lon="6.52563">
        <ele>1017.8</ele>
        <time>2011-11-13T09:55:32Z</time>
      </trkpt>
      <trkpt lat="43.74029" lon="6.52562">
        <ele>1018.1</ele>
        <time>2011-11-13T09:55:37Z</time>
      </trkpt>
      <trkpt lat="43.74028" lon="6.52561">
        <ele>1017.5</ele>
        <time>2011-11-13T09:55:42Z</time>
      </trkpt>
      <trkpt lat="43.74027" lon="6.5256">
        <ele>1017.5</ele>
        <time>2011-11-13T09:55:47Z</time>
      </trkpt>
      <trkpt lat="43.74027" lon="6.5256">
        <ele>1017.5</ele>
        <time>2011-11-13T09:55:48Z</time>
      </trkpt>
      <trkpt lat="43.74026" lon="6.5256">
        <ele>1017.3</ele>
        <time>2011-11-13T09:55:57Z</time>
      </trkpt>
      <trkpt lat="43.74027" lon="6.52559">
        <ele>1017.4</ele>
        <time>2011-11-13T09:56:02Z</time>
      </trkpt>
      <trkpt lat="43.74028" lon="6.52558">
        <ele>1016.9</ele>
        <time>2011-11-13T09:56:07Z</time>
      </trkpt>
      <trkpt lat="43.74028" lon="6.52558">
        <ele>1017.4</ele>
        <time>2011-11-13T09:56:12Z</time>
      </trkpt>
      <trkpt lat="43.74027" lon="6.52557">
        <ele>1017.1</ele>
        <time>2011-11-13T09:56:17Z</time>
      </trkpt>
      <trkpt lat="43.74027" lon="6.52556">
        <ele>1017.1</ele>
        <time>2011-11-13T09:56:22Z</time>
      </trkpt>
      <trkpt lat="43.74026" lon="6.52556">
        <ele>1017.5</ele>
        <time>2011-11-13T09:56:27Z</time>
      </trkpt>
      <trkpt lat="43.74026" lon="6.52556">
        <ele>1017.3</ele>
        <time>2011-11-13T09:56:32Z</time>
      </trkpt>
      <trkpt lat="43.74027" lon="6.52556">
        <ele>1016.8</ele>
        <time>2011-11-13T09:56:37Z</time>
      </trkpt>
      <trkpt lat="43.74026" lon="6.52556">
        <ele>1017</ele>
        <time>2011-11-13T09:56:42Z</time>
      </trkpt>
      <trkpt lat="43.74026" lon="6.52556">
        <ele>1017.4</ele>
        <time>2011-11-13T09:56:47Z</time>
      </trkpt>
      <trkpt lat="43.74026" lon="6.52557">
        <ele>1017.2</ele>
        <time>2011-11-13T09:56:52Z</time>
      </trkpt>
      <trkpt lat="43.74026" lon="6.52557">
        <ele>1017.2</ele>
        <time>2011-11-13T09:56:53Z</time>
      </trkpt>
      <trkpt lat="43.74026" lon="6.52557">
        <ele>1017.3</ele>
        <time>2011-11-13T09:57:02Z</time>
      </trkpt>
      <trkpt lat="43.74026" lon="6.52558">
        <ele>1017.5</ele>
        <time>2011-11-13T09:57:07Z</time>
      </trkpt>
      <trkpt lat="43.74026" lon="6.52558">
        <ele>1017.5</ele>
        <time>2011-11-13T09:57:12Z</time>
      </trkpt>
      <trkpt lat="43.74027" lon="6.52558">
        <ele>1017.3</ele>
        <time>2011-11-13T09:57:17Z</time>
      </trkpt>
      <trkpt lat="43.74026" lon="6.52559">
        <ele>1017.5</ele>
        <time>2011-11-13T09:57:22Z</time>
      </trkpt>
      <trkpt lat="43.74026" lon="6.52559">
        <ele>1017.8</ele>
        <time>2011-11-13T09:57:27Z</time>
      </trkpt>
      <trkpt lat="43.74026" lon="6.52559">
        <ele>1017.5</ele>
        <time>2011-11-13T09:57:32Z</time>
      </trkpt>
      <trkpt lat="43.74026" lon="6.5256">
        <ele>1017.7</ele>
        <time>2011-11-13T09:57:37Z</time>
      </trkpt>
      <trkpt lat="43.74026" lon="6.5256">
        <ele>1017.5</ele>
        <time>2011-11-13T09:57:42Z</time>
      </trkpt>
      <trkpt lat="43.74026" lon="6.5256">
        <ele>1017.5</ele>
        <time>2011-11-13T09:57:47Z</time>
      </trkpt>
      <trkpt lat="43.74026" lon="6.5256">
        <ele>1017.8</ele>
        <time>2011-11-13T09:57:52Z</time>
      </trkpt>
      <trkpt lat="43.74025" lon="6.5256">
        <ele>1018</ele>
        <time>2011-11-13T09:57:57Z</time>
      </trkpt>
      <trkpt lat="43.74025" lon="6.5256">
        <ele>1017.9</ele>
        <time>2011-11-13T09:57:58Z</time>
      </trkpt>
      <trkpt lat="43.74026" lon="6.5256">
        <ele>1017.4</ele>
        <time>2011-11-13T09:58:07Z</time>
      </trkpt>
      <trkpt lat="43.74026" lon="6.5256">
        <ele>1017.8</ele>
        <time>2011-11-13T09:58:12Z</time>
      </trkpt>
      <trkpt lat="43.74026" lon="6.5256">
        <ele>1017.3</ele>
        <time>2011-11-13T09:58:17Z</time>
      </trkpt>
      <trkpt lat="43.74027" lon="6.52559">
        <ele>1017.6</ele>
        <time>2011-11-13T09:58:22Z</time>
      </trkpt>
      <trkpt lat="43.74026" lon="6.52558">
        <ele>1018.2</ele>
        <time>2011-11-13T09:58:27Z</time>
      </trkpt>
      <trkpt lat="43.74028" lon="6.52555">
        <ele>1017.2</ele>
        <time>2011-11-13T09:58:32Z</time>
      </trkpt>
      <trkpt lat="43.7403" lon="6.52552">
        <ele>1017.2</ele>
        <time>2011-11-13T09:58:37Z</time>
      </trkpt>
      <trkpt lat="43.74033" lon="6.52547">
        <ele>1017.1</ele>
        <time>2011-11-13T09:58:42Z</time>
      </trkpt>
      <trkpt lat="43.74036" lon="6.52543">
        <ele>1016.2</ele>
        <time>2011-11-13T09:58:47Z</time>
      </trkpt>
      <trkpt lat="43.74039" lon="6.52538">
        <ele>1016.5</ele>
        <time>2011-11-13T09:58:52Z</time>
      </trkpt>
      <trkpt lat="43.74043" lon="6.52533">
        <ele>1016</ele>
        <time>2011-11-13T09:58:57Z</time>
      </trkpt>
      <trkpt lat="43.74046" lon="6.52528">
        <ele>1015.4</ele>
        <time>2011-11-13T09:59:02Z</time>
      </trkpt>
      <trkpt lat="43.74046" lon="6.52527">
        <ele>1015.2</ele>
        <time>2011-11-13T09:59:03Z</time>
      </trkpt>
      <trkpt lat="43.74049" lon="6.52517">
        <ele>1014.1</ele>
        <time>2011-11-13T09:59:12Z</time>
      </trkpt>
      <trkpt lat="43.74052" lon="6.52513">
        <ele>1013.1</ele>
        <time>2011-11-13T09:59:17Z</time>
      </trkpt>
      <trkpt lat="43.74055" lon="6.52509">
        <ele>1012.8</ele>
        <time>2011-11-13T09:59:22Z</time>
      </trkpt>
      <trkpt lat="43.74058" lon="6.52505">
        <ele>1012.7</ele>
        <time>2011-11-13T09:59:27Z</time>
      </trkpt>
      <trkpt lat="43.74062" lon="6.52502">
        <ele>1011.1</ele>
        <time>2011-11-13T09:59:32Z</time>
      </trkpt>
      <trkpt lat="43.74066" lon="6.52499">
        <ele>1010.1</ele>
        <time>2011-11-13T09:59:37Z</time>
      </trkpt>
      <trkpt lat="43.7407" lon="6.52496">
        <ele>1008.8</ele>
        <time>2011-11-13T09:59:42Z</time>
      </trkpt>
      <trkpt lat="43.74075" lon="6.52493">
        <ele>1008</ele>
        <time>2011-11-13T09:59:47Z</time>
      </trkpt>
      <trkpt lat="43.74079" lon="6.52489">
        <ele>1007.2</ele>
        <time>2011-11-13T09:59:52Z</time>
      </trkpt>
      <trkpt lat="43.74083" lon="6.52486">
        <ele>1006.1</ele>
        <time>2011-11-13T09:59:57Z</time>
      </trkpt>
      <trkpt lat="43.74088" lon="6.52485">
        <ele>1005.3</ele>
        <time>2011-11-13T10:00:02Z</time>
      </trkpt>
      <trkpt lat="43.74092" lon="6.52487">
        <ele>1004.1</ele>
        <time>2011-11-13T10:00:07Z</time>
      </trkpt>
      <trkpt lat="43.74093" lon="6.52488">
        <ele>1003.8</ele>
        <time>2011-11-13T10:00:08Z</time>
      </trkpt>
      <trkpt lat="43.74095" lon="6.52494">
        <ele>1002</ele>
        <time>2011-11-13T10:00:17Z</time>
      </trkpt>
      <trkpt lat="43.74096" lon="6.52499">
        <ele>1000.6</ele>
        <time>2011-11-13T10:00:22Z</time>
      </trkpt>
      <trkpt lat="43.74097" lon="6.52504">
        <ele>999.4</ele>
        <time>2011-11-13T10:00:27Z</time>
      </trkpt>
      <trkpt lat="43.74098" lon="6.52509">
        <ele>998.7</ele>
        <time>2011-11-13T10:00:32Z</time>
      </trkpt>
      <trkpt lat="43.74099" lon="6.52516">
        <ele>998</ele>
        <time>2011-11-13T10:00:37Z</time>
      </trkpt>
      <trkpt lat="43.74097" lon="6.52521">
        <ele>996.8</ele>
        <time>2011-11-13T10:00:42Z</time>
      </trkpt>
      <trkpt lat="43.74096" lon="6.52526">
        <ele>995.9</ele>
        <time>2011-11-13T10:00:47Z</time>
      </trkpt>
      <trkpt lat="43.74094" lon="6.52532">
        <ele>994.7</ele>
        <time>2011-11-13T10:00:52Z</time>
      </trkpt>
      <trkpt lat="43.74092" lon="6.52537">
        <ele>993.8</ele>
        <time>2011-11-13T10:00:57Z</time>
      </trkpt>
      <trkpt lat="43.74089" lon="6.52543">
        <ele>993.4</ele>
        <time>2011-11-13T10:01:02Z</time>
      </trkpt>
      <trkpt lat="43.74086" lon="6.52548">
        <ele>992.7</ele>
        <time>2011-11-13T10:01:07Z</time>
      </trkpt>
      <trkpt lat="43.74083" lon="6.52554">
        <ele>992.1</ele>
        <time>2011-11-13T10:01:12Z</time>
      </trkpt>
      <trkpt lat="43.74082" lon="6.52555">
        <ele>992.1</ele>
        <time>2011-11-13T10:01:13Z</time>
      </trkpt>
      <trkpt lat="43.74079" lon="6.52567">
        <ele>990.8</ele>
        <time>2011-11-13T10:01:22Z</time>
      </trkpt>
      <trkpt lat="43.74077" lon="6.52575">
        <ele>990</ele>
        <time>2011-11-13T10:01:27Z</time>
      </trkpt>
      <trkpt lat="43.74073" lon="6.52582">
        <ele>989.4</ele>
        <time>2011-11-13T10:01:32Z</time>
      </trkpt>
      <trkpt lat="43.74071" lon="6.52589">
        <ele>989.6</ele>
        <time>2011-11-13T10:01:37Z</time>
      </trkpt>
      <trkpt lat="43.74066" lon="6.52593">
        <ele>988.7</ele>
        <time>2011-11-13T10:01:42Z</time>
      </trkpt>
      <trkpt lat="43.74065" lon="6.52599">
        <ele>987.9</ele>
        <time>2011-11-13T10:01:47Z</time>
      </trkpt>
      <trkpt lat="43.74063" lon="6.52605">
        <ele>986.9</ele>
        <time>2011-11-13T10:01:52Z</time>
      </trkpt>
      <trkpt lat="43.74062" lon="6.52613">
        <ele>986.7</ele>
        <time>2011-11-13T10:01:57Z</time>
      </trkpt>
      <trkpt lat="43.74059" lon="6.52618">
        <ele>985.9</ele>
        <time>2011-11-13T10:02:02Z</time>
      </trkpt>
      <trkpt lat="43.74056" lon="6.52624">
        <ele>984.8</ele>
        <time>2011-11-13T10:02:07Z</time>
      </trkpt>
      <trkpt lat="43.74054" lon="6.5263">
        <ele>983.9</ele>
        <time>2011-11-13T10:02:12Z</time>
      </trkpt>
      <trkpt lat="43.74056" lon="6.52637">
        <ele>983.5</ele>
        <time>2011-11-13T10:02:17Z</time>
      </trkpt>
      <trkpt lat="43.74057" lon="6.52638">
        <ele>983.3</ele>
        <time>2011-11-13T10:02:18Z</time>
      </trkpt>
      <trkpt lat="43.74064" lon="6.52644">
        <ele>980.9</ele>
        <time>2011-11-13T10:02:27Z</time>
      </trkpt>
      <trkpt lat="43.74067" lon="6.52645">
        <ele>980.3</ele>
        <time>2011-11-13T10:02:32Z</time>
      </trkpt>
      <trkpt lat="43.74071" lon="6.52643">
        <ele>979.1</ele>
        <time>2011-11-13T10:02:37Z</time>
      </trkpt>
      <trkpt lat="43.74074" lon="6.52642">
        <ele>978.3</ele>
        <time>2011-11-13T10:02:42Z</time>
      </trkpt>
      <trkpt lat="43.74079" lon="6.5264">
        <ele>978</ele>
        <time>2011-11-13T10:02:47Z</time>
      </trkpt>
      <trkpt lat="43.74082" lon="6.52637">
        <ele>976.1</ele>
        <time>2011-11-13T10:02:52Z</time>
      </trkpt>
      <trkpt lat="43.74087" lon="6.52634">
        <ele>976.1</ele>
        <time>2011-11-13T10:02:57Z</time>
      </trkpt>
      <trkpt lat="43.74093" lon="6.52631">
        <ele>975.9</ele>
        <time>2011-11-13T10:03:02Z</time>
      </trkpt>
      <trkpt lat="43.74097" lon="6.52626">
        <ele>975.2</ele>
        <time>2011-11-13T10:03:07Z</time>
      </trkpt>
      <trkpt lat="43.74101" lon="6.52623">
        <ele>974.2</ele>
        <time>2011-11-13T10:03:12Z</time>
      </trkpt>
      <trkpt lat="43.74105" lon="6.52619">
        <ele>973.4</ele>
        <time>2011-11-13T10:03:17Z</time>
      </trkpt>
      <trkpt lat="43.7411" lon="6.52616">
        <ele>972.4</ele>
        <time>2011-11-13T10:03:22Z</time>
      </trkpt>
      <trkpt lat="43.74111" lon="6.52616">
        <ele>972</ele>
        <time>2011-11-13T10:03:23Z</time>
      </trkpt>
      <trkpt lat="43.7412" lon="6.5261">
        <ele>971</ele>
        <time>2011-11-13T10:03:32Z</time>
      </trkpt>
      <trkpt lat="43.74125" lon="6.52611">
        <ele>970.5</ele>
        <time>2011-11-13T10:03:37Z</time>
      </trkpt>
      <trkpt lat="43.74128" lon="6.52613">
        <ele>969.5</ele>
        <time>2011-11-13T10:03:42Z</time>
      </trkpt>
      <trkpt lat="43.74126" lon="6.52616">
        <ele>968.7</ele>
        <time>2011-11-13T10:03:47Z</time>
      </trkpt>
      <trkpt lat="43.74123" lon="6.52618">
        <ele>968.1</ele>
        <time>2011-11-13T10:03:52Z</time>
      </trkpt>
      <trkpt lat="43.74121" lon="6.52622">
        <ele>966.7</ele>
        <time>2011-11-13T10:03:57Z</time>
      </trkpt>
      <trkpt lat="43.74118" lon="6.52626">
        <ele>966.2</ele>
        <time>2011-11-13T10:04:02Z</time>
      </trkpt>
      <trkpt lat="43.74115" lon="6.5263">
        <ele>965.9</ele>
        <time>2011-11-13T10:04:07Z</time>
      </trkpt>
      <trkpt lat="43.74112" lon="6.52634">
        <ele>965.5</ele>
        <time>2011-11-13T10:04:12Z</time>
      </trkpt>
      <trkpt lat="43.74111" lon="6.5264">
        <ele>965.7</ele>
        <time>2011-11-13T10:04:17Z</time>
      </trkpt>
      <trkpt lat="43.7411" lon="6.52647">
        <ele>965.6</ele>
        <time>2011-11-13T10:04:22Z</time>
      </trkpt>
      <trkpt lat="43.74107" lon="6.52653">
        <ele>965</ele>
        <time>2011-11-13T10:04:27Z</time>
      </trkpt>
      <trkpt lat="43.74107" lon="6.52654">
        <ele>965</ele>
        <time>2011-11-13T10:04:28Z</time>
      </trkpt>
      <trkpt lat="43.74099" lon="6.52665">
        <ele>963.9</ele>
        <time>2011-11-13T10:04:37Z</time>
      </trkpt>
      <trkpt lat="43.74098" lon="6.52671">
        <ele>963.3</ele>
        <time>2011-11-13T10:04:42Z</time>
      </trkpt>
      <trkpt lat="43.74096" lon="6.52678">
        <ele>962.7</ele>
        <time>2011-11-13T10:04:47Z</time>
      </trkpt>
      <trkpt lat="43.74094" lon="6.52685">
        <ele>961.8</ele>
        <time>2011-11-13T10:04:52Z</time>
      </trkpt>
      <trkpt lat="43.74092" lon="6.52691">
        <ele>961.9</ele>
        <time>2011-11-13T10:04:57Z</time>
      </trkpt>
      <trkpt lat="43.7409" lon="6.52699">
        <ele>961.1</ele>
        <time>2011-11-13T10:05:02Z</time>
      </trkpt>
      <trkpt lat="43.74089" lon="6.52707">
        <ele>959.8</ele>
        <time>2011-11-13T10:05:07Z</time>
      </trkpt>
      <trkpt lat="43.74086" lon="6.52713">
        <ele>959.4</ele>
        <time>2011-11-13T10:05:12Z</time>
      </trkpt>
      <trkpt lat="43.74083" lon="6.52718">
        <ele>959</ele>
        <time>2011-11-13T10:05:17Z</time>
      </trkpt>
      <trkpt lat="43.7408" lon="6.52725">
        <ele>957.3</ele>
        <time>2011-11-13T10:05:22Z</time>
      </trkpt>
      <trkpt lat="43.74079" lon="6.52733">
        <ele>956.9</ele>
        <time>2011-11-13T10:05:27Z</time>
      </trkpt>
      <trkpt lat="43.7408" lon="6.52741">
        <ele>956.1</ele>
        <time>2011-11-13T10:05:32Z</time>
      </trkpt>
      <trkpt lat="43.7408" lon="6.52742">
        <ele>955.9</ele>
        <time>2011-11-13T10:05:33Z</time>
      </trkpt>
      <trkpt lat="43.74077" lon="6.52754">
        <ele>954.2</ele>
        <time>2011-11-13T10:05:42Z</time>
      </trkpt>
      <trkpt lat="43.74076" lon="6.52761">
        <ele>953.6</ele>
        <time>2011-11-13T10:05:47Z</time>
      </trkpt>
      <trkpt lat="43.74074" lon="6.52769">
        <ele>952.3</ele>
        <time>2011-11-13T10:05:52Z</time>
      </trkpt>
      <trkpt lat="43.74074" lon="6.52777">
        <ele>952</ele>
        <time>2011-11-13T10:05:57Z</time>
      </trkpt>
      <trkpt lat="43.74074" lon="6.52783">
        <ele>950.8</ele>
        <time>2011-11-13T10:06:02Z</time>
      </trkpt>
      <trkpt lat="43.74073" lon="6.5279">
        <ele>950.1</ele>
        <time>2011-11-13T10:06:07Z</time>
      </trkpt>
      <trkpt lat="43.7407" lon="6.52796">
        <ele>948.9</ele>
        <time>2011-11-13T10:06:12Z</time>
      </trkpt>
      <trkpt lat="43.74069" lon="6.52801">
        <ele>948.1</ele>
        <time>2011-11-13T10:06:17Z</time>
      </trkpt>
      <trkpt lat="43.74067" lon="6.52806">
        <ele>947.5</ele>
        <time>2011-11-13T10:06:22Z</time>
      </trkpt>
      <trkpt lat="43.74063" lon="6.52811">
        <ele>946.9</ele>
        <time>2011-11-13T10:06:27Z</time>
      </trkpt>
      <trkpt lat="43.74062" lon="6.52817">
        <ele>945.4</ele>
        <time>2011-11-13T10:06:32Z</time>
      </trkpt>
      <trkpt lat="43.74061" lon="6.52823">
        <ele>945.1</ele>
        <time>2011-11-13T10:06:37Z</time>
      </trkpt>
      <trkpt lat="43.7406" lon="6.52825">
        <ele>944.8</ele>
        <time>2011-11-13T10:06:38Z</time>
      </trkpt>
      <trkpt lat="43.7406" lon="6.52838">
        <ele>943.8</ele>
        <time>2011-11-13T10:06:47Z</time>
      </trkpt>
      <trkpt lat="43.74058" lon="6.52846">
        <ele>943.3</ele>
        <time>2011-11-13T10:06:52Z</time>
      </trkpt>
      <trkpt lat="43.74057" lon="6.52853">
        <ele>942.8</ele>
        <time>2011-11-13T10:06:57Z</time>
      </trkpt>
      <trkpt lat="43.74056" lon="6.5286">
        <ele>942.2</ele>
        <time>2011-11-13T10:07:02Z</time>
      </trkpt>
      <trkpt lat="43.74056" lon="6.52864">
        <ele>941.7</ele>
        <time>2011-11-13T10:07:07Z</time>
      </trkpt>
      <trkpt lat="43.74052" lon="6.52871">
        <ele>941.6</ele>
        <time>2011-11-13T10:07:12Z</time>
      </trkpt>
      <trkpt lat="43.74049" lon="6.52876">
        <ele>940.4</ele>
        <time>2011-11-13T10:07:17Z</time>
      </trkpt>
      <trkpt lat="43.74048" lon="6.52884">
        <ele>939.9</ele>
        <time>2011-11-13T10:07:22Z</time>
      </trkpt>
      <trkpt lat="43.74044" lon="6.52889">
        <ele>939.6</ele>
        <time>2011-11-13T10:07:27Z</time>
      </trkpt>
      <trkpt lat="43.7404" lon="6.52895">
        <ele>938.9</ele>
        <time>2011-11-13T10:07:32Z</time>
      </trkpt>
      <trkpt lat="43.74037" lon="6.52901">
        <ele>938</ele>
        <time>2011-11-13T10:07:37Z</time>
      </trkpt>
      <trkpt lat="43.74034" lon="6.52907">
        <ele>936.9</ele>
        <time>2011-11-13T10:07:42Z</time>
      </trkpt>
      <trkpt lat="43.74033" lon="6.52908">
        <ele>937</ele>
        <time>2011-11-13T10:07:43Z</time>
      </trkpt>
      <trkpt lat="43.74026" lon="6.52917">
        <ele>935.7</ele>
        <time>2011-11-13T10:07:52Z</time>
      </trkpt>
      <trkpt lat="43.74025" lon="6.52923">
        <ele>934.7</ele>
        <time>2011-11-13T10:07:57Z</time>
      </trkpt>
      <trkpt lat="43.74022" lon="6.52929">
        <ele>933.7</ele>
        <time>2011-11-13T10:08:02Z</time>
      </trkpt>
      <trkpt lat="43.7402" lon="6.52934">
        <ele>932.4</ele>
        <time>2011-11-13T10:08:07Z</time>
      </trkpt>
      <trkpt lat="43.74017" lon="6.5294">
        <ele>931</ele>
        <time>2011-11-13T10:08:12Z</time>
      </trkpt>
      <trkpt lat="43.74015" lon="6.52947">
        <ele>930.7</ele>
        <time>2011-11-13T10:08:17Z</time>
      </trkpt>
      <trkpt lat="43.74013" lon="6.52953">
        <ele>929.7</ele>
        <time>2011-11-13T10:08:22Z</time>
      </trkpt>
      <trkpt lat="43.7401" lon="6.52958">
        <ele>928.7</ele>
        <time>2011-11-13T10:08:27Z</time>
      </trkpt>
      <trkpt lat="43.74007" lon="6.52964">
        <ele>927.8</ele>
        <time>2011-11-13T10:08:32Z</time>
      </trkpt>
      <trkpt lat="43.74004" lon="6.5297">
        <ele>925.9</ele>
        <time>2011-11-13T10:08:37Z</time>
      </trkpt>
      <trkpt lat="43.74" lon="6.52974">
        <ele>925</ele>
        <time>2011-11-13T10:08:42Z</time>
      </trkpt>
      <trkpt lat="43.73997" lon="6.52979">
        <ele>924</ele>
        <time>2011-11-13T10:08:47Z</time>
      </trkpt>
      <trkpt lat="43.73996" lon="6.5298">
        <ele>924.1</ele>
        <time>2011-11-13T10:08:48Z</time>
      </trkpt>
      <trkpt lat="43.7399" lon="6.52991">
        <ele>922.5</ele>
        <time>2011-11-13T10:08:57Z</time>
      </trkpt>
      <trkpt lat="43.73986" lon="6.52996">
        <ele>921.6</ele>
        <time>2011-11-13T10:09:02Z</time>
      </trkpt>
      <trkpt lat="43.73983" lon="6.53002">
        <ele>920.5</ele>
        <time>2011-11-13T10:09:07Z</time>
      </trkpt>
      <trkpt lat="43.7398" lon="6.53008">
        <ele>920</ele>
        <time>2011-11-13T10:09:12Z</time>
      </trkpt>
      <trkpt lat="43.73977" lon="6.53014">
        <ele>918.9</ele>
        <time>2011-11-13T10:09:17Z</time>
      </trkpt>
      <trkpt lat="43.73975" lon="6.53021">
        <ele>918</ele>
        <time>2011-11-13T10:09:22Z</time>
      </trkpt>
      <trkpt lat="43.73972" lon="6.53027">
        <ele>916.7</ele>
        <time>2011-11-13T10:09:27Z</time>
      </trkpt>
      <trkpt lat="43.7397" lon="6.53032">
        <ele>915.6</ele>
        <time>2011-11-13T10:09:32Z</time>
      </trkpt>
      <trkpt lat="43.73967" lon="6.53038">
        <ele>914.9</ele>
        <time>2011-11-13T10:09:37Z</time>
      </trkpt>
      <trkpt lat="43.73964" lon="6.53044">
        <ele>913.8</ele>
        <time>2011-11-13T10:09:42Z</time>
      </trkpt>
      <trkpt lat="43.73962" lon="6.53051">
        <ele>913</ele>
        <time>2011-11-13T10:09:47Z</time>
      </trkpt>
      <trkpt lat="43.73959" lon="6.53057">
        <ele>912.1</ele>
        <time>2011-11-13T10:09:52Z</time>
      </trkpt>
      <trkpt lat="43.73958" lon="6.53058">
        <ele>911.9</ele>
        <time>2011-11-13T10:09:53Z</time>
      </trkpt>
      <trkpt lat="43.73952" lon="6.53068">
        <ele>911.3</ele>
        <time>2011-11-13T10:10:02Z</time>
      </trkpt>
      <trkpt lat="43.7395" lon="6.53074">
        <ele>910.4</ele>
        <time>2011-11-13T10:10:07Z</time>
      </trkpt>
      <trkpt lat="43.73948" lon="6.5308">
        <ele>910</ele>
        <time>2011-11-13T10:10:12Z</time>
      </trkpt>
      <trkpt lat="43.73944" lon="6.53084">
        <ele>909.4</ele>
        <time>2011-11-13T10:10:17Z</time>
      </trkpt>
      <trkpt lat="43.73941" lon="6.53088">
        <ele>908.9</ele>
        <time>2011-11-13T10:10:22Z</time>
      </trkpt>
      <trkpt lat="43.73937" lon="6.53094">
        <ele>907.9</ele>
        <time>2011-11-13T10:10:27Z</time>
      </trkpt>
      <trkpt lat="43.73934" lon="6.53099">
        <ele>907.1</ele>
        <time>2011-11-13T10:10:32Z</time>
      </trkpt>
      <trkpt lat="43.73931" lon="6.53104">
        <ele>906.1</ele>
        <time>2011-11-13T10:10:37Z</time>
      </trkpt>
      <trkpt lat="43.73928" lon="6.53109">
        <ele>905.4</ele>
        <time>2011-11-13T10:10:42Z</time>
      </trkpt>
      <trkpt lat="43.73925" lon="6.53115">
        <ele>904.6</ele>
        <time>2011-11-13T10:10:47Z</time>
      </trkpt>
      <trkpt lat="43.73922" lon="6.53121">
        <ele>903.5</ele>
        <time>2011-11-13T10:10:52Z</time>
      </trkpt>
      <trkpt lat="43.7392" lon="6.53126">
        <ele>903.2</ele>
        <time>2011-11-13T10:10:57Z</time>
      </trkpt>
      <trkpt lat="43.7392" lon="6.53127">
        <ele>903.1</ele>
        <time>2011-11-13T10:10:58Z</time>
      </trkpt>
      <trkpt lat="43.73919" lon="6.53136">
        <ele>902.4</ele>
        <time>2011-11-13T10:11:07Z</time>
      </trkpt>
      <trkpt lat="43.7392" lon="6.53141">
        <ele>901.6</ele>
        <time>2011-11-13T10:11:12Z</time>
      </trkpt>
      <trkpt lat="43.7392" lon="6.53144">
        <ele>901.7</ele>
        <time>2011-11-13T10:11:17Z</time>
      </trkpt>
      <trkpt lat="43.7392" lon="6.53145">
        <ele>902</ele>
        <time>2011-11-13T10:11:22Z</time>
      </trkpt>
      <trkpt lat="43.73919" lon="6.53147">
        <ele>901.8</ele>
        <time>2011-11-13T10:11:27Z</time>
      </trkpt>
      <trkpt lat="43.73917" lon="6.53146">
        <ele>901.9</ele>
        <time>2011-11-13T10:11:32Z</time>
      </trkpt>
      <trkpt lat="43.73918" lon="6.53148">
        <ele>901.7</ele>
        <time>2011-11-13T10:11:37Z</time>
      </trkpt>
      <trkpt lat="43.7392" lon="6.53149">
        <ele>901.8</ele>
        <time>2011-11-13T10:11:42Z</time>
      </trkpt>
      <trkpt lat="43.73922" lon="6.5315">
        <ele>901.8</ele>
        <time>2011-11-13T10:11:47Z</time>
      </trkpt>
      <trkpt lat="43.73922" lon="6.53154">
        <ele>900.9</ele>
        <time>2011-11-13T10:11:52Z</time>
      </trkpt>
      <trkpt lat="43.73921" lon="6.53158">
        <ele>899.5</ele>
        <time>2011-11-13T10:11:57Z</time>
      </trkpt>
      <trkpt lat="43.7392" lon="6.53163">
        <ele>898.2</ele>
        <time>2011-11-13T10:12:02Z</time>
      </trkpt>
      <trkpt lat="43.7392" lon="6.53163">
        <ele>898.1</ele>
        <time>2011-11-13T10:12:03Z</time>
      </trkpt>
      <trkpt lat="43.73918" lon="6.53172">
        <ele>896.5</ele>
        <time>2011-11-13T10:12:12Z</time>
      </trkpt>
      <trkpt lat="43.73918" lon="6.53176">
        <ele>895</ele>
        <time>2011-11-13T10:12:17Z</time>
      </trkpt>
      <trkpt lat="43.73917" lon="6.53181">
        <ele>893.8</ele>
        <time>2011-11-13T10:12:22Z</time>
      </trkpt>
      <trkpt lat="43.73916" lon="6.53186">
        <ele>893</ele>
        <time>2011-11-13T10:12:27Z</time>
      </trkpt>
      <trkpt lat="43.73914" lon="6.53191">
        <ele>892</ele>
        <time>2011-11-13T10:12:32Z</time>
      </trkpt>
      <trkpt lat="43.73913" lon="6.53197">
        <ele>891.5</ele>
        <time>2011-11-13T10:12:37Z</time>
      </trkpt>
      <trkpt lat="43.73912" lon="6.53202">
        <ele>890.4</ele>
        <time>2011-11-13T10:12:42Z</time>
      </trkpt>
      <trkpt lat="43.7391" lon="6.53206">
        <ele>889.4</ele>
        <time>2011-11-13T10:12:47Z</time>
      </trkpt>
      <trkpt lat="43.73907" lon="6.53211">
        <ele>888.3</ele>
        <time>2011-11-13T10:12:52Z</time>
      </trkpt>
      <trkpt lat="43.73905" lon="6.53216">
        <ele>887.4</ele>
        <time>2011-11-13T10:12:57Z</time>
      </trkpt>
      <trkpt lat="43.73902" lon="6.53221">
        <ele>887</ele>
        <time>2011-11-13T10:13:02Z</time>
      </trkpt>
      <trkpt lat="43.739" lon="6.53226">
        <ele>886.8</ele>
        <time>2011-11-13T10:13:07Z</time>
      </trkpt>
      <trkpt lat="43.739" lon="6.53227">
        <ele>886.4</ele>
        <time>2011-11-13T10:13:08Z</time>
      </trkpt>
      <trkpt lat="43.73895" lon="6.53239">
        <ele>885.2</ele>
        <time>2011-11-13T10:13:17Z</time>
      </trkpt>
      <trkpt lat="43.73894" lon="6.53243">
        <ele>884.8</ele>
        <time>2011-11-13T10:13:22Z</time>
      </trkpt>
      <trkpt lat="43.73892" lon="6.53247">
        <ele>883.8</ele>
        <time>2011-11-13T10:13:27Z</time>
      </trkpt>
      <trkpt lat="43.7389" lon="6.53252">
        <ele>882.4</ele>
        <time>2011-11-13T10:13:32Z</time>
      </trkpt>
      <trkpt lat="43.73887" lon="6.53258">
        <ele>881.7</ele>
        <time>2011-11-13T10:13:37Z</time>
      </trkpt>
      <trkpt lat="43.73884" lon="6.53264">
        <ele>881.8</ele>
        <time>2011-11-13T10:13:42Z</time>
      </trkpt>
      <trkpt lat="43.7388" lon="6.5327">
        <ele>881.5</ele>
        <time>2011-11-13T10:13:47Z</time>
      </trkpt>
      <trkpt lat="43.73877" lon="6.53276">
        <ele>880.7</ele>
        <time>2011-11-13T10:13:52Z</time>
      </trkpt>
      <trkpt lat="43.73874" lon="6.53283">
        <ele>880.2</ele>
        <time>2011-11-13T10:13:57Z</time>
      </trkpt>
      <trkpt lat="43.73871" lon="6.53287">
        <ele>879.5</ele>
        <time>2011-11-13T10:14:02Z</time>
      </trkpt>
      <trkpt lat="43.73868" lon="6.53292">
        <ele>878.8</ele>
        <time>2011-11-13T10:14:07Z</time>
      </trkpt>
      <trkpt lat="43.73865" lon="6.53297">
        <ele>878.1</ele>
        <time>2011-11-13T10:14:12Z</time>
      </trkpt>
      <trkpt lat="43.73865" lon="6.53298">
        <ele>878.2</ele>
        <time>2011-11-13T10:14:13Z</time>
      </trkpt>
      <trkpt lat="43.73857" lon="6.53307">
        <ele>876.6</ele>
        <time>2011-11-13T10:14:22Z</time>
      </trkpt>
      <trkpt lat="43.73854" lon="6.53313">
        <ele>875.8</ele>
        <time>2011-11-13T10:14:27Z</time>
      </trkpt>
      <trkpt lat="43.73853" lon="6.53316">
        <ele>875.4</ele>
        <time>2011-11-13T10:14:32Z</time>
      </trkpt>
      <trkpt lat="43.73851" lon="6.5332">
        <ele>875.4</ele>
        <time>2011-11-13T10:14:37Z</time>
      </trkpt>
      <trkpt lat="43.73848" lon="6.53323">
        <ele>875.5</ele>
        <time>2011-11-13T10:14:42Z</time>
      </trkpt>
      <trkpt lat="43.73845" lon="6.53326">
        <ele>874.7</ele>
        <time>2011-11-13T10:14:47Z</time>
      </trkpt>
      <trkpt lat="43.73841" lon="6.53329">
        <ele>874.3</ele>
        <time>2011-11-13T10:14:52Z</time>
      </trkpt>
      <trkpt lat="43.73836" lon="6.5333">
        <ele>873.9</ele>
        <time>2011-11-13T10:14:57Z</time>
      </trkpt>
      <trkpt lat="43.73833" lon="6.53335">
        <ele>873.3</ele>
        <time>2011-11-13T10:15:02Z</time>
      </trkpt>
      <trkpt lat="43.7383" lon="6.5334">
        <ele>872.8</ele>
        <time>2011-11-13T10:15:07Z</time>
      </trkpt>
      <trkpt lat="43.73827" lon="6.53342">
        <ele>872.7</ele>
        <time>2011-11-13T10:15:12Z</time>
      </trkpt>
      <trkpt lat="43.73824" lon="6.53346">
        <ele>872.1</ele>
        <time>2011-11-13T10:15:17Z</time>
      </trkpt>
      <trkpt lat="43.73823" lon="6.53347">
        <ele>872.1</ele>
        <time>2011-11-13T10:15:18Z</time>
      </trkpt>
      <trkpt lat="43.73819" lon="6.53357">
        <ele>871.5</ele>
        <time>2011-11-13T10:15:27Z</time>
      </trkpt>
      <trkpt lat="43.73818" lon="6.53366">
        <ele>871.9</ele>
        <time>2011-11-13T10:15:32Z</time>
      </trkpt>
      <trkpt lat="43.73818" lon="6.53372">
        <ele>871.8</ele>
        <time>2011-11-13T10:15:37Z</time>
      </trkpt>
      <trkpt lat="43.73817" lon="6.53379">
        <ele>872.1</ele>
        <time>2011-11-13T10:15:42Z</time>
      </trkpt>
      <trkpt lat="43.73815" lon="6.53387">
        <ele>872.6</ele>
        <time>2011-11-13T10:15:47Z</time>
      </trkpt>
      <trkpt lat="43.73813" lon="6.53393">
        <ele>872.7</ele>
        <time>2011-11-13T10:15:52Z</time>
      </trkpt>
      <trkpt lat="43.73812" lon="6.534">
        <ele>873.6</ele>
        <time>2011-11-13T10:15:57Z</time>
      </trkpt>
      <trkpt lat="43.7381" lon="6.53407">
        <ele>873.7</ele>
        <time>2011-11-13T10:16:02Z</time>
      </trkpt>
      <trkpt lat="43.73809" lon="6.53412">
        <ele>873.4</ele>
        <time>2011-11-13T10:16:07Z</time>
      </trkpt>
      <trkpt lat="43.73807" lon="6.53416">
        <ele>872.8</ele>
        <time>2011-11-13T10:16:12Z</time>
      </trkpt>
      <trkpt lat="43.73807" lon="6.5342">
        <ele>872.6</ele>
        <time>2011-11-13T10:16:17Z</time>
      </trkpt>
      <trkpt lat="43.73808" lon="6.53423">
        <ele>872.4</ele>
        <time>2011-11-13T10:16:22Z</time>
      </trkpt>
      <trkpt lat="43.73808" lon="6.53423">
        <ele>872.3</ele>
        <time>2011-11-13T10:16:23Z</time>
      </trkpt>
      <trkpt lat="43.7381" lon="6.53428">
        <ele>873.1</ele>
        <time>2011-11-13T10:16:32Z</time>
      </trkpt>
      <trkpt lat="43.73811" lon="6.53429">
        <ele>873.1</ele>
        <time>2011-11-13T10:16:37Z</time>
      </trkpt>
      <trkpt lat="43.73811" lon="6.53429">
        <ele>872.7</ele>
        <time>2011-11-13T10:16:42Z</time>
      </trkpt>
      <trkpt lat="43.73811" lon="6.53429">
        <ele>872.7</ele>
        <time>2011-11-13T10:16:47Z</time>
      </trkpt>
      <trkpt lat="43.73811" lon="6.53429">
        <ele>872.7</ele>
        <time>2011-11-13T10:16:52Z</time>
      </trkpt>
      <trkpt lat="43.7381" lon="6.53429">
        <ele>872.8</ele>
        <time>2011-11-13T10:16:57Z</time>
      </trkpt>
      <trkpt lat="43.73812" lon="6.5343">
        <ele>872.7</ele>
        <time>2011-11-13T10:17:02Z</time>
      </trkpt>
      <trkpt lat="43.73813" lon="6.53431">
        <ele>872.7</ele>
        <time>2011-11-13T10:17:07Z</time>
      </trkpt>
      <trkpt lat="43.73815" lon="6.53432">
        <ele>872.9</ele>
        <time>2011-11-13T10:17:12Z</time>
      </trkpt>
      <trkpt lat="43.73816" lon="6.53433">
        <ele>872.6</ele>
        <time>2011-11-13T10:17:17Z</time>
      </trkpt>
      <trkpt lat="43.73816" lon="6.53433">
        <ele>872.8</ele>
        <time>2011-11-13T10:17:22Z</time>
      </trkpt>
      <trkpt lat="43.73816" lon="6.53432">
        <ele>872.9</ele>
        <time>2011-11-13T10:17:27Z</time>
      </trkpt>
      <trkpt lat="43.73815" lon="6.53432">
        <ele>872.9</ele>
        <time>2011-11-13T10:17:28Z</time>
      </trkpt>
      <trkpt lat="43.73814" lon="6.53433">
        <ele>873.4</ele>
        <time>2011-11-13T10:17:37Z</time>
      </trkpt>
      <trkpt lat="43.73814" lon="6.53432">
        <ele>872.8</ele>
        <time>2011-11-13T10:17:42Z</time>
      </trkpt>
      <trkpt lat="43.73814" lon="6.53429">
        <ele>872.9</ele>
        <time>2011-11-13T10:17:47Z</time>
      </trkpt>
      <trkpt lat="43.73813" lon="6.53429">
        <ele>872.8</ele>
        <time>2011-11-13T10:17:52Z</time>
      </trkpt>
      <trkpt lat="43.73813" lon="6.53426">
        <ele>873.1</ele>
        <time>2011-11-13T10:17:57Z</time>
      </trkpt>
      <trkpt lat="43.73812" lon="6.5342">
        <ele>872.9</ele>
        <time>2011-11-13T10:18:02Z</time>
      </trkpt>
      <trkpt lat="43.73812" lon="6.53417">
        <ele>872.8</ele>
        <time>2011-11-13T10:18:07Z</time>
      </trkpt>
      <trkpt lat="43.73813" lon="6.53418">
        <ele>872.8</ele>
        <time>2011-11-13T10:18:12Z</time>
      </trkpt>
      <trkpt lat="43.73812" lon="6.53418">
        <ele>872.7</ele>
        <time>2011-11-13T10:18:17Z</time>
      </trkpt>
      <trkpt lat="43.73812" lon="6.53419">
        <ele>872.5</ele>
        <time>2011-11-13T10:18:22Z</time>
      </trkpt>
      <trkpt lat="43.73813" lon="6.53421">
        <ele>872.9</ele>
        <time>2011-11-13T10:18:27Z</time>
      </trkpt>
      <trkpt lat="43.73815" lon="6.53422">
        <ele>872.6</ele>
        <time>2011-11-13T10:18:32Z</time>
      </trkpt>
      <trkpt lat="43.73815" lon="6.53422">
        <ele>872.6</ele>
        <time>2011-11-13T10:18:33Z</time>
      </trkpt>
      <trkpt lat="43.73823" lon="6.53425">
        <ele>872.3</ele>
        <time>2011-11-13T10:18:42Z</time>
      </trkpt>
      <trkpt lat="43.73826" lon="6.53427">
        <ele>872.1</ele>
        <time>2011-11-13T10:18:47Z</time>
      </trkpt>
      <trkpt lat="43.73831" lon="6.53429">
        <ele>872.1</ele>
        <time>2011-11-13T10:18:52Z</time>
      </trkpt>
      <trkpt lat="43.73834" lon="6.53433">
        <ele>872.4</ele>
        <time>2011-11-13T10:18:57Z</time>
      </trkpt>
      <trkpt lat="43.73835" lon="6.53437">
        <ele>873.2</ele>
        <time>2011-11-13T10:19:02Z</time>
      </trkpt>
      <trkpt lat="43.73838" lon="6.53438">
        <ele>873.5</ele>
        <time>2011-11-13T10:19:07Z</time>
      </trkpt>
      <trkpt lat="43.73839" lon="6.53428">
        <ele>873.4</ele>
        <time>2011-11-13T10:19:12Z</time>
      </trkpt>
      <trkpt lat="43.73841" lon="6.53426">
        <ele>873.6</ele>
        <time>2011-11-13T10:19:17Z</time>
      </trkpt>
      <trkpt lat="43.73842" lon="6.53422">
        <ele>873.5</ele>
        <time>2011-11-13T10:19:22Z</time>
      </trkpt>
      <trkpt lat="43.73842" lon="6.53414">
        <ele>873.8</ele>
        <time>2011-11-13T10:19:27Z</time>
      </trkpt>
      <trkpt lat="43.73843" lon="6.53408">
        <ele>873.6</ele>
        <time>2011-11-13T10:19:32Z</time>
      </trkpt>
      <trkpt lat="43.73846" lon="6.53409">
        <ele>873.7</ele>
        <time>2011-11-13T10:19:37Z</time>
      </trkpt>
      <trkpt lat="43.73847" lon="6.5341">
        <ele>873.6</ele>
        <time>2011-11-13T10:19:38Z</time>
      </trkpt>
      <trkpt lat="43.73854" lon="6.53416">
        <ele>873.5</ele>
        <time>2011-11-13T10:19:47Z</time>
      </trkpt>
      <trkpt lat="43.73857" lon="6.53421">
        <ele>873.4</ele>
        <time>2011-11-13T10:19:52Z</time>
      </trkpt>
      <trkpt lat="43.73859" lon="6.53425">
        <ele>873.2</ele>
        <time>2011-11-13T10:19:57Z</time>
      </trkpt>
      <trkpt lat="43.73864" lon="6.5343">
        <ele>873.2</ele>
        <time>2011-11-13T10:20:02Z</time>
      </trkpt>
      <trkpt lat="43.73869" lon="6.53433">
        <ele>873.6</ele>
        <time>2011-11-13T10:20:07Z</time>
      </trkpt>
      <trkpt lat="43.73874" lon="6.53435">
        <ele>873.4</ele>
        <time>2011-11-13T10:20:12Z</time>
      </trkpt>
      <trkpt lat="43.73878" lon="6.53441">
        <ele>873.3</ele>
        <time>2011-11-13T10:20:17Z</time>
      </trkpt>
      <trkpt lat="43.73881" lon="6.53445">
        <ele>873.2</ele>
        <time>2011-11-13T10:20:22Z</time>
      </trkpt>
      <trkpt lat="43.73883" lon="6.53443">
        <ele>873.8</ele>
        <time>2011-11-13T10:20:27Z</time>
      </trkpt>
      <trkpt lat="43.73886" lon="6.5344">
        <ele>873.5</ele>
        <time>2011-11-13T10:20:32Z</time>
      </trkpt>
      <trkpt lat="43.73884" lon="6.5343">
        <ele>873.3</ele>
        <time>2011-11-13T10:20:37Z</time>
      </trkpt>
      <trkpt lat="43.73884" lon="6.53432">
        <ele>873.5</ele>
        <time>2011-11-13T10:20:42Z</time>
      </trkpt>
      <trkpt lat="43.73885" lon="6.53432">
        <ele>873.7</ele>
        <time>2011-11-13T10:20:43Z</time>
      </trkpt>
      <trkpt lat="43.73894" lon="6.53439">
        <ele>874.1</ele>
        <time>2011-11-13T10:20:52Z</time>
      </trkpt>
      <trkpt lat="43.73898" lon="6.53442">
        <ele>874.4</ele>
        <time>2011-11-13T10:20:57Z</time>
      </trkpt>
      <trkpt lat="43.73901" lon="6.53446">
        <ele>874.9</ele>
        <time>2011-11-13T10:21:02Z</time>
      </trkpt>
      <trkpt lat="43.73905" lon="6.53449">
        <ele>875.4</ele>
        <time>2011-11-13T10:21:07Z</time>
      </trkpt>
      <trkpt lat="43.7391" lon="6.53451">
        <ele>875.7</ele>
        <time>2011-11-13T10:21:12Z</time>
      </trkpt>
      <trkpt lat="43.73912" lon="6.53452">
        <ele>876</ele>
        <time>2011-11-13T10:21:17Z</time>
      </trkpt>
      <trkpt lat="43.73913" lon="6.53452">
        <ele>875.8</ele>
        <time>2011-11-13T10:21:22Z</time>
      </trkpt>
      <trkpt lat="43.73914" lon="6.53448">
        <ele>876</ele>
        <time>2011-11-13T10:21:27Z</time>
      </trkpt>
      <trkpt lat="43.73914" lon="6.53447">
        <ele>876.4</ele>
        <time>2011-11-13T10:21:32Z</time>
      </trkpt>
      <trkpt lat="43.73914" lon="6.53446">
        <ele>876.3</ele>
        <time>2011-11-13T10:21:37Z</time>
      </trkpt>
      <trkpt lat="43.73914" lon="6.53445">
        <ele>876.1</ele>
        <time>2011-11-13T10:21:42Z</time>
      </trkpt>
      <trkpt lat="43.73913" lon="6.53445">
        <ele>876.5</ele>
        <time>2011-11-13T10:21:47Z</time>
      </trkpt>
      <trkpt lat="43.73913" lon="6.53445">
        <ele>876.6</ele>
        <time>2011-11-13T10:21:48Z</time>
      </trkpt>
      <trkpt lat="43.73914" lon="6.53445">
        <ele>876.4</ele>
        <time>2011-11-13T10:21:57Z</time>
      </trkpt>
      <trkpt lat="43.73913" lon="6.53443">
        <ele>876.1</ele>
        <time>2011-11-13T10:22:02Z</time>
      </trkpt>
      <trkpt lat="43.73911" lon="6.53439">
        <ele>876.3</ele>
        <time>2011-11-13T10:22:07Z</time>
      </trkpt>
      <trkpt lat="43.73911" lon="6.53435">
        <ele>876.2</ele>
        <time>2011-11-13T10:22:12Z</time>
      </trkpt>
      <trkpt lat="43.73909" lon="6.53432">
        <ele>876.5</ele>
        <time>2011-11-13T10:22:17Z</time>
      </trkpt>
      <trkpt lat="43.7391" lon="6.53431">
        <ele>876.5</ele>
        <time>2011-11-13T10:22:22Z</time>
      </trkpt>
      <trkpt lat="43.7391" lon="6.53431">
        <ele>876.6</ele>
        <time>2011-11-13T10:22:27Z</time>
      </trkpt>
      <trkpt lat="43.73911" lon="6.53433">
        <ele>876.2</ele>
        <time>2011-11-13T10:22:32Z</time>
      </trkpt>
      <trkpt lat="43.73911" lon="6.53431">
        <ele>876.1</ele>
        <time>2011-11-13T10:22:37Z</time>
      </trkpt>
      <trkpt lat="43.73911" lon="6.53431">
        <ele>876.2</ele>
        <time>2011-11-13T10:22:42Z</time>
      </trkpt>
      <trkpt lat="43.7391" lon="6.53431">
        <ele>876.2</ele>
        <time>2011-11-13T10:22:47Z</time>
      </trkpt>
      <trkpt lat="43.7391" lon="6.53434">
        <ele>876.5</ele>
        <time>2011-11-13T10:22:52Z</time>
      </trkpt>
      <trkpt lat="43.7391" lon="6.53435">
        <ele>876.5</ele>
        <time>2011-11-13T10:22:53Z</time>
      </trkpt>
      <trkpt lat="43.73912" lon="6.53435">
        <ele>876.6</ele>
        <time>2011-11-13T10:23:02Z</time>
      </trkpt>
      <trkpt lat="43.73913" lon="6.53432">
        <ele>876.8</ele>
        <time>2011-11-13T10:23:07Z</time>
      </trkpt>
      <trkpt lat="43.73916" lon="6.53429">
        <ele>876.8</ele>
        <time>2011-11-13T10:23:12Z</time>
      </trkpt>
      <trkpt lat="43.7392" lon="6.53426">
        <ele>877.4</ele>
        <time>2011-11-13T10:23:17Z</time>
      </trkpt>
      <trkpt lat="43.73923" lon="6.53427">
        <ele>877.8</ele>
        <time>2011-11-13T10:23:22Z</time>
      </trkpt>
      <trkpt lat="43.73928" lon="6.53429">
        <ele>878.5</ele>
        <time>2011-11-13T10:23:27Z</time>
      </trkpt>
      <trkpt lat="43.73932" lon="6.53431">
        <ele>879.2</ele>
        <time>2011-11-13T10:23:32Z</time>
      </trkpt>
      <trkpt lat="43.73937" lon="6.53434">
        <ele>879.7</ele>
        <time>2011-11-13T10:23:37Z</time>
      </trkpt>
      <trkpt lat="43.73941" lon="6.53436">
        <ele>880.6</ele>
        <time>2011-11-13T10:23:42Z</time>
      </trkpt>
      <trkpt lat="43.73947" lon="6.5344">
        <ele>880.8</ele>
        <time>2011-11-13T10:23:47Z</time>
      </trkpt>
      <trkpt lat="43.7395" lon="6.53441">
        <ele>881.5</ele>
        <time>2011-11-13T10:23:52Z</time>
      </trkpt>
      <trkpt lat="43.73954" lon="6.5344">
        <ele>882.1</ele>
        <time>2011-11-13T10:23:57Z</time>
      </trkpt>
      <trkpt lat="43.73955" lon="6.5344">
        <ele>882</ele>
        <time>2011-11-13T10:23:58Z</time>
      </trkpt>
      <trkpt lat="43.73964" lon="6.53444">
        <ele>882</ele>
        <time>2011-11-13T10:24:07Z</time>
      </trkpt>
      <trkpt lat="43.73968" lon="6.53445">
        <ele>882</ele>
        <time>2011-11-13T10:24:12Z</time>
      </trkpt>
      <trkpt lat="43.73971" lon="6.53444">
        <ele>881.3</ele>
        <time>2011-11-13T10:24:17Z</time>
      </trkpt>
      <trkpt lat="43.73974" lon="6.53442">
        <ele>881.1</ele>
        <time>2011-11-13T10:24:22Z</time>
      </trkpt>
      <trkpt lat="43.73977" lon="6.53442">
        <ele>881.5</ele>
        <time>2011-11-13T10:24:27Z</time>
      </trkpt>
      <trkpt lat="43.73981" lon="6.53441">
        <ele>881.6</ele>
        <time>2011-11-13T10:24:32Z</time>
      </trkpt>
      <trkpt lat="43.73986" lon="6.53442">
        <ele>881.1</ele>
        <time>2011-11-13T10:24:37Z</time>
      </trkpt>
      <trkpt lat="43.73993" lon="6.53443">
        <ele>880.9</ele>
        <time>2011-11-13T10:24:42Z</time>
      </trkpt>
      <trkpt lat="43.73999" lon="6.53444">
        <ele>881.1</ele>
        <time>2011-11-13T10:24:47Z</time>
      </trkpt>
      <trkpt lat="43.74003" lon="6.53443">
        <ele>880.2</ele>
        <time>2011-11-13T10:24:52Z</time>
      </trkpt>
      <trkpt lat="43.74006" lon="6.53443">
        <ele>879.5</ele>
        <time>2011-11-13T10:24:57Z</time>
      </trkpt>
      <trkpt lat="43.7401" lon="6.53444">
        <ele>879.1</ele>
        <time>2011-11-13T10:25:02Z</time>
      </trkpt>
      <trkpt lat="43.7401" lon="6.53444">
        <ele>878.8</ele>
        <time>2011-11-13T10:25:03Z</time>
      </trkpt>
      <trkpt lat="43.74015" lon="6.53449">
        <ele>877.6</ele>
        <time>2011-11-13T10:25:12Z</time>
      </trkpt>
      <trkpt lat="43.74016" lon="6.53453">
        <ele>876.4</ele>
        <time>2011-11-13T10:25:17Z</time>
      </trkpt>
      <trkpt lat="43.74017" lon="6.53457">
        <ele>875.3</ele>
        <time>2011-11-13T10:25:22Z</time>
      </trkpt>
      <trkpt lat="43.74019" lon="6.53462">
        <ele>874.8</ele>
        <time>2011-11-13T10:25:27Z</time>
      </trkpt>
      <trkpt lat="43.74023" lon="6.53468">
        <ele>874.4</ele>
        <time>2011-11-13T10:25:32Z</time>
      </trkpt>
      <trkpt lat="43.74026" lon="6.53473">
        <ele>873.3</ele>
        <time>2011-11-13T10:25:37Z</time>
      </trkpt>
      <trkpt lat="43.74028" lon="6.53477">
        <ele>873.2</ele>
        <time>2011-11-13T10:25:42Z</time>
      </trkpt>
      <trkpt lat="43.74032" lon="6.53482">
        <ele>872.5</ele>
        <time>2011-11-13T10:25:47Z</time>
      </trkpt>
      <trkpt lat="43.74034" lon="6.53486">
        <ele>872.2</ele>
        <time>2011-11-13T10:25:52Z</time>
      </trkpt>
      <trkpt lat="43.74038" lon="6.53493">
        <ele>871.8</ele>
        <time>2011-11-13T10:25:57Z</time>
      </trkpt>
      <trkpt lat="43.74041" lon="6.53497">
        <ele>871.8</ele>
        <time>2011-11-13T10:26:02Z</time>
      </trkpt>
      <trkpt lat="43.74043" lon="6.53502">
        <ele>871.9</ele>
        <time>2011-11-13T10:26:07Z</time>
      </trkpt>
      <trkpt lat="43.74044" lon="6.53503">
        <ele>871.9</ele>
        <time>2011-11-13T10:26:08Z</time>
      </trkpt>
      <trkpt lat="43.74047" lon="6.53513">
        <ele>872.1</ele>
        <time>2011-11-13T10:26:17Z</time>
      </trkpt>
      <trkpt lat="43.74048" lon="6.53517">
        <ele>872.2</ele>
        <time>2011-11-13T10:26:22Z</time>
      </trkpt>
      <trkpt lat="43.74048" lon="6.53521">
        <ele>872.7</ele>
        <time>2011-11-13T10:26:27Z</time>
      </trkpt>
      <trkpt lat="43.74051" lon="6.53528">
        <ele>872.8</ele>
        <time>2011-11-13T10:26:32Z</time>
      </trkpt>
      <trkpt lat="43.74054" lon="6.53533">
        <ele>873.5</ele>
        <time>2011-11-13T10:26:37Z</time>
      </trkpt>
      <trkpt lat="43.74058" lon="6.53541">
        <ele>873.4</ele>
        <time>2011-11-13T10:26:42Z</time>
      </trkpt>
      <trkpt lat="43.7406" lon="6.53549">
        <ele>873.6</ele>
        <time>2011-11-13T10:26:47Z</time>
      </trkpt>
      <trkpt lat="43.74062" lon="6.53557">
        <ele>874.5</ele>
        <time>2011-11-13T10:26:52Z</time>
      </trkpt>
      <trkpt lat="43.74065" lon="6.53565">
        <ele>874.1</ele>
        <time>2011-11-13T10:26:57Z</time>
      </trkpt>
      <trkpt lat="43.74068" lon="6.53568">
        <ele>873.9</ele>
        <time>2011-11-13T10:27:02Z</time>
      </trkpt>
      <trkpt lat="43.74072" lon="6.53571">
        <ele>874.3</ele>
        <time>2011-11-13T10:27:07Z</time>
      </trkpt>
      <trkpt lat="43.74074" lon="6.53578">
        <ele>874.8</ele>
        <time>2011-11-13T10:27:12Z</time>
      </trkpt>
      <trkpt lat="43.74075" lon="6.5358">
        <ele>874.8</ele>
        <time>2011-11-13T10:27:13Z</time>
      </trkpt>
      <trkpt lat="43.74086" lon="6.53599">
        <ele>875</ele>
        <time>2011-11-13T10:27:22Z</time>
      </trkpt>
      <trkpt lat="43.74089" lon="6.53605">
        <ele>875</ele>
        <time>2011-11-13T10:27:27Z</time>
      </trkpt>
      <trkpt lat="43.74092" lon="6.53613">
        <ele>875.6</ele>
        <time>2011-11-13T10:27:32Z</time>
      </trkpt>
      <trkpt lat="43.74094" lon="6.53619">
        <ele>875.7</ele>
        <time>2011-11-13T10:27:37Z</time>
      </trkpt>
      <trkpt lat="43.74096" lon="6.53627">
        <ele>876.3</ele>
        <time>2011-11-13T10:27:42Z</time>
      </trkpt>
      <trkpt lat="43.74097" lon="6.53633">
        <ele>876.4</ele>
        <time>2011-11-13T10:27:47Z</time>
      </trkpt>
      <trkpt lat="43.74099" lon="6.53639">
        <ele>877</ele>
        <time>2011-11-13T10:27:52Z</time>
      </trkpt>
      <trkpt lat="43.74101" lon="6.53645">
        <ele>878.2</ele>
        <time>2011-11-13T10:27:57Z</time>
      </trkpt>
      <trkpt lat="43.74103" lon="6.53651">
        <ele>878.5</ele>
        <time>2011-11-13T10:28:02Z</time>
      </trkpt>
      <trkpt lat="43.74106" lon="6.53657">
        <ele>878.5</ele>
        <time>2011-11-13T10:28:07Z</time>
      </trkpt>
      <trkpt lat="43.74107" lon="6.53663">
        <ele>878.8</ele>
        <time>2011-11-13T10:28:12Z</time>
      </trkpt>
      <trkpt lat="43.74106" lon="6.53667">
        <ele>879.2</ele>
        <time>2011-11-13T10:28:17Z</time>
      </trkpt>
      <trkpt lat="43.74106" lon="6.53667">
        <ele>879.5</ele>
        <time>2011-11-13T10:28:18Z</time>
      </trkpt>
      <trkpt lat="43.74109" lon="6.53675">
        <ele>880.6</ele>
        <time>2011-11-13T10:28:27Z</time>
      </trkpt>
      <trkpt lat="43.7411" lon="6.53679">
        <ele>880.8</ele>
        <time>2011-11-13T10:28:32Z</time>
      </trkpt>
      <trkpt lat="43.7411" lon="6.53682">
        <ele>881.7</ele>
        <time>2011-11-13T10:28:37Z</time>
      </trkpt>
      <trkpt lat="43.7411" lon="6.53688">
        <ele>881.9</ele>
        <time>2011-11-13T10:28:42Z</time>
      </trkpt>
      <trkpt lat="43.74109" lon="6.53691">
        <ele>882.4</ele>
        <time>2011-11-13T10:28:47Z</time>
      </trkpt>
      <trkpt lat="43.74109" lon="6.53695">
        <ele>882.3</ele>
        <time>2011-11-13T10:28:52Z</time>
      </trkpt>
      <trkpt lat="43.7411" lon="6.537">
        <ele>882.4</ele>
        <time>2011-11-13T10:28:57Z</time>
      </trkpt>
      <trkpt lat="43.74109" lon="6.53701">
        <ele>882.5</ele>
        <time>2011-11-13T10:29:02Z</time>
      </trkpt>
      <trkpt lat="43.74109" lon="6.537">
        <ele>882.7</ele>
        <time>2011-11-13T10:29:07Z</time>
      </trkpt>
      <trkpt lat="43.74108" lon="6.537">
        <ele>882.5</ele>
        <time>2011-11-13T10:29:12Z</time>
      </trkpt>
      <trkpt lat="43.74108" lon="6.53699">
        <ele>882.6</ele>
        <time>2011-11-13T10:29:17Z</time>
      </trkpt>
      <trkpt lat="43.74107" lon="6.53699">
        <ele>883</ele>
        <time>2011-11-13T10:29:22Z</time>
      </trkpt>
      <trkpt lat="43.74107" lon="6.53699">
        <ele>882.9</ele>
        <time>2011-11-13T10:29:23Z</time>
      </trkpt>
      <trkpt lat="43.74105" lon="6.53698">
        <ele>883.1</ele>
        <time>2011-11-13T10:29:32Z</time>
      </trkpt>
      <trkpt lat="43.74105" lon="6.537">
        <ele>883.2</ele>
        <time>2011-11-13T10:29:37Z</time>
      </trkpt>
      <trkpt lat="43.74103" lon="6.53701">
        <ele>883.1</ele>
        <time>2011-11-13T10:29:42Z</time>
      </trkpt>
      <trkpt lat="43.74103" lon="6.537">
        <ele>883.3</ele>
        <time>2011-11-13T10:29:47Z</time>
      </trkpt>
      <trkpt lat="43.74103" lon="6.53705">
        <ele>883.4</ele>
        <time>2011-11-13T10:29:52Z</time>
      </trkpt>
      <trkpt lat="43.74105" lon="6.5371">
        <ele>884.2</ele>
        <time>2011-11-13T10:29:57Z</time>
      </trkpt>
      <trkpt lat="43.74107" lon="6.53715">
        <ele>884.9</ele>
        <time>2011-11-13T10:30:02Z</time>
      </trkpt>
      <trkpt lat="43.74107" lon="6.53719">
        <ele>885.6</ele>
        <time>2011-11-13T10:30:07Z</time>
      </trkpt>
      <trkpt lat="43.74108" lon="6.53724">
        <ele>886.4</ele>
        <time>2011-11-13T10:30:12Z</time>
      </trkpt>
      <trkpt lat="43.7411" lon="6.53729">
        <ele>886.9</ele>
        <time>2011-11-13T10:30:17Z</time>
      </trkpt>
      <trkpt lat="43.7411" lon="6.53734">
        <ele>887.6</ele>
        <time>2011-11-13T10:30:22Z</time>
      </trkpt>
      <trkpt lat="43.74112" lon="6.53739">
        <ele>888.7</ele>
        <time>2011-11-13T10:30:27Z</time>
      </trkpt>
      <trkpt lat="43.74112" lon="6.5374">
        <ele>888.6</ele>
        <time>2011-11-13T10:30:28Z</time>
      </trkpt>
      <trkpt lat="43.74115" lon="6.5375">
        <ele>889.7</ele>
        <time>2011-11-13T10:30:37Z</time>
      </trkpt>
      <trkpt lat="43.74117" lon="6.53757">
        <ele>890</ele>
        <time>2011-11-13T10:30:42Z</time>
      </trkpt>
      <trkpt lat="43.74118" lon="6.53762">
        <ele>891.3</ele>
        <time>2011-11-13T10:30:47Z</time>
      </trkpt>
      <trkpt lat="43.7412" lon="6.53766">
        <ele>892.1</ele>
        <time>2011-11-13T10:30:52Z</time>
      </trkpt>
      <trkpt lat="43.74121" lon="6.53771">
        <ele>893.2</ele>
        <time>2011-11-13T10:30:57Z</time>
      </trkpt>
      <trkpt lat="43.74121" lon="6.53777">
        <ele>893.6</ele>
        <time>2011-11-13T10:31:02Z</time>
      </trkpt>
      <trkpt lat="43.74122" lon="6.53783">
        <ele>894</ele>
        <time>2011-11-13T10:31:07Z</time>
      </trkpt>
      <trkpt lat="43.74123" lon="6.53787">
        <ele>895.4</ele>
        <time>2011-11-13T10:31:12Z</time>
      </trkpt>
      <trkpt lat="43.74123" lon="6.53793">
        <ele>895.9</ele>
        <time>2011-11-13T10:31:17Z</time>
      </trkpt>
      <trkpt lat="43.74123" lon="6.53798">
        <ele>896.7</ele>
        <time>2011-11-13T10:31:22Z</time>
      </trkpt>
      <trkpt lat="43.74119" lon="6.538">
        <ele>897.3</ele>
        <time>2011-11-13T10:31:27Z</time>
      </trkpt>
      <trkpt lat="43.74117" lon="6.53803">
        <ele>898.2</ele>
        <time>2011-11-13T10:31:32Z</time>
      </trkpt>
      <trkpt lat="43.74117" lon="6.53804">
        <ele>898.7</ele>
        <time>2011-11-13T10:31:33Z</time>
      </trkpt>
      <trkpt lat="43.74116" lon="6.53811">
        <ele>900.2</ele>
        <time>2011-11-13T10:31:42Z</time>
      </trkpt>
      <trkpt lat="43.74116" lon="6.53815">
        <ele>901.3</ele>
        <time>2011-11-13T10:31:47Z</time>
      </trkpt>
      <trkpt lat="43.74116" lon="6.53815">
        <ele>901.4</ele>
        <time>2011-11-13T10:31:52Z</time>
      </trkpt>
      <trkpt lat="43.74114" lon="6.53813">
        <ele>902.2</ele>
        <time>2011-11-13T10:31:57Z</time>
      </trkpt>
      <trkpt lat="43.74113" lon="6.53812">
        <ele>903.1</ele>
        <time>2011-11-13T10:32:02Z</time>
      </trkpt>
      <trkpt lat="43.74111" lon="6.53812">
        <ele>903.7</ele>
        <time>2011-11-13T10:32:07Z</time>
      </trkpt>
      <trkpt lat="43.74111" lon="6.53815">
        <ele>904.2</ele>
        <time>2011-11-13T10:32:12Z</time>
      </trkpt>
      <trkpt lat="43.74108" lon="6.53816">
        <ele>905.2</ele>
        <time>2011-11-13T10:32:17Z</time>
      </trkpt>
      <trkpt lat="43.74103" lon="6.53815">
        <ele>906.4</ele>
        <time>2011-11-13T10:32:22Z</time>
      </trkpt>
      <trkpt lat="43.74099" lon="6.53812">
        <ele>907</ele>
        <time>2011-11-13T10:32:27Z</time>
      </trkpt>
      <trkpt lat="43.74096" lon="6.53809">
        <ele>908.1</ele>
        <time>2011-11-13T10:32:32Z</time>
      </trkpt>
      <trkpt lat="43.74094" lon="6.53811">
        <ele>909.3</ele>
        <time>2011-11-13T10:32:37Z</time>
      </trkpt>
      <trkpt lat="43.74093" lon="6.53811">
        <ele>909.6</ele>
        <time>2011-11-13T10:32:38Z</time>
      </trkpt>
      <trkpt lat="43.74089" lon="6.53814">
        <ele>911.1</ele>
        <time>2011-11-13T10:32:47Z</time>
      </trkpt>
      <trkpt lat="43.74087" lon="6.53816">
        <ele>912</ele>
        <time>2011-11-13T10:32:52Z</time>
      </trkpt>
      <trkpt lat="43.74084" lon="6.53814">
        <ele>912.6</ele>
        <time>2011-11-13T10:32:57Z</time>
      </trkpt>
      <trkpt lat="43.7408" lon="6.53814">
        <ele>913.7</ele>
        <time>2011-11-13T10:33:02Z</time>
      </trkpt>
      <trkpt lat="43.74079" lon="6.53815">
        <ele>914.3</ele>
        <time>2011-11-13T10:33:07Z</time>
      </trkpt>
      <trkpt lat="43.74078" lon="6.53816">
        <ele>914.8</ele>
        <time>2011-11-13T10:33:12Z</time>
      </trkpt>
      <trkpt lat="43.74075" lon="6.53815">
        <ele>915.4</ele>
        <time>2011-11-13T10:33:17Z</time>
      </trkpt>
      <trkpt lat="43.74073" lon="6.53814">
        <ele>916.2</ele>
        <time>2011-11-13T10:33:22Z</time>
      </trkpt>
      <trkpt lat="43.74069" lon="6.53814">
        <ele>916.8</ele>
        <time>2011-11-13T10:33:27Z</time>
      </trkpt>
      <trkpt lat="43.74066" lon="6.53816">
        <ele>917.4</ele>
        <time>2011-11-13T10:33:32Z</time>
      </trkpt>
      <trkpt lat="43.74066" lon="6.53818">
        <ele>918.6</ele>
        <time>2011-11-13T10:33:37Z</time>
      </trkpt>
      <trkpt lat="43.74067" lon="6.53823">
        <ele>919.3</ele>
        <time>2011-11-13T10:33:42Z</time>
      </trkpt>
      <trkpt lat="43.74067" lon="6.53824">
        <ele>919.4</ele>
        <time>2011-11-13T10:33:43Z</time>
      </trkpt>
      <trkpt lat="43.74064" lon="6.5383">
        <ele>921.1</ele>
        <time>2011-11-13T10:33:52Z</time>
      </trkpt>
      <trkpt lat="43.74062" lon="6.53829">
        <ele>921.5</ele>
        <time>2011-11-13T10:33:57Z</time>
      </trkpt>
      <trkpt lat="43.74058" lon="6.53826">
        <ele>922.3</ele>
        <time>2011-11-13T10:34:02Z</time>
      </trkpt>
      <trkpt lat="43.74056" lon="6.53828">
        <ele>923</ele>
        <time>2011-11-13T10:34:07Z</time>
      </trkpt>
      <trkpt lat="43.74057" lon="6.53833">
        <ele>923.7</ele>
        <time>2011-11-13T10:34:12Z</time>
      </trkpt>
      <trkpt lat="43.74056" lon="6.53837">
        <ele>923.9</ele>
        <time>2011-11-13T10:34:17Z</time>
      </trkpt>
      <trkpt lat="43.74054" lon="6.53838">
        <ele>925</ele>
        <time>2011-11-13T10:34:22Z</time>
      </trkpt>
      <trkpt lat="43.74052" lon="6.5384">
        <ele>925.5</ele>
        <time>2011-11-13T10:34:27Z</time>
      </trkpt>
      <trkpt lat="43.7405" lon="6.53842">
        <ele>926.3</ele>
        <time>2011-11-13T10:34:32Z</time>
      </trkpt>
      <trkpt lat="43.74047" lon="6.53844">
        <ele>927.4</ele>
        <time>2011-11-13T10:34:37Z</time>
      </trkpt>
      <trkpt lat="43.74045" lon="6.53848">
        <ele>928</ele>
        <time>2011-11-13T10:34:42Z</time>
      </trkpt>
      <trkpt lat="43.74045" lon="6.53853">
        <ele>928.6</ele>
        <time>2011-11-13T10:34:47Z</time>
      </trkpt>
      <trkpt lat="43.74045" lon="6.53854">
        <ele>928.6</ele>
        <time>2011-11-13T10:34:48Z</time>
      </trkpt>
      <trkpt lat="43.74043" lon="6.53861">
        <ele>930.1</ele>
        <time>2011-11-13T10:34:57Z</time>
      </trkpt>
      <trkpt lat="43.74042" lon="6.53864">
        <ele>930.7</ele>
        <time>2011-11-13T10:35:02Z</time>
      </trkpt>
      <trkpt lat="43.74041" lon="6.53868">
        <ele>930.8</ele>
        <time>2011-11-13T10:35:07Z</time>
      </trkpt>
      <trkpt lat="43.7404" lon="6.53871">
        <ele>931.3</ele>
        <time>2011-11-13T10:35:12Z</time>
      </trkpt>
      <trkpt lat="43.74039" lon="6.53876">
        <ele>931.5</ele>
        <time>2011-11-13T10:35:17Z</time>
      </trkpt>
      <trkpt lat="43.74035" lon="6.53879">
        <ele>931.9</ele>
        <time>2011-11-13T10:35:22Z</time>
      </trkpt>
      <trkpt lat="43.74035" lon="6.53884">
        <ele>932.6</ele>
        <time>2011-11-13T10:35:27Z</time>
      </trkpt>
      <trkpt lat="43.74033" lon="6.53889">
        <ele>933.1</ele>
        <time>2011-11-13T10:35:32Z</time>
      </trkpt>
      <trkpt lat="43.74032" lon="6.53893">
        <ele>934.4</ele>
        <time>2011-11-13T10:35:37Z</time>
      </trkpt>
      <trkpt lat="43.74031" lon="6.53897">
        <ele>935.1</ele>
        <time>2011-11-13T10:35:42Z</time>
      </trkpt>
      <trkpt lat="43.7403" lon="6.53902">
        <ele>935.9</ele>
        <time>2011-11-13T10:35:47Z</time>
      </trkpt>
      <trkpt lat="43.74028" lon="6.53905">
        <ele>936.3</ele>
        <time>2011-11-13T10:35:52Z</time>
      </trkpt>
      <trkpt lat="43.74027" lon="6.53906">
        <ele>936.6</ele>
        <time>2011-11-13T10:35:53Z</time>
      </trkpt>
      <trkpt lat="43.74024" lon="6.53913">
        <ele>938.5</ele>
        <time>2011-11-13T10:36:02Z</time>
      </trkpt>
      <trkpt lat="43.74021" lon="6.53917">
        <ele>939</ele>
        <time>2011-11-13T10:36:07Z</time>
      </trkpt>
      <trkpt lat="43.74018" lon="6.53919">
        <ele>939.7</ele>
        <time>2011-11-13T10:36:12Z</time>
      </trkpt>
      <trkpt lat="43.74015" lon="6.53918">
        <ele>940.6</ele>
        <time>2011-11-13T10:36:17Z</time>
      </trkpt>
      <trkpt lat="43.74013" lon="6.53917">
        <ele>941.8</ele>
        <time>2011-11-13T10:36:22Z</time>
      </trkpt>
      <trkpt lat="43.74011" lon="6.53916">
        <ele>942.3</ele>
        <time>2011-11-13T10:36:27Z</time>
      </trkpt>
      <trkpt lat="43.7401" lon="6.53912">
        <ele>943</ele>
        <time>2011-11-13T10:36:32Z</time>
      </trkpt>
      <trkpt lat="43.74009" lon="6.53913">
        <ele>943.7</ele>
        <time>2011-11-13T10:36:37Z</time>
      </trkpt>
      <trkpt lat="43.74007" lon="6.53914">
        <ele>944.6</ele>
        <time>2011-11-13T10:36:42Z</time>
      </trkpt>
      <trkpt lat="43.74007" lon="6.53918">
        <ele>945.2</ele>
        <time>2011-11-13T10:36:47Z</time>
      </trkpt>
      <trkpt lat="43.74006" lon="6.53922">
        <ele>946.4</ele>
        <time>2011-11-13T10:36:52Z</time>
      </trkpt>
      <trkpt lat="43.74005" lon="6.53925">
        <ele>947.1</ele>
        <time>2011-11-13T10:36:57Z</time>
      </trkpt>
      <trkpt lat="43.74004" lon="6.53925">
        <ele>947.1</ele>
        <time>2011-11-13T10:36:58Z</time>
      </trkpt>
      <trkpt lat="43.74001" lon="6.53932">
        <ele>948.8</ele>
        <time>2011-11-13T10:37:07Z</time>
      </trkpt>
      <trkpt lat="43.73999" lon="6.53936">
        <ele>949</ele>
        <time>2011-11-13T10:37:12Z</time>
      </trkpt>
      <trkpt lat="43.73999" lon="6.53942">
        <ele>950.2</ele>
        <time>2011-11-13T10:37:17Z</time>
      </trkpt>
      <trkpt lat="43.73999" lon="6.53948">
        <ele>950.6</ele>
        <time>2011-11-13T10:37:22Z</time>
      </trkpt>
      <trkpt lat="43.73998" lon="6.53953">
        <ele>951.6</ele>
        <time>2011-11-13T10:37:27Z</time>
      </trkpt>
      <trkpt lat="43.73995" lon="6.53957">
        <ele>952.7</ele>
        <time>2011-11-13T10:37:32Z</time>
      </trkpt>
      <trkpt lat="43.73993" lon="6.53962">
        <ele>953.4</ele>
        <time>2011-11-13T10:37:37Z</time>
      </trkpt>
      <trkpt lat="43.73991" lon="6.53965">
        <ele>954.2</ele>
        <time>2011-11-13T10:37:42Z</time>
      </trkpt>
      <trkpt lat="43.73988" lon="6.53968">
        <ele>955.2</ele>
        <time>2011-11-13T10:37:47Z</time>
      </trkpt>
      <trkpt lat="43.73986" lon="6.53971">
        <ele>955.4</ele>
        <time>2011-11-13T10:37:52Z</time>
      </trkpt>
      <trkpt lat="43.73984" lon="6.53975">
        <ele>956.2</ele>
        <time>2011-11-13T10:37:57Z</time>
      </trkpt>
      <trkpt lat="43.73981" lon="6.5398">
        <ele>956.6</ele>
        <time>2011-11-13T10:38:02Z</time>
      </trkpt>
      <trkpt lat="43.7398" lon="6.53981">
        <ele>956.9</ele>
        <time>2011-11-13T10:38:03Z</time>
      </trkpt>
      <trkpt lat="43.73977" lon="6.53991">
        <ele>958.1</ele>
        <time>2011-11-13T10:38:12Z</time>
      </trkpt>
      <trkpt lat="43.73975" lon="6.53994">
        <ele>959.1</ele>
        <time>2011-11-13T10:38:17Z</time>
      </trkpt>
      <trkpt lat="43.73974" lon="6.54">
        <ele>959.8</ele>
        <time>2011-11-13T10:38:22Z</time>
      </trkpt>
      <trkpt lat="43.73973" lon="6.54006">
        <ele>960.4</ele>
        <time>2011-11-13T10:38:27Z</time>
      </trkpt>
      <trkpt lat="43.73971" lon="6.54011">
        <ele>961.5</ele>
        <time>2011-11-13T10:38:32Z</time>
      </trkpt>
      <trkpt lat="43.7397" lon="6.54014">
        <ele>962.3</ele>
        <time>2011-11-13T10:38:37Z</time>
      </trkpt>
      <trkpt lat="43.73969" lon="6.54019">
        <ele>963.2</ele>
        <time>2011-11-13T10:38:42Z</time>
      </trkpt>
      <trkpt lat="43.73967" lon="6.54023">
        <ele>963.5</ele>
        <time>2011-11-13T10:38:47Z</time>
      </trkpt>
      <trkpt lat="43.73965" lon="6.54027">
        <ele>963.8</ele>
        <time>2011-11-13T10:38:52Z</time>
      </trkpt>
      <trkpt lat="43.73967" lon="6.54026">
        <ele>964.3</ele>
        <time>2011-11-13T10:38:57Z</time>
      </trkpt>
      <trkpt lat="43.73967" lon="6.54024">
        <ele>965.4</ele>
        <time>2011-11-13T10:39:02Z</time>
      </trkpt>
      <trkpt lat="43.73966" lon="6.54025">
        <ele>966.1</ele>
        <time>2011-11-13T10:39:07Z</time>
      </trkpt>
      <trkpt lat="43.73966" lon="6.54026">
        <ele>966.2</ele>
        <time>2011-11-13T10:39:08Z</time>
      </trkpt>
      <trkpt lat="43.73964" lon="6.54032">
        <ele>967.4</ele>
        <time>2011-11-13T10:39:17Z</time>
      </trkpt>
      <trkpt lat="43.73961" lon="6.54035">
        <ele>968.1</ele>
        <time>2011-11-13T10:39:22Z</time>
      </trkpt>
      <trkpt lat="43.73959" lon="6.54038">
        <ele>968.7</ele>
        <time>2011-11-13T10:39:27Z</time>
      </trkpt>
      <trkpt lat="43.73957" lon="6.54041">
        <ele>969.5</ele>
        <time>2011-11-13T10:39:32Z</time>
      </trkpt>
      <trkpt lat="43.73956" lon="6.54045">
        <ele>970</ele>
        <time>2011-11-13T10:39:37Z</time>
      </trkpt>
      <trkpt lat="43.73954" lon="6.54049">
        <ele>970.7</ele>
        <time>2011-11-13T10:39:42Z</time>
      </trkpt>
      <trkpt lat="43.73952" lon="6.54051">
        <ele>971.5</ele>
        <time>2011-11-13T10:39:47Z</time>
      </trkpt>
      <trkpt lat="43.7395" lon="6.54055">
        <ele>971.8</ele>
        <time>2011-11-13T10:39:52Z</time>
      </trkpt>
      <trkpt lat="43.73948" lon="6.54058">
        <ele>972.7</ele>
        <time>2011-11-13T10:39:57Z</time>
      </trkpt>
      <trkpt lat="43.73947" lon="6.54064">
        <ele>973.5</ele>
        <time>2011-11-13T10:40:02Z</time>
      </trkpt>
      <trkpt lat="43.73946" lon="6.54069">
        <ele>974.1</ele>
        <time>2011-11-13T10:40:07Z</time>
      </trkpt>
      <trkpt lat="43.73946" lon="6.54073">
        <ele>974.9</ele>
        <time>2011-11-13T10:40:12Z</time>
      </trkpt>
      <trkpt lat="43.73946" lon="6.54074">
        <ele>975.2</ele>
        <time>2011-11-13T10:40:13Z</time>
      </trkpt>
      <trkpt lat="43.73942" lon="6.5408">
        <ele>976.4</ele>
        <time>2011-11-13T10:40:22Z</time>
      </trkpt>
      <trkpt lat="43.73939" lon="6.54082">
        <ele>976.8</ele>
        <time>2011-11-13T10:40:27Z</time>
      </trkpt>
      <trkpt lat="43.73936" lon="6.54085">
        <ele>977.3</ele>
        <time>2011-11-13T10:40:32Z</time>
      </trkpt>
      <trkpt lat="43.73936" lon="6.54089">
        <ele>978.6</ele>
        <time>2011-11-13T10:40:37Z</time>
      </trkpt>
      <trkpt lat="43.73935" lon="6.54093">
        <ele>979.6</ele>
        <time>2011-11-13T10:40:42Z</time>
      </trkpt>
      <trkpt lat="43.73934" lon="6.54097">
        <ele>980.4</ele>
        <time>2011-11-13T10:40:47Z</time>
      </trkpt>
      <trkpt lat="43.73932" lon="6.54099">
        <ele>980.9</ele>
        <time>2011-11-13T10:40:52Z</time>
      </trkpt>
      <trkpt lat="43.73931" lon="6.54104">
        <ele>981.6</ele>
        <time>2011-11-13T10:40:57Z</time>
      </trkpt>
      <trkpt lat="43.73929" lon="6.54106">
        <ele>982.6</ele>
        <time>2011-11-13T10:41:02Z</time>
      </trkpt>
      <trkpt lat="43.73929" lon="6.54111">
        <ele>983.4</ele>
        <time>2011-11-13T10:41:07Z</time>
      </trkpt>
      <trkpt lat="43.73928" lon="6.54115">
        <ele>984.3</ele>
        <time>2011-11-13T10:41:12Z</time>
      </trkpt>
      <trkpt lat="43.73927" lon="6.54118">
        <ele>985</ele>
        <time>2011-11-13T10:41:17Z</time>
      </trkpt>
      <trkpt lat="43.73927" lon="6.54119">
        <ele>985.3</ele>
        <time>2011-11-13T10:41:18Z</time>
      </trkpt>
      <trkpt lat="43.73924" lon="6.54124">
        <ele>987.2</ele>
        <time>2011-11-13T10:41:27Z</time>
      </trkpt>
      <trkpt lat="43.73925" lon="6.54129">
        <ele>987.8</ele>
        <time>2011-11-13T10:41:32Z</time>
      </trkpt>
      <trkpt lat="43.73924" lon="6.54133">
        <ele>988.3</ele>
        <time>2011-11-13T10:41:37Z</time>
      </trkpt>
      <trkpt lat="43.73922" lon="6.54138">
        <ele>989.3</ele>
        <time>2011-11-13T10:41:42Z</time>
      </trkpt>
      <trkpt lat="43.7392" lon="6.54142">
        <ele>990</ele>
        <time>2011-11-13T10:41:47Z</time>
      </trkpt>
      <trkpt lat="43.73918" lon="6.54147">
        <ele>991.3</ele>
        <time>2011-11-13T10:41:52Z</time>
      </trkpt>
      <trkpt lat="43.73915" lon="6.54152">
        <ele>991.5</ele>
        <time>2011-11-13T10:41:57Z</time>
      </trkpt>
      <trkpt lat="43.73912" lon="6.54156">
        <ele>992.6</ele>
        <time>2011-11-13T10:42:02Z</time>
      </trkpt>
      <trkpt lat="43.73911" lon="6.5416">
        <ele>993.7</ele>
        <time>2011-11-13T10:42:07Z</time>
      </trkpt>
      <trkpt lat="43.73911" lon="6.54166">
        <ele>993.9</ele>
        <time>2011-11-13T10:42:12Z</time>
      </trkpt>
      <trkpt lat="43.73909" lon="6.5417">
        <ele>994.5</ele>
        <time>2011-11-13T10:42:17Z</time>
      </trkpt>
      <trkpt lat="43.73906" lon="6.54173">
        <ele>995.6</ele>
        <time>2011-11-13T10:42:22Z</time>
      </trkpt>
      <trkpt lat="43.73905" lon="6.54174">
        <ele>996</ele>
        <time>2011-11-13T10:42:23Z</time>
      </trkpt>
      <trkpt lat="43.73899" lon="6.54176">
        <ele>997.4</ele>
        <time>2011-11-13T10:42:32Z</time>
      </trkpt>
      <trkpt lat="43.73898" lon="6.54179">
        <ele>998.2</ele>
        <time>2011-11-13T10:42:37Z</time>
      </trkpt>
      <trkpt lat="43.73897" lon="6.54184">
        <ele>999</ele>
        <time>2011-11-13T10:42:42Z</time>
      </trkpt>
      <trkpt lat="43.73895" lon="6.54189">
        <ele>999.8</ele>
        <time>2011-11-13T10:42:47Z</time>
      </trkpt>
      <trkpt lat="43.73894" lon="6.54195">
        <ele>1000</ele>
        <time>2011-11-13T10:42:52Z</time>
      </trkpt>
      <trkpt lat="43.73893" lon="6.542">
        <ele>1000.5</ele>
        <time>2011-11-13T10:42:57Z</time>
      </trkpt>
      <trkpt lat="43.73889" lon="6.54204">
        <ele>1001.1</ele>
        <time>2011-11-13T10:43:02Z</time>
      </trkpt>
      <trkpt lat="43.73886" lon="6.5421">
        <ele>1001.9</ele>
        <time>2011-11-13T10:43:07Z</time>
      </trkpt>
      <trkpt lat="43.73883" lon="6.54215">
        <ele>1002.3</ele>
        <time>2011-11-13T10:43:12Z</time>
      </trkpt>
      <trkpt lat="43.73881" lon="6.54221">
        <ele>1002.9</ele>
        <time>2011-11-13T10:43:17Z</time>
      </trkpt>
      <trkpt lat="43.73879" lon="6.54224">
        <ele>1003.2</ele>
        <time>2011-11-13T10:43:22Z</time>
      </trkpt>
      <trkpt lat="43.73876" lon="6.54229">
        <ele>1003.7</ele>
        <time>2011-11-13T10:43:27Z</time>
      </trkpt>
      <trkpt lat="43.73875" lon="6.5423">
        <ele>1003.8</ele>
        <time>2011-11-13T10:43:28Z</time>
      </trkpt>
      <trkpt lat="43.7387" lon="6.5424">
        <ele>1004.5</ele>
        <time>2011-11-13T10:43:37Z</time>
      </trkpt>
      <trkpt lat="43.73868" lon="6.54247">
        <ele>1005.6</ele>
        <time>2011-11-13T10:43:42Z</time>
      </trkpt>
      <trkpt lat="43.73867" lon="6.54253">
        <ele>1006</ele>
        <time>2011-11-13T10:43:47Z</time>
      </trkpt>
      <trkpt lat="43.73865" lon="6.54259">
        <ele>1006</ele>
        <time>2011-11-13T10:43:52Z</time>
      </trkpt>
      <trkpt lat="43.73862" lon="6.54263">
        <ele>1006.3</ele>
        <time>2011-11-13T10:43:57Z</time>
      </trkpt>
      <trkpt lat="43.7386" lon="6.54268">
        <ele>1006.6</ele>
        <time>2011-11-13T10:44:02Z</time>
      </trkpt>
      <trkpt lat="43.73858" lon="6.54274">
        <ele>1007.7</ele>
        <time>2011-11-13T10:44:07Z</time>
      </trkpt>
      <trkpt lat="43.73854" lon="6.54279">
        <ele>1008.3</ele>
        <time>2011-11-13T10:44:12Z</time>
      </trkpt>
      <trkpt lat="43.73851" lon="6.54283">
        <ele>1008.6</ele>
        <time>2011-11-13T10:44:17Z</time>
      </trkpt>
      <trkpt lat="43.73848" lon="6.54287">
        <ele>1008.9</ele>
        <time>2011-11-13T10:44:22Z</time>
      </trkpt>
      <trkpt lat="43.73847" lon="6.54293">
        <ele>1009.6</ele>
        <time>2011-11-13T10:44:27Z</time>
      </trkpt>
      <trkpt lat="43.73846" lon="6.54299">
        <ele>1009.6</ele>
        <time>2011-11-13T10:44:32Z</time>
      </trkpt>
      <trkpt lat="43.73845" lon="6.543">
        <ele>1009.6</ele>
        <time>2011-11-13T10:44:33Z</time>
      </trkpt>
      <trkpt lat="43.73842" lon="6.54308">
        <ele>1011.3</ele>
        <time>2011-11-13T10:44:42Z</time>
      </trkpt>
      <trkpt lat="43.7384" lon="6.54312">
        <ele>1011.2</ele>
        <time>2011-11-13T10:44:47Z</time>
      </trkpt>
      <trkpt lat="43.73838" lon="6.54317">
        <ele>1011.4</ele>
        <time>2011-11-13T10:44:52Z</time>
      </trkpt>
      <trkpt lat="43.73836" lon="6.54321">
        <ele>1011.7</ele>
        <time>2011-11-13T10:44:57Z</time>
      </trkpt>
      <trkpt lat="43.73833" lon="6.54325">
        <ele>1012.1</ele>
        <time>2011-11-13T10:45:02Z</time>
      </trkpt>
      <trkpt lat="43.7383" lon="6.54328">
        <ele>1012.4</ele>
        <time>2011-11-13T10:45:07Z</time>
      </trkpt>
      <trkpt lat="43.73827" lon="6.54334">
        <ele>1012.8</ele>
        <time>2011-11-13T10:45:12Z</time>
      </trkpt>
      <trkpt lat="43.73826" lon="6.54342">
        <ele>1013.4</ele>
        <time>2011-11-13T10:45:17Z</time>
      </trkpt>
      <trkpt lat="43.73823" lon="6.54349">
        <ele>1013.2</ele>
        <time>2011-11-13T10:45:22Z</time>
      </trkpt>
      <trkpt lat="43.73821" lon="6.54357">
        <ele>1013.4</ele>
        <time>2011-11-13T10:45:27Z</time>
      </trkpt>
      <trkpt lat="43.7382" lon="6.54366">
        <ele>1013.6</ele>
        <time>2011-11-13T10:45:32Z</time>
      </trkpt>
      <trkpt lat="43.73817" lon="6.54373">
        <ele>1013.4</ele>
        <time>2011-11-13T10:45:37Z</time>
      </trkpt>
      <trkpt lat="43.73816" lon="6.54374">
        <ele>1013.5</ele>
        <time>2011-11-13T10:45:38Z</time>
      </trkpt>
      <trkpt lat="43.73811" lon="6.54384">
        <ele>1014.4</ele>
        <time>2011-11-13T10:45:47Z</time>
      </trkpt>
      <trkpt lat="43.73808" lon="6.5439">
        <ele>1015.2</ele>
        <time>2011-11-13T10:45:52Z</time>
      </trkpt>
      <trkpt lat="43.73807" lon="6.54395">
        <ele>1015.7</ele>
        <time>2011-11-13T10:45:57Z</time>
      </trkpt>
      <trkpt lat="43.73803" lon="6.54401">
        <ele>1015.9</ele>
        <time>2011-11-13T10:46:02Z</time>
      </trkpt>
      <trkpt lat="43.73801" lon="6.54408">
        <ele>1016.7</ele>
        <time>2011-11-13T10:46:07Z</time>
      </trkpt>
      <trkpt lat="43.73799" lon="6.54415">
        <ele>1016.8</ele>
        <time>2011-11-13T10:46:12Z</time>
      </trkpt>
      <trkpt lat="43.73796" lon="6.54421">
        <ele>1017.5</ele>
        <time>2011-11-13T10:46:17Z</time>
      </trkpt>
      <trkpt lat="43.73795" lon="6.54428">
        <ele>1017.8</ele>
        <time>2011-11-13T10:46:22Z</time>
      </trkpt>
      <trkpt lat="43.73793" lon="6.54434">
        <ele>1018.1</ele>
        <time>2011-11-13T10:46:27Z</time>
      </trkpt>
      <trkpt lat="43.73792" lon="6.54441">
        <ele>1018.9</ele>
        <time>2011-11-13T10:46:32Z</time>
      </trkpt>
      <trkpt lat="43.73791" lon="6.54448">
        <ele>1018.3</ele>
        <time>2011-11-13T10:46:37Z</time>
      </trkpt>
      <trkpt lat="43.73791" lon="6.54454">
        <ele>1019.6</ele>
        <time>2011-11-13T10:46:42Z</time>
      </trkpt>
      <trkpt lat="43.73791" lon="6.54455">
        <ele>1019.7</ele>
        <time>2011-11-13T10:46:43Z</time>
      </trkpt>
      <trkpt lat="43.73786" lon="6.54462">
        <ele>1020.3</ele>
        <time>2011-11-13T10:46:52Z</time>
      </trkpt>
      <trkpt lat="43.73785" lon="6.54463">
        <ele>1020.6</ele>
        <time>2011-11-13T10:46:57Z</time>
      </trkpt>
      <trkpt lat="43.73785" lon="6.54465">
        <ele>1019.8</ele>
        <time>2011-11-13T10:47:02Z</time>
      </trkpt>
      <trkpt lat="43.73785" lon="6.54466">
        <ele>1019.8</ele>
        <time>2011-11-13T10:47:07Z</time>
      </trkpt>
      <trkpt lat="43.73785" lon="6.54467">
        <ele>1019.6</ele>
        <time>2011-11-13T10:47:12Z</time>
      </trkpt>
      <trkpt lat="43.73785" lon="6.54468">
        <ele>1019.8</ele>
        <time>2011-11-13T10:47:17Z</time>
      </trkpt>
      <trkpt lat="43.73784" lon="6.54469">
        <ele>1019.8</ele>
        <time>2011-11-13T10:47:22Z</time>
      </trkpt>
      <trkpt lat="43.73784" lon="6.54469">
        <ele>1019.7</ele>
        <time>2011-11-13T10:47:27Z</time>
      </trkpt>
      <trkpt lat="43.73783" lon="6.5447">
        <ele>1020.1</ele>
        <time>2011-11-13T10:47:32Z</time>
      </trkpt>
      <trkpt lat="43.73785" lon="6.5447">
        <ele>1020</ele>
        <time>2011-11-13T10:47:37Z</time>
      </trkpt>
      <trkpt lat="43.73784" lon="6.54471">
        <ele>1020</ele>
        <time>2011-11-13T10:47:42Z</time>
      </trkpt>
      <trkpt lat="43.73783" lon="6.54472">
        <ele>1020</ele>
        <time>2011-11-13T10:47:47Z</time>
      </trkpt>
      <trkpt lat="43.73782" lon="6.54472">
        <ele>1020</ele>
        <time>2011-11-13T10:47:48Z</time>
      </trkpt>
      <trkpt lat="43.73781" lon="6.54473">
        <ele>1020.2</ele>
        <time>2011-11-13T10:47:57Z</time>
      </trkpt>
      <trkpt lat="43.73781" lon="6.54474">
        <ele>1020.4</ele>
        <time>2011-11-13T10:48:02Z</time>
      </trkpt>
      <trkpt lat="43.73781" lon="6.54474">
        <ele>1019.8</ele>
        <time>2011-11-13T10:48:07Z</time>
      </trkpt>
      <trkpt lat="43.73782" lon="6.54473">
        <ele>1019.8</ele>
        <time>2011-11-13T10:48:12Z</time>
      </trkpt>
      <trkpt lat="43.73782" lon="6.54472">
        <ele>1019.7</ele>
        <time>2011-11-13T10:48:17Z</time>
      </trkpt>
      <trkpt lat="43.73783" lon="6.54472">
        <ele>1020</ele>
        <time>2011-11-13T10:48:22Z</time>
      </trkpt>
      <trkpt lat="43.73783" lon="6.54471">
        <ele>1020</ele>
        <time>2011-11-13T10:48:27Z</time>
      </trkpt>
      <trkpt lat="43.73784" lon="6.54471">
        <ele>1020.3</ele>
        <time>2011-11-13T10:48:32Z</time>
      </trkpt>
      <trkpt lat="43.73785" lon="6.54471">
        <ele>1020.3</ele>
        <time>2011-11-13T10:48:37Z</time>
      </trkpt>
      <trkpt lat="43.73785" lon="6.54471">
        <ele>1020.2</ele>
        <time>2011-11-13T10:48:42Z</time>
      </trkpt>
      <trkpt lat="43.73786" lon="6.54471">
        <ele>1020.2</ele>
        <time>2011-11-13T10:48:47Z</time>
      </trkpt>
      <trkpt lat="43.73785" lon="6.54471">
        <ele>1020.3</ele>
        <time>2011-11-13T10:48:52Z</time>
      </trkpt>
      <trkpt lat="43.73785" lon="6.54471">
        <ele>1020.3</ele>
        <time>2011-11-13T10:48:53Z</time>
      </trkpt>
      <trkpt lat="43.73785" lon="6.5447">
        <ele>1019.9</ele>
        <time>2011-11-13T10:49:02Z</time>
      </trkpt>
      <trkpt lat="43.73785" lon="6.5447">
        <ele>1020.1</ele>
        <time>2011-11-13T10:49:07Z</time>
      </trkpt>
      <trkpt lat="43.73785" lon="6.5447">
        <ele>1020.3</ele>
        <time>2011-11-13T10:49:12Z</time>
      </trkpt>
      <trkpt lat="43.73785" lon="6.5447">
        <ele>1020</ele>
        <time>2011-11-13T10:49:17Z</time>
      </trkpt>
      <trkpt lat="43.73785" lon="6.5447">
        <ele>1020.2</ele>
        <time>2011-11-13T10:49:22Z</time>
      </trkpt>
      <trkpt lat="43.73785" lon="6.5447">
        <ele>1020.1</ele>
        <time>2011-11-13T10:49:27Z</time>
      </trkpt>
      <trkpt lat="43.73785" lon="6.54469">
        <ele>1020.2</ele>
        <time>2011-11-13T10:49:32Z</time>
      </trkpt>
      <trkpt lat="43.73785" lon="6.54469">
        <ele>1020.3</ele>
        <time>2011-11-13T10:49:37Z</time>
      </trkpt>
      <trkpt lat="43.73784" lon="6.54469">
        <ele>1020.6</ele>
        <time>2011-11-13T10:49:42Z</time>
      </trkpt>
      <trkpt lat="43.73785" lon="6.54469">
        <ele>1020.5</ele>
        <time>2011-11-13T10:49:47Z</time>
      </trkpt>
      <trkpt lat="43.73784" lon="6.54469">
        <ele>1020.2</ele>
        <time>2011-11-13T10:49:52Z</time>
      </trkpt>
      <trkpt lat="43.73784" lon="6.5447">
        <ele>1021.6</ele>
        <time>2011-11-13T10:49:57Z</time>
      </trkpt>
      <trkpt lat="43.73784" lon="6.5447">
        <ele>1021.5</ele>
        <time>2011-11-13T10:49:58Z</time>
      </trkpt>
      <trkpt lat="43.73784" lon="6.54471">
        <ele>1021</ele>
        <time>2011-11-13T10:50:07Z</time>
      </trkpt>
      <trkpt lat="43.73783" lon="6.54471">
        <ele>1020.3</ele>
        <time>2011-11-13T10:50:12Z</time>
      </trkpt>
      <trkpt lat="43.73783" lon="6.54472">
        <ele>1020.7</ele>
        <time>2011-11-13T10:50:17Z</time>
      </trkpt>
      <trkpt lat="43.73782" lon="6.54472">
        <ele>1020.8</ele>
        <time>2011-11-13T10:50:22Z</time>
      </trkpt>
      <trkpt lat="43.73782" lon="6.54472">
        <ele>1021.1</ele>
        <time>2011-11-13T10:50:27Z</time>
      </trkpt>
      <trkpt lat="43.73783" lon="6.54472">
        <ele>1021.3</ele>
        <time>2011-11-13T10:50:32Z</time>
      </trkpt>
      <trkpt lat="43.73784" lon="6.54471">
        <ele>1021.6</ele>
        <time>2011-11-13T10:50:37Z</time>
      </trkpt>
      <trkpt lat="43.73784" lon="6.54471">
        <ele>1021.2</ele>
        <time>2011-11-13T10:50:42Z</time>
      </trkpt>
      <trkpt lat="43.73784" lon="6.54471">
        <ele>1021.5</ele>
        <time>2011-11-13T10:50:47Z</time>
      </trkpt>
      <trkpt lat="43.73785" lon="6.54472">
        <ele>1021.3</ele>
        <time>2011-11-13T10:50:52Z</time>
      </trkpt>
      <trkpt lat="43.73785" lon="6.54472">
        <ele>1021.7</ele>
        <time>2011-11-13T10:50:57Z</time>
      </trkpt>
      <trkpt lat="43.73785" lon="6.54471">
        <ele>1022.3</ele>
        <time>2011-11-13T10:51:02Z</time>
      </trkpt>
      <trkpt lat="43.73785" lon="6.54471">
        <ele>1022.4</ele>
        <time>2011-11-13T10:51:03Z</time>
      </trkpt>
      <trkpt lat="43.73783" lon="6.54468">
        <ele>1022.6</ele>
        <time>2011-11-13T10:51:12Z</time>
      </trkpt>
      <trkpt lat="43.73783" lon="6.54467">
        <ele>1022.9</ele>
        <time>2011-11-13T10:51:17Z</time>
      </trkpt>
      <trkpt lat="43.73782" lon="6.54466">
        <ele>1022.7</ele>
        <time>2011-11-13T10:51:22Z</time>
      </trkpt>
      <trkpt lat="43.73782" lon="6.54466">
        <ele>1022.5</ele>
        <time>2011-11-13T10:51:27Z</time>
      </trkpt>
      <trkpt lat="43.73781" lon="6.54465">
        <ele>1022.7</ele>
        <time>2011-11-13T10:51:32Z</time>
      </trkpt>
      <trkpt lat="43.73782" lon="6.54466">
        <ele>1022.9</ele>
        <time>2011-11-13T10:51:37Z</time>
      </trkpt>
      <trkpt lat="43.73782" lon="6.54466">
        <ele>1023.1</ele>
        <time>2011-11-13T10:51:42Z</time>
      </trkpt>
      <trkpt lat="43.73783" lon="6.54466">
        <ele>1023.2</ele>
        <time>2011-11-13T10:51:47Z</time>
      </trkpt>
      <trkpt lat="43.73783" lon="6.54466">
        <ele>1023.1</ele>
        <time>2011-11-13T10:51:52Z</time>
      </trkpt>
      <trkpt lat="43.73783" lon="6.54465">
        <ele>1022.9</ele>
        <time>2011-11-13T10:51:57Z</time>
      </trkpt>
      <trkpt lat="43.73784" lon="6.54465">
        <ele>1022.8</ele>
        <time>2011-11-13T10:52:02Z</time>
      </trkpt>
      <trkpt lat="43.73784" lon="6.54465">
        <ele>1023</ele>
        <time>2011-11-13T10:52:07Z</time>
      </trkpt>
      <trkpt lat="43.73784" lon="6.54465">
        <ele>1023</ele>
        <time>2011-11-13T10:52:08Z</time>
      </trkpt>
      <trkpt lat="43.73785" lon="6.54465">
        <ele>1022.7</ele>
        <time>2011-11-13T10:52:17Z</time>
      </trkpt>
      <trkpt lat="43.73785" lon="6.54465">
        <ele>1023</ele>
        <time>2011-11-13T10:52:22Z</time>
      </trkpt>
      <trkpt lat="43.73785" lon="6.54464">
        <ele>1023.2</ele>
        <time>2011-11-13T10:52:27Z</time>
      </trkpt>
      <trkpt lat="43.73785" lon="6.54465">
        <ele>1022.9</ele>
        <time>2011-11-13T10:52:32Z</time>
      </trkpt>
      <trkpt lat="43.73785" lon="6.54465">
        <ele>1022.5</ele>
        <time>2011-11-13T10:52:37Z</time>
      </trkpt>
      <trkpt lat="43.73785" lon="6.54465">
        <ele>1022.6</ele>
        <time>2011-11-13T10:52:42Z</time>
      </trkpt>
      <trkpt lat="43.73784" lon="6.54465">
        <ele>1022.8</ele>
        <time>2011-11-13T10:52:47Z</time>
      </trkpt>
      <trkpt lat="43.73785" lon="6.54465">
        <ele>1022.4</ele>
        <time>2011-11-13T10:52:52Z</time>
      </trkpt>
      <trkpt lat="43.73785" lon="6.54466">
        <ele>1022.5</ele>
        <time>2011-11-13T10:52:57Z</time>
      </trkpt>
      <trkpt lat="43.73786" lon="6.54467">
        <ele>1022.4</ele>
        <time>2011-11-13T10:53:02Z</time>
      </trkpt>
      <trkpt lat="43.73786" lon="6.54468">
        <ele>1022.5</ele>
        <time>2011-11-13T10:53:07Z</time>
      </trkpt>
      <trkpt lat="43.73785" lon="6.54468">
        <ele>1022.7</ele>
        <time>2011-11-13T10:53:12Z</time>
      </trkpt>
      <trkpt lat="43.73785" lon="6.54467">
        <ele>1022.7</ele>
        <time>2011-11-13T10:53:13Z</time>
      </trkpt>
      <trkpt lat="43.73784" lon="6.54467">
        <ele>1022.9</ele>
        <time>2011-11-13T10:53:22Z</time>
      </trkpt>
      <trkpt lat="43.73784" lon="6.54467">
        <ele>1022.7</ele>
        <time>2011-11-13T10:53:27Z</time>
      </trkpt>
      <trkpt lat="43.73784" lon="6.54467">
        <ele>1022.9</ele>
        <time>2011-11-13T10:53:32Z</time>
      </trkpt>
      <trkpt lat="43.73783" lon="6.54468">
        <ele>1023.3</ele>
        <time>2011-11-13T10:53:37Z</time>
      </trkpt>
      <trkpt lat="43.73783" lon="6.54468">
        <ele>1022.6</ele>
        <time>2011-11-13T10:53:42Z</time>
      </trkpt>
      <trkpt lat="43.73783" lon="6.54468">
        <ele>1023.1</ele>
        <time>2011-11-13T10:53:47Z</time>
      </trkpt>
      <trkpt lat="43.73783" lon="6.54469">
        <ele>1023</ele>
        <time>2011-11-13T10:53:52Z</time>
      </trkpt>
      <trkpt lat="43.73783" lon="6.54468">
        <ele>1023.1</ele>
        <time>2011-11-13T10:53:57Z</time>
      </trkpt>
      <trkpt lat="43.73782" lon="6.54468">
        <ele>1022.7</ele>
        <time>2011-11-13T10:54:02Z</time>
      </trkpt>
      <trkpt lat="43.73782" lon="6.54468">
        <ele>1022.8</ele>
        <time>2011-11-13T10:54:07Z</time>
      </trkpt>
      <trkpt lat="43.73782" lon="6.54469">
        <ele>1022.9</ele>
        <time>2011-11-13T10:54:12Z</time>
      </trkpt>
      <trkpt lat="43.73783" lon="6.54469">
        <ele>1022.3</ele>
        <time>2011-11-13T10:54:17Z</time>
      </trkpt>
      <trkpt lat="43.73783" lon="6.54469">
        <ele>1022.2</ele>
        <time>2011-11-13T10:54:18Z</time>
      </trkpt>
      <trkpt lat="43.73783" lon="6.5447">
        <ele>1023</ele>
        <time>2011-11-13T10:54:27Z</time>
      </trkpt>
      <trkpt lat="43.73783" lon="6.5447">
        <ele>1022.7</ele>
        <time>2011-11-13T10:54:32Z</time>
      </trkpt>
      <trkpt lat="43.73783" lon="6.5447">
        <ele>1022.5</ele>
        <time>2011-11-13T10:54:37Z</time>
      </trkpt>
      <trkpt lat="43.73783" lon="6.5447">
        <ele>1022.6</ele>
        <time>2011-11-13T10:54:42Z</time>
      </trkpt>
      <trkpt lat="43.73783" lon="6.5447">
        <ele>1022.6</ele>
        <time>2011-11-13T10:54:47Z</time>
      </trkpt>
      <trkpt lat="43.73783" lon="6.5447">
        <ele>1022.7</ele>
        <time>2011-11-13T10:54:52Z</time>
      </trkpt>
      <trkpt lat="43.73783" lon="6.5447">
        <ele>1023.1</ele>
        <time>2011-11-13T10:54:57Z</time>
      </trkpt>
      <trkpt lat="43.73783" lon="6.54471">
        <ele>1022.8</ele>
        <time>2011-11-13T10:55:02Z</time>
      </trkpt>
      <trkpt lat="43.73783" lon="6.5447">
        <ele>1022.9</ele>
        <time>2011-11-13T10:55:07Z</time>
      </trkpt>
      <trkpt lat="43.73783" lon="6.5447">
        <ele>1022.7</ele>
        <time>2011-11-13T10:55:12Z</time>
      </trkpt>
      <trkpt lat="43.73783" lon="6.54469">
        <ele>1023</ele>
        <time>2011-11-13T10:55:17Z</time>
      </trkpt>
      <trkpt lat="43.73782" lon="6.54468">
        <ele>1023</ele>
        <time>2011-11-13T10:55:22Z</time>
      </trkpt>
      <trkpt lat="43.73782" lon="6.54468">
        <ele>1023</ele>
        <time>2011-11-13T10:55:23Z</time>
      </trkpt>
      <trkpt lat="43.73781" lon="6.54466">
        <ele>1022.9</ele>
        <time>2011-11-13T10:55:32Z</time>
      </trkpt>
      <trkpt lat="43.73782" lon="6.54466">
        <ele>1023</ele>
        <time>2011-11-13T10:55:37Z</time>
      </trkpt>
      <trkpt lat="43.73782" lon="6.54466">
        <ele>1023</ele>
        <time>2011-11-13T10:55:42Z</time>
      </trkpt>
      <trkpt lat="43.73782" lon="6.54466">
        <ele>1023.1</ele>
        <time>2011-11-13T10:55:47Z</time>
      </trkpt>
      <trkpt lat="43.73782" lon="6.54466">
        <ele>1023.3</ele>
        <time>2011-11-13T10:55:52Z</time>
      </trkpt>
      <trkpt lat="43.73782" lon="6.54466">
        <ele>1023.2</ele>
        <time>2011-11-13T10:55:57Z</time>
      </trkpt>
      <trkpt lat="43.73782" lon="6.54466">
        <ele>1023.1</ele>
        <time>2011-11-13T10:56:02Z</time>
      </trkpt>
      <trkpt lat="43.73782" lon="6.54466">
        <ele>1023</ele>
        <time>2011-11-13T10:56:07Z</time>
      </trkpt>
      <trkpt lat="43.73782" lon="6.54467">
        <ele>1023.1</ele>
        <time>2011-11-13T10:56:12Z</time>
      </trkpt>
      <trkpt lat="43.73783" lon="6.54467">
        <ele>1023.1</ele>
        <time>2011-11-13T10:56:17Z</time>
      </trkpt>
      <trkpt lat="43.73783" lon="6.54468">
        <ele>1022.9</ele>
        <time>2011-11-13T10:56:22Z</time>
      </trkpt>
      <trkpt lat="43.73783" lon="6.54468">
        <ele>1022.9</ele>
        <time>2011-11-13T10:56:27Z</time>
      </trkpt>
      <trkpt lat="43.73783" lon="6.54468">
        <ele>1023</ele>
        <time>2011-11-13T10:56:28Z</time>
      </trkpt>
      <trkpt lat="43.73784" lon="6.54468">
        <ele>1023</ele>
        <time>2011-11-13T10:56:37Z</time>
      </trkpt>
      <trkpt lat="43.73784" lon="6.54468">
        <ele>1023.2</ele>
        <time>2011-11-13T10:56:42Z</time>
      </trkpt>
      <trkpt lat="43.73784" lon="6.54469">
        <ele>1023</ele>
        <time>2011-11-13T10:56:47Z</time>
      </trkpt>
      <trkpt lat="43.73784" lon="6.54469">
        <ele>1023.2</ele>
        <time>2011-11-13T10:56:52Z</time>
      </trkpt>
      <trkpt lat="43.73784" lon="6.5447">
        <ele>1023.3</ele>
        <time>2011-11-13T10:56:57Z</time>
      </trkpt>
      <trkpt lat="43.73783" lon="6.54471">
        <ele>1023.2</ele>
        <time>2011-11-13T10:57:02Z</time>
      </trkpt>
      <trkpt lat="43.73782" lon="6.54473">
        <ele>1023.3</ele>
        <time>2011-11-13T10:57:07Z</time>
      </trkpt>
      <trkpt lat="43.73783" lon="6.54479">
        <ele>1023.6</ele>
        <time>2011-11-13T10:57:12Z</time>
      </trkpt>
      <trkpt lat="43.73781" lon="6.54484">
        <ele>1024.3</ele>
        <time>2011-11-13T10:57:17Z</time>
      </trkpt>
      <trkpt lat="43.73781" lon="6.5449">
        <ele>1024.4</ele>
        <time>2011-11-13T10:57:22Z</time>
      </trkpt>
      <trkpt lat="43.73781" lon="6.54496">
        <ele>1024.9</ele>
        <time>2011-11-13T10:57:27Z</time>
      </trkpt>
      <trkpt lat="43.73781" lon="6.54501">
        <ele>1025.4</ele>
        <time>2011-11-13T10:57:32Z</time>
      </trkpt>
      <trkpt lat="43.73781" lon="6.54501">
        <ele>1025.5</ele>
        <time>2011-11-13T10:57:33Z</time>
      </trkpt>
      <trkpt lat="43.73781" lon="6.54501">
        <ele>1025.5</ele>
        <time>2011-11-13T10:57:42Z</time>
      </trkpt>
      <trkpt lat="43.73782" lon="6.54504">
        <ele>1026</ele>
        <time>2011-11-13T10:57:47Z</time>
      </trkpt>
      <trkpt lat="43.73783" lon="6.54509">
        <ele>1025.6</ele>
        <time>2011-11-13T10:57:52Z</time>
      </trkpt>
      <trkpt lat="43.73784" lon="6.54515">
        <ele>1026</ele>
        <time>2011-11-13T10:57:57Z</time>
      </trkpt>
      <trkpt lat="43.73784" lon="6.5452">
        <ele>1026.5</ele>
        <time>2011-11-13T10:58:02Z</time>
      </trkpt>
      <trkpt lat="43.73785" lon="6.54526">
        <ele>1027.2</ele>
        <time>2011-11-13T10:58:07Z</time>
      </trkpt>
      <trkpt lat="43.73787" lon="6.54532">
        <ele>1028.2</ele>
        <time>2011-11-13T10:58:12Z</time>
      </trkpt>
      <trkpt lat="43.73789" lon="6.54536">
        <ele>1028.3</ele>
        <time>2011-11-13T10:58:17Z</time>
      </trkpt>
      <trkpt lat="43.7379" lon="6.54539">
        <ele>1028.1</ele>
        <time>2011-11-13T10:58:22Z</time>
      </trkpt>
      <trkpt lat="43.73791" lon="6.54541">
        <ele>1028.7</ele>
        <time>2011-11-13T10:58:27Z</time>
      </trkpt>
      <trkpt lat="43.73793" lon="6.54545">
        <ele>1029.1</ele>
        <time>2011-11-13T10:58:32Z</time>
      </trkpt>
      <trkpt lat="43.73792" lon="6.5455">
        <ele>1029.2</ele>
        <time>2011-11-13T10:58:37Z</time>
      </trkpt>
      <trkpt lat="43.73792" lon="6.54551">
        <ele>1029.3</ele>
        <time>2011-11-13T10:58:38Z</time>
      </trkpt>
      <trkpt lat="43.73791" lon="6.54559">
        <ele>1031</ele>
        <time>2011-11-13T10:58:47Z</time>
      </trkpt>
      <trkpt lat="43.73789" lon="6.54565">
        <ele>1031.9</ele>
        <time>2011-11-13T10:58:52Z</time>
      </trkpt>
      <trkpt lat="43.73788" lon="6.54571">
        <ele>1032.1</ele>
        <time>2011-11-13T10:58:57Z</time>
      </trkpt>
      <trkpt lat="43.73786" lon="6.54576">
        <ele>1032.5</ele>
        <time>2011-11-13T10:59:02Z</time>
      </trkpt>
      <trkpt lat="43.73785" lon="6.54582">
        <ele>1032.7</ele>
        <time>2011-11-13T10:59:07Z</time>
      </trkpt>
      <trkpt lat="43.73784" lon="6.54588">
        <ele>1032.7</ele>
        <time>2011-11-13T10:59:12Z</time>
      </trkpt>
      <trkpt lat="43.73784" lon="6.54594">
        <ele>1033</ele>
        <time>2011-11-13T10:59:17Z</time>
      </trkpt>
      <trkpt lat="43.73783" lon="6.54601">
        <ele>1033.1</ele>
        <time>2011-11-13T10:59:22Z</time>
      </trkpt>
      <trkpt lat="43.73783" lon="6.54608">
        <ele>1033.1</ele>
        <time>2011-11-13T10:59:27Z</time>
      </trkpt>
      <trkpt lat="43.73782" lon="6.54615">
        <ele>1033.8</ele>
        <time>2011-11-13T10:59:32Z</time>
      </trkpt>
      <trkpt lat="43.73781" lon="6.54622">
        <ele>1034.1</ele>
        <time>2011-11-13T10:59:37Z</time>
      </trkpt>
      <trkpt lat="43.7378" lon="6.54628">
        <ele>1034.7</ele>
        <time>2011-11-13T10:59:42Z</time>
      </trkpt>
      <trkpt lat="43.7378" lon="6.5463">
        <ele>1034.8</ele>
        <time>2011-11-13T10:59:43Z</time>
      </trkpt>
      <trkpt lat="43.73778" lon="6.54642">
        <ele>1035.3</ele>
        <time>2011-11-13T10:59:52Z</time>
      </trkpt>
      <trkpt lat="43.73776" lon="6.54648">
        <ele>1035.6</ele>
        <time>2011-11-13T10:59:57Z</time>
      </trkpt>
      <trkpt lat="43.73776" lon="6.54655">
        <ele>1035.8</ele>
        <time>2011-11-13T11:00:02Z</time>
      </trkpt>
      <trkpt lat="43.73775" lon="6.54662">
        <ele>1036.2</ele>
        <time>2011-11-13T11:00:07Z</time>
      </trkpt>
      <trkpt lat="43.73774" lon="6.54668">
        <ele>1036.2</ele>
        <time>2011-11-13T11:00:12Z</time>
      </trkpt>
      <trkpt lat="43.73774" lon="6.54676">
        <ele>1035.2</ele>
        <time>2011-11-13T11:00:17Z</time>
      </trkpt>
      <trkpt lat="43.73773" lon="6.54682">
        <ele>1035.2</ele>
        <time>2011-11-13T11:00:22Z</time>
      </trkpt>
      <trkpt lat="43.73773" lon="6.54688">
        <ele>1036</ele>
        <time>2011-11-13T11:00:27Z</time>
      </trkpt>
      <trkpt lat="43.73772" lon="6.54695">
        <ele>1036</ele>
        <time>2011-11-13T11:00:32Z</time>
      </trkpt>
      <trkpt lat="43.73771" lon="6.54701">
        <ele>1036.9</ele>
        <time>2011-11-13T11:00:37Z</time>
      </trkpt>
      <trkpt lat="43.73771" lon="6.54708">
        <ele>1037.8</ele>
        <time>2011-11-13T11:00:42Z</time>
      </trkpt>
      <trkpt lat="43.7377" lon="6.54716">
        <ele>1037.5</ele>
        <time>2011-11-13T11:00:47Z</time>
      </trkpt>
      <trkpt lat="43.73769" lon="6.54717">
        <ele>1037.5</ele>
        <time>2011-11-13T11:00:48Z</time>
      </trkpt>
      <trkpt lat="43.73766" lon="6.54729">
        <ele>1037.7</ele>
        <time>2011-11-13T11:00:57Z</time>
      </trkpt>
      <trkpt lat="43.73763" lon="6.54737">
        <ele>1037.5</ele>
        <time>2011-11-13T11:01:02Z</time>
      </trkpt>
      <trkpt lat="43.73759" lon="6.54743">
        <ele>1037.5</ele>
        <time>2011-11-13T11:01:07Z</time>
      </trkpt>
      <trkpt lat="43.73759" lon="6.54751">
        <ele>1037.9</ele>
        <time>2011-11-13T11:01:12Z</time>
      </trkpt>
      <trkpt lat="43.73757" lon="6.54758">
        <ele>1037.6</ele>
        <time>2011-11-13T11:01:17Z</time>
      </trkpt>
      <trkpt lat="43.73756" lon="6.54766">
        <ele>1038.6</ele>
        <time>2011-11-13T11:01:22Z</time>
      </trkpt>
      <trkpt lat="43.73755" lon="6.54774">
        <ele>1037.9</ele>
        <time>2011-11-13T11:01:27Z</time>
      </trkpt>
      <trkpt lat="43.73756" lon="6.54781">
        <ele>1037.9</ele>
        <time>2011-11-13T11:01:32Z</time>
      </trkpt>
      <trkpt lat="43.73756" lon="6.54788">
        <ele>1038.3</ele>
        <time>2011-11-13T11:01:37Z</time>
      </trkpt>
      <trkpt lat="43.73757" lon="6.54795">
        <ele>1038</ele>
        <time>2011-11-13T11:01:42Z</time>
      </trkpt>
      <trkpt lat="43.73759" lon="6.54801">
        <ele>1038.5</ele>
        <time>2011-11-13T11:01:47Z</time>
      </trkpt>
      <trkpt lat="43.73761" lon="6.54807">
        <ele>1037.9</ele>
        <time>2011-11-13T11:01:52Z</time>
      </trkpt>
      <trkpt lat="43.73761" lon="6.54809">
        <ele>1037.8</ele>
        <time>2011-11-13T11:01:53Z</time>
      </trkpt>
      <trkpt lat="43.73768" lon="6.54819">
        <ele>1038</ele>
        <time>2011-11-13T11:02:02Z</time>
      </trkpt>
      <trkpt lat="43.73771" lon="6.54829">
        <ele>1037.9</ele>
        <time>2011-11-13T11:02:07Z</time>
      </trkpt>
      <trkpt lat="43.73772" lon="6.54835">
        <ele>1037.7</ele>
        <time>2011-11-13T11:02:12Z</time>
      </trkpt>
      <trkpt lat="43.73772" lon="6.5484">
        <ele>1037.4</ele>
        <time>2011-11-13T11:02:17Z</time>
      </trkpt>
      <trkpt lat="43.73772" lon="6.54845">
        <ele>1037.2</ele>
        <time>2011-11-13T11:02:22Z</time>
      </trkpt>
      <trkpt lat="43.73773" lon="6.54849">
        <ele>1037.2</ele>
        <time>2011-11-13T11:02:27Z</time>
      </trkpt>
      <trkpt lat="43.73774" lon="6.54856">
        <ele>1037.8</ele>
        <time>2011-11-13T11:02:32Z</time>
      </trkpt>
      <trkpt lat="43.73775" lon="6.54864">
        <ele>1037.5</ele>
        <time>2011-11-13T11:02:37Z</time>
      </trkpt>
      <trkpt lat="43.73775" lon="6.54871">
        <ele>1037.3</ele>
        <time>2011-11-13T11:02:42Z</time>
      </trkpt>
      <trkpt lat="43.73776" lon="6.54879">
        <ele>1037</ele>
        <time>2011-11-13T11:02:47Z</time>
      </trkpt>
      <trkpt lat="43.73776" lon="6.54882">
        <ele>1037.2</ele>
        <time>2011-11-13T11:02:52Z</time>
      </trkpt>
      <trkpt lat="43.73776" lon="6.54886">
        <ele>1037.1</ele>
        <time>2011-11-13T11:02:57Z</time>
      </trkpt>
      <trkpt lat="43.73776" lon="6.54887">
        <ele>1037.4</ele>
        <time>2011-11-13T11:02:58Z</time>
      </trkpt>
      <trkpt lat="43.73778" lon="6.54895">
        <ele>1037.3</ele>
        <time>2011-11-13T11:03:07Z</time>
      </trkpt>
      <trkpt lat="43.73778" lon="6.54901">
        <ele>1037.1</ele>
        <time>2011-11-13T11:03:12Z</time>
      </trkpt>
      <trkpt lat="43.73777" lon="6.54909">
        <ele>1037.3</ele>
        <time>2011-11-13T11:03:17Z</time>
      </trkpt>
      <trkpt lat="43.73775" lon="6.54917">
        <ele>1037.7</ele>
        <time>2011-11-13T11:03:22Z</time>
      </trkpt>
      <trkpt lat="43.73774" lon="6.54924">
        <ele>1037.4</ele>
        <time>2011-11-13T11:03:27Z</time>
      </trkpt>
      <trkpt lat="43.73772" lon="6.54931">
        <ele>1038.2</ele>
        <time>2011-11-13T11:03:32Z</time>
      </trkpt>
      <trkpt lat="43.7377" lon="6.54938">
        <ele>1038.9</ele>
        <time>2011-11-13T11:03:37Z</time>
      </trkpt>
      <trkpt lat="43.73768" lon="6.54946">
        <ele>1038.8</ele>
        <time>2011-11-13T11:03:42Z</time>
      </trkpt>
      <trkpt lat="43.73767" lon="6.54954">
        <ele>1039.7</ele>
        <time>2011-11-13T11:03:47Z</time>
      </trkpt>
      <trkpt lat="43.73767" lon="6.54962">
        <ele>1039.9</ele>
        <time>2011-11-13T11:03:52Z</time>
      </trkpt>
      <trkpt lat="43.73768" lon="6.54969">
        <ele>1040.1</ele>
        <time>2011-11-13T11:03:57Z</time>
      </trkpt>
      <trkpt lat="43.7377" lon="6.54976">
        <ele>1041.3</ele>
        <time>2011-11-13T11:04:02Z</time>
      </trkpt>
      <trkpt lat="43.7377" lon="6.54977">
        <ele>1041.4</ele>
        <time>2011-11-13T11:04:03Z</time>
      </trkpt>
      <trkpt lat="43.73772" lon="6.54989">
        <ele>1042.5</ele>
        <time>2011-11-13T11:04:12Z</time>
      </trkpt>
      <trkpt lat="43.73773" lon="6.54995">
        <ele>1043.7</ele>
        <time>2011-11-13T11:04:17Z</time>
      </trkpt>
      <trkpt lat="43.73773" lon="6.55002">
        <ele>1044</ele>
        <time>2011-11-13T11:04:22Z</time>
      </trkpt>
      <trkpt lat="43.73773" lon="6.55009">
        <ele>1044.9</ele>
        <time>2011-11-13T11:04:27Z</time>
      </trkpt>
      <trkpt lat="43.73772" lon="6.55015">
        <ele>1045.7</ele>
        <time>2011-11-13T11:04:32Z</time>
      </trkpt>
      <trkpt lat="43.7377" lon="6.55021">
        <ele>1046.8</ele>
        <time>2011-11-13T11:04:37Z</time>
      </trkpt>
      <trkpt lat="43.73769" lon="6.55027">
        <ele>1047.1</ele>
        <time>2011-11-13T11:04:42Z</time>
      </trkpt>
      <trkpt lat="43.73768" lon="6.55033">
        <ele>1048.8</ele>
        <time>2011-11-13T11:04:47Z</time>
      </trkpt>
      <trkpt lat="43.73766" lon="6.55039">
        <ele>1049.3</ele>
        <time>2011-11-13T11:04:52Z</time>
      </trkpt>
      <trkpt lat="43.73765" lon="6.55045">
        <ele>1050.2</ele>
        <time>2011-11-13T11:04:57Z</time>
      </trkpt>
      <trkpt lat="43.73763" lon="6.55052">
        <ele>1050.7</ele>
        <time>2011-11-13T11:05:02Z</time>
      </trkpt>
      <trkpt lat="43.73762" lon="6.55058">
        <ele>1051.1</ele>
        <time>2011-11-13T11:05:07Z</time>
      </trkpt>
      <trkpt lat="43.73761" lon="6.55059">
        <ele>1051.1</ele>
        <time>2011-11-13T11:05:08Z</time>
      </trkpt>
      <trkpt lat="43.7376" lon="6.55069">
        <ele>1052.9</ele>
        <time>2011-11-13T11:05:17Z</time>
      </trkpt>
      <trkpt lat="43.7376" lon="6.55074">
        <ele>1053.6</ele>
        <time>2011-11-13T11:05:22Z</time>
      </trkpt>
      <trkpt lat="43.7376" lon="6.5508">
        <ele>1053.9</ele>
        <time>2011-11-13T11:05:27Z</time>
      </trkpt>
      <trkpt lat="43.73761" lon="6.55086">
        <ele>1055.1</ele>
        <time>2011-11-13T11:05:32Z</time>
      </trkpt>
      <trkpt lat="43.73761" lon="6.55091">
        <ele>1055.7</ele>
        <time>2011-11-13T11:05:37Z</time>
      </trkpt>
      <trkpt lat="43.73762" lon="6.55097">
        <ele>1056.3</ele>
        <time>2011-11-13T11:05:42Z</time>
      </trkpt>
      <trkpt lat="43.73762" lon="6.55102">
        <ele>1056.6</ele>
        <time>2011-11-13T11:05:47Z</time>
      </trkpt>
      <trkpt lat="43.73762" lon="6.55108">
        <ele>1058</ele>
        <time>2011-11-13T11:05:52Z</time>
      </trkpt>
      <trkpt lat="43.73762" lon="6.55115">
        <ele>1058.9</ele>
        <time>2011-11-13T11:05:57Z</time>
      </trkpt>
      <trkpt lat="43.73764" lon="6.55121">
        <ele>1059.6</ele>
        <time>2011-11-13T11:06:02Z</time>
      </trkpt>
      <trkpt lat="43.73765" lon="6.55127">
        <ele>1059.8</ele>
        <time>2011-11-13T11:06:07Z</time>
      </trkpt>
      <trkpt lat="43.73764" lon="6.55132">
        <ele>1060</ele>
        <time>2011-11-13T11:06:12Z</time>
      </trkpt>
      <trkpt lat="43.73764" lon="6.55132">
        <ele>1060</ele>
        <time>2011-11-13T11:06:13Z</time>
      </trkpt>
      <trkpt lat="43.73763" lon="6.55137">
        <ele>1060</ele>
        <time>2011-11-13T11:06:22Z</time>
      </trkpt>
      <trkpt lat="43.73763" lon="6.5514">
        <ele>1059.4</ele>
        <time>2011-11-13T11:06:27Z</time>
      </trkpt>
      <trkpt lat="43.73763" lon="6.55141">
        <ele>1059</ele>
        <time>2011-11-13T11:06:32Z</time>
      </trkpt>
      <trkpt lat="43.73763" lon="6.55142">
        <ele>1059.9</ele>
        <time>2011-11-13T11:06:37Z</time>
      </trkpt>
      <trkpt lat="43.73762" lon="6.55142">
        <ele>1059.7</ele>
        <time>2011-11-13T11:06:42Z</time>
      </trkpt>
      <trkpt lat="43.73761" lon="6.55142">
        <ele>1060.1</ele>
        <time>2011-11-13T11:06:47Z</time>
      </trkpt>
      <trkpt lat="43.73762" lon="6.55144">
        <ele>1060</ele>
        <time>2011-11-13T11:06:52Z</time>
      </trkpt>
      <trkpt lat="43.73762" lon="6.55144">
        <ele>1060.5</ele>
        <time>2011-11-13T11:06:57Z</time>
      </trkpt>
      <trkpt lat="43.73761" lon="6.55145">
        <ele>1060.8</ele>
        <time>2011-11-13T11:07:02Z</time>
      </trkpt>
      <trkpt lat="43.73761" lon="6.55145">
        <ele>1060.1</ele>
        <time>2011-11-13T11:07:07Z</time>
      </trkpt>
      <trkpt lat="43.73761" lon="6.55146">
        <ele>1059.9</ele>
        <time>2011-11-13T11:07:12Z</time>
      </trkpt>
      <trkpt lat="43.73761" lon="6.55147">
        <ele>1059.9</ele>
        <time>2011-11-13T11:07:17Z</time>
      </trkpt>
      <trkpt lat="43.73761" lon="6.55147">
        <ele>1059.9</ele>
        <time>2011-11-13T11:07:18Z</time>
      </trkpt>
      <trkpt lat="43.73764" lon="6.55152">
        <ele>1060.4</ele>
        <time>2011-11-13T11:07:27Z</time>
      </trkpt>
      <trkpt lat="43.73765" lon="6.55152">
        <ele>1060.8</ele>
        <time>2011-11-13T11:07:32Z</time>
      </trkpt>
      <trkpt lat="43.73765" lon="6.55151">
        <ele>1061</ele>
        <time>2011-11-13T11:07:37Z</time>
      </trkpt>
      <trkpt lat="43.73765" lon="6.55151">
        <ele>1060.8</ele>
        <time>2011-11-13T11:07:42Z</time>
      </trkpt>
      <trkpt lat="43.73766" lon="6.55151">
        <ele>1060.9</ele>
        <time>2011-11-13T11:07:47Z</time>
      </trkpt>
      <trkpt lat="43.73767" lon="6.55152">
        <ele>1061</ele>
        <time>2011-11-13T11:07:52Z</time>
      </trkpt>
      <trkpt lat="43.73766" lon="6.55151">
        <ele>1061.2</ele>
        <time>2011-11-13T11:07:57Z</time>
      </trkpt>
      <trkpt lat="43.73766" lon="6.5515">
        <ele>1061.1</ele>
        <time>2011-11-13T11:08:02Z</time>
      </trkpt>
      <trkpt lat="43.73765" lon="6.55149">
        <ele>1061.3</ele>
        <time>2011-11-13T11:08:07Z</time>
      </trkpt>
      <trkpt lat="43.73765" lon="6.55149">
        <ele>1061.6</ele>
        <time>2011-11-13T11:08:12Z</time>
      </trkpt>
      <trkpt lat="43.73765" lon="6.55148">
        <ele>1061.5</ele>
        <time>2011-11-13T11:08:17Z</time>
      </trkpt>
      <trkpt lat="43.73765" lon="6.55148">
        <ele>1062</ele>
        <time>2011-11-13T11:08:22Z</time>
      </trkpt>
      <trkpt lat="43.73765" lon="6.55148">
        <ele>1062</ele>
        <time>2011-11-13T11:08:23Z</time>
      </trkpt>
      <trkpt lat="43.73767" lon="6.5515">
        <ele>1061.7</ele>
        <time>2011-11-13T11:08:32Z</time>
      </trkpt>
      <trkpt lat="43.73767" lon="6.55151">
        <ele>1061.8</ele>
        <time>2011-11-13T11:08:37Z</time>
      </trkpt>
      <trkpt lat="43.73767" lon="6.55151">
        <ele>1062.2</ele>
        <time>2011-11-13T11:08:42Z</time>
      </trkpt>
      <trkpt lat="43.73767" lon="6.55155">
        <ele>1062</ele>
        <time>2011-11-13T11:08:49Z</time>
      </trkpt>
      <trkpt lat="43.73768" lon="6.55156">
        <ele>1062.2</ele>
        <time>2011-11-13T11:08:54Z</time>
      </trkpt>
      <trkpt lat="43.73768" lon="6.55156">
        <ele>1062.3</ele>
        <time>2011-11-13T11:08:59Z</time>
      </trkpt>
      <trkpt lat="43.73768" lon="6.55156">
        <ele>1062.6</ele>
        <time>2011-11-13T11:09:04Z</time>
      </trkpt>
      <trkpt lat="43.73769" lon="6.55156">
        <ele>1062.2</ele>
        <time>2011-11-13T11:09:09Z</time>
      </trkpt>
      <trkpt lat="43.73769" lon="6.55156">
        <ele>1062.5</ele>
        <time>2011-11-13T11:09:14Z</time>
      </trkpt>
      <trkpt lat="43.73769" lon="6.55156">
        <ele>1062.7</ele>
        <time>2011-11-13T11:09:19Z</time>
      </trkpt>
      <trkpt lat="43.73769" lon="6.55156">
        <ele>1063.1</ele>
        <time>2011-11-13T11:09:24Z</time>
      </trkpt>
      <trkpt lat="43.73769" lon="6.55156">
        <ele>1063.2</ele>
        <time>2011-11-13T11:09:25Z</time>
      </trkpt>
      <trkpt lat="43.7377" lon="6.55157">
        <ele>1062.9</ele>
        <time>2011-11-13T11:09:34Z</time>
      </trkpt>
      <trkpt lat="43.73771" lon="6.55158">
        <ele>1063.1</ele>
        <time>2011-11-13T11:09:39Z</time>
      </trkpt>
      <trkpt lat="43.73771" lon="6.55159">
        <ele>1063.2</ele>
        <time>2011-11-13T11:09:44Z</time>
      </trkpt>
      <trkpt lat="43.73771" lon="6.55158">
        <ele>1063.3</ele>
        <time>2011-11-13T11:09:49Z</time>
      </trkpt>
      <trkpt lat="43.7377" lon="6.55159">
        <ele>1062.7</ele>
        <time>2011-11-13T11:09:54Z</time>
      </trkpt>
      <trkpt lat="43.73769" lon="6.55164">
        <ele>1063.2</ele>
        <time>2011-11-13T11:09:59Z</time>
      </trkpt>
      <trkpt lat="43.73769" lon="6.55166">
        <ele>1063.2</ele>
        <time>2011-11-13T11:10:04Z</time>
      </trkpt>
      <trkpt lat="43.73769" lon="6.55167">
        <ele>1063.4</ele>
        <time>2011-11-13T11:10:09Z</time>
      </trkpt>
      <trkpt lat="43.73768" lon="6.55171">
        <ele>1063.6</ele>
        <time>2011-11-13T11:10:14Z</time>
      </trkpt>
      <trkpt lat="43.73768" lon="6.55174">
        <ele>1063.5</ele>
        <time>2011-11-13T11:10:19Z</time>
      </trkpt>
      <trkpt lat="43.73768" lon="6.55176">
        <ele>1063.9</ele>
        <time>2011-11-13T11:10:24Z</time>
      </trkpt>
      <trkpt lat="43.73769" lon="6.55176">
        <ele>1063.6</ele>
        <time>2011-11-13T11:10:29Z</time>
      </trkpt>
      <trkpt lat="43.73769" lon="6.55176">
        <ele>1063.7</ele>
        <time>2011-11-13T11:10:30Z</time>
      </trkpt>
      <trkpt lat="43.73767" lon="6.55179">
        <ele>1064.2</ele>
        <time>2011-11-13T11:10:39Z</time>
      </trkpt>
      <trkpt lat="43.73764" lon="6.55181">
        <ele>1064.8</ele>
        <time>2011-11-13T11:10:44Z</time>
      </trkpt>
      <trkpt lat="43.7376" lon="6.55184">
        <ele>1065.1</ele>
        <time>2011-11-13T11:10:49Z</time>
      </trkpt>
      <trkpt lat="43.73757" lon="6.55188">
        <ele>1065.5</ele>
        <time>2011-11-13T11:10:54Z</time>
      </trkpt>
      <trkpt lat="43.73755" lon="6.55192">
        <ele>1066</ele>
        <time>2011-11-13T11:10:59Z</time>
      </trkpt>
      <trkpt lat="43.73751" lon="6.55195">
        <ele>1066.2</ele>
        <time>2011-11-13T11:11:04Z</time>
      </trkpt>
      <trkpt lat="43.73747" lon="6.55199">
        <ele>1066</ele>
        <time>2011-11-13T11:11:09Z</time>
      </trkpt>
      <trkpt lat="43.73744" lon="6.55204">
        <ele>1065.5</ele>
        <time>2011-11-13T11:11:14Z</time>
      </trkpt>
      <trkpt lat="43.73741" lon="6.55209">
        <ele>1066.5</ele>
        <time>2011-11-13T11:11:19Z</time>
      </trkpt>
      <trkpt lat="43.73738" lon="6.55214">
        <ele>1067.3</ele>
        <time>2011-11-13T11:11:24Z</time>
      </trkpt>
      <trkpt lat="43.73734" lon="6.55219">
        <ele>1067.3</ele>
        <time>2011-11-13T11:11:29Z</time>
      </trkpt>
      <trkpt lat="43.7373" lon="6.55223">
        <ele>1068.3</ele>
        <time>2011-11-13T11:11:34Z</time>
      </trkpt>
      <trkpt lat="43.73729" lon="6.55224">
        <ele>1068.6</ele>
        <time>2011-11-13T11:11:35Z</time>
      </trkpt>
      <trkpt lat="43.73722" lon="6.55232">
        <ele>1069.6</ele>
        <time>2011-11-13T11:11:44Z</time>
      </trkpt>
      <trkpt lat="43.73717" lon="6.55235">
        <ele>1069.6</ele>
        <time>2011-11-13T11:11:49Z</time>
      </trkpt>
      <trkpt lat="43.73712" lon="6.55239">
        <ele>1070.4</ele>
        <time>2011-11-13T11:11:54Z</time>
      </trkpt>
      <trkpt lat="43.73708" lon="6.55241">
        <ele>1071.1</ele>
        <time>2011-11-13T11:11:59Z</time>
      </trkpt>
      <trkpt lat="43.73703" lon="6.55242">
        <ele>1071.3</ele>
        <time>2011-11-13T11:12:04Z</time>
      </trkpt>
      <trkpt lat="43.73698" lon="6.55244">
        <ele>1072.3</ele>
        <time>2011-11-13T11:12:09Z</time>
      </trkpt>
      <trkpt lat="43.73693" lon="6.55246">
        <ele>1072.8</ele>
        <time>2011-11-13T11:12:14Z</time>
      </trkpt>
      <trkpt lat="43.7369" lon="6.55249">
        <ele>1073</ele>
        <time>2011-11-13T11:12:19Z</time>
      </trkpt>
      <trkpt lat="43.73687" lon="6.55252">
        <ele>1073.8</ele>
        <time>2011-11-13T11:12:24Z</time>
      </trkpt>
      <trkpt lat="43.73685" lon="6.55254">
        <ele>1074.1</ele>
        <time>2011-11-13T11:12:29Z</time>
      </trkpt>
      <trkpt lat="43.73684" lon="6.55256">
        <ele>1075.2</ele>
        <time>2011-11-13T11:12:34Z</time>
      </trkpt>
      <trkpt lat="43.73684" lon="6.55256">
        <ele>1074.5</ele>
        <time>2011-11-13T11:12:39Z</time>
      </trkpt>
      <trkpt lat="43.73684" lon="6.55256">
        <ele>1074.4</ele>
        <time>2011-11-13T11:12:40Z</time>
      </trkpt>
      <trkpt lat="43.73684" lon="6.55257">
        <ele>1073.7</ele>
        <time>2011-11-13T11:12:51Z</time>
      </trkpt>
      <trkpt lat="43.73684" lon="6.55257">
        <ele>1073.2</ele>
        <time>2011-11-13T11:12:56Z</time>
      </trkpt>
      <trkpt lat="43.73684" lon="6.55257">
        <ele>1073.3</ele>
        <time>2011-11-13T11:13:01Z</time>
      </trkpt>
      <trkpt lat="43.73683" lon="6.55257">
        <ele>1073.3</ele>
        <time>2011-11-13T11:13:06Z</time>
      </trkpt>
      <trkpt lat="43.73683" lon="6.55257">
        <ele>1073.4</ele>
        <time>2011-11-13T11:13:11Z</time>
      </trkpt>
      <trkpt lat="43.73683" lon="6.55257">
        <ele>1073.6</ele>
        <time>2011-11-13T11:13:16Z</time>
      </trkpt>
      <trkpt lat="43.73683" lon="6.55257">
        <ele>1073.5</ele>
        <time>2011-11-13T11:13:21Z</time>
      </trkpt>
      <trkpt lat="43.73683" lon="6.55256">
        <ele>1073.7</ele>
        <time>2011-11-13T11:13:26Z</time>
      </trkpt>
      <trkpt lat="43.73683" lon="6.55256">
        <ele>1073.7</ele>
        <time>2011-11-13T11:13:31Z</time>
      </trkpt>
      <trkpt lat="43.73683" lon="6.55256">
        <ele>1073.9</ele>
        <time>2011-11-13T11:13:36Z</time>
      </trkpt>
      <trkpt lat="43.73683" lon="6.55256">
        <ele>1073.6</ele>
        <time>2011-11-13T11:13:41Z</time>
      </trkpt>
      <trkpt lat="43.73683" lon="6.55256">
        <ele>1073.6</ele>
        <time>2011-11-13T11:13:42Z</time>
      </trkpt>
      <trkpt lat="43.73684" lon="6.55257">
        <ele>1074</ele>
        <time>2011-11-13T11:13:51Z</time>
      </trkpt>
      <trkpt lat="43.73684" lon="6.55257">
        <ele>1073.6</ele>
        <time>2011-11-13T11:13:56Z</time>
      </trkpt>
      <trkpt lat="43.73683" lon="6.55257">
        <ele>1073.7</ele>
        <time>2011-11-13T11:14:01Z</time>
      </trkpt>
      <trkpt lat="43.73684" lon="6.55257">
        <ele>1073.5</ele>
        <time>2011-11-13T11:14:06Z</time>
      </trkpt>
      <trkpt lat="43.73684" lon="6.55257">
        <ele>1073.7</ele>
        <time>2011-11-13T11:14:11Z</time>
      </trkpt>
      <trkpt lat="43.73685" lon="6.55258">
        <ele>1074.2</ele>
        <time>2011-11-13T11:14:16Z</time>
      </trkpt>
      <trkpt lat="43.73685" lon="6.55257">
        <ele>1074</ele>
        <time>2011-11-13T11:14:21Z</time>
      </trkpt>
      <trkpt lat="43.73685" lon="6.55257">
        <ele>1074.3</ele>
        <time>2011-11-13T11:14:26Z</time>
      </trkpt>
      <trkpt lat="43.73684" lon="6.55257">
        <ele>1074.1</ele>
        <time>2011-11-13T11:14:31Z</time>
      </trkpt>
      <trkpt lat="43.73684" lon="6.55257">
        <ele>1073.7</ele>
        <time>2011-11-13T11:14:36Z</time>
      </trkpt>
      <trkpt lat="43.73684" lon="6.55257">
        <ele>1073.3</ele>
        <time>2011-11-13T11:14:41Z</time>
      </trkpt>
      <trkpt lat="43.73684" lon="6.55257">
        <ele>1073.6</ele>
        <time>2011-11-13T11:14:46Z</time>
      </trkpt>
      <trkpt lat="43.73684" lon="6.55256">
        <ele>1073.7</ele>
        <time>2011-11-13T11:14:47Z</time>
      </trkpt>
      <trkpt lat="43.73684" lon="6.55257">
        <ele>1073.9</ele>
        <time>2011-11-13T11:14:56Z</time>
      </trkpt>
      <trkpt lat="43.73683" lon="6.55256">
        <ele>1073.9</ele>
        <time>2011-11-13T11:15:01Z</time>
      </trkpt>
      <trkpt lat="43.73683" lon="6.55256">
        <ele>1073.6</ele>
        <time>2011-11-13T11:15:06Z</time>
      </trkpt>
      <trkpt lat="43.73683" lon="6.55255">
        <ele>1073.7</ele>
        <time>2011-11-13T11:15:11Z</time>
      </trkpt>
      <trkpt lat="43.73684" lon="6.55256">
        <ele>1073.9</ele>
        <time>2011-11-13T11:15:16Z</time>
      </trkpt>
      <trkpt lat="43.73684" lon="6.55256">
        <ele>1073.9</ele>
        <time>2011-11-13T11:15:21Z</time>
      </trkpt>
      <trkpt lat="43.73684" lon="6.55255">
        <ele>1073.8</ele>
        <time>2011-11-13T11:15:26Z</time>
      </trkpt>
      <trkpt lat="43.73684" lon="6.55255">
        <ele>1074</ele>
        <time>2011-11-13T11:15:31Z</time>
      </trkpt>
      <trkpt lat="43.73684" lon="6.55255">
        <ele>1073.9</ele>
        <time>2011-11-13T11:15:36Z</time>
      </trkpt>
      <trkpt lat="43.73683" lon="6.55254">
        <ele>1074</ele>
        <time>2011-11-13T11:15:41Z</time>
      </trkpt>
      <trkpt lat="43.73684" lon="6.55255">
        <ele>1073.8</ele>
        <time>2011-11-13T11:15:46Z</time>
      </trkpt>
      <trkpt lat="43.73684" lon="6.55256">
        <ele>1073.8</ele>
        <time>2011-11-13T11:15:51Z</time>
      </trkpt>
      <trkpt lat="43.73685" lon="6.55256">
        <ele>1073.8</ele>
        <time>2011-11-13T11:15:52Z</time>
      </trkpt>
      <trkpt lat="43.73685" lon="6.55256">
        <ele>1073.8</ele>
        <time>2011-11-13T11:16:01Z</time>
      </trkpt>
      <trkpt lat="43.73684" lon="6.55255">
        <ele>1074</ele>
        <time>2011-11-13T11:16:06Z</time>
      </trkpt>
      <trkpt lat="43.73684" lon="6.55255">
        <ele>1073.8</ele>
        <time>2011-11-13T11:16:11Z</time>
      </trkpt>
      <trkpt lat="43.73684" lon="6.55255">
        <ele>1073.6</ele>
        <time>2011-11-13T11:16:16Z</time>
      </trkpt>
      <trkpt lat="43.73684" lon="6.55255">
        <ele>1073.8</ele>
        <time>2011-11-13T11:16:21Z</time>
      </trkpt>
      <trkpt lat="43.73683" lon="6.55254">
        <ele>1073.5</ele>
        <time>2011-11-13T11:16:26Z</time>
      </trkpt>
      <trkpt lat="43.73683" lon="6.55254">
        <ele>1073.6</ele>
        <time>2011-11-13T11:16:31Z</time>
      </trkpt>
      <trkpt lat="43.73682" lon="6.55254">
        <ele>1073.5</ele>
        <time>2011-11-13T11:16:36Z</time>
      </trkpt>
      <trkpt lat="43.73682" lon="6.55254">
        <ele>1073.7</ele>
        <time>2011-11-13T11:16:41Z</time>
      </trkpt>
      <trkpt lat="43.73683" lon="6.55254">
        <ele>1073.6</ele>
        <time>2011-11-13T11:16:46Z</time>
      </trkpt>
      <trkpt lat="43.73683" lon="6.55254">
        <ele>1073.7</ele>
        <time>2011-11-13T11:16:51Z</time>
      </trkpt>
      <trkpt lat="43.73683" lon="6.55253">
        <ele>1073.2</ele>
        <time>2011-11-13T11:16:56Z</time>
      </trkpt>
      <trkpt lat="43.73683" lon="6.55253">
        <ele>1073.3</ele>
        <time>2011-11-13T11:16:57Z</time>
      </trkpt>
      <trkpt lat="43.73684" lon="6.55254">
        <ele>1073.1</ele>
        <time>2011-11-13T11:17:06Z</time>
      </trkpt>
      <trkpt lat="43.73684" lon="6.55255">
        <ele>1073.1</ele>
        <time>2011-11-13T11:17:11Z</time>
      </trkpt>
      <trkpt lat="43.73685" lon="6.55255">
        <ele>1073.3</ele>
        <time>2011-11-13T11:17:16Z</time>
      </trkpt>
      <trkpt lat="43.73684" lon="6.55255">
        <ele>1073.3</ele>
        <time>2011-11-13T11:17:21Z</time>
      </trkpt>
      <trkpt lat="43.73684" lon="6.55255">
        <ele>1073.3</ele>
        <time>2011-11-13T11:17:26Z</time>
      </trkpt>
      <trkpt lat="43.73684" lon="6.55256">
        <ele>1073.7</ele>
        <time>2011-11-13T11:17:31Z</time>
      </trkpt>
      <trkpt lat="43.73684" lon="6.55255">
        <ele>1073.4</ele>
        <time>2011-11-13T11:17:36Z</time>
      </trkpt>
      <trkpt lat="43.73684" lon="6.55255">
        <ele>1073.6</ele>
        <time>2011-11-13T11:17:41Z</time>
      </trkpt>
      <trkpt lat="43.73684" lon="6.55254">
        <ele>1073.5</ele>
        <time>2011-11-13T11:17:46Z</time>
      </trkpt>
      <trkpt lat="43.73684" lon="6.55255">
        <ele>1073.5</ele>
        <time>2011-11-13T11:17:51Z</time>
      </trkpt>
      <trkpt lat="43.73684" lon="6.55255">
        <ele>1073.4</ele>
        <time>2011-11-13T11:17:56Z</time>
      </trkpt>
      <trkpt lat="43.73684" lon="6.55255">
        <ele>1073</ele>
        <time>2011-11-13T11:18:01Z</time>
      </trkpt>
      <trkpt lat="43.73684" lon="6.55256">
        <ele>1073</ele>
        <time>2011-11-13T11:18:02Z</time>
      </trkpt>
      <trkpt lat="43.73683" lon="6.55255">
        <ele>1072.9</ele>
        <time>2011-11-13T11:18:11Z</time>
      </trkpt>
      <trkpt lat="43.73684" lon="6.55255">
        <ele>1073.3</ele>
        <time>2011-11-13T11:18:16Z</time>
      </trkpt>
      <trkpt lat="43.73684" lon="6.55255">
        <ele>1073.1</ele>
        <time>2011-11-13T11:18:21Z</time>
      </trkpt>
      <trkpt lat="43.73684" lon="6.55254">
        <ele>1073.1</ele>
        <time>2011-11-13T11:18:26Z</time>
      </trkpt>
      <trkpt lat="43.73684" lon="6.55254">
        <ele>1073.4</ele>
        <time>2011-11-13T11:18:31Z</time>
      </trkpt>
      <trkpt lat="43.73684" lon="6.55254">
        <ele>1073.3</ele>
        <time>2011-11-13T11:18:36Z</time>
      </trkpt>
      <trkpt lat="43.73684" lon="6.55254">
        <ele>1073.7</ele>
        <time>2011-11-13T11:18:41Z</time>
      </trkpt>
      <trkpt lat="43.73684" lon="6.55254">
        <ele>1073.7</ele>
        <time>2011-11-13T11:18:46Z</time>
      </trkpt>
      <trkpt lat="43.73684" lon="6.55254">
        <ele>1073.5</ele>
        <time>2011-11-13T11:18:51Z</time>
      </trkpt>
      <trkpt lat="43.73684" lon="6.55254">
        <ele>1073.6</ele>
        <time>2011-11-13T11:18:56Z</time>
      </trkpt>
      <trkpt lat="43.73683" lon="6.55254">
        <ele>1073.3</ele>
        <time>2011-11-13T11:19:01Z</time>
      </trkpt>
      <trkpt lat="43.73683" lon="6.55254">
        <ele>1073.6</ele>
        <time>2011-11-13T11:19:06Z</time>
      </trkpt>
      <trkpt lat="43.73683" lon="6.55254">
        <ele>1073.7</ele>
        <time>2011-11-13T11:19:07Z</time>
      </trkpt>
      <trkpt lat="43.73683" lon="6.55254">
        <ele>1073.6</ele>
        <time>2011-11-13T11:19:16Z</time>
      </trkpt>
      <trkpt lat="43.73683" lon="6.55255">
        <ele>1073.7</ele>
        <time>2011-11-13T11:19:21Z</time>
      </trkpt>
      <trkpt lat="43.73683" lon="6.55255">
        <ele>1074</ele>
        <time>2011-11-13T11:19:26Z</time>
      </trkpt>
      <trkpt lat="43.73683" lon="6.55255">
        <ele>1074.3</ele>
        <time>2011-11-13T11:19:31Z</time>
      </trkpt>
      <trkpt lat="43.73683" lon="6.55255">
        <ele>1073.8</ele>
        <time>2011-11-13T11:19:36Z</time>
      </trkpt>
      <trkpt lat="43.73683" lon="6.55255">
        <ele>1073.6</ele>
        <time>2011-11-13T11:19:41Z</time>
      </trkpt>
      <trkpt lat="43.73683" lon="6.55255">
        <ele>1073.3</ele>
        <time>2011-11-13T11:19:46Z</time>
      </trkpt>
      <trkpt lat="43.73683" lon="6.55255">
        <ele>1073.4</ele>
        <time>2011-11-13T11:19:51Z</time>
      </trkpt>
      <trkpt lat="43.73683" lon="6.55255">
        <ele>1073.2</ele>
        <time>2011-11-13T11:19:56Z</time>
      </trkpt>
      <trkpt lat="43.73683" lon="6.55255">
        <ele>1073.1</ele>
        <time>2011-11-13T11:20:01Z</time>
      </trkpt>
      <trkpt lat="43.73683" lon="6.55255">
        <ele>1073.4</ele>
        <time>2011-11-13T11:20:06Z</time>
      </trkpt>
      <trkpt lat="43.73683" lon="6.55255">
        <ele>1073.6</ele>
        <time>2011-11-13T11:20:11Z</time>
      </trkpt>
      <trkpt lat="43.73683" lon="6.55255">
        <ele>1073.6</ele>
        <time>2011-11-13T11:20:12Z</time>
      </trkpt>
      <trkpt lat="43.73683" lon="6.55255">
        <ele>1073.5</ele>
        <time>2011-11-13T11:20:21Z</time>
      </trkpt>
      <trkpt lat="43.73683" lon="6.55255">
        <ele>1074</ele>
        <time>2011-11-13T11:20:26Z</time>
      </trkpt>
      <trkpt lat="43.73683" lon="6.55255">
        <ele>1073.8</ele>
        <time>2011-11-13T11:20:31Z</time>
      </trkpt>
      <trkpt lat="43.73683" lon="6.55255">
        <ele>1073.7</ele>
        <time>2011-11-13T11:20:36Z</time>
      </trkpt>
      <trkpt lat="43.73683" lon="6.55255">
        <ele>1073.8</ele>
        <time>2011-11-13T11:20:41Z</time>
      </trkpt>
      <trkpt lat="43.73683" lon="6.55255">
        <ele>1073.6</ele>
        <time>2011-11-13T11:20:46Z</time>
      </trkpt>
      <trkpt lat="43.73683" lon="6.55255">
        <ele>1073.5</ele>
        <time>2011-11-13T11:20:51Z</time>
      </trkpt>
      <trkpt lat="43.73683" lon="6.55255">
        <ele>1073.2</ele>
        <time>2011-11-13T11:20:56Z</time>
      </trkpt>
      <trkpt lat="43.73683" lon="6.55255">
        <ele>1073.1</ele>
        <time>2011-11-13T11:21:01Z</time>
      </trkpt>
      <trkpt lat="43.73683" lon="6.55255">
        <ele>1073.3</ele>
        <time>2011-11-13T11:21:06Z</time>
      </trkpt>
      <trkpt lat="43.73683" lon="6.55255">
        <ele>1073.3</ele>
        <time>2011-11-13T11:21:11Z</time>
      </trkpt>
      <trkpt lat="43.73683" lon="6.55255">
        <ele>1073.4</ele>
        <time>2011-11-13T11:21:16Z</time>
      </trkpt>
      <trkpt lat="43.73683" lon="6.55255">
        <ele>1073.5</ele>
        <time>2011-11-13T11:21:17Z</time>
      </trkpt>
      <trkpt lat="43.73683" lon="6.55255">
        <ele>1073.7</ele>
        <time>2011-11-13T11:21:26Z</time>
      </trkpt>
      <trkpt lat="43.73683" lon="6.55255">
        <ele>1073.7</ele>
        <time>2011-11-13T11:21:31Z</time>
      </trkpt>
      <trkpt lat="43.73683" lon="6.55255">
        <ele>1073.6</ele>
        <time>2011-11-13T11:21:36Z</time>
      </trkpt>
      <trkpt lat="43.73683" lon="6.55255">
        <ele>1073.8</ele>
        <time>2011-11-13T11:21:41Z</time>
      </trkpt>
      <trkpt lat="43.73683" lon="6.55255">
        <ele>1073.8</ele>
        <time>2011-11-13T11:21:46Z</time>
      </trkpt>
      <trkpt lat="43.73683" lon="6.55255">
        <ele>1073.5</ele>
        <time>2011-11-13T11:21:51Z</time>
      </trkpt>
      <trkpt lat="43.73683" lon="6.55255">
        <ele>1073.5</ele>
        <time>2011-11-13T11:21:56Z</time>
      </trkpt>
      <trkpt lat="43.73683" lon="6.55255">
        <ele>1073.4</ele>
        <time>2011-11-13T11:22:01Z</time>
      </trkpt>
      <trkpt lat="43.73683" lon="6.55255">
        <ele>1073.7</ele>
        <time>2011-11-13T11:22:06Z</time>
      </trkpt>
      <trkpt lat="43.73683" lon="6.55255">
        <ele>1073.5</ele>
        <time>2011-11-13T11:22:11Z</time>
      </trkpt>
      <trkpt lat="43.73683" lon="6.55255">
        <ele>1073.7</ele>
        <time>2011-11-13T11:22:16Z</time>
      </trkpt>
      <trkpt lat="43.73683" lon="6.55256">
        <ele>1073.5</ele>
        <time>2011-11-13T11:22:21Z</time>
      </trkpt>
      <trkpt lat="43.73683" lon="6.55256">
        <ele>1073.5</ele>
        <time>2011-11-13T11:22:22Z</time>
      </trkpt>
      <trkpt lat="43.73683" lon="6.55256">
        <ele>1073.3</ele>
        <time>2011-11-13T11:22:31Z</time>
      </trkpt>
      <trkpt lat="43.73683" lon="6.55256">
        <ele>1073.4</ele>
        <time>2011-11-13T11:22:36Z</time>
      </trkpt>
      <trkpt lat="43.73683" lon="6.55256">
        <ele>1073.7</ele>
        <time>2011-11-13T11:22:41Z</time>
      </trkpt>
      <trkpt lat="43.73683" lon="6.55256">
        <ele>1073.5</ele>
        <time>2011-11-13T11:22:46Z</time>
      </trkpt>
      <trkpt lat="43.73683" lon="6.55256">
        <ele>1073.3</ele>
        <time>2011-11-13T11:22:51Z</time>
      </trkpt>
      <trkpt lat="43.73683" lon="6.55256">
        <ele>1073.2</ele>
        <time>2011-11-13T11:22:56Z</time>
      </trkpt>
      <trkpt lat="43.73683" lon="6.55256">
        <ele>1073.5</ele>
        <time>2011-11-13T11:23:01Z</time>
      </trkpt>
      <trkpt lat="43.73683" lon="6.55256">
        <ele>1073.3</ele>
        <time>2011-11-13T11:23:06Z</time>
      </trkpt>
      <trkpt lat="43.73683" lon="6.55256">
        <ele>1073.5</ele>
        <time>2011-11-13T11:23:11Z</time>
      </trkpt>
      <trkpt lat="43.73683" lon="6.55256">
        <ele>1073.7</ele>
        <time>2011-11-13T11:23:16Z</time>
      </trkpt>
      <trkpt lat="43.73683" lon="6.55256">
        <ele>1073.8</ele>
        <time>2011-11-13T11:23:21Z</time>
      </trkpt>
      <trkpt lat="43.73683" lon="6.55256">
        <ele>1073.6</ele>
        <time>2011-11-13T11:23:26Z</time>
      </trkpt>
      <trkpt lat="43.73683" lon="6.55256">
        <ele>1073.6</ele>
        <time>2011-11-13T11:23:27Z</time>
      </trkpt>
      <trkpt lat="43.73683" lon="6.55256">
        <ele>1074.1</ele>
        <time>2011-11-13T11:23:36Z</time>
      </trkpt>
      <trkpt lat="43.73683" lon="6.55256">
        <ele>1073.7</ele>
        <time>2011-11-13T11:23:41Z</time>
      </trkpt>
      <trkpt lat="43.73683" lon="6.55256">
        <ele>1073.8</ele>
        <time>2011-11-13T11:23:46Z</time>
      </trkpt>
      <trkpt lat="43.73683" lon="6.55256">
        <ele>1074</ele>
        <time>2011-11-13T11:23:51Z</time>
      </trkpt>
      <trkpt lat="43.73683" lon="6.55256">
        <ele>1074.2</ele>
        <time>2011-11-13T11:23:56Z</time>
      </trkpt>
      <trkpt lat="43.73683" lon="6.55256">
        <ele>1074.1</ele>
        <time>2011-11-13T11:24:01Z</time>
      </trkpt>
      <trkpt lat="43.73683" lon="6.55256">
        <ele>1074.2</ele>
        <time>2011-11-13T11:24:06Z</time>
      </trkpt>
      <trkpt lat="43.73683" lon="6.55256">
        <ele>1074.2</ele>
        <time>2011-11-13T11:24:11Z</time>
      </trkpt>
      <trkpt lat="43.73683" lon="6.55256">
        <ele>1073.8</ele>
        <time>2011-11-13T11:24:16Z</time>
      </trkpt>
      <trkpt lat="43.73683" lon="6.55256">
        <ele>1074.2</ele>
        <time>2011-11-13T11:24:21Z</time>
      </trkpt>
      <trkpt lat="43.73683" lon="6.55256">
        <ele>1074.1</ele>
        <time>2011-11-13T11:24:26Z</time>
      </trkpt>
      <trkpt lat="43.73684" lon="6.55256">
        <ele>1073.9</ele>
        <time>2011-11-13T11:24:31Z</time>
      </trkpt>
      <trkpt lat="43.73684" lon="6.55256">
        <ele>1073.8</ele>
        <time>2011-11-13T11:24:32Z</time>
      </trkpt>
      <trkpt lat="43.73684" lon="6.55256">
        <ele>1073.8</ele>
        <time>2011-11-13T11:24:41Z</time>
      </trkpt>
      <trkpt lat="43.73684" lon="6.55256">
        <ele>1073.4</ele>
        <time>2011-11-13T11:24:46Z</time>
      </trkpt>
      <trkpt lat="43.73684" lon="6.55256">
        <ele>1072.9</ele>
        <time>2011-11-13T11:24:51Z</time>
      </trkpt>
      <trkpt lat="43.73684" lon="6.55256">
        <ele>1072.9</ele>
        <time>2011-11-13T11:24:56Z</time>
      </trkpt>
      <trkpt lat="43.73684" lon="6.55256">
        <ele>1073.2</ele>
        <time>2011-11-13T11:25:01Z</time>
      </trkpt>
      <trkpt lat="43.73684" lon="6.55256">
        <ele>1073.1</ele>
        <time>2011-11-13T11:25:06Z</time>
      </trkpt>
      <trkpt lat="43.73684" lon="6.55256">
        <ele>1073.4</ele>
        <time>2011-11-13T11:25:11Z</time>
      </trkpt>
      <trkpt lat="43.73684" lon="6.55256">
        <ele>1073.4</ele>
        <time>2011-11-13T11:25:16Z</time>
      </trkpt>
      <trkpt lat="43.73685" lon="6.55257">
        <ele>1073.3</ele>
        <time>2011-11-13T11:25:21Z</time>
      </trkpt>
      <trkpt lat="43.73685" lon="6.55257">
        <ele>1073</ele>
        <time>2011-11-13T11:25:26Z</time>
      </trkpt>
      <trkpt lat="43.73685" lon="6.55257">
        <ele>1072.8</ele>
        <time>2011-11-13T11:25:31Z</time>
      </trkpt>
      <trkpt lat="43.73684" lon="6.55257">
        <ele>1073</ele>
        <time>2011-11-13T11:25:36Z</time>
      </trkpt>
      <trkpt lat="43.73684" lon="6.55257">
        <ele>1073.2</ele>
        <time>2011-11-13T11:25:37Z</time>
      </trkpt>
      <trkpt lat="43.73684" lon="6.55256">
        <ele>1073.2</ele>
        <time>2011-11-13T11:25:46Z</time>
      </trkpt>
      <trkpt lat="43.73683" lon="6.55256">
        <ele>1073.5</ele>
        <time>2011-11-13T11:25:51Z</time>
      </trkpt>
      <trkpt lat="43.73683" lon="6.55256">
        <ele>1073.7</ele>
        <time>2011-11-13T11:25:56Z</time>
      </trkpt>
      <trkpt lat="43.73683" lon="6.55256">
        <ele>1073.8</ele>
        <time>2011-11-13T11:26:01Z</time>
      </trkpt>
      <trkpt lat="43.73683" lon="6.55256">
        <ele>1074</ele>
        <time>2011-11-13T11:26:06Z</time>
      </trkpt>
      <trkpt lat="43.73683" lon="6.55256">
        <ele>1073.8</ele>
        <time>2011-11-13T11:26:11Z</time>
      </trkpt>
      <trkpt lat="43.73683" lon="6.55256">
        <ele>1073.9</ele>
        <time>2011-11-13T11:26:16Z</time>
      </trkpt>
      <trkpt lat="43.73683" lon="6.55256">
        <ele>1074.1</ele>
        <time>2011-11-13T11:26:21Z</time>
      </trkpt>
      <trkpt lat="43.73683" lon="6.55256">
        <ele>1074.3</ele>
        <time>2011-11-13T11:26:26Z</time>
      </trkpt>
      <trkpt lat="43.73683" lon="6.55256">
        <ele>1074.1</ele>
        <time>2011-11-13T11:26:31Z</time>
      </trkpt>
      <trkpt lat="43.73683" lon="6.55256">
        <ele>1073.8</ele>
        <time>2011-11-13T11:26:36Z</time>
      </trkpt>
      <trkpt lat="43.73683" lon="6.55256">
        <ele>1074.7</ele>
        <time>2011-11-13T11:26:41Z</time>
      </trkpt>
      <trkpt lat="43.73683" lon="6.55256">
        <ele>1074.7</ele>
        <time>2011-11-13T11:26:42Z</time>
      </trkpt>
      <trkpt lat="43.73683" lon="6.55256">
        <ele>1074.3</ele>
        <time>2011-11-13T11:26:51Z</time>
      </trkpt>
      <trkpt lat="43.73683" lon="6.55256">
        <ele>1074.6</ele>
        <time>2011-11-13T11:26:56Z</time>
      </trkpt>
      <trkpt lat="43.73682" lon="6.55256">
        <ele>1074.2</ele>
        <time>2011-11-13T11:27:01Z</time>
      </trkpt>
      <trkpt lat="43.73682" lon="6.55257">
        <ele>1074</ele>
        <time>2011-11-13T11:27:06Z</time>
      </trkpt>
      <trkpt lat="43.73683" lon="6.55257">
        <ele>1074.1</ele>
        <time>2011-11-13T11:27:11Z</time>
      </trkpt>
      <trkpt lat="43.73683" lon="6.55257">
        <ele>1074.7</ele>
        <time>2011-11-13T11:27:16Z</time>
      </trkpt>
      <trkpt lat="43.73683" lon="6.55257">
        <ele>1074.5</ele>
        <time>2011-11-13T11:27:21Z</time>
      </trkpt>
      <trkpt lat="43.73683" lon="6.55257">
        <ele>1074.4</ele>
        <time>2011-11-13T11:27:26Z</time>
      </trkpt>
      <trkpt lat="43.73683" lon="6.55257">
        <ele>1074.2</ele>
        <time>2011-11-13T11:27:31Z</time>
      </trkpt>
      <trkpt lat="43.73683" lon="6.55258">
        <ele>1074.2</ele>
        <time>2011-11-13T11:27:36Z</time>
      </trkpt>
      <trkpt lat="43.73684" lon="6.55258">
        <ele>1074.1</ele>
        <time>2011-11-13T11:27:41Z</time>
      </trkpt>
      <trkpt lat="43.73684" lon="6.55258">
        <ele>1073.5</ele>
        <time>2011-11-13T11:27:46Z</time>
      </trkpt>
      <trkpt lat="43.73684" lon="6.55258">
        <ele>1073.5</ele>
        <time>2011-11-13T11:27:47Z</time>
      </trkpt>
      <trkpt lat="43.73683" lon="6.55257">
        <ele>1073.5</ele>
        <time>2011-11-13T11:27:56Z</time>
      </trkpt>
      <trkpt lat="43.73683" lon="6.55258">
        <ele>1073.8</ele>
        <time>2011-11-13T11:28:01Z</time>
      </trkpt>
      <trkpt lat="43.73684" lon="6.55257">
        <ele>1073.9</ele>
        <time>2011-11-13T11:28:06Z</time>
      </trkpt>
      <trkpt lat="43.73684" lon="6.55257">
        <ele>1073.7</ele>
        <time>2011-11-13T11:28:11Z</time>
      </trkpt>
      <trkpt lat="43.73684" lon="6.55257">
        <ele>1073.6</ele>
        <time>2011-11-13T11:28:16Z</time>
      </trkpt>
      <trkpt lat="43.73685" lon="6.55257">
        <ele>1073.4</ele>
        <time>2011-11-13T11:28:21Z</time>
      </trkpt>
      <trkpt lat="43.73685" lon="6.55256">
        <ele>1073.8</ele>
        <time>2011-11-13T11:28:26Z</time>
      </trkpt>
      <trkpt lat="43.73685" lon="6.55256">
        <ele>1073.9</ele>
        <time>2011-11-13T11:28:31Z</time>
      </trkpt>
      <trkpt lat="43.73685" lon="6.55256">
        <ele>1074.2</ele>
        <time>2011-11-13T11:28:36Z</time>
      </trkpt>
      <trkpt lat="43.73685" lon="6.55257">
        <ele>1074</ele>
        <time>2011-11-13T11:28:41Z</time>
      </trkpt>
      <trkpt lat="43.73684" lon="6.55257">
        <ele>1074.1</ele>
        <time>2011-11-13T11:28:46Z</time>
      </trkpt>
      <trkpt lat="43.73685" lon="6.55257">
        <ele>1073.9</ele>
        <time>2011-11-13T11:28:51Z</time>
      </trkpt>
      <trkpt lat="43.73685" lon="6.55257">
        <ele>1073.9</ele>
        <time>2011-11-13T11:28:52Z</time>
      </trkpt>
      <trkpt lat="43.73683" lon="6.55257">
        <ele>1074.1</ele>
        <time>2011-11-13T11:29:01Z</time>
      </trkpt>
      <trkpt lat="43.73683" lon="6.55257">
        <ele>1074.1</ele>
        <time>2011-11-13T11:29:06Z</time>
      </trkpt>
      <trkpt lat="43.73683" lon="6.55257">
        <ele>1074.3</ele>
        <time>2011-11-13T11:29:11Z</time>
      </trkpt>
      <trkpt lat="43.73684" lon="6.55257">
        <ele>1074.2</ele>
        <time>2011-11-13T11:29:16Z</time>
      </trkpt>
      <trkpt lat="43.73684" lon="6.55257">
        <ele>1074.4</ele>
        <time>2011-11-13T11:29:21Z</time>
      </trkpt>
      <trkpt lat="43.73684" lon="6.55257">
        <ele>1074.1</ele>
        <time>2011-11-13T11:29:26Z</time>
      </trkpt>
      <trkpt lat="43.73684" lon="6.55257">
        <ele>1074.2</ele>
        <time>2011-11-13T11:29:31Z</time>
      </trkpt>
      <trkpt lat="43.73684" lon="6.55257">
        <ele>1074.2</ele>
        <time>2011-11-13T11:29:36Z</time>
      </trkpt>
      <trkpt lat="43.73685" lon="6.55257">
        <ele>1074.3</ele>
        <time>2011-11-13T11:29:41Z</time>
      </trkpt>
      <trkpt lat="43.73686" lon="6.55258">
        <ele>1074.1</ele>
        <time>2011-11-13T11:29:46Z</time>
      </trkpt>
      <trkpt lat="43.73686" lon="6.55258">
        <ele>1074.3</ele>
        <time>2011-11-13T11:29:51Z</time>
      </trkpt>
      <trkpt lat="43.73686" lon="6.55258">
        <ele>1074.3</ele>
        <time>2011-11-13T11:29:56Z</time>
      </trkpt>
      <trkpt lat="43.73686" lon="6.55257">
        <ele>1074.2</ele>
        <time>2011-11-13T11:29:57Z</time>
      </trkpt>
      <trkpt lat="43.73685" lon="6.55257">
        <ele>1074.3</ele>
        <time>2011-11-13T11:30:06Z</time>
      </trkpt>
      <trkpt lat="43.73685" lon="6.55257">
        <ele>1074.2</ele>
        <time>2011-11-13T11:30:11Z</time>
      </trkpt>
      <trkpt lat="43.73685" lon="6.55257">
        <ele>1074</ele>
        <time>2011-11-13T11:30:16Z</time>
      </trkpt>
      <trkpt lat="43.73685" lon="6.55257">
        <ele>1074.4</ele>
        <time>2011-11-13T11:30:21Z</time>
      </trkpt>
      <trkpt lat="43.73685" lon="6.55256">
        <ele>1074.1</ele>
        <time>2011-11-13T11:30:26Z</time>
      </trkpt>
      <trkpt lat="43.73684" lon="6.55256">
        <ele>1074.3</ele>
        <time>2011-11-13T11:30:31Z</time>
      </trkpt>
      <trkpt lat="43.73684" lon="6.55256">
        <ele>1074.1</ele>
        <time>2011-11-13T11:30:36Z</time>
      </trkpt>
      <trkpt lat="43.73684" lon="6.55256">
        <ele>1073.9</ele>
        <time>2011-11-13T11:30:41Z</time>
      </trkpt>
      <trkpt lat="43.73685" lon="6.55256">
        <ele>1074</ele>
        <time>2011-11-13T11:30:46Z</time>
      </trkpt>
      <trkpt lat="43.73685" lon="6.55257">
        <ele>1074.1</ele>
        <time>2011-11-13T11:30:51Z</time>
      </trkpt>
      <trkpt lat="43.73685" lon="6.55257">
        <ele>1073.8</ele>
        <time>2011-11-13T11:30:56Z</time>
      </trkpt>
      <trkpt lat="43.73685" lon="6.55257">
        <ele>1074.2</ele>
        <time>2011-11-13T11:31:01Z</time>
      </trkpt>
      <trkpt lat="43.73685" lon="6.55257">
        <ele>1074.2</ele>
        <time>2011-11-13T11:31:02Z</time>
      </trkpt>
      <trkpt lat="43.73685" lon="6.55257">
        <ele>1074.2</ele>
        <time>2011-11-13T11:31:11Z</time>
      </trkpt>
      <trkpt lat="43.73684" lon="6.55257">
        <ele>1075.1</ele>
        <time>2011-11-13T11:31:16Z</time>
      </trkpt>
      <trkpt lat="43.73684" lon="6.55257">
        <ele>1074.3</ele>
        <time>2011-11-13T11:31:21Z</time>
      </trkpt>
      <trkpt lat="43.73684" lon="6.55257">
        <ele>1074.4</ele>
        <time>2011-11-13T11:31:26Z</time>
      </trkpt>
      <trkpt lat="43.73685" lon="6.55257">
        <ele>1074.2</ele>
        <time>2011-11-13T11:31:31Z</time>
      </trkpt>
      <trkpt lat="43.73684" lon="6.55257">
        <ele>1074.2</ele>
        <time>2011-11-13T11:31:36Z</time>
      </trkpt>
      <trkpt lat="43.73684" lon="6.55257">
        <ele>1074.2</ele>
        <time>2011-11-13T11:31:41Z</time>
      </trkpt>
      <trkpt lat="43.73684" lon="6.55257">
        <ele>1074.4</ele>
        <time>2011-11-13T11:31:46Z</time>
      </trkpt>
      <trkpt lat="43.73684" lon="6.55257">
        <ele>1074.1</ele>
        <time>2011-11-13T11:31:51Z</time>
      </trkpt>
      <trkpt lat="43.73684" lon="6.55257">
        <ele>1073.9</ele>
        <time>2011-11-13T11:31:56Z</time>
      </trkpt>
      <trkpt lat="43.73684" lon="6.55257">
        <ele>1074</ele>
        <time>2011-11-13T11:32:01Z</time>
      </trkpt>
      <trkpt lat="43.73683" lon="6.55257">
        <ele>1074.2</ele>
        <time>2011-11-13T11:32:06Z</time>
      </trkpt>
      <trkpt lat="43.73683" lon="6.55257">
        <ele>1074.3</ele>
        <time>2011-11-13T11:32:07Z</time>
      </trkpt>
      <trkpt lat="43.73683" lon="6.55257">
        <ele>1073.8</ele>
        <time>2011-11-13T11:32:16Z</time>
      </trkpt>
      <trkpt lat="43.73684" lon="6.55257">
        <ele>1073.6</ele>
        <time>2011-11-13T11:32:21Z</time>
      </trkpt>
      <trkpt lat="43.73684" lon="6.55258">
        <ele>1073.7</ele>
        <time>2011-11-13T11:32:26Z</time>
      </trkpt>
      <trkpt lat="43.73684" lon="6.55258">
        <ele>1074.1</ele>
        <time>2011-11-13T11:32:31Z</time>
      </trkpt>
      <trkpt lat="43.73684" lon="6.55258">
        <ele>1073.7</ele>
        <time>2011-11-13T11:32:36Z</time>
      </trkpt>
      <trkpt lat="43.73684" lon="6.55258">
        <ele>1073.9</ele>
        <time>2011-11-13T11:32:41Z</time>
      </trkpt>
      <trkpt lat="43.73684" lon="6.55258">
        <ele>1074.3</ele>
        <time>2011-11-13T11:32:46Z</time>
      </trkpt>
      <trkpt lat="43.73683" lon="6.55258">
        <ele>1074.1</ele>
        <time>2011-11-13T11:32:51Z</time>
      </trkpt>
      <trkpt lat="43.73683" lon="6.55257">
        <ele>1074.1</ele>
        <time>2011-11-13T11:32:56Z</time>
      </trkpt>
      <trkpt lat="43.73683" lon="6.55257">
        <ele>1073.7</ele>
        <time>2011-11-13T11:33:01Z</time>
      </trkpt>
      <trkpt lat="43.73683" lon="6.55257">
        <ele>1074</ele>
        <time>2011-11-13T11:33:06Z</time>
      </trkpt>
      <trkpt lat="43.73683" lon="6.55257">
        <ele>1074.2</ele>
        <time>2011-11-13T11:33:11Z</time>
      </trkpt>
      <trkpt lat="43.73683" lon="6.55257">
        <ele>1074.3</ele>
        <time>2011-11-13T11:33:12Z</time>
      </trkpt>
      <trkpt lat="43.73683" lon="6.55257">
        <ele>1074</ele>
        <time>2011-11-13T11:33:21Z</time>
      </trkpt>
      <trkpt lat="43.73683" lon="6.55257">
        <ele>1073.9</ele>
        <time>2011-11-13T11:33:26Z</time>
      </trkpt>
      <trkpt lat="43.73683" lon="6.55257">
        <ele>1073.9</ele>
        <time>2011-11-13T11:33:31Z</time>
      </trkpt>
      <trkpt lat="43.73683" lon="6.55257">
        <ele>1074.1</ele>
        <time>2011-11-13T11:33:36Z</time>
      </trkpt>
      <trkpt lat="43.73683" lon="6.55257">
        <ele>1073.8</ele>
        <time>2011-11-13T11:33:41Z</time>
      </trkpt>
      <trkpt lat="43.73683" lon="6.55256">
        <ele>1073.7</ele>
        <time>2011-11-13T11:33:46Z</time>
      </trkpt>
      <trkpt lat="43.73683" lon="6.55257">
        <ele>1073.6</ele>
        <time>2011-11-13T11:33:51Z</time>
      </trkpt>
      <trkpt lat="43.73683" lon="6.55257">
        <ele>1073.4</ele>
        <time>2011-11-13T11:33:56Z</time>
      </trkpt>
      <trkpt lat="43.73683" lon="6.55257">
        <ele>1073.4</ele>
        <time>2011-11-13T11:34:01Z</time>
      </trkpt>
      <trkpt lat="43.73683" lon="6.55257">
        <ele>1073.5</ele>
        <time>2011-11-13T11:34:06Z</time>
      </trkpt>
      <trkpt lat="43.73683" lon="6.55258">
        <ele>1074.2</ele>
        <time>2011-11-13T11:34:11Z</time>
      </trkpt>
      <trkpt lat="43.73683" lon="6.55258">
        <ele>1074</ele>
        <time>2011-11-13T11:34:16Z</time>
      </trkpt>
      <trkpt lat="43.73683" lon="6.55258">
        <ele>1074.1</ele>
        <time>2011-11-13T11:34:17Z</time>
      </trkpt>
      <trkpt lat="43.73683" lon="6.55258">
        <ele>1074.2</ele>
        <time>2011-11-13T11:34:26Z</time>
      </trkpt>
      <trkpt lat="43.73683" lon="6.55258">
        <ele>1074.1</ele>
        <time>2011-11-13T11:34:31Z</time>
      </trkpt>
      <trkpt lat="43.73683" lon="6.55258">
        <ele>1074.5</ele>
        <time>2011-11-13T11:34:36Z</time>
      </trkpt>
      <trkpt lat="43.73683" lon="6.55258">
        <ele>1074.1</ele>
        <time>2011-11-13T11:34:41Z</time>
      </trkpt>
      <trkpt lat="43.73683" lon="6.55258">
        <ele>1074.1</ele>
        <time>2011-11-13T11:34:46Z</time>
      </trkpt>
      <trkpt lat="43.73683" lon="6.55258">
        <ele>1074.2</ele>
        <time>2011-11-13T11:34:51Z</time>
      </trkpt>
      <trkpt lat="43.73683" lon="6.55258">
        <ele>1074.4</ele>
        <time>2011-11-13T11:34:56Z</time>
      </trkpt>
      <trkpt lat="43.73683" lon="6.55258">
        <ele>1074.3</ele>
        <time>2011-11-13T11:35:01Z</time>
      </trkpt>
      <trkpt lat="43.73683" lon="6.55258">
        <ele>1074.1</ele>
        <time>2011-11-13T11:35:06Z</time>
      </trkpt>
      <trkpt lat="43.73683" lon="6.55258">
        <ele>1074.2</ele>
        <time>2011-11-13T11:35:11Z</time>
      </trkpt>
      <trkpt lat="43.73684" lon="6.55259">
        <ele>1074.3</ele>
        <time>2011-11-13T11:35:16Z</time>
      </trkpt>
      <trkpt lat="43.73684" lon="6.55259">
        <ele>1074.6</ele>
        <time>2011-11-13T11:35:21Z</time>
      </trkpt>
      <trkpt lat="43.73684" lon="6.55259">
        <ele>1074.6</ele>
        <time>2011-11-13T11:35:22Z</time>
      </trkpt>
      <trkpt lat="43.73683" lon="6.55258">
        <ele>1074.4</ele>
        <time>2011-11-13T11:35:31Z</time>
      </trkpt>
      <trkpt lat="43.73683" lon="6.55258">
        <ele>1074.6</ele>
        <time>2011-11-13T11:35:36Z</time>
      </trkpt>
      <trkpt lat="43.73683" lon="6.55258">
        <ele>1074.6</ele>
        <time>2011-11-13T11:35:41Z</time>
      </trkpt>
      <trkpt lat="43.73683" lon="6.55258">
        <ele>1074.4</ele>
        <time>2011-11-13T11:35:46Z</time>
      </trkpt>
      <trkpt lat="43.73683" lon="6.55258">
        <ele>1074.5</ele>
        <time>2011-11-13T11:35:51Z</time>
      </trkpt>
      <trkpt lat="43.73683" lon="6.55258">
        <ele>1074.4</ele>
        <time>2011-11-13T11:35:56Z</time>
      </trkpt>
      <trkpt lat="43.73683" lon="6.55258">
        <ele>1074.3</ele>
        <time>2011-11-13T11:36:01Z</time>
      </trkpt>
      <trkpt lat="43.73683" lon="6.55258">
        <ele>1074.5</ele>
        <time>2011-11-13T11:36:06Z</time>
      </trkpt>
      <trkpt lat="43.73683" lon="6.55258">
        <ele>1074.7</ele>
        <time>2011-11-13T11:36:11Z</time>
      </trkpt>
      <trkpt lat="43.73683" lon="6.55258">
        <ele>1074.6</ele>
        <time>2011-11-13T11:36:16Z</time>
      </trkpt>
      <trkpt lat="43.73683" lon="6.55258">
        <ele>1074.7</ele>
        <time>2011-11-13T11:36:21Z</time>
      </trkpt>
      <trkpt lat="43.73683" lon="6.55257">
        <ele>1074.8</ele>
        <time>2011-11-13T11:36:26Z</time>
      </trkpt>
      <trkpt lat="43.73683" lon="6.55257">
        <ele>1074.9</ele>
        <time>2011-11-13T11:36:27Z</time>
      </trkpt>
      <trkpt lat="43.73683" lon="6.55258">
        <ele>1074.7</ele>
        <time>2011-11-13T11:36:36Z</time>
      </trkpt>
      <trkpt lat="43.73684" lon="6.55258">
        <ele>1074.3</ele>
        <time>2011-11-13T11:36:41Z</time>
      </trkpt>
      <trkpt lat="43.73684" lon="6.55258">
        <ele>1074.2</ele>
        <time>2011-11-13T11:36:46Z</time>
      </trkpt>
      <trkpt lat="43.73684" lon="6.55259">
        <ele>1073.9</ele>
        <time>2011-11-13T11:36:51Z</time>
      </trkpt>
      <trkpt lat="43.73684" lon="6.55259">
        <ele>1074.1</ele>
        <time>2011-11-13T11:36:56Z</time>
      </trkpt>
      <trkpt lat="43.73684" lon="6.55259">
        <ele>1074.4</ele>
        <time>2011-11-13T11:37:01Z</time>
      </trkpt>
      <trkpt lat="43.73684" lon="6.55258">
        <ele>1074.3</ele>
        <time>2011-11-13T11:37:06Z</time>
      </trkpt>
      <trkpt lat="43.73683" lon="6.55258">
        <ele>1074</ele>
        <time>2011-11-13T11:37:11Z</time>
      </trkpt>
      <trkpt lat="43.73683" lon="6.55258">
        <ele>1073.8</ele>
        <time>2011-11-13T11:37:16Z</time>
      </trkpt>
      <trkpt lat="43.73683" lon="6.55258">
        <ele>1074.1</ele>
        <time>2011-11-13T11:37:21Z</time>
      </trkpt>
      <trkpt lat="43.73683" lon="6.55257">
        <ele>1074.1</ele>
        <time>2011-11-13T11:37:26Z</time>
      </trkpt>
      <trkpt lat="43.73683" lon="6.55257">
        <ele>1073.8</ele>
        <time>2011-11-13T11:37:31Z</time>
      </trkpt>
      <trkpt lat="43.73683" lon="6.55257">
        <ele>1073.8</ele>
        <time>2011-11-13T11:37:32Z</time>
      </trkpt>
      <trkpt lat="43.73683" lon="6.55256">
        <ele>1073.9</ele>
        <time>2011-11-13T11:37:41Z</time>
      </trkpt>
      <trkpt lat="43.73683" lon="6.55256">
        <ele>1074</ele>
        <time>2011-11-13T11:37:46Z</time>
      </trkpt>
      <trkpt lat="43.73683" lon="6.55256">
        <ele>1074</ele>
        <time>2011-11-13T11:37:51Z</time>
      </trkpt>
      <trkpt lat="43.73684" lon="6.55256">
        <ele>1073.9</ele>
        <time>2011-11-13T11:37:56Z</time>
      </trkpt>
      <trkpt lat="43.73684" lon="6.55256">
        <ele>1073.9</ele>
        <time>2011-11-13T11:38:01Z</time>
      </trkpt>
      <trkpt lat="43.73684" lon="6.55257">
        <ele>1074</ele>
        <time>2011-11-13T11:38:06Z</time>
      </trkpt>
      <trkpt lat="43.73684" lon="6.55257">
        <ele>1074.2</ele>
        <time>2011-11-13T11:38:11Z</time>
      </trkpt>
      <trkpt lat="43.73684" lon="6.55257">
        <ele>1074.1</ele>
        <time>2011-11-13T11:38:16Z</time>
      </trkpt>
      <trkpt lat="43.73684" lon="6.55257">
        <ele>1074</ele>
        <time>2011-11-13T11:38:21Z</time>
      </trkpt>
      <trkpt lat="43.73685" lon="6.55257">
        <ele>1073.9</ele>
        <time>2011-11-13T11:38:26Z</time>
      </trkpt>
      <trkpt lat="43.73685" lon="6.55257">
        <ele>1074.3</ele>
        <time>2011-11-13T11:38:31Z</time>
      </trkpt>
      <trkpt lat="43.73685" lon="6.55257">
        <ele>1074</ele>
        <time>2011-11-13T11:38:36Z</time>
      </trkpt>
      <trkpt lat="43.73685" lon="6.55257">
        <ele>1073.9</ele>
        <time>2011-11-13T11:38:37Z</time>
      </trkpt>
      <trkpt lat="43.73684" lon="6.55257">
        <ele>1074.4</ele>
        <time>2011-11-13T11:38:46Z</time>
      </trkpt>
      <trkpt lat="43.73685" lon="6.55257">
        <ele>1074</ele>
        <time>2011-11-13T11:38:51Z</time>
      </trkpt>
      <trkpt lat="43.73683" lon="6.55258">
        <ele>1074.3</ele>
        <time>2011-11-13T11:38:56Z</time>
      </trkpt>
      <trkpt lat="43.73683" lon="6.55258">
        <ele>1074.3</ele>
        <time>2011-11-13T11:39:01Z</time>
      </trkpt>
      <trkpt lat="43.73682" lon="6.55258">
        <ele>1074.2</ele>
        <time>2011-11-13T11:39:06Z</time>
      </trkpt>
      <trkpt lat="43.73683" lon="6.55258">
        <ele>1074.3</ele>
        <time>2011-11-13T11:39:11Z</time>
      </trkpt>
      <trkpt lat="43.73684" lon="6.55257">
        <ele>1074.5</ele>
        <time>2011-11-13T11:39:16Z</time>
      </trkpt>
      <trkpt lat="43.73684" lon="6.55257">
        <ele>1074.7</ele>
        <time>2011-11-13T11:39:21Z</time>
      </trkpt>
      <trkpt lat="43.73684" lon="6.55257">
        <ele>1074.5</ele>
        <time>2011-11-13T11:39:26Z</time>
      </trkpt>
      <trkpt lat="43.73684" lon="6.55257">
        <ele>1074.3</ele>
        <time>2011-11-13T11:39:31Z</time>
      </trkpt>
      <trkpt lat="43.73684" lon="6.55257">
        <ele>1073.9</ele>
        <time>2011-11-13T11:39:36Z</time>
      </trkpt>
      <trkpt lat="43.73684" lon="6.55257">
        <ele>1074.1</ele>
        <time>2011-11-13T11:39:41Z</time>
      </trkpt>
      <trkpt lat="43.73684" lon="6.55257">
        <ele>1074.1</ele>
        <time>2011-11-13T11:39:42Z</time>
      </trkpt>
      <trkpt lat="43.73684" lon="6.55257">
        <ele>1074.1</ele>
        <time>2011-11-13T11:39:51Z</time>
      </trkpt>
      <trkpt lat="43.73684" lon="6.55256">
        <ele>1073.9</ele>
        <time>2011-11-13T11:39:56Z</time>
      </trkpt>
      <trkpt lat="43.73684" lon="6.55256">
        <ele>1073.9</ele>
        <time>2011-11-13T11:40:01Z</time>
      </trkpt>
      <trkpt lat="43.73684" lon="6.55257">
        <ele>1074.2</ele>
        <time>2011-11-13T11:40:06Z</time>
      </trkpt>
      <trkpt lat="43.73684" lon="6.55257">
        <ele>1074.1</ele>
        <time>2011-11-13T11:40:11Z</time>
      </trkpt>
      <trkpt lat="43.73684" lon="6.55257">
        <ele>1073.8</ele>
        <time>2011-11-13T11:40:16Z</time>
      </trkpt>
      <trkpt lat="43.73684" lon="6.55257">
        <ele>1074</ele>
        <time>2011-11-13T11:40:21Z</time>
      </trkpt>
      <trkpt lat="43.73685" lon="6.55257">
        <ele>1073.6</ele>
        <time>2011-11-13T11:40:26Z</time>
      </trkpt>
      <trkpt lat="43.73685" lon="6.55257">
        <ele>1073.7</ele>
        <time>2011-11-13T11:40:31Z</time>
      </trkpt>
      <trkpt lat="43.73686" lon="6.55257">
        <ele>1073.9</ele>
        <time>2011-11-13T11:40:36Z</time>
      </trkpt>
      <trkpt lat="43.73686" lon="6.55257">
        <ele>1074.1</ele>
        <time>2011-11-13T11:40:41Z</time>
      </trkpt>
      <trkpt lat="43.73686" lon="6.55257">
        <ele>1073.8</ele>
        <time>2011-11-13T11:40:46Z</time>
      </trkpt>
      <trkpt lat="43.73686" lon="6.55257">
        <ele>1073.8</ele>
        <time>2011-11-13T11:40:47Z</time>
      </trkpt>
      <trkpt lat="43.73685" lon="6.55257">
        <ele>1074.2</ele>
        <time>2011-11-13T11:40:56Z</time>
      </trkpt>
      <trkpt lat="43.73686" lon="6.55257">
        <ele>1074.4</ele>
        <time>2011-11-13T11:41:01Z</time>
      </trkpt>
      <trkpt lat="43.73685" lon="6.55257">
        <ele>1074.6</ele>
        <time>2011-11-13T11:41:06Z</time>
      </trkpt>
      <trkpt lat="43.73684" lon="6.55256">
        <ele>1074.2</ele>
        <time>2011-11-13T11:41:11Z</time>
      </trkpt>
      <trkpt lat="43.73683" lon="6.55257">
        <ele>1074.5</ele>
        <time>2011-11-13T11:41:16Z</time>
      </trkpt>
      <trkpt lat="43.73683" lon="6.55257">
        <ele>1074</ele>
        <time>2011-11-13T11:41:21Z</time>
      </trkpt>
      <trkpt lat="43.73682" lon="6.55257">
        <ele>1074</ele>
        <time>2011-11-13T11:41:26Z</time>
      </trkpt>
      <trkpt lat="43.73683" lon="6.55257">
        <ele>1074.3</ele>
        <time>2011-11-13T11:41:31Z</time>
      </trkpt>
      <trkpt lat="43.73683" lon="6.55257">
        <ele>1074.7</ele>
        <time>2011-11-13T11:41:36Z</time>
      </trkpt>
      <trkpt lat="43.73684" lon="6.55257">
        <ele>1074.3</ele>
        <time>2011-11-13T11:41:41Z</time>
      </trkpt>
      <trkpt lat="43.73684" lon="6.55257">
        <ele>1074.5</ele>
        <time>2011-11-13T11:41:46Z</time>
      </trkpt>
      <trkpt lat="43.73684" lon="6.55257">
        <ele>1074.4</ele>
        <time>2011-11-13T11:41:51Z</time>
      </trkpt>
      <trkpt lat="43.73684" lon="6.55257">
        <ele>1074.4</ele>
        <time>2011-11-13T11:41:52Z</time>
      </trkpt>
      <trkpt lat="43.73684" lon="6.55257">
        <ele>1074.6</ele>
        <time>2011-11-13T11:42:01Z</time>
      </trkpt>
      <trkpt lat="43.73683" lon="6.55256">
        <ele>1074.7</ele>
        <time>2011-11-13T11:42:06Z</time>
      </trkpt>
      <trkpt lat="43.73683" lon="6.55255">
        <ele>1075</ele>
        <time>2011-11-13T11:42:11Z</time>
      </trkpt>
      <trkpt lat="43.73682" lon="6.55255">
        <ele>1075.2</ele>
        <time>2011-11-13T11:42:16Z</time>
      </trkpt>
      <trkpt lat="43.73681" lon="6.55254">
        <ele>1074.9</ele>
        <time>2011-11-13T11:42:21Z</time>
      </trkpt>
      <trkpt lat="43.73681" lon="6.55253">
        <ele>1075.1</ele>
        <time>2011-11-13T11:42:26Z</time>
      </trkpt>
      <trkpt lat="43.73681" lon="6.55253">
        <ele>1075.3</ele>
        <time>2011-11-13T11:42:31Z</time>
      </trkpt>
      <trkpt lat="43.73682" lon="6.55253">
        <ele>1074.9</ele>
        <time>2011-11-13T11:42:36Z</time>
      </trkpt>
      <trkpt lat="43.73682" lon="6.55255">
        <ele>1075</ele>
        <time>2011-11-13T11:42:41Z</time>
      </trkpt>
      <trkpt lat="43.73684" lon="6.55253">
        <ele>1075</ele>
        <time>2011-11-13T11:42:46Z</time>
      </trkpt>
      <trkpt lat="43.73685" lon="6.55253">
        <ele>1074.6</ele>
        <time>2011-11-13T11:42:51Z</time>
      </trkpt>
      <trkpt lat="43.73685" lon="6.55254">
        <ele>1074.8</ele>
        <time>2011-11-13T11:42:56Z</time>
      </trkpt>
      <trkpt lat="43.73685" lon="6.55255">
        <ele>1074.9</ele>
        <time>2011-11-13T11:42:57Z</time>
      </trkpt>
      <trkpt lat="43.73687" lon="6.55256">
        <ele>1074.9</ele>
        <time>2011-11-13T11:43:06Z</time>
      </trkpt>
      <trkpt lat="43.73687" lon="6.55256">
        <ele>1075.2</ele>
        <time>2011-11-13T11:43:11Z</time>
      </trkpt>
      <trkpt lat="43.73687" lon="6.55255">
        <ele>1075.3</ele>
        <time>2011-11-13T11:43:16Z</time>
      </trkpt>
      <trkpt lat="43.73686" lon="6.55255">
        <ele>1075.3</ele>
        <time>2011-11-13T11:43:21Z</time>
      </trkpt>
      <trkpt lat="43.73686" lon="6.55254">
        <ele>1075</ele>
        <time>2011-11-13T11:43:26Z</time>
      </trkpt>
      <trkpt lat="43.73686" lon="6.55254">
        <ele>1075</ele>
        <time>2011-11-13T11:43:31Z</time>
      </trkpt>
      <trkpt lat="43.73687" lon="6.55253">
        <ele>1075.1</ele>
        <time>2011-11-13T11:43:36Z</time>
      </trkpt>
      <trkpt lat="43.73687" lon="6.55253">
        <ele>1074.9</ele>
        <time>2011-11-13T11:43:41Z</time>
      </trkpt>
      <trkpt lat="43.73687" lon="6.55253">
        <ele>1075.1</ele>
        <time>2011-11-13T11:43:46Z</time>
      </trkpt>
      <trkpt lat="43.73686" lon="6.55254">
        <ele>1075.3</ele>
        <time>2011-11-13T11:43:51Z</time>
      </trkpt>
      <trkpt lat="43.73685" lon="6.55254">
        <ele>1075.3</ele>
        <time>2011-11-13T11:43:56Z</time>
      </trkpt>
      <trkpt lat="43.73685" lon="6.55255">
        <ele>1074.6</ele>
        <time>2011-11-13T11:44:01Z</time>
      </trkpt>
      <trkpt lat="43.73685" lon="6.55255">
        <ele>1074.5</ele>
        <time>2011-11-13T11:44:02Z</time>
      </trkpt>
      <trkpt lat="43.73686" lon="6.55254">
        <ele>1058.7</ele>
        <time>2011-11-13T11:44:11Z</time>
      </trkpt>
      <trkpt lat="43.73686" lon="6.55254">
        <ele>1057.7</ele>
        <time>2011-11-13T11:44:16Z</time>
      </trkpt>
      <trkpt lat="43.73686" lon="6.55252">
        <ele>1057.1</ele>
        <time>2011-11-13T11:44:21Z</time>
      </trkpt>
      <trkpt lat="43.73685" lon="6.55252">
        <ele>1056.9</ele>
        <time>2011-11-13T11:44:26Z</time>
      </trkpt>
      <trkpt lat="43.73686" lon="6.55253">
        <ele>1057.3</ele>
        <time>2011-11-13T11:44:31Z</time>
      </trkpt>
      <trkpt lat="43.73686" lon="6.55253">
        <ele>1057.3</ele>
        <time>2011-11-13T11:44:36Z</time>
      </trkpt>
      <trkpt lat="43.73687" lon="6.55253">
        <ele>1057.6</ele>
        <time>2011-11-13T11:44:41Z</time>
      </trkpt>
      <trkpt lat="43.73687" lon="6.55253">
        <ele>1057.6</ele>
        <time>2011-11-13T11:44:46Z</time>
      </trkpt>
      <trkpt lat="43.73686" lon="6.55252">
        <ele>1058.4</ele>
        <time>2011-11-13T11:44:51Z</time>
      </trkpt>
      <trkpt lat="43.73685" lon="6.55252">
        <ele>1058.2</ele>
        <time>2011-11-13T11:44:56Z</time>
      </trkpt>
      <trkpt lat="43.73684" lon="6.55252">
        <ele>1057.9</ele>
        <time>2011-11-13T11:45:01Z</time>
      </trkpt>
      <trkpt lat="43.73684" lon="6.55254">
        <ele>1058.8</ele>
        <time>2011-11-13T11:45:06Z</time>
      </trkpt>
      <trkpt lat="43.73684" lon="6.55254">
        <ele>1059.2</ele>
        <time>2011-11-13T11:45:07Z</time>
      </trkpt>
      <trkpt lat="43.73684" lon="6.55254">
        <ele>1058.6</ele>
        <time>2011-11-13T11:45:16Z</time>
      </trkpt>
      <trkpt lat="43.73683" lon="6.55253">
        <ele>1058.4</ele>
        <time>2011-11-13T11:45:21Z</time>
      </trkpt>
      <trkpt lat="43.73683" lon="6.55252">
        <ele>1058.5</ele>
        <time>2011-11-13T11:45:26Z</time>
      </trkpt>
      <trkpt lat="43.73682" lon="6.55251">
        <ele>1058.3</ele>
        <time>2011-11-13T11:45:31Z</time>
      </trkpt>
      <trkpt lat="43.73682" lon="6.55251">
        <ele>1058.4</ele>
        <time>2011-11-13T11:45:36Z</time>
      </trkpt>
      <trkpt lat="43.73682" lon="6.5525">
        <ele>1058.5</ele>
        <time>2011-11-13T11:45:41Z</time>
      </trkpt>
      <trkpt lat="43.73681" lon="6.5525">
        <ele>1058.7</ele>
        <time>2011-11-13T11:45:46Z</time>
      </trkpt>
      <trkpt lat="43.73682" lon="6.55251">
        <ele>1058.5</ele>
        <time>2011-11-13T11:45:51Z</time>
      </trkpt>
      <trkpt lat="43.73682" lon="6.55251">
        <ele>1058.3</ele>
        <time>2011-11-13T11:45:56Z</time>
      </trkpt>
      <trkpt lat="43.73683" lon="6.55252">
        <ele>1058.2</ele>
        <time>2011-11-13T11:46:01Z</time>
      </trkpt>
      <trkpt lat="43.73683" lon="6.55252">
        <ele>1058.2</ele>
        <time>2011-11-13T11:46:06Z</time>
      </trkpt>
      <trkpt lat="43.73683" lon="6.55253">
        <ele>1058.3</ele>
        <time>2011-11-13T11:46:11Z</time>
      </trkpt>
      <trkpt lat="43.73683" lon="6.55253">
        <ele>1058.1</ele>
        <time>2011-11-13T11:46:12Z</time>
      </trkpt>
      <trkpt lat="43.73683" lon="6.55254">
        <ele>1058.2</ele>
        <time>2011-11-13T11:46:21Z</time>
      </trkpt>
      <trkpt lat="43.73683" lon="6.55254">
        <ele>1058.3</ele>
        <time>2011-11-13T11:46:26Z</time>
      </trkpt>
      <trkpt lat="43.73683" lon="6.55254">
        <ele>1058.3</ele>
        <time>2011-11-13T11:46:31Z</time>
      </trkpt>
      <trkpt lat="43.73683" lon="6.55254">
        <ele>1058.4</ele>
        <time>2011-11-13T11:46:36Z</time>
      </trkpt>
      <trkpt lat="43.73683" lon="6.55254">
        <ele>1057.6</ele>
        <time>2011-11-13T11:46:41Z</time>
      </trkpt>
      <trkpt lat="43.73684" lon="6.55254">
        <ele>1058.2</ele>
        <time>2011-11-13T11:46:46Z</time>
      </trkpt>
      <trkpt lat="43.73684" lon="6.55254">
        <ele>1058.2</ele>
        <time>2011-11-13T11:46:51Z</time>
      </trkpt>
      <trkpt lat="43.73684" lon="6.55254">
        <ele>1058</ele>
        <time>2011-11-13T11:46:56Z</time>
      </trkpt>
      <trkpt lat="43.73684" lon="6.55254">
        <ele>1058.2</ele>
        <time>2011-11-13T11:47:01Z</time>
      </trkpt>
      <trkpt lat="43.73684" lon="6.55254">
        <ele>1058.1</ele>
        <time>2011-11-13T11:47:06Z</time>
      </trkpt>
      <trkpt lat="43.73684" lon="6.55254">
        <ele>1057.8</ele>
        <time>2011-11-13T11:47:11Z</time>
      </trkpt>
      <trkpt lat="43.73683" lon="6.55254">
        <ele>1057.7</ele>
        <time>2011-11-13T11:47:16Z</time>
      </trkpt>
      <trkpt lat="43.73683" lon="6.55254">
        <ele>1057.8</ele>
        <time>2011-11-13T11:47:17Z</time>
      </trkpt>
      <trkpt lat="43.73683" lon="6.55254">
        <ele>1057.9</ele>
        <time>2011-11-13T11:47:26Z</time>
      </trkpt>
      <trkpt lat="43.73683" lon="6.55254">
        <ele>1057.9</ele>
        <time>2011-11-13T11:47:31Z</time>
      </trkpt>
      <trkpt lat="43.73683" lon="6.55253">
        <ele>1057.9</ele>
        <time>2011-11-13T11:47:36Z</time>
      </trkpt>
      <trkpt lat="43.73683" lon="6.55253">
        <ele>1058</ele>
        <time>2011-11-13T11:47:41Z</time>
      </trkpt>
      <trkpt lat="43.73683" lon="6.55253">
        <ele>1058.1</ele>
        <time>2011-11-13T11:47:46Z</time>
      </trkpt>
      <trkpt lat="43.73683" lon="6.55254">
        <ele>1057.9</ele>
        <time>2011-11-13T11:47:51Z</time>
      </trkpt>
      <trkpt lat="43.73683" lon="6.55253">
        <ele>1058.2</ele>
        <time>2011-11-13T11:47:56Z</time>
      </trkpt>
      <trkpt lat="43.73683" lon="6.55253">
        <ele>1058</ele>
        <time>2011-11-13T11:48:01Z</time>
      </trkpt>
      <trkpt lat="43.73683" lon="6.55253">
        <ele>1058</ele>
        <time>2011-11-13T11:48:06Z</time>
      </trkpt>
      <trkpt lat="43.73683" lon="6.55253">
        <ele>1058.2</ele>
        <time>2011-11-13T11:48:11Z</time>
      </trkpt>
      <trkpt lat="43.73683" lon="6.55254">
        <ele>1058.3</ele>
        <time>2011-11-13T11:48:16Z</time>
      </trkpt>
      <trkpt lat="43.73683" lon="6.55254">
        <ele>1058</ele>
        <time>2011-11-13T11:48:21Z</time>
      </trkpt>
      <trkpt lat="43.73683" lon="6.55254">
        <ele>1057.9</ele>
        <time>2011-11-13T11:48:22Z</time>
      </trkpt>
      <trkpt lat="43.73683" lon="6.55254">
        <ele>1058.2</ele>
        <time>2011-11-13T11:48:31Z</time>
      </trkpt>
      <trkpt lat="43.73683" lon="6.55254">
        <ele>1057.9</ele>
        <time>2011-11-13T11:48:36Z</time>
      </trkpt>
      <trkpt lat="43.73683" lon="6.55254">
        <ele>1057.7</ele>
        <time>2011-11-13T11:48:41Z</time>
      </trkpt>
      <trkpt lat="43.73683" lon="6.55253">
        <ele>1057.8</ele>
        <time>2011-11-13T11:48:46Z</time>
      </trkpt>
      <trkpt lat="43.73683" lon="6.55253">
        <ele>1057.6</ele>
        <time>2011-11-13T11:48:51Z</time>
      </trkpt>
      <trkpt lat="43.73683" lon="6.55253">
        <ele>1057.5</ele>
        <time>2011-11-13T11:48:56Z</time>
      </trkpt>
      <trkpt lat="43.73683" lon="6.55253">
        <ele>1057.6</ele>
        <time>2011-11-13T11:49:01Z</time>
      </trkpt>
      <trkpt lat="43.73683" lon="6.55253">
        <ele>1057.4</ele>
        <time>2011-11-13T11:49:06Z</time>
      </trkpt>
      <trkpt lat="43.73683" lon="6.55252">
        <ele>1057.9</ele>
        <time>2011-11-13T11:49:11Z</time>
      </trkpt>
      <trkpt lat="43.73683" lon="6.55252">
        <ele>1058.2</ele>
        <time>2011-11-13T11:49:16Z</time>
      </trkpt>
      <trkpt lat="43.73682" lon="6.55252">
        <ele>1057.9</ele>
        <time>2011-11-13T11:49:21Z</time>
      </trkpt>
      <trkpt lat="43.73682" lon="6.55252">
        <ele>1058</ele>
        <time>2011-11-13T11:49:26Z</time>
      </trkpt>
      <trkpt lat="43.73682" lon="6.55252">
        <ele>1058.3</ele>
        <time>2011-11-13T11:49:27Z</time>
      </trkpt>
      <trkpt lat="43.73682" lon="6.55251">
        <ele>1057.7</ele>
        <time>2011-11-13T11:49:36Z</time>
      </trkpt>
      <trkpt lat="43.73682" lon="6.55251">
        <ele>1057.8</ele>
        <time>2011-11-13T11:49:41Z</time>
      </trkpt>
      <trkpt lat="43.73683" lon="6.55252">
        <ele>1057.6</ele>
        <time>2011-11-13T11:49:46Z</time>
      </trkpt>
      <trkpt lat="43.73683" lon="6.55252">
        <ele>1057.7</ele>
        <time>2011-11-13T11:49:51Z</time>
      </trkpt>
      <trkpt lat="43.73683" lon="6.55252">
        <ele>1057.7</ele>
        <time>2011-11-13T11:49:56Z</time>
      </trkpt>
      <trkpt lat="43.73683" lon="6.55252">
        <ele>1057.5</ele>
        <time>2011-11-13T11:50:01Z</time>
      </trkpt>
      <trkpt lat="43.73683" lon="6.55252">
        <ele>1057.4</ele>
        <time>2011-11-13T11:50:06Z</time>
      </trkpt>
      <trkpt lat="43.73683" lon="6.55253">
        <ele>1057.4</ele>
        <time>2011-11-13T11:50:11Z</time>
      </trkpt>
      <trkpt lat="43.73683" lon="6.55253">
        <ele>1057.7</ele>
        <time>2011-11-13T11:50:16Z</time>
      </trkpt>
      <trkpt lat="43.73683" lon="6.55253">
        <ele>1057.9</ele>
        <time>2011-11-13T11:50:21Z</time>
      </trkpt>
      <trkpt lat="43.73683" lon="6.55253">
        <ele>1057.7</ele>
        <time>2011-11-13T11:50:26Z</time>
      </trkpt>
      <trkpt lat="43.73683" lon="6.55253">
        <ele>1057.4</ele>
        <time>2011-11-13T11:50:31Z</time>
      </trkpt>
      <trkpt lat="43.73683" lon="6.55253">
        <ele>1057.4</ele>
        <time>2011-11-13T11:50:32Z</time>
      </trkpt>
      <trkpt lat="43.73683" lon="6.55253">
        <ele>1057.7</ele>
        <time>2011-11-13T11:50:41Z</time>
      </trkpt>
      <trkpt lat="43.73683" lon="6.55254">
        <ele>1057.5</ele>
        <time>2011-11-13T11:50:46Z</time>
      </trkpt>
      <trkpt lat="43.73683" lon="6.55254">
        <ele>1057.8</ele>
        <time>2011-11-13T11:50:51Z</time>
      </trkpt>
      <trkpt lat="43.73683" lon="6.55254">
        <ele>1057.7</ele>
        <time>2011-11-13T11:50:56Z</time>
      </trkpt>
      <trkpt lat="43.73683" lon="6.55254">
        <ele>1057.9</ele>
        <time>2011-11-13T11:51:01Z</time>
      </trkpt>
      <trkpt lat="43.73683" lon="6.55254">
        <ele>1058.3</ele>
        <time>2011-11-13T11:51:06Z</time>
      </trkpt>
      <trkpt lat="43.73683" lon="6.55253">
        <ele>1058.5</ele>
        <time>2011-11-13T11:51:11Z</time>
      </trkpt>
      <trkpt lat="43.73683" lon="6.55253">
        <ele>1058.1</ele>
        <time>2011-11-13T11:51:16Z</time>
      </trkpt>
      <trkpt lat="43.73683" lon="6.55253">
        <ele>1058.3</ele>
        <time>2011-11-13T11:51:21Z</time>
      </trkpt>
      <trkpt lat="43.73683" lon="6.55253">
        <ele>1058.1</ele>
        <time>2011-11-13T11:51:26Z</time>
      </trkpt>
      <trkpt lat="43.73683" lon="6.55253">
        <ele>1057.7</ele>
        <time>2011-11-13T11:51:31Z</time>
      </trkpt>
      <trkpt lat="43.73683" lon="6.55253">
        <ele>1058.1</ele>
        <time>2011-11-13T11:51:36Z</time>
      </trkpt>
      <trkpt lat="43.73683" lon="6.55253">
        <ele>1058</ele>
        <time>2011-11-13T11:51:37Z</time>
      </trkpt>
      <trkpt lat="43.73683" lon="6.55253">
        <ele>1057.5</ele>
        <time>2011-11-13T11:51:46Z</time>
      </trkpt>
      <trkpt lat="43.73683" lon="6.55253">
        <ele>1057.8</ele>
        <time>2011-11-13T11:51:51Z</time>
      </trkpt>
      <trkpt lat="43.73683" lon="6.55253">
        <ele>1058.1</ele>
        <time>2011-11-13T11:51:56Z</time>
      </trkpt>
      <trkpt lat="43.73683" lon="6.55253">
        <ele>1057.4</ele>
        <time>2011-11-13T11:52:01Z</time>
      </trkpt>
      <trkpt lat="43.73683" lon="6.55253">
        <ele>1057.7</ele>
        <time>2011-11-13T11:52:06Z</time>
      </trkpt>
      <trkpt lat="43.73683" lon="6.55253">
        <ele>1058.2</ele>
        <time>2011-11-13T11:52:11Z</time>
      </trkpt>
      <trkpt lat="43.73683" lon="6.55253">
        <ele>1058.1</ele>
        <time>2011-11-13T11:52:16Z</time>
      </trkpt>
      <trkpt lat="43.73683" lon="6.55254">
        <ele>1057.6</ele>
        <time>2011-11-13T11:52:21Z</time>
      </trkpt>
      <trkpt lat="43.73683" lon="6.55253">
        <ele>1057.5</ele>
        <time>2011-11-13T11:52:26Z</time>
      </trkpt>
      <trkpt lat="43.73683" lon="6.55252">
        <ele>1057.2</ele>
        <time>2011-11-13T11:52:31Z</time>
      </trkpt>
      <trkpt lat="43.73683" lon="6.55252">
        <ele>1057.1</ele>
        <time>2011-11-13T11:52:36Z</time>
      </trkpt>
      <trkpt lat="43.73683" lon="6.55251">
        <ele>1057.6</ele>
        <time>2011-11-13T11:52:41Z</time>
      </trkpt>
      <trkpt lat="43.73683" lon="6.55252">
        <ele>1057.7</ele>
        <time>2011-11-13T11:52:42Z</time>
      </trkpt>
      <trkpt lat="43.73684" lon="6.55253">
        <ele>1058.1</ele>
        <time>2011-11-13T11:52:51Z</time>
      </trkpt>
      <trkpt lat="43.73684" lon="6.55253">
        <ele>1057.3</ele>
        <time>2011-11-13T11:52:56Z</time>
      </trkpt>
      <trkpt lat="43.73684" lon="6.55253">
        <ele>1057.7</ele>
        <time>2011-11-13T11:53:01Z</time>
      </trkpt>
      <trkpt lat="43.73684" lon="6.55253">
        <ele>1057.7</ele>
        <time>2011-11-13T11:53:06Z</time>
      </trkpt>
      <trkpt lat="43.73684" lon="6.55253">
        <ele>1057.8</ele>
        <time>2011-11-13T11:53:11Z</time>
      </trkpt>
      <trkpt lat="43.73684" lon="6.55254">
        <ele>1058.4</ele>
        <time>2011-11-13T11:53:16Z</time>
      </trkpt>
      <trkpt lat="43.73684" lon="6.55254">
        <ele>1058.1</ele>
        <time>2011-11-13T11:53:21Z</time>
      </trkpt>
      <trkpt lat="43.73684" lon="6.55254">
        <ele>1057.6</ele>
        <time>2011-11-13T11:53:26Z</time>
      </trkpt>
      <trkpt lat="43.73684" lon="6.55255">
        <ele>1057.1</ele>
        <time>2011-11-13T11:53:31Z</time>
      </trkpt>
      <trkpt lat="43.73684" lon="6.55254">
        <ele>1057.6</ele>
        <time>2011-11-13T11:53:36Z</time>
      </trkpt>
      <trkpt lat="43.73684" lon="6.55254">
        <ele>1057.6</ele>
        <time>2011-11-13T11:53:41Z</time>
      </trkpt>
      <trkpt lat="43.73685" lon="6.55255">
        <ele>1057.9</ele>
        <time>2011-11-13T11:53:46Z</time>
      </trkpt>
      <trkpt lat="43.73685" lon="6.55255">
        <ele>1057.9</ele>
        <time>2011-11-13T11:53:47Z</time>
      </trkpt>
      <trkpt lat="43.73685" lon="6.55255">
        <ele>1056.8</ele>
        <time>2011-11-13T11:53:56Z</time>
      </trkpt>
      <trkpt lat="43.73685" lon="6.55254">
        <ele>1057.7</ele>
        <time>2011-11-13T11:54:01Z</time>
      </trkpt>
      <trkpt lat="43.73685" lon="6.55254">
        <ele>1057.6</ele>
        <time>2011-11-13T11:54:06Z</time>
      </trkpt>
      <trkpt lat="43.73686" lon="6.55255">
        <ele>1057.5</ele>
        <time>2011-11-13T11:54:11Z</time>
      </trkpt>
      <trkpt lat="43.73684" lon="6.55254">
        <ele>1057.4</ele>
        <time>2011-11-13T11:54:16Z</time>
      </trkpt>
      <trkpt lat="43.73685" lon="6.55254">
        <ele>1057.8</ele>
        <time>2011-11-13T11:54:21Z</time>
      </trkpt>
      <trkpt lat="43.73685" lon="6.55253">
        <ele>1057.9</ele>
        <time>2011-11-13T11:54:26Z</time>
      </trkpt>
      <trkpt lat="43.73685" lon="6.55253">
        <ele>1057.3</ele>
        <time>2011-11-13T11:54:31Z</time>
      </trkpt>
      <trkpt lat="43.73685" lon="6.55254">
        <ele>1056.3</ele>
        <time>2011-11-13T11:54:36Z</time>
      </trkpt>
      <trkpt lat="43.73686" lon="6.55254">
        <ele>1057</ele>
        <time>2011-11-13T11:54:41Z</time>
      </trkpt>
      <trkpt lat="43.73686" lon="6.55254">
        <ele>1057.2</ele>
        <time>2011-11-13T11:54:46Z</time>
      </trkpt>
      <trkpt lat="43.73686" lon="6.55253">
        <ele>1056.7</ele>
        <time>2011-11-13T11:54:51Z</time>
      </trkpt>
      <trkpt lat="43.73686" lon="6.55253">
        <ele>1056.5</ele>
        <time>2011-11-13T11:54:52Z</time>
      </trkpt>
      <trkpt lat="43.73686" lon="6.55253">
        <ele>1056.3</ele>
        <time>2011-11-13T11:55:01Z</time>
      </trkpt>
      <trkpt lat="43.73686" lon="6.55253">
        <ele>1056.1</ele>
        <time>2011-11-13T11:55:06Z</time>
      </trkpt>
      <trkpt lat="43.73685" lon="6.55254">
        <ele>1056</ele>
        <time>2011-11-13T11:55:11Z</time>
      </trkpt>
      <trkpt lat="43.73685" lon="6.55254">
        <ele>1055.9</ele>
        <time>2011-11-13T11:55:16Z</time>
      </trkpt>
      <trkpt lat="43.73685" lon="6.55254">
        <ele>1055.7</ele>
        <time>2011-11-13T11:55:21Z</time>
      </trkpt>
      <trkpt lat="43.73685" lon="6.55255">
        <ele>1055.5</ele>
        <time>2011-11-13T11:55:26Z</time>
      </trkpt>
      <trkpt lat="43.73685" lon="6.55255">
        <ele>1055.4</ele>
        <time>2011-11-13T11:55:31Z</time>
      </trkpt>
      <trkpt lat="43.73685" lon="6.55255">
        <ele>1055</ele>
        <time>2011-11-13T11:55:36Z</time>
      </trkpt>
      <trkpt lat="43.73685" lon="6.55255">
        <ele>1055.2</ele>
        <time>2011-11-13T11:55:41Z</time>
      </trkpt>
      <trkpt lat="43.73685" lon="6.55255">
        <ele>1054.7</ele>
        <time>2011-11-13T11:55:46Z</time>
      </trkpt>
      <trkpt lat="43.73685" lon="6.55255">
        <ele>1055.2</ele>
        <time>2011-11-13T11:55:51Z</time>
      </trkpt>
      <trkpt lat="43.73684" lon="6.55255">
        <ele>1054.8</ele>
        <time>2011-11-13T11:55:56Z</time>
      </trkpt>
      <trkpt lat="43.73684" lon="6.55255">
        <ele>1054.8</ele>
        <time>2011-11-13T11:55:57Z</time>
      </trkpt>
      <trkpt lat="43.73684" lon="6.55255">
        <ele>1054.6</ele>
        <time>2011-11-13T11:56:06Z</time>
      </trkpt>
      <trkpt lat="43.73684" lon="6.55256">
        <ele>1055.2</ele>
        <time>2011-11-13T11:56:11Z</time>
      </trkpt>
      <trkpt lat="43.73684" lon="6.55255">
        <ele>1055.5</ele>
        <time>2011-11-13T11:56:16Z</time>
      </trkpt>
      <trkpt lat="43.73684" lon="6.55256">
        <ele>1055.6</ele>
        <time>2011-11-13T11:56:21Z</time>
      </trkpt>
      <trkpt lat="43.73684" lon="6.55256">
        <ele>1055.5</ele>
        <time>2011-11-13T11:56:26Z</time>
      </trkpt>
      <trkpt lat="43.73684" lon="6.55256">
        <ele>1055.5</ele>
        <time>2011-11-13T11:56:31Z</time>
      </trkpt>
      <trkpt lat="43.73684" lon="6.55255">
        <ele>1056.1</ele>
        <time>2011-11-13T11:56:36Z</time>
      </trkpt>
      <trkpt lat="43.73684" lon="6.55255">
        <ele>1055.9</ele>
        <time>2011-11-13T11:56:41Z</time>
      </trkpt>
      <trkpt lat="43.73683" lon="6.55255">
        <ele>1056.4</ele>
        <time>2011-11-13T11:56:46Z</time>
      </trkpt>
      <trkpt lat="43.73683" lon="6.55255">
        <ele>1056.4</ele>
        <time>2011-11-13T11:56:51Z</time>
      </trkpt>
      <trkpt lat="43.73683" lon="6.55255">
        <ele>1056.3</ele>
        <time>2011-11-13T11:56:56Z</time>
      </trkpt>
      <trkpt lat="43.73683" lon="6.55254">
        <ele>1055.8</ele>
        <time>2011-11-13T11:57:01Z</time>
      </trkpt>
      <trkpt lat="43.73683" lon="6.55254">
        <ele>1056.3</ele>
        <time>2011-11-13T11:57:02Z</time>
      </trkpt>
      <trkpt lat="43.73684" lon="6.55255">
        <ele>1056.6</ele>
        <time>2011-11-13T11:57:11Z</time>
      </trkpt>
      <trkpt lat="43.73684" lon="6.55255">
        <ele>1056.7</ele>
        <time>2011-11-13T11:57:16Z</time>
      </trkpt>
      <trkpt lat="43.73683" lon="6.55255">
        <ele>1057</ele>
        <time>2011-11-13T11:57:21Z</time>
      </trkpt>
      <trkpt lat="43.73683" lon="6.55255">
        <ele>1057</ele>
        <time>2011-11-13T11:57:26Z</time>
      </trkpt>
      <trkpt lat="43.73683" lon="6.55255">
        <ele>1056.5</ele>
        <time>2011-11-13T11:57:31Z</time>
      </trkpt>
      <trkpt lat="43.73683" lon="6.55255">
        <ele>1057.1</ele>
        <time>2011-11-13T11:57:36Z</time>
      </trkpt>
      <trkpt lat="43.73683" lon="6.55255">
        <ele>1057</ele>
        <time>2011-11-13T11:57:41Z</time>
      </trkpt>
      <trkpt lat="43.73683" lon="6.55255">
        <ele>1056.5</ele>
        <time>2011-11-13T11:57:46Z</time>
      </trkpt>
      <trkpt lat="43.73682" lon="6.55255">
        <ele>1056.3</ele>
        <time>2011-11-13T11:57:51Z</time>
      </trkpt>
      <trkpt lat="43.73682" lon="6.55255">
        <ele>1056</ele>
        <time>2011-11-13T11:57:56Z</time>
      </trkpt>
      <trkpt lat="43.73682" lon="6.55255">
        <ele>1056.3</ele>
        <time>2011-11-13T11:58:01Z</time>
      </trkpt>
      <trkpt lat="43.73682" lon="6.55255">
        <ele>1056.2</ele>
        <time>2011-11-13T11:58:06Z</time>
      </trkpt>
      <trkpt lat="43.73682" lon="6.55255">
        <ele>1055.6</ele>
        <time>2011-11-13T11:58:07Z</time>
      </trkpt>
      <trkpt lat="43.73682" lon="6.55255">
        <ele>1056.5</ele>
        <time>2011-11-13T11:58:16Z</time>
      </trkpt>
      <trkpt lat="43.73682" lon="6.55255">
        <ele>1056.1</ele>
        <time>2011-11-13T11:58:21Z</time>
      </trkpt>
      <trkpt lat="43.73682" lon="6.55255">
        <ele>1055.9</ele>
        <time>2011-11-13T11:58:26Z</time>
      </trkpt>
      <trkpt lat="43.73682" lon="6.55255">
        <ele>1056.4</ele>
        <time>2011-11-13T11:58:31Z</time>
      </trkpt>
      <trkpt lat="43.73682" lon="6.55255">
        <ele>1056.4</ele>
        <time>2011-11-13T11:58:36Z</time>
      </trkpt>
      <trkpt lat="43.73682" lon="6.55255">
        <ele>1056.2</ele>
        <time>2011-11-13T11:58:41Z</time>
      </trkpt>
      <trkpt lat="43.73682" lon="6.55255">
        <ele>1056.1</ele>
        <time>2011-11-13T11:58:46Z</time>
      </trkpt>
      <trkpt lat="43.73682" lon="6.55255">
        <ele>1056.6</ele>
        <time>2011-11-13T11:58:51Z</time>
      </trkpt>
      <trkpt lat="43.73682" lon="6.55255">
        <ele>1056.4</ele>
        <time>2011-11-13T11:58:56Z</time>
      </trkpt>
      <trkpt lat="43.73682" lon="6.55255">
        <ele>1056.9</ele>
        <time>2011-11-13T11:59:01Z</time>
      </trkpt>
      <trkpt lat="43.73682" lon="6.55255">
        <ele>1056.7</ele>
        <time>2011-11-13T11:59:06Z</time>
      </trkpt>
      <trkpt lat="43.73682" lon="6.55255">
        <ele>1056.6</ele>
        <time>2011-11-13T11:59:11Z</time>
      </trkpt>
      <trkpt lat="43.73682" lon="6.55255">
        <ele>1056.4</ele>
        <time>2011-11-13T11:59:12Z</time>
      </trkpt>
      <trkpt lat="43.73682" lon="6.55254">
        <ele>1056.2</ele>
        <time>2011-11-13T11:59:21Z</time>
      </trkpt>
      <trkpt lat="43.73681" lon="6.55254">
        <ele>1056.4</ele>
        <time>2011-11-13T11:59:26Z</time>
      </trkpt>
      <trkpt lat="43.73681" lon="6.55253">
        <ele>1056.5</ele>
        <time>2011-11-13T11:59:31Z</time>
      </trkpt>
      <trkpt lat="43.73681" lon="6.55253">
        <ele>1056.3</ele>
        <time>2011-11-13T11:59:36Z</time>
      </trkpt>
      <trkpt lat="43.73681" lon="6.55252">
        <ele>1056.3</ele>
        <time>2011-11-13T11:59:41Z</time>
      </trkpt>
      <trkpt lat="43.73681" lon="6.55252">
        <ele>1056.5</ele>
        <time>2011-11-13T11:59:46Z</time>
      </trkpt>
      <trkpt lat="43.7368" lon="6.55252">
        <ele>1056.5</ele>
        <time>2011-11-13T11:59:51Z</time>
      </trkpt>
      <trkpt lat="43.73681" lon="6.55253">
        <ele>1056.5</ele>
        <time>2011-11-13T11:59:56Z</time>
      </trkpt>
      <trkpt lat="43.7368" lon="6.55253">
        <ele>1057</ele>
        <time>2011-11-13T12:00:01Z</time>
      </trkpt>
      <trkpt lat="43.73681" lon="6.55253">
        <ele>1056.9</ele>
        <time>2011-11-13T12:00:06Z</time>
      </trkpt>
      <trkpt lat="43.73681" lon="6.55254">
        <ele>1056.7</ele>
        <time>2011-11-13T12:00:11Z</time>
      </trkpt>
      <trkpt lat="43.73681" lon="6.55254">
        <ele>1057.1</ele>
        <time>2011-11-13T12:00:16Z</time>
      </trkpt>
      <trkpt lat="43.73681" lon="6.55254">
        <ele>1057.3</ele>
        <time>2011-11-13T12:00:17Z</time>
      </trkpt>
      <trkpt lat="43.73681" lon="6.55255">
        <ele>1057</ele>
        <time>2011-11-13T12:00:26Z</time>
      </trkpt>
      <trkpt lat="43.73682" lon="6.55255">
        <ele>1056.9</ele>
        <time>2011-11-13T12:00:31Z</time>
      </trkpt>
      <trkpt lat="43.73682" lon="6.55255">
        <ele>1056.6</ele>
        <time>2011-11-13T12:00:36Z</time>
      </trkpt>
      <trkpt lat="43.73682" lon="6.55255">
        <ele>1056.4</ele>
        <time>2011-11-13T12:00:41Z</time>
      </trkpt>
      <trkpt lat="43.73681" lon="6.55254">
        <ele>1056.4</ele>
        <time>2011-11-13T12:00:46Z</time>
      </trkpt>
      <trkpt lat="43.73681" lon="6.55254">
        <ele>1057.1</ele>
        <time>2011-11-13T12:00:51Z</time>
      </trkpt>
      <trkpt lat="43.73681" lon="6.55254">
        <ele>1056.6</ele>
        <time>2011-11-13T12:00:56Z</time>
      </trkpt>
      <trkpt lat="43.7368" lon="6.55253">
        <ele>1055.9</ele>
        <time>2011-11-13T12:01:01Z</time>
      </trkpt>
      <trkpt lat="43.7368" lon="6.55252">
        <ele>1055.8</ele>
        <time>2011-11-13T12:01:06Z</time>
      </trkpt>
      <trkpt lat="43.7368" lon="6.55252">
        <ele>1055.4</ele>
        <time>2011-11-13T12:01:11Z</time>
      </trkpt>
      <trkpt lat="43.7368" lon="6.55252">
        <ele>1055.5</ele>
        <time>2011-11-13T12:01:16Z</time>
      </trkpt>
      <trkpt lat="43.7368" lon="6.55253">
        <ele>1055.5</ele>
        <time>2011-11-13T12:01:21Z</time>
      </trkpt>
      <trkpt lat="43.73681" lon="6.55253">
        <ele>1055.6</ele>
        <time>2011-11-13T12:01:22Z</time>
      </trkpt>
      <trkpt lat="43.73682" lon="6.55255">
        <ele>1055.5</ele>
        <time>2011-11-13T12:01:31Z</time>
      </trkpt>
      <trkpt lat="43.73682" lon="6.55256">
        <ele>1055.5</ele>
        <time>2011-11-13T12:01:36Z</time>
      </trkpt>
      <trkpt lat="43.73682" lon="6.55256">
        <ele>1055.9</ele>
        <time>2011-11-13T12:01:41Z</time>
      </trkpt>
      <trkpt lat="43.73683" lon="6.55256">
        <ele>1056.3</ele>
        <time>2011-11-13T12:01:46Z</time>
      </trkpt>
      <trkpt lat="43.73683" lon="6.55256">
        <ele>1056.4</ele>
        <time>2011-11-13T12:01:51Z</time>
      </trkpt>
      <trkpt lat="43.73683" lon="6.55256">
        <ele>1056.1</ele>
        <time>2011-11-13T12:01:56Z</time>
      </trkpt>
      <trkpt lat="43.73683" lon="6.55256">
        <ele>1056.4</ele>
        <time>2011-11-13T12:02:01Z</time>
      </trkpt>
      <trkpt lat="43.73683" lon="6.55257">
        <ele>1056.3</ele>
        <time>2011-11-13T12:02:06Z</time>
      </trkpt>
      <trkpt lat="43.73683" lon="6.55256">
        <ele>1056.3</ele>
        <time>2011-11-13T12:02:11Z</time>
      </trkpt>
      <trkpt lat="43.73683" lon="6.55256">
        <ele>1056.4</ele>
        <time>2011-11-13T12:02:16Z</time>
      </trkpt>
      <trkpt lat="43.73683" lon="6.55256">
        <ele>1056.5</ele>
        <time>2011-11-13T12:02:21Z</time>
      </trkpt>
      <trkpt lat="43.73682" lon="6.55256">
        <ele>1056.4</ele>
        <time>2011-11-13T12:02:26Z</time>
      </trkpt>
      <trkpt lat="43.73682" lon="6.55255">
        <ele>1056.5</ele>
        <time>2011-11-13T12:02:27Z</time>
      </trkpt>
      <trkpt lat="43.73682" lon="6.55256">
        <ele>1056.7</ele>
        <time>2011-11-13T12:02:36Z</time>
      </trkpt>
      <trkpt lat="43.73682" lon="6.55255">
        <ele>1056.5</ele>
        <time>2011-11-13T12:02:41Z</time>
      </trkpt>
      <trkpt lat="43.73682" lon="6.55255">
        <ele>1056.1</ele>
        <time>2011-11-13T12:02:46Z</time>
      </trkpt>
      <trkpt lat="43.73682" lon="6.55255">
        <ele>1056.4</ele>
        <time>2011-11-13T12:02:51Z</time>
      </trkpt>
      <trkpt lat="43.73682" lon="6.55255">
        <ele>1056.2</ele>
        <time>2011-11-13T12:02:56Z</time>
      </trkpt>
      <trkpt lat="43.73682" lon="6.55255">
        <ele>1056.3</ele>
        <time>2011-11-13T12:03:01Z</time>
      </trkpt>
      <trkpt lat="43.73682" lon="6.55255">
        <ele>1056.2</ele>
        <time>2011-11-13T12:03:06Z</time>
      </trkpt>
      <trkpt lat="43.73682" lon="6.55256">
        <ele>1056.5</ele>
        <time>2011-11-13T12:03:11Z</time>
      </trkpt>
      <trkpt lat="43.73683" lon="6.55257">
        <ele>1056.5</ele>
        <time>2011-11-13T12:03:16Z</time>
      </trkpt>
      <trkpt lat="43.73683" lon="6.55258">
        <ele>1056.6</ele>
        <time>2011-11-13T12:03:21Z</time>
      </trkpt>
      <trkpt lat="43.73683" lon="6.55258">
        <ele>1056.4</ele>
        <time>2011-11-13T12:03:26Z</time>
      </trkpt>
      <trkpt lat="43.73683" lon="6.55258">
        <ele>1056.2</ele>
        <time>2011-11-13T12:03:31Z</time>
      </trkpt>
      <trkpt lat="43.73683" lon="6.55258">
        <ele>1056.1</ele>
        <time>2011-11-13T12:03:32Z</time>
      </trkpt>
      <trkpt lat="43.73683" lon="6.55257">
        <ele>1056</ele>
        <time>2011-11-13T12:03:41Z</time>
      </trkpt>
      <trkpt lat="43.73683" lon="6.55258">
        <ele>1056.1</ele>
        <time>2011-11-13T12:03:46Z</time>
      </trkpt>
      <trkpt lat="43.73683" lon="6.55258">
        <ele>1056.5</ele>
        <time>2011-11-13T12:03:51Z</time>
      </trkpt>
      <trkpt lat="43.73684" lon="6.55258">
        <ele>1056.1</ele>
        <time>2011-11-13T12:03:56Z</time>
      </trkpt>
      <trkpt lat="43.73683" lon="6.55258">
        <ele>1056.2</ele>
        <time>2011-11-13T12:04:01Z</time>
      </trkpt>
      <trkpt lat="43.73683" lon="6.55258">
        <ele>1056.4</ele>
        <time>2011-11-13T12:04:06Z</time>
      </trkpt>
      <trkpt lat="43.73683" lon="6.55257">
        <ele>1056.4</ele>
        <time>2011-11-13T12:04:11Z</time>
      </trkpt>
      <trkpt lat="43.73682" lon="6.55256">
        <ele>1056.5</ele>
        <time>2011-11-13T12:04:16Z</time>
      </trkpt>
      <trkpt lat="43.73681" lon="6.55255">
        <ele>1056.6</ele>
        <time>2011-11-13T12:04:21Z</time>
      </trkpt>
      <trkpt lat="43.73681" lon="6.55255">
        <ele>1057</ele>
        <time>2011-11-13T12:04:26Z</time>
      </trkpt>
      <trkpt lat="43.7368" lon="6.55254">
        <ele>1056.6</ele>
        <time>2011-11-13T12:04:31Z</time>
      </trkpt>
      <trkpt lat="43.7368" lon="6.55254">
        <ele>1056.3</ele>
        <time>2011-11-13T12:04:36Z</time>
      </trkpt>
      <trkpt lat="43.7368" lon="6.55254">
        <ele>1056.2</ele>
        <time>2011-11-13T12:04:37Z</time>
      </trkpt>
      <trkpt lat="43.73681" lon="6.55255">
        <ele>1056.4</ele>
        <time>2011-11-13T12:04:46Z</time>
      </trkpt>
      <trkpt lat="43.73681" lon="6.55255">
        <ele>1056.2</ele>
        <time>2011-11-13T12:04:51Z</time>
      </trkpt>
      <trkpt lat="43.73681" lon="6.55256">
        <ele>1056</ele>
        <time>2011-11-13T12:04:56Z</time>
      </trkpt>
      <trkpt lat="43.73682" lon="6.55256">
        <ele>1056.1</ele>
        <time>2011-11-13T12:05:01Z</time>
      </trkpt>
      <trkpt lat="43.73682" lon="6.55256">
        <ele>1056.7</ele>
        <time>2011-11-13T12:05:06Z</time>
      </trkpt>
      <trkpt lat="43.73681" lon="6.55256">
        <ele>1056.6</ele>
        <time>2011-11-13T12:05:11Z</time>
      </trkpt>
      <trkpt lat="43.73681" lon="6.55255">
        <ele>1056.1</ele>
        <time>2011-11-13T12:05:16Z</time>
      </trkpt>
      <trkpt lat="43.7368" lon="6.55255">
        <ele>1056.3</ele>
        <time>2011-11-13T12:05:21Z</time>
      </trkpt>
      <trkpt lat="43.73681" lon="6.55255">
        <ele>1056.9</ele>
        <time>2011-11-13T12:05:26Z</time>
      </trkpt>
      <trkpt lat="43.73681" lon="6.55255">
        <ele>1058.1</ele>
        <time>2011-11-13T12:05:31Z</time>
      </trkpt>
      <trkpt lat="43.73681" lon="6.55255">
        <ele>1057.8</ele>
        <time>2011-11-13T12:05:36Z</time>
      </trkpt>
      <trkpt lat="43.7368" lon="6.55257">
        <ele>1058.4</ele>
        <time>2011-11-13T12:05:41Z</time>
      </trkpt>
      <trkpt lat="43.7368" lon="6.55257">
        <ele>1058.5</ele>
        <time>2011-11-13T12:05:42Z</time>
      </trkpt>
      <trkpt lat="43.7368" lon="6.55258">
        <ele>1058.3</ele>
        <time>2011-11-13T12:05:51Z</time>
      </trkpt>
      <trkpt lat="43.7368" lon="6.55258">
        <ele>1058.2</ele>
        <time>2011-11-13T12:05:56Z</time>
      </trkpt>
      <trkpt lat="43.7368" lon="6.55258">
        <ele>1058</ele>
        <time>2011-11-13T12:06:01Z</time>
      </trkpt>
      <trkpt lat="43.7368" lon="6.55259">
        <ele>1058</ele>
        <time>2011-11-13T12:06:06Z</time>
      </trkpt>
      <trkpt lat="43.7368" lon="6.55259">
        <ele>1058</ele>
        <time>2011-11-13T12:06:11Z</time>
      </trkpt>
      <trkpt lat="43.7368" lon="6.55259">
        <ele>1058.3</ele>
        <time>2011-11-13T12:06:16Z</time>
      </trkpt>
      <trkpt lat="43.7368" lon="6.55259">
        <ele>1058.1</ele>
        <time>2011-11-13T12:06:21Z</time>
      </trkpt>
      <trkpt lat="43.7368" lon="6.55259">
        <ele>1057.9</ele>
        <time>2011-11-13T12:06:26Z</time>
      </trkpt>
      <trkpt lat="43.7368" lon="6.55259">
        <ele>1058.1</ele>
        <time>2011-11-13T12:06:31Z</time>
      </trkpt>
      <trkpt lat="43.7368" lon="6.55259">
        <ele>1058.2</ele>
        <time>2011-11-13T12:06:36Z</time>
      </trkpt>
      <trkpt lat="43.73681" lon="6.55258">
        <ele>1058.1</ele>
        <time>2011-11-13T12:06:41Z</time>
      </trkpt>
      <trkpt lat="43.73681" lon="6.55258">
        <ele>1058</ele>
        <time>2011-11-13T12:06:46Z</time>
      </trkpt>
      <trkpt lat="43.73681" lon="6.55258">
        <ele>1057.9</ele>
        <time>2011-11-13T12:06:47Z</time>
      </trkpt>
      <trkpt lat="43.73681" lon="6.55258">
        <ele>1058.1</ele>
        <time>2011-11-13T12:06:56Z</time>
      </trkpt>
      <trkpt lat="43.73681" lon="6.55257">
        <ele>1058</ele>
        <time>2011-11-13T12:07:01Z</time>
      </trkpt>
      <trkpt lat="43.73681" lon="6.55257">
        <ele>1057.9</ele>
        <time>2011-11-13T12:07:06Z</time>
      </trkpt>
      <trkpt lat="43.73681" lon="6.55258">
        <ele>1057.7</ele>
        <time>2011-11-13T12:07:11Z</time>
      </trkpt>
      <trkpt lat="43.73681" lon="6.55258">
        <ele>1057.9</ele>
        <time>2011-11-13T12:07:16Z</time>
      </trkpt>
      <trkpt lat="43.73681" lon="6.55258">
        <ele>1057.9</ele>
        <time>2011-11-13T12:07:21Z</time>
      </trkpt>
      <trkpt lat="43.73681" lon="6.55258">
        <ele>1057.8</ele>
        <time>2011-11-13T12:07:26Z</time>
      </trkpt>
      <trkpt lat="43.73681" lon="6.55258">
        <ele>1058.1</ele>
        <time>2011-11-13T12:07:31Z</time>
      </trkpt>
      <trkpt lat="43.73681" lon="6.55258">
        <ele>1058.5</ele>
        <time>2011-11-13T12:07:36Z</time>
      </trkpt>
      <trkpt lat="43.73681" lon="6.55259">
        <ele>1059.1</ele>
        <time>2011-11-13T12:07:41Z</time>
      </trkpt>
      <trkpt lat="43.73681" lon="6.55259">
        <ele>1059.4</ele>
        <time>2011-11-13T12:07:46Z</time>
      </trkpt>
      <trkpt lat="43.73681" lon="6.55258">
        <ele>1059.4</ele>
        <time>2011-11-13T12:07:51Z</time>
      </trkpt>
      <trkpt lat="43.73681" lon="6.55258">
        <ele>1059.4</ele>
        <time>2011-11-13T12:07:52Z</time>
      </trkpt>
      <trkpt lat="43.73681" lon="6.55258">
        <ele>1058.9</ele>
        <time>2011-11-13T12:08:01Z</time>
      </trkpt>
      <trkpt lat="43.73681" lon="6.55258">
        <ele>1059.2</ele>
        <time>2011-11-13T12:08:06Z</time>
      </trkpt>
      <trkpt lat="43.73681" lon="6.55258">
        <ele>1059.4</ele>
        <time>2011-11-13T12:08:11Z</time>
      </trkpt>
      <trkpt lat="43.73681" lon="6.55258">
        <ele>1059.3</ele>
        <time>2011-11-13T12:08:16Z</time>
      </trkpt>
      <trkpt lat="43.73681" lon="6.55258">
        <ele>1059.2</ele>
        <time>2011-11-13T12:08:21Z</time>
      </trkpt>
      <trkpt lat="43.7368" lon="6.55258">
        <ele>1059.3</ele>
        <time>2011-11-13T12:08:26Z</time>
      </trkpt>
      <trkpt lat="43.7368" lon="6.55258">
        <ele>1059.1</ele>
        <time>2011-11-13T12:08:31Z</time>
      </trkpt>
      <trkpt lat="43.73678" lon="6.55256">
        <ele>1058.9</ele>
        <time>2011-11-13T12:08:36Z</time>
      </trkpt>
      <trkpt lat="43.73677" lon="6.55255">
        <ele>1058.7</ele>
        <time>2011-11-13T12:08:41Z</time>
      </trkpt>
      <trkpt lat="43.73677" lon="6.55255">
        <ele>1058.2</ele>
        <time>2011-11-13T12:08:46Z</time>
      </trkpt>
      <trkpt lat="43.73677" lon="6.55255">
        <ele>1058.5</ele>
        <time>2011-11-13T12:08:51Z</time>
      </trkpt>
      <trkpt lat="43.73678" lon="6.55254">
        <ele>1058.7</ele>
        <time>2011-11-13T12:08:56Z</time>
      </trkpt>
      <trkpt lat="43.73678" lon="6.55254">
        <ele>1058.8</ele>
        <time>2011-11-13T12:08:57Z</time>
      </trkpt>
      <trkpt lat="43.73678" lon="6.55254">
        <ele>1058.8</ele>
        <time>2011-11-13T12:09:06Z</time>
      </trkpt>
      <trkpt lat="43.73678" lon="6.55254">
        <ele>1058.9</ele>
        <time>2011-11-13T12:09:11Z</time>
      </trkpt>
      <trkpt lat="43.73678" lon="6.55254">
        <ele>1059</ele>
        <time>2011-11-13T12:09:16Z</time>
      </trkpt>
      <trkpt lat="43.73678" lon="6.55254">
        <ele>1058.8</ele>
        <time>2011-11-13T12:09:21Z</time>
      </trkpt>
      <trkpt lat="43.73678" lon="6.55254">
        <ele>1058.8</ele>
        <time>2011-11-13T12:09:26Z</time>
      </trkpt>
      <trkpt lat="43.73678" lon="6.55254">
        <ele>1058.9</ele>
        <time>2011-11-13T12:09:31Z</time>
      </trkpt>
      <trkpt lat="43.73678" lon="6.55254">
        <ele>1058.9</ele>
        <time>2011-11-13T12:09:36Z</time>
      </trkpt>
      <trkpt lat="43.73678" lon="6.55254">
        <ele>1058.8</ele>
        <time>2011-11-13T12:09:41Z</time>
      </trkpt>
      <trkpt lat="43.73678" lon="6.55253">
        <ele>1058.9</ele>
        <time>2011-11-13T12:09:46Z</time>
      </trkpt>
      <trkpt lat="43.73679" lon="6.55253">
        <ele>1058.6</ele>
        <time>2011-11-13T12:09:51Z</time>
      </trkpt>
      <trkpt lat="43.73679" lon="6.55254">
        <ele>1059.1</ele>
        <time>2011-11-13T12:09:56Z</time>
      </trkpt>
      <trkpt lat="43.73679" lon="6.55254">
        <ele>1059</ele>
        <time>2011-11-13T12:10:01Z</time>
      </trkpt>
      <trkpt lat="43.73679" lon="6.55254">
        <ele>1059</ele>
        <time>2011-11-13T12:10:02Z</time>
      </trkpt>
      <trkpt lat="43.73679" lon="6.55254">
        <ele>1059.4</ele>
        <time>2011-11-13T12:10:11Z</time>
      </trkpt>
      <trkpt lat="43.73679" lon="6.55254">
        <ele>1059.3</ele>
        <time>2011-11-13T12:10:16Z</time>
      </trkpt>
      <trkpt lat="43.73678" lon="6.55254">
        <ele>1059.5</ele>
        <time>2011-11-13T12:10:21Z</time>
      </trkpt>
      <trkpt lat="43.73678" lon="6.55255">
        <ele>1059</ele>
        <time>2011-11-13T12:10:26Z</time>
      </trkpt>
      <trkpt lat="43.73677" lon="6.55255">
        <ele>1058.4</ele>
        <time>2011-11-13T12:10:31Z</time>
      </trkpt>
      <trkpt lat="43.73677" lon="6.55255">
        <ele>1058.1</ele>
        <time>2011-11-13T12:10:36Z</time>
      </trkpt>
      <trkpt lat="43.73677" lon="6.55255">
        <ele>1058.3</ele>
        <time>2011-11-13T12:10:41Z</time>
      </trkpt>
      <trkpt lat="43.73676" lon="6.55256">
        <ele>1058.7</ele>
        <time>2011-11-13T12:10:46Z</time>
      </trkpt>
      <trkpt lat="43.73676" lon="6.55256">
        <ele>1058.7</ele>
        <time>2011-11-13T12:10:51Z</time>
      </trkpt>
      <trkpt lat="43.73676" lon="6.55256">
        <ele>1058.4</ele>
        <time>2011-11-13T12:10:56Z</time>
      </trkpt>
      <trkpt lat="43.73676" lon="6.55256">
        <ele>1058.3</ele>
        <time>2011-11-13T12:11:01Z</time>
      </trkpt>
      <trkpt lat="43.73676" lon="6.55256">
        <ele>1058.5</ele>
        <time>2011-11-13T12:11:06Z</time>
      </trkpt>
      <trkpt lat="43.73676" lon="6.55256">
        <ele>1058.5</ele>
        <time>2011-11-13T12:11:07Z</time>
      </trkpt>
      <trkpt lat="43.73677" lon="6.55256">
        <ele>1059.1</ele>
        <time>2011-11-13T12:11:16Z</time>
      </trkpt>
      <trkpt lat="43.73677" lon="6.55256">
        <ele>1059.1</ele>
        <time>2011-11-13T12:11:21Z</time>
      </trkpt>
      <trkpt lat="43.73677" lon="6.55256">
        <ele>1058.9</ele>
        <time>2011-11-13T12:11:26Z</time>
      </trkpt>
      <trkpt lat="43.73677" lon="6.55256">
        <ele>1059.1</ele>
        <time>2011-11-13T12:11:31Z</time>
      </trkpt>
      <trkpt lat="43.73677" lon="6.55256">
        <ele>1059</ele>
        <time>2011-11-13T12:11:36Z</time>
      </trkpt>
      <trkpt lat="43.73677" lon="6.55256">
        <ele>1059.3</ele>
        <time>2011-11-13T12:11:41Z</time>
      </trkpt>
      <trkpt lat="43.73677" lon="6.55256">
        <ele>1058.9</ele>
        <time>2011-11-13T12:11:46Z</time>
      </trkpt>
      <trkpt lat="43.73677" lon="6.55256">
        <ele>1058.6</ele>
        <time>2011-11-13T12:11:51Z</time>
      </trkpt>
      <trkpt lat="43.73677" lon="6.55257">
        <ele>1058.9</ele>
        <time>2011-11-13T12:11:56Z</time>
      </trkpt>
      <trkpt lat="43.73676" lon="6.5526">
        <ele>1058.8</ele>
        <time>2011-11-13T12:12:01Z</time>
      </trkpt>
      <trkpt lat="43.73674" lon="6.55264">
        <ele>1059.2</ele>
        <time>2011-11-13T12:12:06Z</time>
      </trkpt>
      <trkpt lat="43.73673" lon="6.55267">
        <ele>1059.4</ele>
        <time>2011-11-13T12:12:11Z</time>
      </trkpt>
      <trkpt lat="43.73673" lon="6.55267">
        <ele>1059.4</ele>
        <time>2011-11-13T12:12:12Z</time>
      </trkpt>
      <trkpt lat="43.73669" lon="6.55274">
        <ele>1059.9</ele>
        <time>2011-11-13T12:12:21Z</time>
      </trkpt>
      <trkpt lat="43.73668" lon="6.55281">
        <ele>1060.5</ele>
        <time>2011-11-13T12:12:26Z</time>
      </trkpt>
      <trkpt lat="43.73668" lon="6.55286">
        <ele>1060.5</ele>
        <time>2011-11-13T12:12:31Z</time>
      </trkpt>
      <trkpt lat="43.73666" lon="6.55292">
        <ele>1060.7</ele>
        <time>2011-11-13T12:12:36Z</time>
      </trkpt>
      <trkpt lat="43.73663" lon="6.55299">
        <ele>1060.2</ele>
        <time>2011-11-13T12:12:41Z</time>
      </trkpt>
      <trkpt lat="43.73661" lon="6.55305">
        <ele>1059.9</ele>
        <time>2011-11-13T12:12:46Z</time>
      </trkpt>
      <trkpt lat="43.73659" lon="6.55312">
        <ele>1060.5</ele>
        <time>2011-11-13T12:12:51Z</time>
      </trkpt>
      <trkpt lat="43.73656" lon="6.55318">
        <ele>1061.1</ele>
        <time>2011-11-13T12:12:56Z</time>
      </trkpt>
      <trkpt lat="43.73653" lon="6.55324">
        <ele>1061.2</ele>
        <time>2011-11-13T12:13:01Z</time>
      </trkpt>
      <trkpt lat="43.73651" lon="6.5533">
        <ele>1062</ele>
        <time>2011-11-13T12:13:06Z</time>
      </trkpt>
      <trkpt lat="43.73648" lon="6.55336">
        <ele>1062.1</ele>
        <time>2011-11-13T12:13:11Z</time>
      </trkpt>
      <trkpt lat="43.73645" lon="6.55342">
        <ele>1062</ele>
        <time>2011-11-13T12:13:16Z</time>
      </trkpt>
      <trkpt lat="43.73645" lon="6.55343">
        <ele>1062.1</ele>
        <time>2011-11-13T12:13:17Z</time>
      </trkpt>
      <trkpt lat="43.73639" lon="6.55354">
        <ele>1063.1</ele>
        <time>2011-11-13T12:13:26Z</time>
      </trkpt>
      <trkpt lat="43.73636" lon="6.5536">
        <ele>1063.7</ele>
        <time>2011-11-13T12:13:31Z</time>
      </trkpt>
      <trkpt lat="43.73633" lon="6.55367">
        <ele>1064.1</ele>
        <time>2011-11-13T12:13:36Z</time>
      </trkpt>
      <trkpt lat="43.73631" lon="6.55374">
        <ele>1064.8</ele>
        <time>2011-11-13T12:13:41Z</time>
      </trkpt>
      <trkpt lat="43.73628" lon="6.5538">
        <ele>1064.3</ele>
        <time>2011-11-13T12:13:46Z</time>
      </trkpt>
      <trkpt lat="43.73627" lon="6.55387">
        <ele>1064.6</ele>
        <time>2011-11-13T12:13:51Z</time>
      </trkpt>
      <trkpt lat="43.73626" lon="6.55393">
        <ele>1065.1</ele>
        <time>2011-11-13T12:13:56Z</time>
      </trkpt>
      <trkpt lat="43.73624" lon="6.55399">
        <ele>1065.6</ele>
        <time>2011-11-13T12:14:01Z</time>
      </trkpt>
      <trkpt lat="43.73622" lon="6.55405">
        <ele>1065.7</ele>
        <time>2011-11-13T12:14:06Z</time>
      </trkpt>
      <trkpt lat="43.7362" lon="6.55411">
        <ele>1066.2</ele>
        <time>2011-11-13T12:14:11Z</time>
      </trkpt>
      <trkpt lat="43.73619" lon="6.55418">
        <ele>1066.3</ele>
        <time>2011-11-13T12:14:16Z</time>
      </trkpt>
      <trkpt lat="43.73618" lon="6.55424">
        <ele>1066.4</ele>
        <time>2011-11-13T12:14:21Z</time>
      </trkpt>
      <trkpt lat="43.73617" lon="6.55426">
        <ele>1066.5</ele>
        <time>2011-11-13T12:14:22Z</time>
      </trkpt>
      <trkpt lat="43.73615" lon="6.55437">
        <ele>1067.9</ele>
        <time>2011-11-13T12:14:31Z</time>
      </trkpt>
      <trkpt lat="43.73614" lon="6.55444">
        <ele>1068.2</ele>
        <time>2011-11-13T12:14:36Z</time>
      </trkpt>
      <trkpt lat="43.73613" lon="6.55451">
        <ele>1068.7</ele>
        <time>2011-11-13T12:14:41Z</time>
      </trkpt>
      <trkpt lat="43.73612" lon="6.55457">
        <ele>1069.2</ele>
        <time>2011-11-13T12:14:46Z</time>
      </trkpt>
      <trkpt lat="43.73612" lon="6.55464">
        <ele>1069.7</ele>
        <time>2011-11-13T12:14:51Z</time>
      </trkpt>
      <trkpt lat="43.73612" lon="6.55471">
        <ele>1070</ele>
        <time>2011-11-13T12:14:56Z</time>
      </trkpt>
      <trkpt lat="43.73612" lon="6.55477">
        <ele>1070</ele>
        <time>2011-11-13T12:15:01Z</time>
      </trkpt>
      <trkpt lat="43.73613" lon="6.55484">
        <ele>1070.7</ele>
        <time>2011-11-13T12:15:06Z</time>
      </trkpt>
      <trkpt lat="43.73613" lon="6.55491">
        <ele>1071</ele>
        <time>2011-11-13T12:15:11Z</time>
      </trkpt>
      <trkpt lat="43.73614" lon="6.55497">
        <ele>1071.3</ele>
        <time>2011-11-13T12:15:16Z</time>
      </trkpt>
      <trkpt lat="43.73615" lon="6.55505">
        <ele>1071.8</ele>
        <time>2011-11-13T12:15:21Z</time>
      </trkpt>
      <trkpt lat="43.73615" lon="6.55512">
        <ele>1072.2</ele>
        <time>2011-11-13T12:15:26Z</time>
      </trkpt>
      <trkpt lat="43.73615" lon="6.55513">
        <ele>1072.2</ele>
        <time>2011-11-13T12:15:27Z</time>
      </trkpt>
      <trkpt lat="43.73614" lon="6.55526">
        <ele>1073.3</ele>
        <time>2011-11-13T12:15:36Z</time>
      </trkpt>
      <trkpt lat="43.73613" lon="6.55533">
        <ele>1074.2</ele>
        <time>2011-11-13T12:15:41Z</time>
      </trkpt>
      <trkpt lat="43.73612" lon="6.5554">
        <ele>1074.9</ele>
        <time>2011-11-13T12:15:46Z</time>
      </trkpt>
      <trkpt lat="43.73611" lon="6.55546">
        <ele>1075.2</ele>
        <time>2011-11-13T12:15:51Z</time>
      </trkpt>
      <trkpt lat="43.7361" lon="6.55553">
        <ele>1075.7</ele>
        <time>2011-11-13T12:15:56Z</time>
      </trkpt>
      <trkpt lat="43.73609" lon="6.5556">
        <ele>1076.2</ele>
        <time>2011-11-13T12:16:01Z</time>
      </trkpt>
      <trkpt lat="43.73608" lon="6.55568">
        <ele>1076.6</ele>
        <time>2011-11-13T12:16:06Z</time>
      </trkpt>
      <trkpt lat="43.73607" lon="6.55575">
        <ele>1077.3</ele>
        <time>2011-11-13T12:16:11Z</time>
      </trkpt>
      <trkpt lat="43.73607" lon="6.55582">
        <ele>1077.7</ele>
        <time>2011-11-13T12:16:16Z</time>
      </trkpt>
      <trkpt lat="43.73607" lon="6.5559">
        <ele>1078</ele>
        <time>2011-11-13T12:16:21Z</time>
      </trkpt>
      <trkpt lat="43.73608" lon="6.55597">
        <ele>1078.4</ele>
        <time>2011-11-13T12:16:26Z</time>
      </trkpt>
      <trkpt lat="43.73609" lon="6.55604">
        <ele>1078</ele>
        <time>2011-11-13T12:16:31Z</time>
      </trkpt>
      <trkpt lat="43.73609" lon="6.55605">
        <ele>1077.8</ele>
        <time>2011-11-13T12:16:32Z</time>
      </trkpt>
      <trkpt lat="43.73612" lon="6.55617">
        <ele>1078.7</ele>
        <time>2011-11-13T12:16:41Z</time>
      </trkpt>
      <trkpt lat="43.73615" lon="6.55621">
        <ele>1078.8</ele>
        <time>2011-11-13T12:16:46Z</time>
      </trkpt>
      <trkpt lat="43.73617" lon="6.55627">
        <ele>1078.8</ele>
        <time>2011-11-13T12:16:51Z</time>
      </trkpt>
      <trkpt lat="43.73621" lon="6.55632">
        <ele>1079.3</ele>
        <time>2011-11-13T12:16:56Z</time>
      </trkpt>
      <trkpt lat="43.73623" lon="6.55638">
        <ele>1079.4</ele>
        <time>2011-11-13T12:17:01Z</time>
      </trkpt>
      <trkpt lat="43.73626" lon="6.55644">
        <ele>1079.5</ele>
        <time>2011-11-13T12:17:06Z</time>
      </trkpt>
      <trkpt lat="43.73629" lon="6.5565">
        <ele>1080</ele>
        <time>2011-11-13T12:17:11Z</time>
      </trkpt>
      <trkpt lat="43.73631" lon="6.55656">
        <ele>1079.8</ele>
        <time>2011-11-13T12:17:16Z</time>
      </trkpt>
      <trkpt lat="43.73633" lon="6.55662">
        <ele>1080.4</ele>
        <time>2011-11-13T12:17:21Z</time>
      </trkpt>
      <trkpt lat="43.73635" lon="6.55669">
        <ele>1080.7</ele>
        <time>2011-11-13T12:17:26Z</time>
      </trkpt>
      <trkpt lat="43.73637" lon="6.55676">
        <ele>1080.4</ele>
        <time>2011-11-13T12:17:31Z</time>
      </trkpt>
      <trkpt lat="43.73638" lon="6.55684">
        <ele>1080.9</ele>
        <time>2011-11-13T12:17:36Z</time>
      </trkpt>
      <trkpt lat="43.73638" lon="6.55685">
        <ele>1080.7</ele>
        <time>2011-11-13T12:17:37Z</time>
      </trkpt>
      <trkpt lat="43.7364" lon="6.55698">
        <ele>1080.8</ele>
        <time>2011-11-13T12:17:46Z</time>
      </trkpt>
      <trkpt lat="43.73641" lon="6.55705">
        <ele>1081.3</ele>
        <time>2011-11-13T12:17:51Z</time>
      </trkpt>
      <trkpt lat="43.73642" lon="6.55712">
        <ele>1082.1</ele>
        <time>2011-11-13T12:17:56Z</time>
      </trkpt>
      <trkpt lat="43.73643" lon="6.55719">
        <ele>1082</ele>
        <time>2011-11-13T12:18:01Z</time>
      </trkpt>
      <trkpt lat="43.73644" lon="6.55726">
        <ele>1082.4</ele>
        <time>2011-11-13T12:18:06Z</time>
      </trkpt>
      <trkpt lat="43.73645" lon="6.55733">
        <ele>1082.9</ele>
        <time>2011-11-13T12:18:11Z</time>
      </trkpt>
      <trkpt lat="43.73646" lon="6.55741">
        <ele>1083.1</ele>
        <time>2011-11-13T12:18:16Z</time>
      </trkpt>
      <trkpt lat="43.73647" lon="6.55748">
        <ele>1083.3</ele>
        <time>2011-11-13T12:18:21Z</time>
      </trkpt>
      <trkpt lat="43.73649" lon="6.55755">
        <ele>1083.3</ele>
        <time>2011-11-13T12:18:26Z</time>
      </trkpt>
      <trkpt lat="43.73651" lon="6.55762">
        <ele>1083.8</ele>
        <time>2011-11-13T12:18:31Z</time>
      </trkpt>
      <trkpt lat="43.73654" lon="6.55769">
        <ele>1083.9</ele>
        <time>2011-11-13T12:18:36Z</time>
      </trkpt>
      <trkpt lat="43.73658" lon="6.55775">
        <ele>1083.7</ele>
        <time>2011-11-13T12:18:41Z</time>
      </trkpt>
      <trkpt lat="43.73658" lon="6.55776">
        <ele>1083.6</ele>
        <time>2011-11-13T12:18:42Z</time>
      </trkpt>
      <trkpt lat="43.73665" lon="6.55786">
        <ele>1084.3</ele>
        <time>2011-11-13T12:18:51Z</time>
      </trkpt>
      <trkpt lat="43.73669" lon="6.5579">
        <ele>1084.3</ele>
        <time>2011-11-13T12:18:56Z</time>
      </trkpt>
      <trkpt lat="43.73674" lon="6.55793">
        <ele>1084.4</ele>
        <time>2011-11-13T12:19:01Z</time>
      </trkpt>
      <trkpt lat="43.73678" lon="6.55797">
        <ele>1084.3</ele>
        <time>2011-11-13T12:19:06Z</time>
      </trkpt>
      <trkpt lat="43.73683" lon="6.558">
        <ele>1084.6</ele>
        <time>2011-11-13T12:19:11Z</time>
      </trkpt>
      <trkpt lat="43.73687" lon="6.55804">
        <ele>1084.5</ele>
        <time>2011-11-13T12:19:16Z</time>
      </trkpt>
      <trkpt lat="43.73692" lon="6.55808">
        <ele>1085</ele>
        <time>2011-11-13T12:19:21Z</time>
      </trkpt>
      <trkpt lat="43.73696" lon="6.55813">
        <ele>1085.2</ele>
        <time>2011-11-13T12:19:26Z</time>
      </trkpt>
      <trkpt lat="43.737" lon="6.55818">
        <ele>1085.3</ele>
        <time>2011-11-13T12:19:31Z</time>
      </trkpt>
      <trkpt lat="43.73704" lon="6.55822">
        <ele>1085.9</ele>
        <time>2011-11-13T12:19:36Z</time>
      </trkpt>
      <trkpt lat="43.73708" lon="6.55825">
        <ele>1085.8</ele>
        <time>2011-11-13T12:19:41Z</time>
      </trkpt>
      <trkpt lat="43.73712" lon="6.55827">
        <ele>1085.8</ele>
        <time>2011-11-13T12:19:46Z</time>
      </trkpt>
      <trkpt lat="43.73713" lon="6.55828">
        <ele>1085.7</ele>
        <time>2011-11-13T12:19:47Z</time>
      </trkpt>
      <trkpt lat="43.73722" lon="6.5583">
        <ele>1086.2</ele>
        <time>2011-11-13T12:19:56Z</time>
      </trkpt>
      <trkpt lat="43.73728" lon="6.55832">
        <ele>1086.2</ele>
        <time>2011-11-13T12:20:01Z</time>
      </trkpt>
      <trkpt lat="43.73733" lon="6.55835">
        <ele>1086.1</ele>
        <time>2011-11-13T12:20:06Z</time>
      </trkpt>
      <trkpt lat="43.73737" lon="6.55836">
        <ele>1085.7</ele>
        <time>2011-11-13T12:20:11Z</time>
      </trkpt>
      <trkpt lat="43.73742" lon="6.55838">
        <ele>1086.3</ele>
        <time>2011-11-13T12:20:16Z</time>
      </trkpt>
      <trkpt lat="43.73747" lon="6.55838">
        <ele>1086.6</ele>
        <time>2011-11-13T12:20:21Z</time>
      </trkpt>
      <trkpt lat="43.73752" lon="6.55839">
        <ele>1086.7</ele>
        <time>2011-11-13T12:20:26Z</time>
      </trkpt>
      <trkpt lat="43.73757" lon="6.55842">
        <ele>1086.7</ele>
        <time>2011-11-13T12:20:31Z</time>
      </trkpt>
      <trkpt lat="43.73761" lon="6.55847">
        <ele>1086.3</ele>
        <time>2011-11-13T12:20:36Z</time>
      </trkpt>
      <trkpt lat="43.73764" lon="6.55855">
        <ele>1086.4</ele>
        <time>2011-11-13T12:20:41Z</time>
      </trkpt>
      <trkpt lat="43.73763" lon="6.55861">
        <ele>1086.3</ele>
        <time>2011-11-13T12:20:46Z</time>
      </trkpt>
      <trkpt lat="43.73762" lon="6.55866">
        <ele>1086.3</ele>
        <time>2011-11-13T12:20:51Z</time>
      </trkpt>
      <trkpt lat="43.73761" lon="6.55866">
        <ele>1086.3</ele>
        <time>2011-11-13T12:20:52Z</time>
      </trkpt>
      <trkpt lat="43.73758" lon="6.55877">
        <ele>1085.2</ele>
        <time>2011-11-13T12:21:01Z</time>
      </trkpt>
      <trkpt lat="43.73757" lon="6.55883">
        <ele>1085.4</ele>
        <time>2011-11-13T12:21:06Z</time>
      </trkpt>
      <trkpt lat="43.73756" lon="6.55891">
        <ele>1085.1</ele>
        <time>2011-11-13T12:21:11Z</time>
      </trkpt>
      <trkpt lat="43.73756" lon="6.55899">
        <ele>1084.9</ele>
        <time>2011-11-13T12:21:16Z</time>
      </trkpt>
      <trkpt lat="43.73755" lon="6.55907">
        <ele>1084.7</ele>
        <time>2011-11-13T12:21:21Z</time>
      </trkpt>
      <trkpt lat="43.73755" lon="6.55914">
        <ele>1084.3</ele>
        <time>2011-11-13T12:21:26Z</time>
      </trkpt>
      <trkpt lat="43.73756" lon="6.55921">
        <ele>1084.3</ele>
        <time>2011-11-13T12:21:31Z</time>
      </trkpt>
      <trkpt lat="43.73756" lon="6.5593">
        <ele>1083.6</ele>
        <time>2011-11-13T12:21:36Z</time>
      </trkpt>
      <trkpt lat="43.73757" lon="6.55937">
        <ele>1083.3</ele>
        <time>2011-11-13T12:21:41Z</time>
      </trkpt>
      <trkpt lat="43.73757" lon="6.55945">
        <ele>1083.5</ele>
        <time>2011-11-13T12:21:46Z</time>
      </trkpt>
      <trkpt lat="43.73757" lon="6.55953">
        <ele>1083</ele>
        <time>2011-11-13T12:21:51Z</time>
      </trkpt>
      <trkpt lat="43.73757" lon="6.55962">
        <ele>1082.9</ele>
        <time>2011-11-13T12:21:56Z</time>
      </trkpt>
      <trkpt lat="43.73757" lon="6.55964">
        <ele>1082.8</ele>
        <time>2011-11-13T12:21:57Z</time>
      </trkpt>
      <trkpt lat="43.73754" lon="6.55977">
        <ele>1082.8</ele>
        <time>2011-11-13T12:22:06Z</time>
      </trkpt>
      <trkpt lat="43.73752" lon="6.55985">
        <ele>1081.9</ele>
        <time>2011-11-13T12:22:11Z</time>
      </trkpt>
      <trkpt lat="43.73749" lon="6.55992">
        <ele>1081.7</ele>
        <time>2011-11-13T12:22:16Z</time>
      </trkpt>
      <trkpt lat="43.73746" lon="6.56">
        <ele>1081.5</ele>
        <time>2011-11-13T12:22:21Z</time>
      </trkpt>
      <trkpt lat="43.73742" lon="6.56006">
        <ele>1080.8</ele>
        <time>2011-11-13T12:22:26Z</time>
      </trkpt>
      <trkpt lat="43.73738" lon="6.56012">
        <ele>1080.8</ele>
        <time>2011-11-13T12:22:31Z</time>
      </trkpt>
      <trkpt lat="43.73733" lon="6.56017">
        <ele>1080.6</ele>
        <time>2011-11-13T12:22:36Z</time>
      </trkpt>
      <trkpt lat="43.73729" lon="6.56021">
        <ele>1080</ele>
        <time>2011-11-13T12:22:41Z</time>
      </trkpt>
      <trkpt lat="43.73725" lon="6.56026">
        <ele>1079.1</ele>
        <time>2011-11-13T12:22:46Z</time>
      </trkpt>
      <trkpt lat="43.7372" lon="6.56031">
        <ele>1078.7</ele>
        <time>2011-11-13T12:22:51Z</time>
      </trkpt>
      <trkpt lat="43.73715" lon="6.56036">
        <ele>1078.3</ele>
        <time>2011-11-13T12:22:56Z</time>
      </trkpt>
      <trkpt lat="43.7371" lon="6.5604">
        <ele>1077.8</ele>
        <time>2011-11-13T12:23:01Z</time>
      </trkpt>
      <trkpt lat="43.7371" lon="6.56041">
        <ele>1077.7</ele>
        <time>2011-11-13T12:23:02Z</time>
      </trkpt>
      <trkpt lat="43.73701" lon="6.5605">
        <ele>1076.7</ele>
        <time>2011-11-13T12:23:11Z</time>
      </trkpt>
      <trkpt lat="43.73697" lon="6.56054">
        <ele>1076.9</ele>
        <time>2011-11-13T12:23:16Z</time>
      </trkpt>
      <trkpt lat="43.73693" lon="6.56059">
        <ele>1077.2</ele>
        <time>2011-11-13T12:23:21Z</time>
      </trkpt>
      <trkpt lat="43.73688" lon="6.56064">
        <ele>1076.8</ele>
        <time>2011-11-13T12:23:26Z</time>
      </trkpt>
      <trkpt lat="43.73684" lon="6.56069">
        <ele>1076.9</ele>
        <time>2011-11-13T12:23:31Z</time>
      </trkpt>
      <trkpt lat="43.7368" lon="6.56074">
        <ele>1076.7</ele>
        <time>2011-11-13T12:23:36Z</time>
      </trkpt>
      <trkpt lat="43.73676" lon="6.5608">
        <ele>1075.9</ele>
        <time>2011-11-13T12:23:41Z</time>
      </trkpt>
      <trkpt lat="43.73672" lon="6.56086">
        <ele>1075.8</ele>
        <time>2011-11-13T12:23:46Z</time>
      </trkpt>
      <trkpt lat="43.73668" lon="6.56092">
        <ele>1075.2</ele>
        <time>2011-11-13T12:23:51Z</time>
      </trkpt>
      <trkpt lat="43.73665" lon="6.56099">
        <ele>1075</ele>
        <time>2011-11-13T12:23:56Z</time>
      </trkpt>
      <trkpt lat="43.73662" lon="6.56106">
        <ele>1075.5</ele>
        <time>2011-11-13T12:24:01Z</time>
      </trkpt>
      <trkpt lat="43.73659" lon="6.56113">
        <ele>1075.3</ele>
        <time>2011-11-13T12:24:06Z</time>
      </trkpt>
      <trkpt lat="43.73658" lon="6.56115">
        <ele>1075.2</ele>
        <time>2011-11-13T12:24:07Z</time>
      </trkpt>
      <trkpt lat="43.73653" lon="6.56127">
        <ele>1075.1</ele>
        <time>2011-11-13T12:24:16Z</time>
      </trkpt>
      <trkpt lat="43.7365" lon="6.56135">
        <ele>1075</ele>
        <time>2011-11-13T12:24:21Z</time>
      </trkpt>
      <trkpt lat="43.73647" lon="6.56142">
        <ele>1074.3</ele>
        <time>2011-11-13T12:24:26Z</time>
      </trkpt>
      <trkpt lat="43.73644" lon="6.5615">
        <ele>1074.2</ele>
        <time>2011-11-13T12:24:31Z</time>
      </trkpt>
      <trkpt lat="43.73641" lon="6.56157">
        <ele>1074.3</ele>
        <time>2011-11-13T12:24:36Z</time>
      </trkpt>
      <trkpt lat="43.73639" lon="6.56165">
        <ele>1073.9</ele>
        <time>2011-11-13T12:24:41Z</time>
      </trkpt>
      <trkpt lat="43.73637" lon="6.56173">
        <ele>1074.2</ele>
        <time>2011-11-13T12:24:46Z</time>
      </trkpt>
      <trkpt lat="43.73636" lon="6.56181">
        <ele>1073.8</ele>
        <time>2011-11-13T12:24:51Z</time>
      </trkpt>
      <trkpt lat="43.73636" lon="6.56189">
        <ele>1073.5</ele>
        <time>2011-11-13T12:24:56Z</time>
      </trkpt>
      <trkpt lat="43.73638" lon="6.56196">
        <ele>1073.4</ele>
        <time>2011-11-13T12:25:01Z</time>
      </trkpt>
      <trkpt lat="43.7364" lon="6.56203">
        <ele>1073.2</ele>
        <time>2011-11-13T12:25:06Z</time>
      </trkpt>
      <trkpt lat="43.73642" lon="6.5621">
        <ele>1072.8</ele>
        <time>2011-11-13T12:25:11Z</time>
      </trkpt>
      <trkpt lat="43.73643" lon="6.56211">
        <ele>1073</ele>
        <time>2011-11-13T12:25:12Z</time>
      </trkpt>
      <trkpt lat="43.73647" lon="6.56225">
        <ele>1072.8</ele>
        <time>2011-11-13T12:25:21Z</time>
      </trkpt>
      <trkpt lat="43.73649" lon="6.56232">
        <ele>1072.9</ele>
        <time>2011-11-13T12:25:26Z</time>
      </trkpt>
      <trkpt lat="43.73649" lon="6.5624">
        <ele>1072.7</ele>
        <time>2011-11-13T12:25:31Z</time>
      </trkpt>
      <trkpt lat="43.7365" lon="6.56247">
        <ele>1073.1</ele>
        <time>2011-11-13T12:25:36Z</time>
      </trkpt>
      <trkpt lat="43.73651" lon="6.56255">
        <ele>1073.2</ele>
        <time>2011-11-13T12:25:41Z</time>
      </trkpt>
      <trkpt lat="43.7365" lon="6.56261">
        <ele>1073</ele>
        <time>2011-11-13T12:25:46Z</time>
      </trkpt>
      <trkpt lat="43.73647" lon="6.56268">
        <ele>1072.7</ele>
        <time>2011-11-13T12:25:51Z</time>
      </trkpt>
      <trkpt lat="43.73643" lon="6.56272">
        <ele>1073</ele>
        <time>2011-11-13T12:25:56Z</time>
      </trkpt>
      <trkpt lat="43.73638" lon="6.56275">
        <ele>1073.2</ele>
        <time>2011-11-13T12:26:01Z</time>
      </trkpt>
      <trkpt lat="43.73633" lon="6.56277">
        <ele>1073.4</ele>
        <time>2011-11-13T12:26:06Z</time>
      </trkpt>
      <trkpt lat="43.73628" lon="6.56279">
        <ele>1073.1</ele>
        <time>2011-11-13T12:26:11Z</time>
      </trkpt>
      <trkpt lat="43.73622" lon="6.5628">
        <ele>1073.7</ele>
        <time>2011-11-13T12:26:16Z</time>
      </trkpt>
      <trkpt lat="43.73621" lon="6.5628">
        <ele>1073.8</ele>
        <time>2011-11-13T12:26:17Z</time>
      </trkpt>
      <trkpt lat="43.7361" lon="6.56283">
        <ele>1073.1</ele>
        <time>2011-11-13T12:26:26Z</time>
      </trkpt>
      <trkpt lat="43.73602" lon="6.56282">
        <ele>1073.4</ele>
        <time>2011-11-13T12:26:31Z</time>
      </trkpt>
      <trkpt lat="43.73596" lon="6.56283">
        <ele>1073.3</ele>
        <time>2011-11-13T12:26:36Z</time>
      </trkpt>
      <trkpt lat="43.7359" lon="6.56283">
        <ele>1072.9</ele>
        <time>2011-11-13T12:26:41Z</time>
      </trkpt>
      <trkpt lat="43.73585" lon="6.56286">
        <ele>1074.1</ele>
        <time>2011-11-13T12:26:46Z</time>
      </trkpt>
      <trkpt lat="43.73581" lon="6.5629">
        <ele>1074.2</ele>
        <time>2011-11-13T12:26:51Z</time>
      </trkpt>
      <trkpt lat="43.73576" lon="6.56293">
        <ele>1074.3</ele>
        <time>2011-11-13T12:26:56Z</time>
      </trkpt>
      <trkpt lat="43.73571" lon="6.56298">
        <ele>1074.5</ele>
        <time>2011-11-13T12:27:01Z</time>
      </trkpt>
      <trkpt lat="43.73566" lon="6.56304">
        <ele>1073.8</ele>
        <time>2011-11-13T12:27:06Z</time>
      </trkpt>
      <trkpt lat="43.73562" lon="6.56309">
        <ele>1075</ele>
        <time>2011-11-13T12:27:11Z</time>
      </trkpt>
      <trkpt lat="43.73557" lon="6.56315">
        <ele>1074.5</ele>
        <time>2011-11-13T12:27:16Z</time>
      </trkpt>
      <trkpt lat="43.73552" lon="6.56321">
        <ele>1074.2</ele>
        <time>2011-11-13T12:27:21Z</time>
      </trkpt>
      <trkpt lat="43.73551" lon="6.56322">
        <ele>1074.2</ele>
        <time>2011-11-13T12:27:22Z</time>
      </trkpt>
      <trkpt lat="43.73542" lon="6.56331">
        <ele>1074.2</ele>
        <time>2011-11-13T12:27:31Z</time>
      </trkpt>
      <trkpt lat="43.73538" lon="6.56336">
        <ele>1074.3</ele>
        <time>2011-11-13T12:27:36Z</time>
      </trkpt>
      <trkpt lat="43.73533" lon="6.5634">
        <ele>1074.8</ele>
        <time>2011-11-13T12:27:41Z</time>
      </trkpt>
      <trkpt lat="43.73529" lon="6.56346">
        <ele>1074.8</ele>
        <time>2011-11-13T12:27:46Z</time>
      </trkpt>
      <trkpt lat="43.73524" lon="6.56349">
        <ele>1075.3</ele>
        <time>2011-11-13T12:27:51Z</time>
      </trkpt>
      <trkpt lat="43.73519" lon="6.56353">
        <ele>1075.2</ele>
        <time>2011-11-13T12:27:56Z</time>
      </trkpt>
      <trkpt lat="43.73514" lon="6.56356">
        <ele>1075.4</ele>
        <time>2011-11-13T12:28:01Z</time>
      </trkpt>
      <trkpt lat="43.73509" lon="6.5636">
        <ele>1075.7</ele>
        <time>2011-11-13T12:28:06Z</time>
      </trkpt>
      <trkpt lat="43.73504" lon="6.56364">
        <ele>1075.5</ele>
        <time>2011-11-13T12:28:11Z</time>
      </trkpt>
      <trkpt lat="43.73499" lon="6.56368">
        <ele>1075.5</ele>
        <time>2011-11-13T12:28:16Z</time>
      </trkpt>
      <trkpt lat="43.73494" lon="6.56371">
        <ele>1075.8</ele>
        <time>2011-11-13T12:28:21Z</time>
      </trkpt>
      <trkpt lat="43.73489" lon="6.56374">
        <ele>1076.3</ele>
        <time>2011-11-13T12:28:26Z</time>
      </trkpt>
      <trkpt lat="43.73487" lon="6.56375">
        <ele>1076.3</ele>
        <time>2011-11-13T12:28:27Z</time>
      </trkpt>
      <trkpt lat="43.73478" lon="6.56378">
        <ele>1077.3</ele>
        <time>2011-11-13T12:28:36Z</time>
      </trkpt>
      <trkpt lat="43.73473" lon="6.5638">
        <ele>1077.2</ele>
        <time>2011-11-13T12:28:41Z</time>
      </trkpt>
      <trkpt lat="43.73467" lon="6.56383">
        <ele>1077.8</ele>
        <time>2011-11-13T12:28:46Z</time>
      </trkpt>
      <trkpt lat="43.73462" lon="6.56387">
        <ele>1077.8</ele>
        <time>2011-11-13T12:28:51Z</time>
      </trkpt>
      <trkpt lat="43.73458" lon="6.56391">
        <ele>1079</ele>
        <time>2011-11-13T12:28:56Z</time>
      </trkpt>
      <trkpt lat="43.73453" lon="6.56396">
        <ele>1079.2</ele>
        <time>2011-11-13T12:29:01Z</time>
      </trkpt>
      <trkpt lat="43.73449" lon="6.56401">
        <ele>1079.9</ele>
        <time>2011-11-13T12:29:06Z</time>
      </trkpt>
      <trkpt lat="43.73445" lon="6.56406">
        <ele>1080.5</ele>
        <time>2011-11-13T12:29:11Z</time>
      </trkpt>
      <trkpt lat="43.73441" lon="6.56412">
        <ele>1081</ele>
        <time>2011-11-13T12:29:16Z</time>
      </trkpt>
      <trkpt lat="43.73437" lon="6.56417">
        <ele>1081.4</ele>
        <time>2011-11-13T12:29:21Z</time>
      </trkpt>
      <trkpt lat="43.73432" lon="6.56422">
        <ele>1081.6</ele>
        <time>2011-11-13T12:29:26Z</time>
      </trkpt>
      <trkpt lat="43.73428" lon="6.56427">
        <ele>1082</ele>
        <time>2011-11-13T12:29:31Z</time>
      </trkpt>
      <trkpt lat="43.73427" lon="6.56428">
        <ele>1082.1</ele>
        <time>2011-11-13T12:29:32Z</time>
      </trkpt>
      <trkpt lat="43.73419" lon="6.56436">
        <ele>1083.1</ele>
        <time>2011-11-13T12:29:41Z</time>
      </trkpt>
      <trkpt lat="43.73415" lon="6.56441">
        <ele>1083.6</ele>
        <time>2011-11-13T12:29:46Z</time>
      </trkpt>
      <trkpt lat="43.7341" lon="6.56445">
        <ele>1083.8</ele>
        <time>2011-11-13T12:29:51Z</time>
      </trkpt>
      <trkpt lat="43.73406" lon="6.56448">
        <ele>1084.1</ele>
        <time>2011-11-13T12:29:56Z</time>
      </trkpt>
      <trkpt lat="43.73401" lon="6.56452">
        <ele>1084.9</ele>
        <time>2011-11-13T12:30:01Z</time>
      </trkpt>
      <trkpt lat="43.73396" lon="6.56456">
        <ele>1085</ele>
        <time>2011-11-13T12:30:06Z</time>
      </trkpt>
      <trkpt lat="43.73391" lon="6.5646">
        <ele>1085.4</ele>
        <time>2011-11-13T12:30:11Z</time>
      </trkpt>
      <trkpt lat="43.73386" lon="6.56463">
        <ele>1086</ele>
        <time>2011-11-13T12:30:16Z</time>
      </trkpt>
      <trkpt lat="43.73381" lon="6.56465">
        <ele>1086.3</ele>
        <time>2011-11-13T12:30:21Z</time>
      </trkpt>
      <trkpt lat="43.73375" lon="6.56467">
        <ele>1086.8</ele>
        <time>2011-11-13T12:30:26Z</time>
      </trkpt>
      <trkpt lat="43.73369" lon="6.56469">
        <ele>1086.6</ele>
        <time>2011-11-13T12:30:31Z</time>
      </trkpt>
      <trkpt lat="43.73364" lon="6.5647">
        <ele>1087</ele>
        <time>2011-11-13T12:30:36Z</time>
      </trkpt>
      <trkpt lat="43.73362" lon="6.5647">
        <ele>1087.2</ele>
        <time>2011-11-13T12:30:37Z</time>
      </trkpt>
      <trkpt lat="43.73353" lon="6.56469">
        <ele>1087.3</ele>
        <time>2011-11-13T12:30:46Z</time>
      </trkpt>
      <trkpt lat="43.73347" lon="6.56469">
        <ele>1088.2</ele>
        <time>2011-11-13T12:30:51Z</time>
      </trkpt>
      <trkpt lat="43.73341" lon="6.56471">
        <ele>1088.1</ele>
        <time>2011-11-13T12:30:56Z</time>
      </trkpt>
      <trkpt lat="43.73336" lon="6.56474">
        <ele>1087.8</ele>
        <time>2011-11-13T12:31:01Z</time>
      </trkpt>
      <trkpt lat="43.7333" lon="6.56478">
        <ele>1088</ele>
        <time>2011-11-13T12:31:06Z</time>
      </trkpt>
      <trkpt lat="43.73325" lon="6.56481">
        <ele>1087.8</ele>
        <time>2011-11-13T12:31:11Z</time>
      </trkpt>
      <trkpt lat="43.7332" lon="6.56484">
        <ele>1088.1</ele>
        <time>2011-11-13T12:31:16Z</time>
      </trkpt>
      <trkpt lat="43.73314" lon="6.56488">
        <ele>1087.9</ele>
        <time>2011-11-13T12:31:21Z</time>
      </trkpt>
      <trkpt lat="43.73309" lon="6.56492">
        <ele>1088.2</ele>
        <time>2011-11-13T12:31:26Z</time>
      </trkpt>
      <trkpt lat="43.73303" lon="6.56495">
        <ele>1088.6</ele>
        <time>2011-11-13T12:31:31Z</time>
      </trkpt>
      <trkpt lat="43.73298" lon="6.56497">
        <ele>1088.7</ele>
        <time>2011-11-13T12:31:36Z</time>
      </trkpt>
      <trkpt lat="43.73292" lon="6.56497">
        <ele>1088.3</ele>
        <time>2011-11-13T12:31:41Z</time>
      </trkpt>
      <trkpt lat="43.73291" lon="6.56497">
        <ele>1088.4</ele>
        <time>2011-11-13T12:31:42Z</time>
      </trkpt>
      <trkpt lat="43.73281" lon="6.56499">
        <ele>1088.5</ele>
        <time>2011-11-13T12:31:51Z</time>
      </trkpt>
      <trkpt lat="43.73276" lon="6.56499">
        <ele>1089.6</ele>
        <time>2011-11-13T12:31:56Z</time>
      </trkpt>
      <trkpt lat="43.7327" lon="6.56501">
        <ele>1090.3</ele>
        <time>2011-11-13T12:32:01Z</time>
      </trkpt>
      <trkpt lat="43.73266" lon="6.56506">
        <ele>1090.8</ele>
        <time>2011-11-13T12:32:06Z</time>
      </trkpt>
      <trkpt lat="43.73263" lon="6.56512">
        <ele>1090.8</ele>
        <time>2011-11-13T12:32:11Z</time>
      </trkpt>
      <trkpt lat="43.73261" lon="6.5652">
        <ele>1090.7</ele>
        <time>2011-11-13T12:32:16Z</time>
      </trkpt>
      <trkpt lat="43.73259" lon="6.56528">
        <ele>1091</ele>
        <time>2011-11-13T12:32:21Z</time>
      </trkpt>
      <trkpt lat="43.73256" lon="6.56535">
        <ele>1091</ele>
        <time>2011-11-13T12:32:26Z</time>
      </trkpt>
      <trkpt lat="43.73254" lon="6.5654">
        <ele>1091.1</ele>
        <time>2011-11-13T12:32:31Z</time>
      </trkpt>
      <trkpt lat="43.73254" lon="6.5654">
        <ele>1090.7</ele>
        <time>2011-11-13T12:32:36Z</time>
      </trkpt>
      <trkpt lat="43.73253" lon="6.56541">
        <ele>1090.2</ele>
        <time>2011-11-13T12:32:41Z</time>
      </trkpt>
      <trkpt lat="43.73252" lon="6.56541">
        <ele>1090.1</ele>
        <time>2011-11-13T12:32:46Z</time>
      </trkpt>
      <trkpt lat="43.73252" lon="6.5654">
        <ele>1090</ele>
        <time>2011-11-13T12:32:47Z</time>
      </trkpt>
      <trkpt lat="43.73252" lon="6.56541">
        <ele>1091</ele>
        <time>2011-11-13T12:32:56Z</time>
      </trkpt>
      <trkpt lat="43.73252" lon="6.56541">
        <ele>1091.1</ele>
        <time>2011-11-13T12:33:01Z</time>
      </trkpt>
      <trkpt lat="43.73251" lon="6.56541">
        <ele>1091</ele>
        <time>2011-11-13T12:33:08Z</time>
      </trkpt>
      <trkpt lat="43.7325" lon="6.56539">
        <ele>1091</ele>
        <time>2011-11-13T12:33:16Z</time>
      </trkpt>
      <trkpt lat="43.73249" lon="6.56539">
        <ele>1091.2</ele>
        <time>2011-11-13T12:33:21Z</time>
      </trkpt>
      <trkpt lat="43.7325" lon="6.56539">
        <ele>1091.4</ele>
        <time>2011-11-13T12:33:26Z</time>
      </trkpt>
      <trkpt lat="43.73251" lon="6.5654">
        <ele>1091.4</ele>
        <time>2011-11-13T12:33:31Z</time>
      </trkpt>
      <trkpt lat="43.73251" lon="6.5654">
        <ele>1091.4</ele>
        <time>2011-11-13T12:33:36Z</time>
      </trkpt>
      <trkpt lat="43.7325" lon="6.5654">
        <ele>1091.4</ele>
        <time>2011-11-13T12:33:41Z</time>
      </trkpt>
      <trkpt lat="43.7325" lon="6.56541">
        <ele>1091.2</ele>
        <time>2011-11-13T12:33:46Z</time>
      </trkpt>
      <trkpt lat="43.73248" lon="6.56542">
        <ele>1091.5</ele>
        <time>2011-11-13T12:33:51Z</time>
      </trkpt>
      <trkpt lat="43.73248" lon="6.56542">
        <ele>1091.5</ele>
        <time>2011-11-13T12:33:52Z</time>
      </trkpt>
      <trkpt lat="43.73244" lon="6.56539">
        <ele>1091.7</ele>
        <time>2011-11-13T12:34:01Z</time>
      </trkpt>
      <trkpt lat="43.73244" lon="6.56539">
        <ele>1091.3</ele>
        <time>2011-11-13T12:34:06Z</time>
      </trkpt>
      <trkpt lat="43.73245" lon="6.56539">
        <ele>1091.7</ele>
        <time>2011-11-13T12:34:11Z</time>
      </trkpt>
      <trkpt lat="43.73245" lon="6.5654">
        <ele>1091.6</ele>
        <time>2011-11-13T12:34:16Z</time>
      </trkpt>
      <trkpt lat="43.73245" lon="6.5654">
        <ele>1091.5</ele>
        <time>2011-11-13T12:34:21Z</time>
      </trkpt>
      <trkpt lat="43.73244" lon="6.56537">
        <ele>1091.5</ele>
        <time>2011-11-13T12:34:26Z</time>
      </trkpt>
      <trkpt lat="43.73243" lon="6.56532">
        <ele>1091.4</ele>
        <time>2011-11-13T12:34:31Z</time>
      </trkpt>
      <trkpt lat="43.73242" lon="6.56528">
        <ele>1091.5</ele>
        <time>2011-11-13T12:34:36Z</time>
      </trkpt>
      <trkpt lat="43.73242" lon="6.56526">
        <ele>1091.5</ele>
        <time>2011-11-13T12:34:41Z</time>
      </trkpt>
      <trkpt lat="43.73242" lon="6.56527">
        <ele>1091.7</ele>
        <time>2011-11-13T12:34:46Z</time>
      </trkpt>
      <trkpt lat="43.73243" lon="6.56528">
        <ele>1091.8</ele>
        <time>2011-11-13T12:34:51Z</time>
      </trkpt>
      <trkpt lat="43.73243" lon="6.56528">
        <ele>1091.8</ele>
        <time>2011-11-13T12:34:56Z</time>
      </trkpt>
      <trkpt lat="43.73243" lon="6.56528">
        <ele>1091.7</ele>
        <time>2011-11-13T12:34:57Z</time>
      </trkpt>
      <trkpt lat="43.73244" lon="6.56532">
        <ele>1091.1</ele>
        <time>2011-11-13T12:35:06Z</time>
      </trkpt>
      <trkpt lat="43.73245" lon="6.56533">
        <ele>1091.3</ele>
        <time>2011-11-13T12:35:11Z</time>
      </trkpt>
      <trkpt lat="43.73245" lon="6.56534">
        <ele>1091.2</ele>
        <time>2011-11-13T12:35:16Z</time>
      </trkpt>
      <trkpt lat="43.73245" lon="6.56535">
        <ele>1091.6</ele>
        <time>2011-11-13T12:35:21Z</time>
      </trkpt>
      <trkpt lat="43.73245" lon="6.56536">
        <ele>1091.9</ele>
        <time>2011-11-13T12:35:26Z</time>
      </trkpt>
      <trkpt lat="43.73246" lon="6.56537">
        <ele>1091.6</ele>
        <time>2011-11-13T12:35:31Z</time>
      </trkpt>
      <trkpt lat="43.73245" lon="6.56537">
        <ele>1091.7</ele>
        <time>2011-11-13T12:35:36Z</time>
      </trkpt>
      <trkpt lat="43.73245" lon="6.56537">
        <ele>1091.6</ele>
        <time>2011-11-13T12:35:41Z</time>
      </trkpt>
      <trkpt lat="43.73245" lon="6.56538">
        <ele>1091.4</ele>
        <time>2011-11-13T12:35:46Z</time>
      </trkpt>
      <trkpt lat="43.73245" lon="6.56543">
        <ele>1091.7</ele>
        <time>2011-11-13T12:35:51Z</time>
      </trkpt>
      <trkpt lat="43.73243" lon="6.56549">
        <ele>1091.8</ele>
        <time>2011-11-13T12:35:56Z</time>
      </trkpt>
      <trkpt lat="43.73241" lon="6.56556">
        <ele>1091.6</ele>
        <time>2011-11-13T12:36:01Z</time>
      </trkpt>
      <trkpt lat="43.73241" lon="6.56558">
        <ele>1091.6</ele>
        <time>2011-11-13T12:36:02Z</time>
      </trkpt>
      <trkpt lat="43.73237" lon="6.56569">
        <ele>1092.4</ele>
        <time>2011-11-13T12:36:11Z</time>
      </trkpt>
      <trkpt lat="43.73233" lon="6.56576">
        <ele>1092.2</ele>
        <time>2011-11-13T12:36:16Z</time>
      </trkpt>
      <trkpt lat="43.73229" lon="6.56581">
        <ele>1092.6</ele>
        <time>2011-11-13T12:36:21Z</time>
      </trkpt>
      <trkpt lat="43.73225" lon="6.56587">
        <ele>1093.3</ele>
        <time>2011-11-13T12:36:26Z</time>
      </trkpt>
      <trkpt lat="43.73222" lon="6.56595">
        <ele>1093.9</ele>
        <time>2011-11-13T12:36:31Z</time>
      </trkpt>
      <trkpt lat="43.73218" lon="6.56601">
        <ele>1093.8</ele>
        <time>2011-11-13T12:36:36Z</time>
      </trkpt>
      <trkpt lat="43.73215" lon="6.56608">
        <ele>1093.8</ele>
        <time>2011-11-13T12:36:41Z</time>
      </trkpt>
      <trkpt lat="43.73212" lon="6.56614">
        <ele>1093.9</ele>
        <time>2011-11-13T12:36:46Z</time>
      </trkpt>
      <trkpt lat="43.73209" lon="6.56621">
        <ele>1094.4</ele>
        <time>2011-11-13T12:36:51Z</time>
      </trkpt>
      <trkpt lat="43.73206" lon="6.56628">
        <ele>1094.6</ele>
        <time>2011-11-13T12:36:56Z</time>
      </trkpt>
      <trkpt lat="43.73202" lon="6.56635">
        <ele>1095.3</ele>
        <time>2011-11-13T12:37:01Z</time>
      </trkpt>
      <trkpt lat="43.73199" lon="6.56641">
        <ele>1095.2</ele>
        <time>2011-11-13T12:37:06Z</time>
      </trkpt>
      <trkpt lat="43.73198" lon="6.56643">
        <ele>1095.4</ele>
        <time>2011-11-13T12:37:07Z</time>
      </trkpt>
      <trkpt lat="43.73191" lon="6.56655">
        <ele>1096.1</ele>
        <time>2011-11-13T12:37:16Z</time>
      </trkpt>
      <trkpt lat="43.73188" lon="6.5666">
        <ele>1095.3</ele>
        <time>2011-11-13T12:37:21Z</time>
      </trkpt>
      <trkpt lat="43.73185" lon="6.56665">
        <ele>1094.4</ele>
        <time>2011-11-13T12:37:26Z</time>
      </trkpt>
      <trkpt lat="43.73182" lon="6.56668">
        <ele>1095</ele>
        <time>2011-11-13T12:37:31Z</time>
      </trkpt>
      <trkpt lat="43.73181" lon="6.56668">
        <ele>1094.4</ele>
        <time>2011-11-13T12:37:36Z</time>
      </trkpt>
      <trkpt lat="43.73181" lon="6.56668">
        <ele>1095</ele>
        <time>2011-11-13T12:37:41Z</time>
      </trkpt>
      <trkpt lat="43.73181" lon="6.56668">
        <ele>1094.9</ele>
        <time>2011-11-13T12:37:46Z</time>
      </trkpt>
      <trkpt lat="43.73181" lon="6.56667">
        <ele>1094.6</ele>
        <time>2011-11-13T12:37:51Z</time>
      </trkpt>
      <trkpt lat="43.7318" lon="6.56667">
        <ele>1094.5</ele>
        <time>2011-11-13T12:37:56Z</time>
      </trkpt>
      <trkpt lat="43.73179" lon="6.56668">
        <ele>1093.8</ele>
        <time>2011-11-13T12:38:01Z</time>
      </trkpt>
      <trkpt lat="43.73176" lon="6.56668">
        <ele>1094.1</ele>
        <time>2011-11-13T12:38:06Z</time>
      </trkpt>
      <trkpt lat="43.73175" lon="6.56667">
        <ele>1094.2</ele>
        <time>2011-11-13T12:38:11Z</time>
      </trkpt>
      <trkpt lat="43.73175" lon="6.56667">
        <ele>1094.3</ele>
        <time>2011-11-13T12:38:12Z</time>
      </trkpt>
      <trkpt lat="43.73177" lon="6.56665">
        <ele>1094</ele>
        <time>2011-11-13T12:38:21Z</time>
      </trkpt>
      <trkpt lat="43.73177" lon="6.56666">
        <ele>1094.2</ele>
        <time>2011-11-13T12:38:26Z</time>
      </trkpt>
      <trkpt lat="43.73177" lon="6.56667">
        <ele>1094</ele>
        <time>2011-11-13T12:38:31Z</time>
      </trkpt>
      <trkpt lat="43.73176" lon="6.56667">
        <ele>1093.9</ele>
        <time>2011-11-13T12:38:36Z</time>
      </trkpt>
      <trkpt lat="43.73177" lon="6.56667">
        <ele>1094.1</ele>
        <time>2011-11-13T12:38:41Z</time>
      </trkpt>
      <trkpt lat="43.73177" lon="6.56667">
        <ele>1094.1</ele>
        <time>2011-11-13T12:38:46Z</time>
      </trkpt>
      <trkpt lat="43.73176" lon="6.56666">
        <ele>1094.2</ele>
        <time>2011-11-13T12:38:51Z</time>
      </trkpt>
      <trkpt lat="43.73176" lon="6.56666">
        <ele>1094.2</ele>
        <time>2011-11-13T12:38:56Z</time>
      </trkpt>
      <trkpt lat="43.73176" lon="6.56666">
        <ele>1094.4</ele>
        <time>2011-11-13T12:39:01Z</time>
      </trkpt>
      <trkpt lat="43.73176" lon="6.56666">
        <ele>1094.4</ele>
        <time>2011-11-13T12:39:06Z</time>
      </trkpt>
      <trkpt lat="43.73174" lon="6.56666">
        <ele>1094</ele>
        <time>2011-11-13T12:39:11Z</time>
      </trkpt>
      <trkpt lat="43.73169" lon="6.56664">
        <ele>1093.7</ele>
        <time>2011-11-13T12:39:16Z</time>
      </trkpt>
      <trkpt lat="43.73168" lon="6.56664">
        <ele>1093.6</ele>
        <time>2011-11-13T12:39:17Z</time>
      </trkpt>
      <trkpt lat="43.73161" lon="6.56663">
        <ele>1093</ele>
        <time>2011-11-13T12:39:26Z</time>
      </trkpt>
      <trkpt lat="43.73156" lon="6.56665">
        <ele>1092.4</ele>
        <time>2011-11-13T12:39:31Z</time>
      </trkpt>
      <trkpt lat="43.73151" lon="6.56668">
        <ele>1092.4</ele>
        <time>2011-11-13T12:39:36Z</time>
      </trkpt>
      <trkpt lat="43.73149" lon="6.56673">
        <ele>1092</ele>
        <time>2011-11-13T12:39:41Z</time>
      </trkpt>
      <trkpt lat="43.73149" lon="6.56679">
        <ele>1091.2</ele>
        <time>2011-11-13T12:39:46Z</time>
      </trkpt>
      <trkpt lat="43.7315" lon="6.56685">
        <ele>1090.4</ele>
        <time>2011-11-13T12:39:51Z</time>
      </trkpt>
      <trkpt lat="43.73152" lon="6.56691">
        <ele>1089.4</ele>
        <time>2011-11-13T12:39:56Z</time>
      </trkpt>
      <trkpt lat="43.73154" lon="6.56697">
        <ele>1088.9</ele>
        <time>2011-11-13T12:40:01Z</time>
      </trkpt>
      <trkpt lat="43.73156" lon="6.56701">
        <ele>1088.2</ele>
        <time>2011-11-13T12:40:06Z</time>
      </trkpt>
      <trkpt lat="43.73159" lon="6.56706">
        <ele>1087.7</ele>
        <time>2011-11-13T12:40:11Z</time>
      </trkpt>
      <trkpt lat="43.73161" lon="6.56711">
        <ele>1086.9</ele>
        <time>2011-11-13T12:40:16Z</time>
      </trkpt>
      <trkpt lat="43.73164" lon="6.56716">
        <ele>1086</ele>
        <time>2011-11-13T12:40:21Z</time>
      </trkpt>
      <trkpt lat="43.73165" lon="6.56717">
        <ele>1086.1</ele>
        <time>2011-11-13T12:40:22Z</time>
      </trkpt>
      <trkpt lat="43.7317" lon="6.56727">
        <ele>1084.8</ele>
        <time>2011-11-13T12:40:31Z</time>
      </trkpt>
      <trkpt lat="43.73172" lon="6.56733">
        <ele>1084.5</ele>
        <time>2011-11-13T12:40:36Z</time>
      </trkpt>
      <trkpt lat="43.73173" lon="6.5674">
        <ele>1083.6</ele>
        <time>2011-11-13T12:40:41Z</time>
      </trkpt>
      <trkpt lat="43.73174" lon="6.56747">
        <ele>1083.2</ele>
        <time>2011-11-13T12:40:46Z</time>
      </trkpt>
      <trkpt lat="43.73174" lon="6.56755">
        <ele>1082.8</ele>
        <time>2011-11-13T12:40:51Z</time>
      </trkpt>
      <trkpt lat="43.73173" lon="6.56763">
        <ele>1082.6</ele>
        <time>2011-11-13T12:40:56Z</time>
      </trkpt>
      <trkpt lat="43.73171" lon="6.56771">
        <ele>1081.9</ele>
        <time>2011-11-13T12:41:01Z</time>
      </trkpt>
      <trkpt lat="43.7317" lon="6.56777">
        <ele>1080.7</ele>
        <time>2011-11-13T12:41:06Z</time>
      </trkpt>
      <trkpt lat="43.73166" lon="6.56783">
        <ele>1080.4</ele>
        <time>2011-11-13T12:41:11Z</time>
      </trkpt>
      <trkpt lat="43.73163" lon="6.56789">
        <ele>1079.4</ele>
        <time>2011-11-13T12:41:16Z</time>
      </trkpt>
      <trkpt lat="43.7316" lon="6.56797">
        <ele>1078.7</ele>
        <time>2011-11-13T12:41:21Z</time>
      </trkpt>
      <trkpt lat="43.73157" lon="6.56803">
        <ele>1078</ele>
        <time>2011-11-13T12:41:26Z</time>
      </trkpt>
      <trkpt lat="43.73157" lon="6.56804">
        <ele>1077.6</ele>
        <time>2011-11-13T12:41:27Z</time>
      </trkpt>
      <trkpt lat="43.73151" lon="6.56815">
        <ele>1077</ele>
        <time>2011-11-13T12:41:36Z</time>
      </trkpt>
      <trkpt lat="43.73148" lon="6.56821">
        <ele>1076.1</ele>
        <time>2011-11-13T12:41:41Z</time>
      </trkpt>
      <trkpt lat="43.73145" lon="6.56827">
        <ele>1075.6</ele>
        <time>2011-11-13T12:41:46Z</time>
      </trkpt>
      <trkpt lat="43.73143" lon="6.56832">
        <ele>1075.2</ele>
        <time>2011-11-13T12:41:51Z</time>
      </trkpt>
      <trkpt lat="43.73142" lon="6.56831">
        <ele>1075</ele>
        <time>2011-11-13T12:41:56Z</time>
      </trkpt>
      <trkpt lat="43.73142" lon="6.5683">
        <ele>1074.9</ele>
        <time>2011-11-13T12:42:01Z</time>
      </trkpt>
      <trkpt lat="43.73142" lon="6.56827">
        <ele>1074.1</ele>
        <time>2011-11-13T12:42:06Z</time>
      </trkpt>
      <trkpt lat="43.73142" lon="6.56824">
        <ele>1073.5</ele>
        <time>2011-11-13T12:42:11Z</time>
      </trkpt>
      <trkpt lat="43.73142" lon="6.56821">
        <ele>1072.8</ele>
        <time>2011-11-13T12:42:16Z</time>
      </trkpt>
      <trkpt lat="43.73141" lon="6.56819">
        <ele>1071.9</ele>
        <time>2011-11-13T12:42:21Z</time>
      </trkpt>
      <trkpt lat="43.7314" lon="6.56816">
        <ele>1071.4</ele>
        <time>2011-11-13T12:42:26Z</time>
      </trkpt>
      <trkpt lat="43.7314" lon="6.56811">
        <ele>1070.2</ele>
        <time>2011-11-13T12:42:31Z</time>
      </trkpt>
      <trkpt lat="43.7314" lon="6.56811">
        <ele>1070</ele>
        <time>2011-11-13T12:42:32Z</time>
      </trkpt>
      <trkpt lat="43.73138" lon="6.56799">
        <ele>1069.4</ele>
        <time>2011-11-13T12:42:41Z</time>
      </trkpt>
      <trkpt lat="43.73136" lon="6.56792">
        <ele>1069</ele>
        <time>2011-11-13T12:42:46Z</time>
      </trkpt>
      <trkpt lat="43.73134" lon="6.56786">
        <ele>1069.1</ele>
        <time>2011-11-13T12:42:51Z</time>
      </trkpt>
      <trkpt lat="43.73131" lon="6.56781">
        <ele>1068.6</ele>
        <time>2011-11-13T12:42:56Z</time>
      </trkpt>
      <trkpt lat="43.73128" lon="6.56778">
        <ele>1068.9</ele>
        <time>2011-11-13T12:43:01Z</time>
      </trkpt>
      <trkpt lat="43.73125" lon="6.56777">
        <ele>1068.3</ele>
        <time>2011-11-13T12:43:06Z</time>
      </trkpt>
      <trkpt lat="43.73121" lon="6.56776">
        <ele>1067.5</ele>
        <time>2011-11-13T12:43:11Z</time>
      </trkpt>
      <trkpt lat="43.73117" lon="6.56774">
        <ele>1067</ele>
        <time>2011-11-13T12:43:16Z</time>
      </trkpt>
      <trkpt lat="43.73113" lon="6.56771">
        <ele>1066.6</ele>
        <time>2011-11-13T12:43:21Z</time>
      </trkpt>
      <trkpt lat="43.7311" lon="6.56767">
        <ele>1065.9</ele>
        <time>2011-11-13T12:43:26Z</time>
      </trkpt>
      <trkpt lat="43.73106" lon="6.56764">
        <ele>1065.8</ele>
        <time>2011-11-13T12:43:31Z</time>
      </trkpt>
      <trkpt lat="43.73101" lon="6.5676">
        <ele>1064.8</ele>
        <time>2011-11-13T12:43:36Z</time>
      </trkpt>
      <trkpt lat="43.73101" lon="6.5676">
        <ele>1064.6</ele>
        <time>2011-11-13T12:43:37Z</time>
      </trkpt>
      <trkpt lat="43.73093" lon="6.56755">
        <ele>1063.8</ele>
        <time>2011-11-13T12:43:46Z</time>
      </trkpt>
      <trkpt lat="43.7309" lon="6.56753">
        <ele>1063.4</ele>
        <time>2011-11-13T12:43:51Z</time>
      </trkpt>
      <trkpt lat="43.73086" lon="6.56751">
        <ele>1063.3</ele>
        <time>2011-11-13T12:43:56Z</time>
      </trkpt>
      <trkpt lat="43.73083" lon="6.56748">
        <ele>1062.6</ele>
        <time>2011-11-13T12:44:01Z</time>
      </trkpt>
      <trkpt lat="43.7308" lon="6.56744">
        <ele>1062</ele>
        <time>2011-11-13T12:44:06Z</time>
      </trkpt>
      <trkpt lat="43.73077" lon="6.5674">
        <ele>1060.8</ele>
        <time>2011-11-13T12:44:11Z</time>
      </trkpt>
      <trkpt lat="43.73073" lon="6.56734">
        <ele>1060.4</ele>
        <time>2011-11-13T12:44:16Z</time>
      </trkpt>
      <trkpt lat="43.73069" lon="6.56728">
        <ele>1059.9</ele>
        <time>2011-11-13T12:44:21Z</time>
      </trkpt>
      <trkpt lat="43.73066" lon="6.56722">
        <ele>1059.5</ele>
        <time>2011-11-13T12:44:26Z</time>
      </trkpt>
      <trkpt lat="43.73064" lon="6.56716">
        <ele>1058</ele>
        <time>2011-11-13T12:44:31Z</time>
      </trkpt>
      <trkpt lat="43.73062" lon="6.5671">
        <ele>1058</ele>
        <time>2011-11-13T12:44:36Z</time>
      </trkpt>
      <trkpt lat="43.73059" lon="6.56706">
        <ele>1058.3</ele>
        <time>2011-11-13T12:44:41Z</time>
      </trkpt>
      <trkpt lat="43.73059" lon="6.56704">
        <ele>1058.2</ele>
        <time>2011-11-13T12:44:42Z</time>
      </trkpt>
      <trkpt lat="43.73056" lon="6.56693">
        <ele>1056.7</ele>
        <time>2011-11-13T12:44:51Z</time>
      </trkpt>
      <trkpt lat="43.73055" lon="6.56686">
        <ele>1056.7</ele>
        <time>2011-11-13T12:44:56Z</time>
      </trkpt>
      <trkpt lat="43.73053" lon="6.5668">
        <ele>1054.8</ele>
        <time>2011-11-13T12:45:01Z</time>
      </trkpt>
      <trkpt lat="43.73051" lon="6.56675">
        <ele>1054.9</ele>
        <time>2011-11-13T12:45:06Z</time>
      </trkpt>
      <trkpt lat="43.7305" lon="6.56669">
        <ele>1054.4</ele>
        <time>2011-11-13T12:45:11Z</time>
      </trkpt>
      <trkpt lat="43.73049" lon="6.56663">
        <ele>1053.7</ele>
        <time>2011-11-13T12:45:16Z</time>
      </trkpt>
      <trkpt lat="43.73048" lon="6.56658">
        <ele>1053.3</ele>
        <time>2011-11-13T12:45:21Z</time>
      </trkpt>
      <trkpt lat="43.73047" lon="6.56654">
        <ele>1052.4</ele>
        <time>2011-11-13T12:45:26Z</time>
      </trkpt>
      <trkpt lat="43.73046" lon="6.56648">
        <ele>1052.6</ele>
        <time>2011-11-13T12:45:31Z</time>
      </trkpt>
      <trkpt lat="43.73045" lon="6.56641">
        <ele>1052.1</ele>
        <time>2011-11-13T12:45:36Z</time>
      </trkpt>
      <trkpt lat="43.73044" lon="6.56635">
        <ele>1051.8</ele>
        <time>2011-11-13T12:45:41Z</time>
      </trkpt>
      <trkpt lat="43.73043" lon="6.56629">
        <ele>1050.7</ele>
        <time>2011-11-13T12:45:46Z</time>
      </trkpt>
      <trkpt lat="43.73043" lon="6.56627">
        <ele>1050.8</ele>
        <time>2011-11-13T12:45:47Z</time>
      </trkpt>
      <trkpt lat="43.7304" lon="6.56617">
        <ele>1050.7</ele>
        <time>2011-11-13T12:45:56Z</time>
      </trkpt>
      <trkpt lat="43.7304" lon="6.5661">
        <ele>1049.7</ele>
        <time>2011-11-13T12:46:01Z</time>
      </trkpt>
      <trkpt lat="43.7304" lon="6.56604">
        <ele>1048.9</ele>
        <time>2011-11-13T12:46:06Z</time>
      </trkpt>
      <trkpt lat="43.73039" lon="6.56597">
        <ele>1048.4</ele>
        <time>2011-11-13T12:46:11Z</time>
      </trkpt>
      <trkpt lat="43.73038" lon="6.56591">
        <ele>1047.8</ele>
        <time>2011-11-13T12:46:16Z</time>
      </trkpt>
      <trkpt lat="43.73037" lon="6.56584">
        <ele>1047.2</ele>
        <time>2011-11-13T12:46:21Z</time>
      </trkpt>
      <trkpt lat="43.73037" lon="6.56577">
        <ele>1047.1</ele>
        <time>2011-11-13T12:46:26Z</time>
      </trkpt>
      <trkpt lat="43.73036" lon="6.56571">
        <ele>1046.5</ele>
        <time>2011-11-13T12:46:31Z</time>
      </trkpt>
      <trkpt lat="43.73035" lon="6.56563">
        <ele>1046.5</ele>
        <time>2011-11-13T12:46:36Z</time>
      </trkpt>
      <trkpt lat="43.73034" lon="6.56558">
        <ele>1045.8</ele>
        <time>2011-11-13T12:46:41Z</time>
      </trkpt>
      <trkpt lat="43.73033" lon="6.5655">
        <ele>1045.1</ele>
        <time>2011-11-13T12:46:46Z</time>
      </trkpt>
      <trkpt lat="43.73032" lon="6.56544">
        <ele>1044.8</ele>
        <time>2011-11-13T12:46:51Z</time>
      </trkpt>
      <trkpt lat="43.73032" lon="6.56543">
        <ele>1044.8</ele>
        <time>2011-11-13T12:46:52Z</time>
      </trkpt>
      <trkpt lat="43.73032" lon="6.56531">
        <ele>1043.3</ele>
        <time>2011-11-13T12:47:01Z</time>
      </trkpt>
      <trkpt lat="43.73032" lon="6.56524">
        <ele>1042.4</ele>
        <time>2011-11-13T12:47:06Z</time>
      </trkpt>
      <trkpt lat="43.73032" lon="6.56518">
        <ele>1042.5</ele>
        <time>2011-11-13T12:47:11Z</time>
      </trkpt>
      <trkpt lat="43.73033" lon="6.56513">
        <ele>1041.1</ele>
        <time>2011-11-13T12:47:16Z</time>
      </trkpt>
      <trkpt lat="43.73032" lon="6.56508">
        <ele>1040.4</ele>
        <time>2011-11-13T12:47:21Z</time>
      </trkpt>
      <trkpt lat="43.73029" lon="6.56502">
        <ele>1040</ele>
        <time>2011-11-13T12:47:26Z</time>
      </trkpt>
      <trkpt lat="43.73028" lon="6.56495">
        <ele>1039.7</ele>
        <time>2011-11-13T12:47:31Z</time>
      </trkpt>
      <trkpt lat="43.73029" lon="6.56489">
        <ele>1040</ele>
        <time>2011-11-13T12:47:36Z</time>
      </trkpt>
      <trkpt lat="43.73028" lon="6.56481">
        <ele>1039.9</ele>
        <time>2011-11-13T12:47:41Z</time>
      </trkpt>
      <trkpt lat="43.73028" lon="6.56474">
        <ele>1039.8</ele>
        <time>2011-11-13T12:47:46Z</time>
      </trkpt>
      <trkpt lat="43.73028" lon="6.56467">
        <ele>1038.5</ele>
        <time>2011-11-13T12:47:51Z</time>
      </trkpt>
      <trkpt lat="43.73028" lon="6.56461">
        <ele>1037.9</ele>
        <time>2011-11-13T12:47:56Z</time>
      </trkpt>
      <trkpt lat="43.73027" lon="6.5646">
        <ele>1037.7</ele>
        <time>2011-11-13T12:47:57Z</time>
      </trkpt>
      <trkpt lat="43.73028" lon="6.56448">
        <ele>1036.3</ele>
        <time>2011-11-13T12:48:06Z</time>
      </trkpt>
      <trkpt lat="43.73027" lon="6.56442">
        <ele>1035.8</ele>
        <time>2011-11-13T12:48:11Z</time>
      </trkpt>
      <trkpt lat="43.73027" lon="6.56434">
        <ele>1035.5</ele>
        <time>2011-11-13T12:48:16Z</time>
      </trkpt>
      <trkpt lat="43.73027" lon="6.56425">
        <ele>1035</ele>
        <time>2011-11-13T12:48:21Z</time>
      </trkpt>
      <trkpt lat="43.73026" lon="6.56418">
        <ele>1034.7</ele>
        <time>2011-11-13T12:48:26Z</time>
      </trkpt>
      <trkpt lat="43.73027" lon="6.5641">
        <ele>1034.9</ele>
        <time>2011-11-13T12:48:31Z</time>
      </trkpt>
      <trkpt lat="43.73027" lon="6.56402">
        <ele>1034.9</ele>
        <time>2011-11-13T12:48:36Z</time>
      </trkpt>
      <trkpt lat="43.73027" lon="6.56394">
        <ele>1035.3</ele>
        <time>2011-11-13T12:48:41Z</time>
      </trkpt>
      <trkpt lat="43.73027" lon="6.56388">
        <ele>1035.5</ele>
        <time>2011-11-13T12:48:46Z</time>
      </trkpt>
      <trkpt lat="43.73028" lon="6.56378">
        <ele>1035.9</ele>
        <time>2011-11-13T12:48:51Z</time>
      </trkpt>
      <trkpt lat="43.7303" lon="6.56372">
        <ele>1036.1</ele>
        <time>2011-11-13T12:48:56Z</time>
      </trkpt>
      <trkpt lat="43.73028" lon="6.56367">
        <ele>1036.3</ele>
        <time>2011-11-13T12:49:01Z</time>
      </trkpt>
      <trkpt lat="43.73028" lon="6.56366">
        <ele>1036.3</ele>
        <time>2011-11-13T12:49:02Z</time>
      </trkpt>
      <trkpt lat="43.73024" lon="6.5636">
        <ele>1035.9</ele>
        <time>2011-11-13T12:49:11Z</time>
      </trkpt>
      <trkpt lat="43.73021" lon="6.56358">
        <ele>1034.2</ele>
        <time>2011-11-13T12:49:16Z</time>
      </trkpt>
      <trkpt lat="43.73017" lon="6.56356">
        <ele>1034.4</ele>
        <time>2011-11-13T12:49:21Z</time>
      </trkpt>
      <trkpt lat="43.73012" lon="6.56354">
        <ele>1033.7</ele>
        <time>2011-11-13T12:49:26Z</time>
      </trkpt>
      <trkpt lat="43.73009" lon="6.56352">
        <ele>1033.6</ele>
        <time>2011-11-13T12:49:31Z</time>
      </trkpt>
      <trkpt lat="43.73004" lon="6.5635">
        <ele>1033.3</ele>
        <time>2011-11-13T12:49:36Z</time>
      </trkpt>
      <trkpt lat="43.73" lon="6.56347">
        <ele>1032.9</ele>
        <time>2011-11-13T12:49:41Z</time>
      </trkpt>
      <trkpt lat="43.72995" lon="6.56345">
        <ele>1032.4</ele>
        <time>2011-11-13T12:49:46Z</time>
      </trkpt>
      <trkpt lat="43.72991" lon="6.56343">
        <ele>1032</ele>
        <time>2011-11-13T12:49:51Z</time>
      </trkpt>
      <trkpt lat="43.72986" lon="6.5634">
        <ele>1031.9</ele>
        <time>2011-11-13T12:49:56Z</time>
      </trkpt>
      <trkpt lat="43.72981" lon="6.56337">
        <ele>1032</ele>
        <time>2011-11-13T12:50:01Z</time>
      </trkpt>
      <trkpt lat="43.72976" lon="6.56334">
        <ele>1032.4</ele>
        <time>2011-11-13T12:50:06Z</time>
      </trkpt>
      <trkpt lat="43.72975" lon="6.56333">
        <ele>1032.4</ele>
        <time>2011-11-13T12:50:07Z</time>
      </trkpt>
      <trkpt lat="43.72965" lon="6.56327">
        <ele>1032.5</ele>
        <time>2011-11-13T12:50:16Z</time>
      </trkpt>
      <trkpt lat="43.72961" lon="6.56325">
        <ele>1032</ele>
        <time>2011-11-13T12:50:21Z</time>
      </trkpt>
      <trkpt lat="43.72957" lon="6.56322">
        <ele>1032</ele>
        <time>2011-11-13T12:50:26Z</time>
      </trkpt>
      <trkpt lat="43.72953" lon="6.56318">
        <ele>1031.8</ele>
        <time>2011-11-13T12:50:31Z</time>
      </trkpt>
      <trkpt lat="43.72949" lon="6.56316">
        <ele>1031.2</ele>
        <time>2011-11-13T12:50:36Z</time>
      </trkpt>
      <trkpt lat="43.72944" lon="6.56312">
        <ele>1030.7</ele>
        <time>2011-11-13T12:50:41Z</time>
      </trkpt>
      <trkpt lat="43.7294" lon="6.56308">
        <ele>1030.2</ele>
        <time>2011-11-13T12:50:46Z</time>
      </trkpt>
      <trkpt lat="43.72936" lon="6.56305">
        <ele>1030.2</ele>
        <time>2011-11-13T12:50:51Z</time>
      </trkpt>
      <trkpt lat="43.72931" lon="6.563">
        <ele>1030.2</ele>
        <time>2011-11-13T12:50:56Z</time>
      </trkpt>
      <trkpt lat="43.72927" lon="6.56296">
        <ele>1029.8</ele>
        <time>2011-11-13T12:51:01Z</time>
      </trkpt>
      <trkpt lat="43.72922" lon="6.56291">
        <ele>1029.5</ele>
        <time>2011-11-13T12:51:06Z</time>
      </trkpt>
      <trkpt lat="43.72918" lon="6.56284">
        <ele>1029.3</ele>
        <time>2011-11-13T12:51:11Z</time>
      </trkpt>
      <trkpt lat="43.72917" lon="6.56282">
        <ele>1029.2</ele>
        <time>2011-11-13T12:51:12Z</time>
      </trkpt>
      <trkpt lat="43.72912" lon="6.56271">
        <ele>1029.2</ele>
        <time>2011-11-13T12:51:21Z</time>
      </trkpt>
      <trkpt lat="43.72909" lon="6.56265">
        <ele>1029.5</ele>
        <time>2011-11-13T12:51:26Z</time>
      </trkpt>
      <trkpt lat="43.72905" lon="6.56261">
        <ele>1029.1</ele>
        <time>2011-11-13T12:51:31Z</time>
      </trkpt>
      <trkpt lat="43.729" lon="6.56258">
        <ele>1028.5</ele>
        <time>2011-11-13T12:51:36Z</time>
      </trkpt>
      <trkpt lat="43.72895" lon="6.56257">
        <ele>1028.5</ele>
        <time>2011-11-13T12:51:41Z</time>
      </trkpt>
      <trkpt lat="43.72889" lon="6.56258">
        <ele>1028.3</ele>
        <time>2011-11-13T12:51:46Z</time>
      </trkpt>
      <trkpt lat="43.72883" lon="6.5626">
        <ele>1028</ele>
        <time>2011-11-13T12:51:51Z</time>
      </trkpt>
      <trkpt lat="43.72878" lon="6.5626">
        <ele>1028.4</ele>
        <time>2011-11-13T12:51:56Z</time>
      </trkpt>
      <trkpt lat="43.72873" lon="6.5626">
        <ele>1027.8</ele>
        <time>2011-11-13T12:52:01Z</time>
      </trkpt>
      <trkpt lat="43.72867" lon="6.56261">
        <ele>1026.9</ele>
        <time>2011-11-13T12:52:06Z</time>
      </trkpt>
      <trkpt lat="43.7286" lon="6.56262">
        <ele>1027</ele>
        <time>2011-11-13T12:52:11Z</time>
      </trkpt>
      <trkpt lat="43.72854" lon="6.56262">
        <ele>1026.9</ele>
        <time>2011-11-13T12:52:16Z</time>
      </trkpt>
      <trkpt lat="43.72853" lon="6.56262">
        <ele>1027.1</ele>
        <time>2011-11-13T12:52:17Z</time>
      </trkpt>
      <trkpt lat="43.72841" lon="6.56262">
        <ele>1027.3</ele>
        <time>2011-11-13T12:52:26Z</time>
      </trkpt>
      <trkpt lat="43.72836" lon="6.56264">
        <ele>1027.4</ele>
        <time>2011-11-13T12:52:31Z</time>
      </trkpt>
      <trkpt lat="43.7283" lon="6.56265">
        <ele>1027.5</ele>
        <time>2011-11-13T12:52:36Z</time>
      </trkpt>
      <trkpt lat="43.72824" lon="6.56265">
        <ele>1027.6</ele>
        <time>2011-11-13T12:52:41Z</time>
      </trkpt>
      <trkpt lat="43.7282" lon="6.56267">
        <ele>1027.1</ele>
        <time>2011-11-13T12:52:46Z</time>
      </trkpt>
      <trkpt lat="43.72816" lon="6.56267">
        <ele>1027</ele>
        <time>2011-11-13T12:52:51Z</time>
      </trkpt>
      <trkpt lat="43.72811" lon="6.56267">
        <ele>1027.3</ele>
        <time>2011-11-13T12:52:56Z</time>
      </trkpt>
      <trkpt lat="43.72806" lon="6.56268">
        <ele>1027.1</ele>
        <time>2011-11-13T12:53:01Z</time>
      </trkpt>
      <trkpt lat="43.72801" lon="6.56267">
        <ele>1026.4</ele>
        <time>2011-11-13T12:53:06Z</time>
      </trkpt>
      <trkpt lat="43.72795" lon="6.56266">
        <ele>1026.3</ele>
        <time>2011-11-13T12:53:11Z</time>
      </trkpt>
      <trkpt lat="43.7279" lon="6.56265">
        <ele>1026.1</ele>
        <time>2011-11-13T12:53:16Z</time>
      </trkpt>
      <trkpt lat="43.72783" lon="6.56264">
        <ele>1026.2</ele>
        <time>2011-11-13T12:53:21Z</time>
      </trkpt>
      <trkpt lat="43.72782" lon="6.56264">
        <ele>1026.3</ele>
        <time>2011-11-13T12:53:22Z</time>
      </trkpt>
      <trkpt lat="43.72772" lon="6.56262">
        <ele>1025.4</ele>
        <time>2011-11-13T12:53:31Z</time>
      </trkpt>
      <trkpt lat="43.72766" lon="6.56262">
        <ele>1025.6</ele>
        <time>2011-11-13T12:53:36Z</time>
      </trkpt>
      <trkpt lat="43.72759" lon="6.5626">
        <ele>1025.3</ele>
        <time>2011-11-13T12:53:41Z</time>
      </trkpt>
      <trkpt lat="43.72753" lon="6.5626">
        <ele>1025.2</ele>
        <time>2011-11-13T12:53:46Z</time>
      </trkpt>
      <trkpt lat="43.72748" lon="6.56258">
        <ele>1025</ele>
        <time>2011-11-13T12:53:51Z</time>
      </trkpt>
      <trkpt lat="43.72742" lon="6.56257">
        <ele>1024.9</ele>
        <time>2011-11-13T12:53:56Z</time>
      </trkpt>
      <trkpt lat="43.7274" lon="6.56254">
        <ele>1024.9</ele>
        <time>2011-11-13T12:54:01Z</time>
      </trkpt>
      <trkpt lat="43.72738" lon="6.56252">
        <ele>1025.1</ele>
        <time>2011-11-13T12:54:06Z</time>
      </trkpt>
      <trkpt lat="43.72736" lon="6.56251">
        <ele>1025.2</ele>
        <time>2011-11-13T12:54:11Z</time>
      </trkpt>
      <trkpt lat="43.72736" lon="6.56251">
        <ele>1025.4</ele>
        <time>2011-11-13T12:54:16Z</time>
      </trkpt>
      <trkpt lat="43.72733" lon="6.56251">
        <ele>1025.7</ele>
        <time>2011-11-13T12:54:21Z</time>
      </trkpt>
      <trkpt lat="43.72732" lon="6.5625">
        <ele>1025.5</ele>
        <time>2011-11-13T12:54:26Z</time>
      </trkpt>
      <trkpt lat="43.72732" lon="6.5625">
        <ele>1025.4</ele>
        <time>2011-11-13T12:54:27Z</time>
      </trkpt>
      <trkpt lat="43.72731" lon="6.56249">
        <ele>1025.1</ele>
        <time>2011-11-13T12:54:36Z</time>
      </trkpt>
      <trkpt lat="43.7273" lon="6.56249">
        <ele>1024.7</ele>
        <time>2011-11-13T12:54:41Z</time>
      </trkpt>
      <trkpt lat="43.72727" lon="6.56248">
        <ele>1024.5</ele>
        <time>2011-11-13T12:54:46Z</time>
      </trkpt>
      <trkpt lat="43.72725" lon="6.56247">
        <ele>1024.8</ele>
        <time>2011-11-13T12:54:51Z</time>
      </trkpt>
      <trkpt lat="43.72723" lon="6.56245">
        <ele>1024.8</ele>
        <time>2011-11-13T12:54:56Z</time>
      </trkpt>
      <trkpt lat="43.72721" lon="6.56245">
        <ele>1024.4</ele>
        <time>2011-11-13T12:55:01Z</time>
      </trkpt>
      <trkpt lat="43.7272" lon="6.56244">
        <ele>1024.7</ele>
        <time>2011-11-13T12:55:06Z</time>
      </trkpt>
      <trkpt lat="43.7272" lon="6.56243">
        <ele>1024.6</ele>
        <time>2011-11-13T12:55:11Z</time>
      </trkpt>
      <trkpt lat="43.72719" lon="6.56243">
        <ele>1024.7</ele>
        <time>2011-11-13T12:55:16Z</time>
      </trkpt>
      <trkpt lat="43.72719" lon="6.56243">
        <ele>1024.9</ele>
        <time>2011-11-13T12:55:21Z</time>
      </trkpt>
      <trkpt lat="43.72719" lon="6.56244">
        <ele>1024.7</ele>
        <time>2011-11-13T12:55:26Z</time>
      </trkpt>
      <trkpt lat="43.72717" lon="6.56244">
        <ele>1024.4</ele>
        <time>2011-11-13T12:55:31Z</time>
      </trkpt>
      <trkpt lat="43.72717" lon="6.56244">
        <ele>1024.7</ele>
        <time>2011-11-13T12:55:32Z</time>
      </trkpt>
      <trkpt lat="43.72717" lon="6.56244">
        <ele>1024.4</ele>
        <time>2011-11-13T12:55:45Z</time>
      </trkpt>
      <trkpt lat="43.72718" lon="6.56245">
        <ele>1024.3</ele>
        <time>2011-11-13T12:55:50Z</time>
      </trkpt>
      <trkpt lat="43.72718" lon="6.56247">
        <ele>1023.9</ele>
        <time>2011-11-13T12:55:55Z</time>
      </trkpt>
      <trkpt lat="43.72718" lon="6.56246">
        <ele>1024.2</ele>
        <time>2011-11-13T12:56:00Z</time>
      </trkpt>
      <trkpt lat="43.72717" lon="6.56245">
        <ele>1024.6</ele>
        <time>2011-11-13T12:56:05Z</time>
      </trkpt>
      <trkpt lat="43.72717" lon="6.56244">
        <ele>1024.7</ele>
        <time>2011-11-13T12:56:10Z</time>
      </trkpt>
      <trkpt lat="43.72717" lon="6.56244">
        <ele>1024.2</ele>
        <time>2011-11-13T12:56:15Z</time>
      </trkpt>
      <trkpt lat="43.72717" lon="6.56244">
        <ele>1024.4</ele>
        <time>2011-11-13T12:56:20Z</time>
      </trkpt>
      <trkpt lat="43.72716" lon="6.56243">
        <ele>1024.1</ele>
        <time>2011-11-13T12:56:25Z</time>
      </trkpt>
      <trkpt lat="43.72716" lon="6.56242">
        <ele>1024.2</ele>
        <time>2011-11-13T12:56:30Z</time>
      </trkpt>
      <trkpt lat="43.72715" lon="6.56241">
        <ele>1024</ele>
        <time>2011-11-13T12:56:35Z</time>
      </trkpt>
      <trkpt lat="43.72714" lon="6.56241">
        <ele>1023.9</ele>
        <time>2011-11-13T12:56:36Z</time>
      </trkpt>
      <trkpt lat="43.72712" lon="6.56241">
        <ele>1024.3</ele>
        <time>2011-11-13T12:56:45Z</time>
      </trkpt>
      <trkpt lat="43.7271" lon="6.5624">
        <ele>1024.1</ele>
        <time>2011-11-13T12:56:50Z</time>
      </trkpt>
      <trkpt lat="43.72709" lon="6.56238">
        <ele>1024</ele>
        <time>2011-11-13T12:56:55Z</time>
      </trkpt>
      <trkpt lat="43.72707" lon="6.56238">
        <ele>1024</ele>
        <time>2011-11-13T12:57:00Z</time>
      </trkpt>
      <trkpt lat="43.72707" lon="6.56237">
        <ele>1024.1</ele>
        <time>2011-11-13T12:57:05Z</time>
      </trkpt>
      <trkpt lat="43.72706" lon="6.56237">
        <ele>1024.2</ele>
        <time>2011-11-13T12:57:10Z</time>
      </trkpt>
      <trkpt lat="43.72705" lon="6.56236">
        <ele>1024.3</ele>
        <time>2011-11-13T12:57:15Z</time>
      </trkpt>
      <trkpt lat="43.72704" lon="6.56235">
        <ele>1024.1</ele>
        <time>2011-11-13T12:57:20Z</time>
      </trkpt>
      <trkpt lat="43.72703" lon="6.56235">
        <ele>1024</ele>
        <time>2011-11-13T12:57:25Z</time>
      </trkpt>
      <trkpt lat="43.72703" lon="6.56235">
        <ele>1024.5</ele>
        <time>2011-11-13T12:57:30Z</time>
      </trkpt>
      <trkpt lat="43.72702" lon="6.56235">
        <ele>1024.1</ele>
        <time>2011-11-13T12:57:35Z</time>
      </trkpt>
      <trkpt lat="43.72701" lon="6.56235">
        <ele>1024.3</ele>
        <time>2011-11-13T12:57:40Z</time>
      </trkpt>
      <trkpt lat="43.727" lon="6.56235">
        <ele>1024.1</ele>
        <time>2011-11-13T12:57:41Z</time>
      </trkpt>
      <trkpt lat="43.72695" lon="6.56232">
        <ele>1023.2</ele>
        <time>2011-11-13T12:57:50Z</time>
      </trkpt>
      <trkpt lat="43.72693" lon="6.56231">
        <ele>1022.6</ele>
        <time>2011-11-13T12:57:55Z</time>
      </trkpt>
      <trkpt lat="43.72691" lon="6.5623">
        <ele>1022.2</ele>
        <time>2011-11-13T12:58:00Z</time>
      </trkpt>
      <trkpt lat="43.72688" lon="6.56231">
        <ele>1021.9</ele>
        <time>2011-11-13T12:58:05Z</time>
      </trkpt>
      <trkpt lat="43.72685" lon="6.56232">
        <ele>1021.3</ele>
        <time>2011-11-13T12:58:10Z</time>
      </trkpt>
      <trkpt lat="43.72683" lon="6.56233">
        <ele>1021</ele>
        <time>2011-11-13T12:58:15Z</time>
      </trkpt>
      <trkpt lat="43.72682" lon="6.56234">
        <ele>1020.9</ele>
        <time>2011-11-13T12:58:20Z</time>
      </trkpt>
      <trkpt lat="43.72682" lon="6.56234">
        <ele>1020.7</ele>
        <time>2011-11-13T12:58:25Z</time>
      </trkpt>
      <trkpt lat="43.72682" lon="6.56234">
        <ele>1021</ele>
        <time>2011-11-13T12:58:30Z</time>
      </trkpt>
      <trkpt lat="43.72684" lon="6.56231">
        <ele>1021.3</ele>
        <time>2011-11-13T12:58:35Z</time>
      </trkpt>
      <trkpt lat="43.72684" lon="6.56226">
        <ele>1020.5</ele>
        <time>2011-11-13T12:58:40Z</time>
      </trkpt>
      <trkpt lat="43.72683" lon="6.56222">
        <ele>1019.9</ele>
        <time>2011-11-13T12:58:45Z</time>
      </trkpt>
      <trkpt lat="43.72683" lon="6.56221">
        <ele>1019.9</ele>
        <time>2011-11-13T12:58:46Z</time>
      </trkpt>
      <trkpt lat="43.72679" lon="6.56213">
        <ele>1018.4</ele>
        <time>2011-11-13T12:58:55Z</time>
      </trkpt>
      <trkpt lat="43.72677" lon="6.56207">
        <ele>1017.6</ele>
        <time>2011-11-13T12:59:00Z</time>
      </trkpt>
      <trkpt lat="43.72676" lon="6.56202">
        <ele>1017.1</ele>
        <time>2011-11-13T12:59:05Z</time>
      </trkpt>
      <trkpt lat="43.72674" lon="6.56197">
        <ele>1016.8</ele>
        <time>2011-11-13T12:59:10Z</time>
      </trkpt>
      <trkpt lat="43.72673" lon="6.56191">
        <ele>1016.2</ele>
        <time>2011-11-13T12:59:15Z</time>
      </trkpt>
      <trkpt lat="43.7267" lon="6.56185">
        <ele>1015.5</ele>
        <time>2011-11-13T12:59:20Z</time>
      </trkpt>
      <trkpt lat="43.72668" lon="6.56181">
        <ele>1014.9</ele>
        <time>2011-11-13T12:59:25Z</time>
      </trkpt>
      <trkpt lat="43.72665" lon="6.56177">
        <ele>1014.1</ele>
        <time>2011-11-13T12:59:30Z</time>
      </trkpt>
      <trkpt lat="43.72661" lon="6.56173">
        <ele>1013.5</ele>
        <time>2011-11-13T12:59:35Z</time>
      </trkpt>
      <trkpt lat="43.72657" lon="6.56171">
        <ele>1012.6</ele>
        <time>2011-11-13T12:59:40Z</time>
      </trkpt>
      <trkpt lat="43.72653" lon="6.56167">
        <ele>1012.6</ele>
        <time>2011-11-13T12:59:45Z</time>
      </trkpt>
      <trkpt lat="43.7265" lon="6.56163">
        <ele>1011.7</ele>
        <time>2011-11-13T12:59:50Z</time>
      </trkpt>
      <trkpt lat="43.7265" lon="6.56162">
        <ele>1011.7</ele>
        <time>2011-11-13T12:59:51Z</time>
      </trkpt>
      <trkpt lat="43.72645" lon="6.56153">
        <ele>1010.3</ele>
        <time>2011-11-13T13:00:00Z</time>
      </trkpt>
      <trkpt lat="43.72642" lon="6.56147">
        <ele>1010</ele>
        <time>2011-11-13T13:00:05Z</time>
      </trkpt>
      <trkpt lat="43.72641" lon="6.56144">
        <ele>1010.1</ele>
        <time>2011-11-13T13:00:10Z</time>
      </trkpt>
      <trkpt lat="43.72639" lon="6.56142">
        <ele>1010.2</ele>
        <time>2011-11-13T13:00:15Z</time>
      </trkpt>
      <trkpt lat="43.72638" lon="6.56142">
        <ele>1010.5</ele>
        <time>2011-11-13T13:00:20Z</time>
      </trkpt>
      <trkpt lat="43.72638" lon="6.56143">
        <ele>1010.8</ele>
        <time>2011-11-13T13:00:25Z</time>
      </trkpt>
      <trkpt lat="43.72639" lon="6.56142">
        <ele>1010.4</ele>
        <time>2011-11-13T13:00:30Z</time>
      </trkpt>
      <trkpt lat="43.72639" lon="6.56143">
        <ele>1010.8</ele>
        <time>2011-11-13T13:00:35Z</time>
      </trkpt>
      <trkpt lat="43.72644" lon="6.56144">
        <ele>1010.7</ele>
        <time>2011-11-13T13:00:40Z</time>
      </trkpt>
      <trkpt lat="43.72643" lon="6.56146">
        <ele>1010.7</ele>
        <time>2011-11-13T13:00:45Z</time>
      </trkpt>
      <trkpt lat="43.72643" lon="6.56143">
        <ele>1009.7</ele>
        <time>2011-11-13T13:00:50Z</time>
      </trkpt>
      <trkpt lat="43.72641" lon="6.56138">
        <ele>1009.2</ele>
        <time>2011-11-13T13:00:55Z</time>
      </trkpt>
      <trkpt lat="43.72641" lon="6.56136">
        <ele>1009</ele>
        <time>2011-11-13T13:00:56Z</time>
      </trkpt>
      <trkpt lat="43.72638" lon="6.56126">
        <ele>1009.1</ele>
        <time>2011-11-13T13:01:05Z</time>
      </trkpt>
      <trkpt lat="43.72638" lon="6.5612">
        <ele>1008.6</ele>
        <time>2011-11-13T13:01:10Z</time>
      </trkpt>
      <trkpt lat="43.72637" lon="6.56114">
        <ele>1008</ele>
        <time>2011-11-13T13:01:15Z</time>
      </trkpt>
      <trkpt lat="43.72635" lon="6.56109">
        <ele>1007.2</ele>
        <time>2011-11-13T13:01:20Z</time>
      </trkpt>
      <trkpt lat="43.72634" lon="6.56103">
        <ele>1006.7</ele>
        <time>2011-11-13T13:01:25Z</time>
      </trkpt>
      <trkpt lat="43.72634" lon="6.56097">
        <ele>1005.5</ele>
        <time>2011-11-13T13:01:30Z</time>
      </trkpt>
      <trkpt lat="43.72634" lon="6.5609">
        <ele>1005.4</ele>
        <time>2011-11-13T13:01:35Z</time>
      </trkpt>
      <trkpt lat="43.72634" lon="6.56084">
        <ele>1004.8</ele>
        <time>2011-11-13T13:01:40Z</time>
      </trkpt>
      <trkpt lat="43.72634" lon="6.56077">
        <ele>1004.4</ele>
        <time>2011-11-13T13:01:45Z</time>
      </trkpt>
      <trkpt lat="43.72634" lon="6.56073">
        <ele>1003.7</ele>
        <time>2011-11-13T13:01:50Z</time>
      </trkpt>
      <trkpt lat="43.72634" lon="6.56071">
        <ele>1004.3</ele>
        <time>2011-11-13T13:01:55Z</time>
      </trkpt>
      <trkpt lat="43.72636" lon="6.56069">
        <ele>1004</ele>
        <time>2011-11-13T13:02:00Z</time>
      </trkpt>
      <trkpt lat="43.72636" lon="6.56068">
        <ele>1004.1</ele>
        <time>2011-11-13T13:02:01Z</time>
      </trkpt>
      <trkpt lat="43.72639" lon="6.56067">
        <ele>1004.2</ele>
        <time>2011-11-13T13:02:10Z</time>
      </trkpt>
      <trkpt lat="43.7264" lon="6.56066">
        <ele>1003.9</ele>
        <time>2011-11-13T13:02:15Z</time>
      </trkpt>
      <trkpt lat="43.7264" lon="6.56064">
        <ele>1004.1</ele>
        <time>2011-11-13T13:02:20Z</time>
      </trkpt>
      <trkpt lat="43.72639" lon="6.56062">
        <ele>1003.7</ele>
        <time>2011-11-13T13:02:25Z</time>
      </trkpt>
      <trkpt lat="43.72639" lon="6.56059">
        <ele>1003.5</ele>
        <time>2011-11-13T13:02:30Z</time>
      </trkpt>
      <trkpt lat="43.7264" lon="6.56056">
        <ele>1003.4</ele>
        <time>2011-11-13T13:02:35Z</time>
      </trkpt>
      <trkpt lat="43.72641" lon="6.56052">
        <ele>1003.1</ele>
        <time>2011-11-13T13:02:40Z</time>
      </trkpt>
      <trkpt lat="43.7264" lon="6.56049">
        <ele>1002.5</ele>
        <time>2011-11-13T13:02:45Z</time>
      </trkpt>
      <trkpt lat="43.7264" lon="6.56046">
        <ele>1001.7</ele>
        <time>2011-11-13T13:02:50Z</time>
      </trkpt>
      <trkpt lat="43.72638" lon="6.56043">
        <ele>1000.8</ele>
        <time>2011-11-13T13:02:55Z</time>
      </trkpt>
      <trkpt lat="43.72634" lon="6.5604">
        <ele>1000.6</ele>
        <time>2011-11-13T13:03:00Z</time>
      </trkpt>
      <trkpt lat="43.72631" lon="6.56038">
        <ele>1000</ele>
        <time>2011-11-13T13:03:05Z</time>
      </trkpt>
      <trkpt lat="43.72631" lon="6.56038">
        <ele>1000</ele>
        <time>2011-11-13T13:03:06Z</time>
      </trkpt>
      <trkpt lat="43.72624" lon="6.56041">
        <ele>999.7</ele>
        <time>2011-11-13T13:03:15Z</time>
      </trkpt>
      <trkpt lat="43.72619" lon="6.56042">
        <ele>999.3</ele>
        <time>2011-11-13T13:03:20Z</time>
      </trkpt>
      <trkpt lat="43.72614" lon="6.56045">
        <ele>999</ele>
        <time>2011-11-13T13:03:25Z</time>
      </trkpt>
      <trkpt lat="43.72609" lon="6.5605">
        <ele>999</ele>
        <time>2011-11-13T13:03:30Z</time>
      </trkpt>
      <trkpt lat="43.72605" lon="6.56055">
        <ele>999</ele>
        <time>2011-11-13T13:03:35Z</time>
      </trkpt>
      <trkpt lat="43.726" lon="6.5606">
        <ele>999</ele>
        <time>2011-11-13T13:03:40Z</time>
      </trkpt>
      <trkpt lat="43.72596" lon="6.56065">
        <ele>999.1</ele>
        <time>2011-11-13T13:03:45Z</time>
      </trkpt>
      <trkpt lat="43.72593" lon="6.56071">
        <ele>998.8</ele>
        <time>2011-11-13T13:03:50Z</time>
      </trkpt>
      <trkpt lat="43.7259" lon="6.56076">
        <ele>999.1</ele>
        <time>2011-11-13T13:03:55Z</time>
      </trkpt>
      <trkpt lat="43.72588" lon="6.56082">
        <ele>998.9</ele>
        <time>2011-11-13T13:04:00Z</time>
      </trkpt>
      <trkpt lat="43.72584" lon="6.56088">
        <ele>999</ele>
        <time>2011-11-13T13:04:05Z</time>
      </trkpt>
      <trkpt lat="43.72583" lon="6.56095">
        <ele>998.9</ele>
        <time>2011-11-13T13:04:10Z</time>
      </trkpt>
      <trkpt lat="43.72582" lon="6.56097">
        <ele>999</ele>
        <time>2011-11-13T13:04:11Z</time>
      </trkpt>
      <trkpt lat="43.72578" lon="6.56108">
        <ele>998.3</ele>
        <time>2011-11-13T13:04:20Z</time>
      </trkpt>
      <trkpt lat="43.72575" lon="6.56114">
        <ele>998.1</ele>
        <time>2011-11-13T13:04:25Z</time>
      </trkpt>
      <trkpt lat="43.72574" lon="6.56121">
        <ele>997.8</ele>
        <time>2011-11-13T13:04:30Z</time>
      </trkpt>
      <trkpt lat="43.72573" lon="6.56128">
        <ele>997.4</ele>
        <time>2011-11-13T13:04:35Z</time>
      </trkpt>
      <trkpt lat="43.72571" lon="6.56133">
        <ele>997.4</ele>
        <time>2011-11-13T13:04:40Z</time>
      </trkpt>
      <trkpt lat="43.72569" lon="6.56141">
        <ele>997.7</ele>
        <time>2011-11-13T13:04:45Z</time>
      </trkpt>
      <trkpt lat="43.72568" lon="6.56148">
        <ele>997.4</ele>
        <time>2011-11-13T13:04:50Z</time>
      </trkpt>
      <trkpt lat="43.72566" lon="6.56155">
        <ele>997.2</ele>
        <time>2011-11-13T13:04:55Z</time>
      </trkpt>
      <trkpt lat="43.72567" lon="6.56162">
        <ele>996.9</ele>
        <time>2011-11-13T13:05:00Z</time>
      </trkpt>
      <trkpt lat="43.72566" lon="6.56168">
        <ele>996</ele>
        <time>2011-11-13T13:05:05Z</time>
      </trkpt>
      <trkpt lat="43.72566" lon="6.56176">
        <ele>995.7</ele>
        <time>2011-11-13T13:05:10Z</time>
      </trkpt>
      <trkpt lat="43.72563" lon="6.56183">
        <ele>995.1</ele>
        <time>2011-11-13T13:05:15Z</time>
      </trkpt>
      <trkpt lat="43.72563" lon="6.56184">
        <ele>995.1</ele>
        <time>2011-11-13T13:05:16Z</time>
      </trkpt>
      <trkpt lat="43.72558" lon="6.56196">
        <ele>994.5</ele>
        <time>2011-11-13T13:05:25Z</time>
      </trkpt>
      <trkpt lat="43.72556" lon="6.56203">
        <ele>994.1</ele>
        <time>2011-11-13T13:05:30Z</time>
      </trkpt>
      <trkpt lat="43.72553" lon="6.5621">
        <ele>994.2</ele>
        <time>2011-11-13T13:05:35Z</time>
      </trkpt>
      <trkpt lat="43.7255" lon="6.56217">
        <ele>993.7</ele>
        <time>2011-11-13T13:05:40Z</time>
      </trkpt>
      <trkpt lat="43.72546" lon="6.56224">
        <ele>993.1</ele>
        <time>2011-11-13T13:05:45Z</time>
      </trkpt>
      <trkpt lat="43.72543" lon="6.56231">
        <ele>993.2</ele>
        <time>2011-11-13T13:05:50Z</time>
      </trkpt>
      <trkpt lat="43.72541" lon="6.56237">
        <ele>993.1</ele>
        <time>2011-11-13T13:05:55Z</time>
      </trkpt>
      <trkpt lat="43.72539" lon="6.56243">
        <ele>992.9</ele>
        <time>2011-11-13T13:06:00Z</time>
      </trkpt>
      <trkpt lat="43.72537" lon="6.56249">
        <ele>993</ele>
        <time>2011-11-13T13:06:05Z</time>
      </trkpt>
      <trkpt lat="43.72536" lon="6.56256">
        <ele>993</ele>
        <time>2011-11-13T13:06:10Z</time>
      </trkpt>
      <trkpt lat="43.72534" lon="6.56262">
        <ele>993.6</ele>
        <time>2011-11-13T13:06:15Z</time>
      </trkpt>
      <trkpt lat="43.72532" lon="6.56267">
        <ele>993.5</ele>
        <time>2011-11-13T13:06:20Z</time>
      </trkpt>
      <trkpt lat="43.72531" lon="6.56268">
        <ele>993.6</ele>
        <time>2011-11-13T13:06:21Z</time>
      </trkpt>
      <trkpt lat="43.72526" lon="6.56277">
        <ele>993.7</ele>
        <time>2011-11-13T13:06:30Z</time>
      </trkpt>
      <trkpt lat="43.72524" lon="6.56279">
        <ele>993.1</ele>
        <time>2011-11-13T13:06:35Z</time>
      </trkpt>
      <trkpt lat="43.72524" lon="6.5628">
        <ele>993.3</ele>
        <time>2011-11-13T13:06:40Z</time>
      </trkpt>
      <trkpt lat="43.72523" lon="6.56281">
        <ele>993.6</ele>
        <time>2011-11-13T13:06:45Z</time>
      </trkpt>
      <trkpt lat="43.7252" lon="6.56281">
        <ele>993.6</ele>
        <time>2011-11-13T13:06:50Z</time>
      </trkpt>
      <trkpt lat="43.72518" lon="6.56281">
        <ele>993.7</ele>
        <time>2011-11-13T13:06:55Z</time>
      </trkpt>
      <trkpt lat="43.72518" lon="6.56279">
        <ele>993.7</ele>
        <time>2011-11-13T13:07:00Z</time>
      </trkpt>
      <trkpt lat="43.7252" lon="6.56278">
        <ele>993.2</ele>
        <time>2011-11-13T13:07:05Z</time>
      </trkpt>
      <trkpt lat="43.72521" lon="6.56277">
        <ele>992.9</ele>
        <time>2011-11-13T13:07:10Z</time>
      </trkpt>
      <trkpt lat="43.72519" lon="6.56274">
        <ele>992.2</ele>
        <time>2011-11-13T13:07:15Z</time>
      </trkpt>
      <trkpt lat="43.72518" lon="6.5627">
        <ele>991.7</ele>
        <time>2011-11-13T13:07:20Z</time>
      </trkpt>
      <trkpt lat="43.72517" lon="6.56265">
        <ele>990.7</ele>
        <time>2011-11-13T13:07:25Z</time>
      </trkpt>
      <trkpt lat="43.72517" lon="6.56265">
        <ele>990.4</ele>
        <time>2011-11-13T13:07:26Z</time>
      </trkpt>
      <trkpt lat="43.72515" lon="6.56257">
        <ele>988.9</ele>
        <time>2011-11-13T13:07:35Z</time>
      </trkpt>
      <trkpt lat="43.72514" lon="6.56251">
        <ele>987.8</ele>
        <time>2011-11-13T13:07:40Z</time>
      </trkpt>
      <trkpt lat="43.72514" lon="6.56246">
        <ele>987.1</ele>
        <time>2011-11-13T13:07:45Z</time>
      </trkpt>
      <trkpt lat="43.72513" lon="6.56238">
        <ele>987</ele>
        <time>2011-11-13T13:07:50Z</time>
      </trkpt>
      <trkpt lat="43.72512" lon="6.56232">
        <ele>986.1</ele>
        <time>2011-11-13T13:07:55Z</time>
      </trkpt>
      <trkpt lat="43.72511" lon="6.56227">
        <ele>985.1</ele>
        <time>2011-11-13T13:08:00Z</time>
      </trkpt>
      <trkpt lat="43.72509" lon="6.56222">
        <ele>984.2</ele>
        <time>2011-11-13T13:08:05Z</time>
      </trkpt>
      <trkpt lat="43.72508" lon="6.56218">
        <ele>983.1</ele>
        <time>2011-11-13T13:08:10Z</time>
      </trkpt>
      <trkpt lat="43.72505" lon="6.56213">
        <ele>982.4</ele>
        <time>2011-11-13T13:08:15Z</time>
      </trkpt>
      <trkpt lat="43.72503" lon="6.56208">
        <ele>981.7</ele>
        <time>2011-11-13T13:08:20Z</time>
      </trkpt>
      <trkpt lat="43.725" lon="6.56203">
        <ele>980.9</ele>
        <time>2011-11-13T13:08:25Z</time>
      </trkpt>
      <trkpt lat="43.725" lon="6.56199">
        <ele>980.5</ele>
        <time>2011-11-13T13:08:30Z</time>
      </trkpt>
      <trkpt lat="43.72499" lon="6.56198">
        <ele>980.4</ele>
        <time>2011-11-13T13:08:31Z</time>
      </trkpt>
      <trkpt lat="43.72497" lon="6.5619">
        <ele>978.4</ele>
        <time>2011-11-13T13:08:40Z</time>
      </trkpt>
      <trkpt lat="43.72496" lon="6.56185">
        <ele>977.8</ele>
        <time>2011-11-13T13:08:45Z</time>
      </trkpt>
      <trkpt lat="43.72495" lon="6.5618">
        <ele>977.5</ele>
        <time>2011-11-13T13:08:50Z</time>
      </trkpt>
      <trkpt lat="43.72494" lon="6.56175">
        <ele>975.9</ele>
        <time>2011-11-13T13:08:55Z</time>
      </trkpt>
      <trkpt lat="43.72492" lon="6.56169">
        <ele>974.6</ele>
        <time>2011-11-13T13:09:00Z</time>
      </trkpt>
      <trkpt lat="43.7249" lon="6.56163">
        <ele>974</ele>
        <time>2011-11-13T13:09:05Z</time>
      </trkpt>
      <trkpt lat="43.72488" lon="6.56158">
        <ele>973.3</ele>
        <time>2011-11-13T13:09:10Z</time>
      </trkpt>
      <trkpt lat="43.72487" lon="6.56154">
        <ele>972.6</ele>
        <time>2011-11-13T13:09:15Z</time>
      </trkpt>
      <trkpt lat="43.72485" lon="6.56151">
        <ele>972</ele>
        <time>2011-11-13T13:09:20Z</time>
      </trkpt>
      <trkpt lat="43.72484" lon="6.56148">
        <ele>971.4</ele>
        <time>2011-11-13T13:09:25Z</time>
      </trkpt>
      <trkpt lat="43.72483" lon="6.56144">
        <ele>970.5</ele>
        <time>2011-11-13T13:09:30Z</time>
      </trkpt>
      <trkpt lat="43.72481" lon="6.56141">
        <ele>969.3</ele>
        <time>2011-11-13T13:09:35Z</time>
      </trkpt>
      <trkpt lat="43.7248" lon="6.56141">
        <ele>968.6</ele>
        <time>2011-11-13T13:09:36Z</time>
      </trkpt>
      <trkpt lat="43.72475" lon="6.56135">
        <ele>966.7</ele>
        <time>2011-11-13T13:09:45Z</time>
      </trkpt>
      <trkpt lat="43.72473" lon="6.56133">
        <ele>965.4</ele>
        <time>2011-11-13T13:09:50Z</time>
      </trkpt>
      <trkpt lat="43.72469" lon="6.5613">
        <ele>964.7</ele>
        <time>2011-11-13T13:09:55Z</time>
      </trkpt>
      <trkpt lat="43.72466" lon="6.56128">
        <ele>963.7</ele>
        <time>2011-11-13T13:10:00Z</time>
      </trkpt>
      <trkpt lat="43.72461" lon="6.56125">
        <ele>962.5</ele>
        <time>2011-11-13T13:10:05Z</time>
      </trkpt>
      <trkpt lat="43.72458" lon="6.5612">
        <ele>961.8</ele>
        <time>2011-11-13T13:10:10Z</time>
      </trkpt>
      <trkpt lat="43.72455" lon="6.56116">
        <ele>961.2</ele>
        <time>2011-11-13T13:10:15Z</time>
      </trkpt>
      <trkpt lat="43.72452" lon="6.56111">
        <ele>960.8</ele>
        <time>2011-11-13T13:10:20Z</time>
      </trkpt>
      <trkpt lat="43.72449" lon="6.56108">
        <ele>960.5</ele>
        <time>2011-11-13T13:10:25Z</time>
      </trkpt>
      <trkpt lat="43.72446" lon="6.56106">
        <ele>959.6</ele>
        <time>2011-11-13T13:10:30Z</time>
      </trkpt>
      <trkpt lat="43.72441" lon="6.56105">
        <ele>958.2</ele>
        <time>2011-11-13T13:10:35Z</time>
      </trkpt>
      <trkpt lat="43.72436" lon="6.56104">
        <ele>957.2</ele>
        <time>2011-11-13T13:10:40Z</time>
      </trkpt>
      <trkpt lat="43.72435" lon="6.56104">
        <ele>957.1</ele>
        <time>2011-11-13T13:10:41Z</time>
      </trkpt>
      <trkpt lat="43.72429" lon="6.56107">
        <ele>956</ele>
        <time>2011-11-13T13:10:50Z</time>
      </trkpt>
      <trkpt lat="43.72425" lon="6.56106">
        <ele>954.4</ele>
        <time>2011-11-13T13:10:55Z</time>
      </trkpt>
      <trkpt lat="43.72421" lon="6.56104">
        <ele>954</ele>
        <time>2011-11-13T13:11:00Z</time>
      </trkpt>
      <trkpt lat="43.72418" lon="6.56103">
        <ele>953.3</ele>
        <time>2011-11-13T13:11:05Z</time>
      </trkpt>
      <trkpt lat="43.72416" lon="6.56103">
        <ele>952.9</ele>
        <time>2011-11-13T13:11:10Z</time>
      </trkpt>
      <trkpt lat="43.72413" lon="6.56102">
        <ele>952.8</ele>
        <time>2011-11-13T13:11:15Z</time>
      </trkpt>
      <trkpt lat="43.7241" lon="6.561">
        <ele>951.7</ele>
        <time>2011-11-13T13:11:20Z</time>
      </trkpt>
      <trkpt lat="43.72407" lon="6.56101">
        <ele>950.9</ele>
        <time>2011-11-13T13:11:25Z</time>
      </trkpt>
      <trkpt lat="43.72404" lon="6.561">
        <ele>950.3</ele>
        <time>2011-11-13T13:11:30Z</time>
      </trkpt>
      <trkpt lat="43.72401" lon="6.56098">
        <ele>949</ele>
        <time>2011-11-13T13:11:35Z</time>
      </trkpt>
      <trkpt lat="43.72399" lon="6.56098">
        <ele>948.4</ele>
        <time>2011-11-13T13:11:40Z</time>
      </trkpt>
      <trkpt lat="43.72397" lon="6.56095">
        <ele>947.4</ele>
        <time>2011-11-13T13:11:45Z</time>
      </trkpt>
      <trkpt lat="43.72396" lon="6.56095">
        <ele>947.4</ele>
        <time>2011-11-13T13:11:46Z</time>
      </trkpt>
      <trkpt lat="43.72388" lon="6.56088">
        <ele>945.8</ele>
        <time>2011-11-13T13:11:55Z</time>
      </trkpt>
      <trkpt lat="43.72385" lon="6.56085">
        <ele>946.2</ele>
        <time>2011-11-13T13:12:00Z</time>
      </trkpt>
      <trkpt lat="43.72381" lon="6.56079">
        <ele>945.9</ele>
        <time>2011-11-13T13:12:05Z</time>
      </trkpt>
      <trkpt lat="43.72377" lon="6.56073">
        <ele>945.4</ele>
        <time>2011-11-13T13:12:10Z</time>
      </trkpt>
      <trkpt lat="43.72373" lon="6.56065">
        <ele>945.3</ele>
        <time>2011-11-13T13:12:15Z</time>
      </trkpt>
      <trkpt lat="43.72369" lon="6.56059">
        <ele>945.1</ele>
        <time>2011-11-13T13:12:20Z</time>
      </trkpt>
      <trkpt lat="43.72367" lon="6.56052">
        <ele>944.7</ele>
        <time>2011-11-13T13:12:25Z</time>
      </trkpt>
      <trkpt lat="43.72364" lon="6.56046">
        <ele>945.1</ele>
        <time>2011-11-13T13:12:30Z</time>
      </trkpt>
      <trkpt lat="43.7236" lon="6.5604">
        <ele>945.3</ele>
        <time>2011-11-13T13:12:35Z</time>
      </trkpt>
      <trkpt lat="43.72355" lon="6.56035">
        <ele>945.4</ele>
        <time>2011-11-13T13:12:40Z</time>
      </trkpt>
      <trkpt lat="43.72352" lon="6.56028">
        <ele>945.5</ele>
        <time>2011-11-13T13:12:45Z</time>
      </trkpt>
      <trkpt lat="43.72349" lon="6.56021">
        <ele>944.7</ele>
        <time>2011-11-13T13:12:50Z</time>
      </trkpt>
      <trkpt lat="43.72348" lon="6.5602">
        <ele>944.5</ele>
        <time>2011-11-13T13:12:51Z</time>
      </trkpt>
      <trkpt lat="43.72343" lon="6.56008">
        <ele>943.8</ele>
        <time>2011-11-13T13:13:00Z</time>
      </trkpt>
      <trkpt lat="43.72339" lon="6.56001">
        <ele>943.7</ele>
        <time>2011-11-13T13:13:05Z</time>
      </trkpt>
      <trkpt lat="43.72335" lon="6.55996">
        <ele>943</ele>
        <time>2011-11-13T13:13:10Z</time>
      </trkpt>
      <trkpt lat="43.72332" lon="6.55989">
        <ele>942.9</ele>
        <time>2011-11-13T13:13:15Z</time>
      </trkpt>
      <trkpt lat="43.72329" lon="6.55982">
        <ele>942.9</ele>
        <time>2011-11-13T13:13:20Z</time>
      </trkpt>
      <trkpt lat="43.72326" lon="6.55975">
        <ele>942.8</ele>
        <time>2011-11-13T13:13:25Z</time>
      </trkpt>
      <trkpt lat="43.72323" lon="6.55969">
        <ele>942.8</ele>
        <time>2011-11-13T13:13:30Z</time>
      </trkpt>
      <trkpt lat="43.7232" lon="6.55962">
        <ele>942.3</ele>
        <time>2011-11-13T13:13:35Z</time>
      </trkpt>
      <trkpt lat="43.72316" lon="6.55955">
        <ele>941.7</ele>
        <time>2011-11-13T13:13:40Z</time>
      </trkpt>
      <trkpt lat="43.72313" lon="6.55948">
        <ele>941.5</ele>
        <time>2011-11-13T13:13:45Z</time>
      </trkpt>
      <trkpt lat="43.72309" lon="6.55942">
        <ele>941.2</ele>
        <time>2011-11-13T13:13:50Z</time>
      </trkpt>
      <trkpt lat="43.72305" lon="6.55936">
        <ele>941.1</ele>
        <time>2011-11-13T13:13:55Z</time>
      </trkpt>
      <trkpt lat="43.72304" lon="6.55935">
        <ele>941.2</ele>
        <time>2011-11-13T13:13:56Z</time>
      </trkpt>
      <trkpt lat="43.72299" lon="6.55924">
        <ele>941.6</ele>
        <time>2011-11-13T13:14:05Z</time>
      </trkpt>
      <trkpt lat="43.72295" lon="6.55917">
        <ele>941.5</ele>
        <time>2011-11-13T13:14:10Z</time>
      </trkpt>
      <trkpt lat="43.72291" lon="6.55911">
        <ele>940.9</ele>
        <time>2011-11-13T13:14:15Z</time>
      </trkpt>
      <trkpt lat="43.72288" lon="6.55904">
        <ele>940.9</ele>
        <time>2011-11-13T13:14:20Z</time>
      </trkpt>
      <trkpt lat="43.72284" lon="6.55897">
        <ele>940.7</ele>
        <time>2011-11-13T13:14:25Z</time>
      </trkpt>
      <trkpt lat="43.72282" lon="6.55889">
        <ele>940.7</ele>
        <time>2011-11-13T13:14:30Z</time>
      </trkpt>
      <trkpt lat="43.7228" lon="6.55881">
        <ele>940.4</ele>
        <time>2011-11-13T13:14:35Z</time>
      </trkpt>
      <trkpt lat="43.72278" lon="6.55874">
        <ele>940.2</ele>
        <time>2011-11-13T13:14:40Z</time>
      </trkpt>
      <trkpt lat="43.72276" lon="6.55868">
        <ele>939.6</ele>
        <time>2011-11-13T13:14:45Z</time>
      </trkpt>
      <trkpt lat="43.72275" lon="6.55862">
        <ele>938.8</ele>
        <time>2011-11-13T13:14:50Z</time>
      </trkpt>
      <trkpt lat="43.72274" lon="6.55857">
        <ele>938.6</ele>
        <time>2011-11-13T13:14:55Z</time>
      </trkpt>
      <trkpt lat="43.72272" lon="6.55851">
        <ele>938.5</ele>
        <time>2011-11-13T13:15:00Z</time>
      </trkpt>
      <trkpt lat="43.72272" lon="6.5585">
        <ele>938.5</ele>
        <time>2011-11-13T13:15:01Z</time>
      </trkpt>
      <trkpt lat="43.7227" lon="6.55838">
        <ele>938.3</ele>
        <time>2011-11-13T13:15:10Z</time>
      </trkpt>
      <trkpt lat="43.72269" lon="6.55833">
        <ele>938</ele>
        <time>2011-11-13T13:15:15Z</time>
      </trkpt>
      <trkpt lat="43.72269" lon="6.55826">
        <ele>937.4</ele>
        <time>2011-11-13T13:15:20Z</time>
      </trkpt>
      <trkpt lat="43.72268" lon="6.55818">
        <ele>937.6</ele>
        <time>2011-11-13T13:15:25Z</time>
      </trkpt>
      <trkpt lat="43.72268" lon="6.55811">
        <ele>936.9</ele>
        <time>2011-11-13T13:15:30Z</time>
      </trkpt>
      <trkpt lat="43.72268" lon="6.55803">
        <ele>936.8</ele>
        <time>2011-11-13T13:15:35Z</time>
      </trkpt>
      <trkpt lat="43.72268" lon="6.55795">
        <ele>936.3</ele>
        <time>2011-11-13T13:15:40Z</time>
      </trkpt>
      <trkpt lat="43.72269" lon="6.55788">
        <ele>936</ele>
        <time>2011-11-13T13:15:45Z</time>
      </trkpt>
      <trkpt lat="43.72269" lon="6.55781">
        <ele>935.3</ele>
        <time>2011-11-13T13:15:50Z</time>
      </trkpt>
      <trkpt lat="43.7227" lon="6.55775">
        <ele>934.8</ele>
        <time>2011-11-13T13:15:55Z</time>
      </trkpt>
      <trkpt lat="43.7227" lon="6.55769">
        <ele>934.5</ele>
        <time>2011-11-13T13:16:00Z</time>
      </trkpt>
      <trkpt lat="43.7227" lon="6.55764">
        <ele>933.8</ele>
        <time>2011-11-13T13:16:05Z</time>
      </trkpt>
      <trkpt lat="43.7227" lon="6.55763">
        <ele>933.6</ele>
        <time>2011-11-13T13:16:06Z</time>
      </trkpt>
      <trkpt lat="43.72271" lon="6.55753">
        <ele>933</ele>
        <time>2011-11-13T13:16:15Z</time>
      </trkpt>
      <trkpt lat="43.72271" lon="6.55747">
        <ele>932.1</ele>
        <time>2011-11-13T13:16:20Z</time>
      </trkpt>
      <trkpt lat="43.72272" lon="6.55741">
        <ele>931.3</ele>
        <time>2011-11-13T13:16:25Z</time>
      </trkpt>
      <trkpt lat="43.72273" lon="6.55734">
        <ele>930.9</ele>
        <time>2011-11-13T13:16:30Z</time>
      </trkpt>
      <trkpt lat="43.72273" lon="6.55726">
        <ele>930.4</ele>
        <time>2011-11-13T13:16:35Z</time>
      </trkpt>
      <trkpt lat="43.72273" lon="6.55719">
        <ele>930</ele>
        <time>2011-11-13T13:16:40Z</time>
      </trkpt>
      <trkpt lat="43.72274" lon="6.55712">
        <ele>930</ele>
        <time>2011-11-13T13:16:45Z</time>
      </trkpt>
      <trkpt lat="43.72275" lon="6.55705">
        <ele>929.4</ele>
        <time>2011-11-13T13:16:50Z</time>
      </trkpt>
      <trkpt lat="43.72276" lon="6.55698">
        <ele>929.1</ele>
        <time>2011-11-13T13:16:55Z</time>
      </trkpt>
      <trkpt lat="43.72277" lon="6.55691">
        <ele>928.3</ele>
        <time>2011-11-13T13:17:00Z</time>
      </trkpt>
      <trkpt lat="43.72279" lon="6.55684">
        <ele>927.2</ele>
        <time>2011-11-13T13:17:05Z</time>
      </trkpt>
      <trkpt lat="43.7228" lon="6.55677">
        <ele>926.9</ele>
        <time>2011-11-13T13:17:10Z</time>
      </trkpt>
      <trkpt lat="43.7228" lon="6.55676">
        <ele>926.7</ele>
        <time>2011-11-13T13:17:11Z</time>
      </trkpt>
      <trkpt lat="43.72283" lon="6.55663">
        <ele>925.1</ele>
        <time>2011-11-13T13:17:20Z</time>
      </trkpt>
      <trkpt lat="43.72285" lon="6.55656">
        <ele>924.7</ele>
        <time>2011-11-13T13:17:25Z</time>
      </trkpt>
      <trkpt lat="43.72288" lon="6.5565">
        <ele>923.5</ele>
        <time>2011-11-13T13:17:30Z</time>
      </trkpt>
      <trkpt lat="43.72291" lon="6.55643">
        <ele>923.2</ele>
        <time>2011-11-13T13:17:35Z</time>
      </trkpt>
      <trkpt lat="43.72293" lon="6.55636">
        <ele>922.8</ele>
        <time>2011-11-13T13:17:40Z</time>
      </trkpt>
      <trkpt lat="43.72296" lon="6.5563">
        <ele>921.9</ele>
        <time>2011-11-13T13:17:45Z</time>
      </trkpt>
      <trkpt lat="43.72297" lon="6.55625">
        <ele>921.3</ele>
        <time>2011-11-13T13:17:50Z</time>
      </trkpt>
      <trkpt lat="43.723" lon="6.55622">
        <ele>920.6</ele>
        <time>2011-11-13T13:17:55Z</time>
      </trkpt>
      <trkpt lat="43.723" lon="6.55622">
        <ele>920.3</ele>
        <time>2011-11-13T13:18:00Z</time>
      </trkpt>
      <trkpt lat="43.72301" lon="6.55622">
        <ele>920.2</ele>
        <time>2011-11-13T13:18:05Z</time>
      </trkpt>
      <trkpt lat="43.72302" lon="6.55621">
        <ele>920.3</ele>
        <time>2011-11-13T13:18:10Z</time>
      </trkpt>
      <trkpt lat="43.72303" lon="6.5562">
        <ele>920.1</ele>
        <time>2011-11-13T13:18:15Z</time>
      </trkpt>
      <trkpt lat="43.72303" lon="6.5562">
        <ele>920.1</ele>
        <time>2011-11-13T13:18:16Z</time>
      </trkpt>
      <trkpt lat="43.72305" lon="6.5562">
        <ele>920.5</ele>
        <time>2011-11-13T13:18:25Z</time>
      </trkpt>
      <trkpt lat="43.72306" lon="6.55619">
        <ele>920</ele>
        <time>2011-11-13T13:18:30Z</time>
      </trkpt>
      <trkpt lat="43.72307" lon="6.5562">
        <ele>920.5</ele>
        <time>2011-11-13T13:18:35Z</time>
      </trkpt>
      <trkpt lat="43.72309" lon="6.5562">
        <ele>920.1</ele>
        <time>2011-11-13T13:18:40Z</time>
      </trkpt>
      <trkpt lat="43.72311" lon="6.55622">
        <ele>920.3</ele>
        <time>2011-11-13T13:18:45Z</time>
      </trkpt>
      <trkpt lat="43.72313" lon="6.55623">
        <ele>920.1</ele>
        <time>2011-11-13T13:18:50Z</time>
      </trkpt>
      <trkpt lat="43.72314" lon="6.55623">
        <ele>920.1</ele>
        <time>2011-11-13T13:18:55Z</time>
      </trkpt>
      <trkpt lat="43.72313" lon="6.55623">
        <ele>920</ele>
        <time>2011-11-13T13:19:00Z</time>
      </trkpt>
      <trkpt lat="43.72312" lon="6.55622">
        <ele>920</ele>
        <time>2011-11-13T13:19:05Z</time>
      </trkpt>
      <trkpt lat="43.72312" lon="6.55621">
        <ele>920.2</ele>
        <time>2011-11-13T13:19:10Z</time>
      </trkpt>
      <trkpt lat="43.72311" lon="6.55621">
        <ele>920.3</ele>
        <time>2011-11-13T13:19:15Z</time>
      </trkpt>
      <trkpt lat="43.72311" lon="6.5562">
        <ele>920.3</ele>
        <time>2011-11-13T13:19:20Z</time>
      </trkpt>
      <trkpt lat="43.72311" lon="6.55619">
        <ele>920.3</ele>
        <time>2011-11-13T13:19:21Z</time>
      </trkpt>
      <trkpt lat="43.7231" lon="6.55618">
        <ele>920.2</ele>
        <time>2011-11-13T13:19:30Z</time>
      </trkpt>
      <trkpt lat="43.72309" lon="6.55617">
        <ele>920.3</ele>
        <time>2011-11-13T13:19:35Z</time>
      </trkpt>
      <trkpt lat="43.72309" lon="6.55613">
        <ele>919.9</ele>
        <time>2011-11-13T13:19:40Z</time>
      </trkpt>
      <trkpt lat="43.72307" lon="6.5561">
        <ele>919.7</ele>
        <time>2011-11-13T13:19:45Z</time>
      </trkpt>
      <trkpt lat="43.72304" lon="6.55608">
        <ele>919.2</ele>
        <time>2011-11-13T13:19:50Z</time>
      </trkpt>
      <trkpt lat="43.72302" lon="6.55606">
        <ele>919.4</ele>
        <time>2011-11-13T13:19:55Z</time>
      </trkpt>
      <trkpt lat="43.72299" lon="6.55604">
        <ele>919</ele>
        <time>2011-11-13T13:20:00Z</time>
      </trkpt>
      <trkpt lat="43.72296" lon="6.55602">
        <ele>918.6</ele>
        <time>2011-11-13T13:20:05Z</time>
      </trkpt>
      <trkpt lat="43.72293" lon="6.55599">
        <ele>918.6</ele>
        <time>2011-11-13T13:20:10Z</time>
      </trkpt>
      <trkpt lat="43.72288" lon="6.55598">
        <ele>918.4</ele>
        <time>2011-11-13T13:20:15Z</time>
      </trkpt>
      <trkpt lat="43.72285" lon="6.556">
        <ele>918.3</ele>
        <time>2011-11-13T13:20:20Z</time>
      </trkpt>
      <trkpt lat="43.72283" lon="6.55602">
        <ele>918.5</ele>
        <time>2011-11-13T13:20:25Z</time>
      </trkpt>
      <trkpt lat="43.72282" lon="6.55603">
        <ele>918.5</ele>
        <time>2011-11-13T13:20:26Z</time>
      </trkpt>
      <trkpt lat="43.72278" lon="6.55611">
        <ele>918.3</ele>
        <time>2011-11-13T13:20:35Z</time>
      </trkpt>
      <trkpt lat="43.72277" lon="6.5561">
        <ele>918.5</ele>
        <time>2011-11-13T13:20:40Z</time>
      </trkpt>
      <trkpt lat="43.72278" lon="6.55609">
        <ele>918.5</ele>
        <time>2011-11-13T13:20:45Z</time>
      </trkpt>
      <trkpt lat="43.72277" lon="6.55611">
        <ele>918.6</ele>
        <time>2011-11-13T13:20:50Z</time>
      </trkpt>
      <trkpt lat="43.72276" lon="6.55611">
        <ele>918</ele>
        <time>2011-11-13T13:20:59Z</time>
      </trkpt>
      <trkpt lat="43.72283" lon="6.55602">
        <ele>917</ele>
        <time>2011-11-13T13:21:24Z</time>
      </trkpt>
      <trkpt lat="43.72284" lon="6.55604">
        <ele>917.8</ele>
        <time>2011-11-13T13:21:27Z</time>
      </trkpt>
      <trkpt lat="43.72275" lon="6.55609">
        <ele>917.4</ele>
        <time>2011-11-13T13:21:51Z</time>
      </trkpt>
      <trkpt lat="43.7228" lon="6.55614">
        <ele>917.1</ele>
        <time>2011-11-13T13:21:56Z</time>
      </trkpt>
      <trkpt lat="43.72279" lon="6.55611">
        <ele>917.1</ele>
        <time>2011-11-13T13:22:01Z</time>
      </trkpt>
      <trkpt lat="43.7228" lon="6.55612">
        <ele>917.1</ele>
        <time>2011-11-13T13:22:06Z</time>
      </trkpt>
      <trkpt lat="43.72279" lon="6.55609">
        <ele>917.4</ele>
        <time>2011-11-13T13:22:11Z</time>
      </trkpt>
      <trkpt lat="43.72277" lon="6.55608">
        <ele>917.3</ele>
        <time>2011-11-13T13:22:16Z</time>
      </trkpt>
      <trkpt lat="43.72277" lon="6.55608">
        <ele>916.7</ele>
        <time>2011-11-13T13:22:21Z</time>
      </trkpt>
      <trkpt lat="43.72276" lon="6.55607">
        <ele>916.7</ele>
        <time>2011-11-13T13:22:26Z</time>
      </trkpt>
      <trkpt lat="43.72277" lon="6.55606">
        <ele>916.7</ele>
        <time>2011-11-13T13:22:31Z</time>
      </trkpt>
      <trkpt lat="43.72276" lon="6.55606">
        <ele>916.7</ele>
        <time>2011-11-13T13:22:32Z</time>
      </trkpt>
      <trkpt lat="43.72277" lon="6.55604">
        <ele>916.8</ele>
        <time>2011-11-13T13:22:41Z</time>
      </trkpt>
      <trkpt lat="43.72277" lon="6.55604">
        <ele>916.8</ele>
        <time>2011-11-13T13:22:46Z</time>
      </trkpt>
      <trkpt lat="43.72277" lon="6.55604">
        <ele>916.9</ele>
        <time>2011-11-13T13:22:51Z</time>
      </trkpt>
      <trkpt lat="43.72277" lon="6.55603">
        <ele>917.1</ele>
        <time>2011-11-13T13:22:56Z</time>
      </trkpt>
      <trkpt lat="43.72277" lon="6.55603">
        <ele>916.8</ele>
        <time>2011-11-13T13:23:01Z</time>
      </trkpt>
      <trkpt lat="43.72277" lon="6.556">
        <ele>917</ele>
        <time>2011-11-13T13:23:06Z</time>
      </trkpt>
      <trkpt lat="43.72279" lon="6.55597">
        <ele>916.9</ele>
        <time>2011-11-13T13:23:11Z</time>
      </trkpt>
      <trkpt lat="43.7228" lon="6.55595">
        <ele>917.4</ele>
        <time>2011-11-13T13:23:16Z</time>
      </trkpt>
      <trkpt lat="43.7228" lon="6.55595">
        <ele>917.2</ele>
        <time>2011-11-13T13:23:21Z</time>
      </trkpt>
      <trkpt lat="43.7228" lon="6.55596">
        <ele>917.2</ele>
        <time>2011-11-13T13:23:26Z</time>
      </trkpt>
      <trkpt lat="43.7228" lon="6.55595">
        <ele>917.2</ele>
        <time>2011-11-13T13:23:31Z</time>
      </trkpt>
      <trkpt lat="43.72279" lon="6.55595">
        <ele>917.5</ele>
        <time>2011-11-13T13:23:36Z</time>
      </trkpt>
      <trkpt lat="43.72279" lon="6.55595">
        <ele>917.5</ele>
        <time>2011-11-13T13:23:37Z</time>
      </trkpt>
      <trkpt lat="43.72279" lon="6.55594">
        <ele>916.8</ele>
        <time>2011-11-13T13:23:46Z</time>
      </trkpt>
      <trkpt lat="43.72279" lon="6.55594">
        <ele>916.8</ele>
        <time>2011-11-13T13:23:51Z</time>
      </trkpt>
      <trkpt lat="43.72279" lon="6.55594">
        <ele>916.9</ele>
        <time>2011-11-13T13:23:56Z</time>
      </trkpt>
      <trkpt lat="43.72278" lon="6.55593">
        <ele>916.7</ele>
        <time>2011-11-13T13:24:01Z</time>
      </trkpt>
      <trkpt lat="43.72277" lon="6.55593">
        <ele>916.6</ele>
        <time>2011-11-13T13:24:06Z</time>
      </trkpt>
      <trkpt lat="43.72277" lon="6.55593">
        <ele>917</ele>
        <time>2011-11-13T13:24:11Z</time>
      </trkpt>
      <trkpt lat="43.72277" lon="6.55593">
        <ele>916.7</ele>
        <time>2011-11-13T13:24:16Z</time>
      </trkpt>
      <trkpt lat="43.72276" lon="6.55593">
        <ele>916.7</ele>
        <time>2011-11-13T13:24:21Z</time>
      </trkpt>
      <trkpt lat="43.72276" lon="6.55592">
        <ele>917.2</ele>
        <time>2011-11-13T13:24:26Z</time>
      </trkpt>
      <trkpt lat="43.72276" lon="6.55592">
        <ele>917.2</ele>
        <time>2011-11-13T13:24:31Z</time>
      </trkpt>
      <trkpt lat="43.72277" lon="6.55592">
        <ele>917</ele>
        <time>2011-11-13T13:24:36Z</time>
      </trkpt>
      <trkpt lat="43.72279" lon="6.55589">
        <ele>916.4</ele>
        <time>2011-11-13T13:24:41Z</time>
      </trkpt>
      <trkpt lat="43.7228" lon="6.55589">
        <ele>916.5</ele>
        <time>2011-11-13T13:24:42Z</time>
      </trkpt>
      <trkpt lat="43.72285" lon="6.55583">
        <ele>915.8</ele>
        <time>2011-11-13T13:24:51Z</time>
      </trkpt>
      <trkpt lat="43.72287" lon="6.55581">
        <ele>915.4</ele>
        <time>2011-11-13T13:24:56Z</time>
      </trkpt>
      <trkpt lat="43.72289" lon="6.55577">
        <ele>915.3</ele>
        <time>2011-11-13T13:25:01Z</time>
      </trkpt>
      <trkpt lat="43.7229" lon="6.55573">
        <ele>914.7</ele>
        <time>2011-11-13T13:25:06Z</time>
      </trkpt>
      <trkpt lat="43.72291" lon="6.55571">
        <ele>914.5</ele>
        <time>2011-11-13T13:25:11Z</time>
      </trkpt>
      <trkpt lat="43.72291" lon="6.5557">
        <ele>914.4</ele>
        <time>2011-11-13T13:25:16Z</time>
      </trkpt>
      <trkpt lat="43.72291" lon="6.55569">
        <ele>914.6</ele>
        <time>2011-11-13T13:25:21Z</time>
      </trkpt>
      <trkpt lat="43.72291" lon="6.55565">
        <ele>914.2</ele>
        <time>2011-11-13T13:25:26Z</time>
      </trkpt>
      <trkpt lat="43.72291" lon="6.5556">
        <ele>913.9</ele>
        <time>2011-11-13T13:25:31Z</time>
      </trkpt>
      <trkpt lat="43.72289" lon="6.55554">
        <ele>913.2</ele>
        <time>2011-11-13T13:25:36Z</time>
      </trkpt>
      <trkpt lat="43.72287" lon="6.55549">
        <ele>912.6</ele>
        <time>2011-11-13T13:25:41Z</time>
      </trkpt>
      <trkpt lat="43.72286" lon="6.55547">
        <ele>912.2</ele>
        <time>2011-11-13T13:25:46Z</time>
      </trkpt>
      <trkpt lat="43.72286" lon="6.55546">
        <ele>912.2</ele>
        <time>2011-11-13T13:25:47Z</time>
      </trkpt>
      <trkpt lat="43.72286" lon="6.55542">
        <ele>912.4</ele>
        <time>2011-11-13T13:25:56Z</time>
      </trkpt>
      <trkpt lat="43.72285" lon="6.55541">
        <ele>912</ele>
        <time>2011-11-13T13:26:01Z</time>
      </trkpt>
      <trkpt lat="43.72286" lon="6.55539">
        <ele>911.5</ele>
        <time>2011-11-13T13:26:06Z</time>
      </trkpt>
      <trkpt lat="43.72284" lon="6.55534">
        <ele>911.2</ele>
        <time>2011-11-13T13:26:11Z</time>
      </trkpt>
      <trkpt lat="43.72283" lon="6.55528">
        <ele>911.3</ele>
        <time>2011-11-13T13:26:16Z</time>
      </trkpt>
      <trkpt lat="43.72282" lon="6.55522">
        <ele>910.5</ele>
        <time>2011-11-13T13:26:21Z</time>
      </trkpt>
      <trkpt lat="43.72281" lon="6.55516">
        <ele>909.7</ele>
        <time>2011-11-13T13:26:26Z</time>
      </trkpt>
      <trkpt lat="43.72281" lon="6.55509">
        <ele>909.5</ele>
        <time>2011-11-13T13:26:31Z</time>
      </trkpt>
      <trkpt lat="43.72281" lon="6.55502">
        <ele>909.1</ele>
        <time>2011-11-13T13:26:36Z</time>
      </trkpt>
      <trkpt lat="43.72282" lon="6.55495">
        <ele>908.3</ele>
        <time>2011-11-13T13:26:41Z</time>
      </trkpt>
      <trkpt lat="43.72283" lon="6.55487">
        <ele>908</ele>
        <time>2011-11-13T13:26:46Z</time>
      </trkpt>
      <trkpt lat="43.72285" lon="6.55481">
        <ele>907.7</ele>
        <time>2011-11-13T13:26:51Z</time>
      </trkpt>
      <trkpt lat="43.72285" lon="6.55479">
        <ele>907.5</ele>
        <time>2011-11-13T13:26:52Z</time>
      </trkpt>
      <trkpt lat="43.72288" lon="6.55471">
        <ele>907.1</ele>
        <time>2011-11-13T13:27:01Z</time>
      </trkpt>
      <trkpt lat="43.72288" lon="6.5547">
        <ele>907.1</ele>
        <time>2011-11-13T13:27:06Z</time>
      </trkpt>
      <trkpt lat="43.72288" lon="6.5547">
        <ele>907.6</ele>
        <time>2011-11-13T13:27:11Z</time>
      </trkpt>
      <trkpt lat="43.72289" lon="6.5547">
        <ele>907.4</ele>
        <time>2011-11-13T13:27:16Z</time>
      </trkpt>
      <trkpt lat="43.72289" lon="6.5547">
        <ele>907.2</ele>
        <time>2011-11-13T13:27:21Z</time>
      </trkpt>
      <trkpt lat="43.72288" lon="6.5547">
        <ele>907.5</ele>
        <time>2011-11-13T13:27:26Z</time>
      </trkpt>
      <trkpt lat="43.72288" lon="6.5547">
        <ele>907.5</ele>
        <time>2011-11-13T13:27:31Z</time>
      </trkpt>
      <trkpt lat="43.72288" lon="6.55469">
        <ele>907.4</ele>
        <time>2011-11-13T13:27:36Z</time>
      </trkpt>
      <trkpt lat="43.72288" lon="6.55469">
        <ele>907.2</ele>
        <time>2011-11-13T13:27:41Z</time>
      </trkpt>
      <trkpt lat="43.72288" lon="6.55469">
        <ele>907.4</ele>
        <time>2011-11-13T13:27:46Z</time>
      </trkpt>
      <trkpt lat="43.72288" lon="6.55469">
        <ele>907.6</ele>
        <time>2011-11-13T13:27:51Z</time>
      </trkpt>
      <trkpt lat="43.72287" lon="6.55469">
        <ele>908</ele>
        <time>2011-11-13T13:27:56Z</time>
      </trkpt>
      <trkpt lat="43.72288" lon="6.55469">
        <ele>908.2</ele>
        <time>2011-11-13T13:27:57Z</time>
      </trkpt>
      <trkpt lat="43.72287" lon="6.55469">
        <ele>907.7</ele>
        <time>2011-11-13T13:28:06Z</time>
      </trkpt>
      <trkpt lat="43.72287" lon="6.55469">
        <ele>907.6</ele>
        <time>2011-11-13T13:28:11Z</time>
      </trkpt>
      <trkpt lat="43.72287" lon="6.55469">
        <ele>907.7</ele>
        <time>2011-11-13T13:28:16Z</time>
      </trkpt>
      <trkpt lat="43.72287" lon="6.55469">
        <ele>907.8</ele>
        <time>2011-11-13T13:28:21Z</time>
      </trkpt>
      <trkpt lat="43.72287" lon="6.55469">
        <ele>907.6</ele>
        <time>2011-11-13T13:28:26Z</time>
      </trkpt>
      <trkpt lat="43.72287" lon="6.55469">
        <ele>907.5</ele>
        <time>2011-11-13T13:28:31Z</time>
      </trkpt>
      <trkpt lat="43.72287" lon="6.55469">
        <ele>907.8</ele>
        <time>2011-11-13T13:28:36Z</time>
      </trkpt>
      <trkpt lat="43.72287" lon="6.55469">
        <ele>907.9</ele>
        <time>2011-11-13T13:28:41Z</time>
      </trkpt>
      <trkpt lat="43.72287" lon="6.55469">
        <ele>907.8</ele>
        <time>2011-11-13T13:28:46Z</time>
      </trkpt>
      <trkpt lat="43.72287" lon="6.55469">
        <ele>907.6</ele>
        <time>2011-11-13T13:28:51Z</time>
      </trkpt>
      <trkpt lat="43.72288" lon="6.55469">
        <ele>907.8</ele>
        <time>2011-11-13T13:28:56Z</time>
      </trkpt>
      <trkpt lat="43.72288" lon="6.55469">
        <ele>907.6</ele>
        <time>2011-11-13T13:29:01Z</time>
      </trkpt>
      <trkpt lat="43.72288" lon="6.55469">
        <ele>907.6</ele>
        <time>2011-11-13T13:29:02Z</time>
      </trkpt>
      <trkpt lat="43.7229" lon="6.5547">
        <ele>907.8</ele>
        <time>2011-11-13T13:29:11Z</time>
      </trkpt>
      <trkpt lat="43.72291" lon="6.55469">
        <ele>907.9</ele>
        <time>2011-11-13T13:29:16Z</time>
      </trkpt>
      <trkpt lat="43.72291" lon="6.5547">
        <ele>908.2</ele>
        <time>2011-11-13T13:29:21Z</time>
      </trkpt>
      <trkpt lat="43.7229" lon="6.5547">
        <ele>907.6</ele>
        <time>2011-11-13T13:29:26Z</time>
      </trkpt>
      <trkpt lat="43.7229" lon="6.5547">
        <ele>908.2</ele>
        <time>2011-11-13T13:29:31Z</time>
      </trkpt>
      <trkpt lat="43.7229" lon="6.5547">
        <ele>908</ele>
        <time>2011-11-13T13:29:36Z</time>
      </trkpt>
      <trkpt lat="43.7229" lon="6.5547">
        <ele>907.9</ele>
        <time>2011-11-13T13:29:41Z</time>
      </trkpt>
      <trkpt lat="43.7229" lon="6.5547">
        <ele>907.9</ele>
        <time>2011-11-13T13:29:46Z</time>
      </trkpt>
      <trkpt lat="43.7229" lon="6.5547">
        <ele>907.8</ele>
        <time>2011-11-13T13:29:51Z</time>
      </trkpt>
      <trkpt lat="43.7229" lon="6.55471">
        <ele>908.1</ele>
        <time>2011-11-13T13:29:56Z</time>
      </trkpt>
      <trkpt lat="43.7229" lon="6.55473">
        <ele>908.2</ele>
        <time>2011-11-13T13:30:01Z</time>
      </trkpt>
      <trkpt lat="43.7229" lon="6.55473">
        <ele>908</ele>
        <time>2011-11-13T13:30:06Z</time>
      </trkpt>
      <trkpt lat="43.7229" lon="6.55473">
        <ele>908</ele>
        <time>2011-11-13T13:30:07Z</time>
      </trkpt>
      <trkpt lat="43.7229" lon="6.55468">
        <ele>907</ele>
        <time>2011-11-13T13:30:16Z</time>
      </trkpt>
      <trkpt lat="43.72291" lon="6.55461">
        <ele>906.9</ele>
        <time>2011-11-13T13:30:21Z</time>
      </trkpt>
      <trkpt lat="43.72291" lon="6.55454">
        <ele>906.8</ele>
        <time>2011-11-13T13:30:26Z</time>
      </trkpt>
      <trkpt lat="43.72291" lon="6.55448">
        <ele>906.5</ele>
        <time>2011-11-13T13:30:31Z</time>
      </trkpt>
      <trkpt lat="43.72291" lon="6.55441">
        <ele>906.3</ele>
        <time>2011-11-13T13:30:36Z</time>
      </trkpt>
      <trkpt lat="43.72291" lon="6.55437">
        <ele>906.8</ele>
        <time>2011-11-13T13:30:41Z</time>
      </trkpt>
      <trkpt lat="43.72292" lon="6.55432">
        <ele>906</ele>
        <time>2011-11-13T13:30:46Z</time>
      </trkpt>
      <trkpt lat="43.72292" lon="6.55426">
        <ele>905.5</ele>
        <time>2011-11-13T13:30:51Z</time>
      </trkpt>
      <trkpt lat="43.72292" lon="6.55419">
        <ele>905.4</ele>
        <time>2011-11-13T13:30:56Z</time>
      </trkpt>
      <trkpt lat="43.72291" lon="6.55413">
        <ele>904.6</ele>
        <time>2011-11-13T13:31:01Z</time>
      </trkpt>
      <trkpt lat="43.7229" lon="6.55407">
        <ele>904.7</ele>
        <time>2011-11-13T13:31:06Z</time>
      </trkpt>
      <trkpt lat="43.7229" lon="6.55401">
        <ele>904.1</ele>
        <time>2011-11-13T13:31:11Z</time>
      </trkpt>
      <trkpt lat="43.7229" lon="6.554">
        <ele>904.1</ele>
        <time>2011-11-13T13:31:12Z</time>
      </trkpt>
      <trkpt lat="43.7229" lon="6.55386">
        <ele>903.6</ele>
        <time>2011-11-13T13:31:21Z</time>
      </trkpt>
      <trkpt lat="43.72289" lon="6.55378">
        <ele>902.8</ele>
        <time>2011-11-13T13:31:26Z</time>
      </trkpt>
      <trkpt lat="43.72288" lon="6.55372">
        <ele>902.3</ele>
        <time>2011-11-13T13:31:31Z</time>
      </trkpt>
      <trkpt lat="43.72288" lon="6.55364">
        <ele>902</ele>
        <time>2011-11-13T13:31:36Z</time>
      </trkpt>
      <trkpt lat="43.72288" lon="6.55358">
        <ele>902</ele>
        <time>2011-11-13T13:31:41Z</time>
      </trkpt>
      <trkpt lat="43.72289" lon="6.55354">
        <ele>902</ele>
        <time>2011-11-13T13:31:46Z</time>
      </trkpt>
      <trkpt lat="43.72287" lon="6.55348">
        <ele>902</ele>
        <time>2011-11-13T13:31:51Z</time>
      </trkpt>
      <trkpt lat="43.72284" lon="6.55345">
        <ele>901.8</ele>
        <time>2011-11-13T13:31:56Z</time>
      </trkpt>
      <trkpt lat="43.7228" lon="6.55345">
        <ele>901.4</ele>
        <time>2011-11-13T13:32:01Z</time>
      </trkpt>
      <trkpt lat="43.72275" lon="6.55344">
        <ele>901.2</ele>
        <time>2011-11-13T13:32:06Z</time>
      </trkpt>
      <trkpt lat="43.72271" lon="6.55342">
        <ele>900.7</ele>
        <time>2011-11-13T13:32:11Z</time>
      </trkpt>
      <trkpt lat="43.7227" lon="6.55332">
        <ele>900.9</ele>
        <time>2011-11-13T13:32:16Z</time>
      </trkpt>
      <trkpt lat="43.7227" lon="6.5533">
        <ele>900.8</ele>
        <time>2011-11-13T13:32:17Z</time>
      </trkpt>
      <trkpt lat="43.72269" lon="6.55312">
        <ele>900.6</ele>
        <time>2011-11-13T13:32:26Z</time>
      </trkpt>
      <trkpt lat="43.72268" lon="6.55303">
        <ele>900.4</ele>
        <time>2011-11-13T13:32:31Z</time>
      </trkpt>
      <trkpt lat="43.72267" lon="6.55294">
        <ele>900.4</ele>
        <time>2011-11-13T13:32:36Z</time>
      </trkpt>
      <trkpt lat="43.72265" lon="6.55287">
        <ele>899.9</ele>
        <time>2011-11-13T13:32:41Z</time>
      </trkpt>
      <trkpt lat="43.72264" lon="6.55278">
        <ele>900.3</ele>
        <time>2011-11-13T13:32:46Z</time>
      </trkpt>
      <trkpt lat="43.72263" lon="6.55269">
        <ele>900.2</ele>
        <time>2011-11-13T13:32:51Z</time>
      </trkpt>
      <trkpt lat="43.72261" lon="6.55261">
        <ele>900.6</ele>
        <time>2011-11-13T13:32:56Z</time>
      </trkpt>
      <trkpt lat="43.7226" lon="6.55252">
        <ele>900.5</ele>
        <time>2011-11-13T13:33:01Z</time>
      </trkpt>
      <trkpt lat="43.72256" lon="6.55246">
        <ele>900.1</ele>
        <time>2011-11-13T13:33:06Z</time>
      </trkpt>
      <trkpt lat="43.72254" lon="6.55239">
        <ele>899.9</ele>
        <time>2011-11-13T13:33:11Z</time>
      </trkpt>
      <trkpt lat="43.72253" lon="6.55229">
        <ele>900.2</ele>
        <time>2011-11-13T13:33:16Z</time>
      </trkpt>
      <trkpt lat="43.72251" lon="6.55221">
        <ele>900.4</ele>
        <time>2011-11-13T13:33:21Z</time>
      </trkpt>
      <trkpt lat="43.72251" lon="6.55219">
        <ele>900.5</ele>
        <time>2011-11-13T13:33:22Z</time>
      </trkpt>
      <trkpt lat="43.72248" lon="6.55203">
        <ele>900.8</ele>
        <time>2011-11-13T13:33:31Z</time>
      </trkpt>
      <trkpt lat="43.72246" lon="6.55195">
        <ele>901.1</ele>
        <time>2011-11-13T13:33:36Z</time>
      </trkpt>
      <trkpt lat="43.72244" lon="6.55187">
        <ele>901.2</ele>
        <time>2011-11-13T13:33:41Z</time>
      </trkpt>
      <trkpt lat="43.72242" lon="6.5518">
        <ele>901.7</ele>
        <time>2011-11-13T13:33:46Z</time>
      </trkpt>
      <trkpt lat="43.7224" lon="6.55172">
        <ele>901.7</ele>
        <time>2011-11-13T13:33:51Z</time>
      </trkpt>
      <trkpt lat="43.72239" lon="6.55166">
        <ele>902.3</ele>
        <time>2011-11-13T13:33:56Z</time>
      </trkpt>
      <trkpt lat="43.72238" lon="6.55158">
        <ele>902.7</ele>
        <time>2011-11-13T13:34:01Z</time>
      </trkpt>
      <trkpt lat="43.72236" lon="6.55151">
        <ele>902.7</ele>
        <time>2011-11-13T13:34:06Z</time>
      </trkpt>
      <trkpt lat="43.72234" lon="6.55144">
        <ele>903.1</ele>
        <time>2011-11-13T13:34:11Z</time>
      </trkpt>
      <trkpt lat="43.72232" lon="6.55137">
        <ele>903.5</ele>
        <time>2011-11-13T13:34:16Z</time>
      </trkpt>
      <trkpt lat="43.72231" lon="6.5513">
        <ele>904</ele>
        <time>2011-11-13T13:34:21Z</time>
      </trkpt>
      <trkpt lat="43.72228" lon="6.55124">
        <ele>904.5</ele>
        <time>2011-11-13T13:34:26Z</time>
      </trkpt>
      <trkpt lat="43.72228" lon="6.55123">
        <ele>904.6</ele>
        <time>2011-11-13T13:34:27Z</time>
      </trkpt>
      <trkpt lat="43.72222" lon="6.55112">
        <ele>905.8</ele>
        <time>2011-11-13T13:34:36Z</time>
      </trkpt>
      <trkpt lat="43.72219" lon="6.55106">
        <ele>905.9</ele>
        <time>2011-11-13T13:34:41Z</time>
      </trkpt>
      <trkpt lat="43.72216" lon="6.551">
        <ele>906.5</ele>
        <time>2011-11-13T13:34:46Z</time>
      </trkpt>
      <trkpt lat="43.72214" lon="6.55094">
        <ele>906.9</ele>
        <time>2011-11-13T13:34:51Z</time>
      </trkpt>
      <trkpt lat="43.72212" lon="6.55087">
        <ele>907.2</ele>
        <time>2011-11-13T13:34:56Z</time>
      </trkpt>
      <trkpt lat="43.72208" lon="6.55082">
        <ele>907.6</ele>
        <time>2011-11-13T13:35:01Z</time>
      </trkpt>
      <trkpt lat="43.72206" lon="6.55079">
        <ele>907.8</ele>
        <time>2011-11-13T13:35:06Z</time>
      </trkpt>
      <trkpt lat="43.72205" lon="6.55079">
        <ele>907.8</ele>
        <time>2011-11-13T13:35:11Z</time>
      </trkpt>
      <trkpt lat="43.72203" lon="6.55077">
        <ele>908.1</ele>
        <time>2011-11-13T13:35:16Z</time>
      </trkpt>
      <trkpt lat="43.72201" lon="6.55074">
        <ele>908.4</ele>
        <time>2011-11-13T13:35:21Z</time>
      </trkpt>
      <trkpt lat="43.72197" lon="6.55069">
        <ele>908.8</ele>
        <time>2011-11-13T13:35:26Z</time>
      </trkpt>
      <trkpt lat="43.72194" lon="6.55064">
        <ele>909.2</ele>
        <time>2011-11-13T13:35:31Z</time>
      </trkpt>
      <trkpt lat="43.72193" lon="6.55064">
        <ele>909.3</ele>
        <time>2011-11-13T13:35:32Z</time>
      </trkpt>
      <trkpt lat="43.72186" lon="6.55057">
        <ele>910.1</ele>
        <time>2011-11-13T13:35:41Z</time>
      </trkpt>
      <trkpt lat="43.72182" lon="6.55052">
        <ele>910.1</ele>
        <time>2011-11-13T13:35:46Z</time>
      </trkpt>
      <trkpt lat="43.72176" lon="6.55052">
        <ele>910.9</ele>
        <time>2011-11-13T13:35:51Z</time>
      </trkpt>
      <trkpt lat="43.72168" lon="6.55053">
        <ele>911.5</ele>
        <time>2011-11-13T13:35:56Z</time>
      </trkpt>
      <trkpt lat="43.7216" lon="6.55053">
        <ele>911.8</ele>
        <time>2011-11-13T13:36:01Z</time>
      </trkpt>
      <trkpt lat="43.72157" lon="6.55049">
        <ele>911.9</ele>
        <time>2011-11-13T13:36:06Z</time>
      </trkpt>
      <trkpt lat="43.72154" lon="6.55044">
        <ele>912.5</ele>
        <time>2011-11-13T13:36:11Z</time>
      </trkpt>
      <trkpt lat="43.7215" lon="6.55039">
        <ele>912.8</ele>
        <time>2011-11-13T13:36:16Z</time>
      </trkpt>
      <trkpt lat="43.72146" lon="6.55035">
        <ele>913.5</ele>
        <time>2011-11-13T13:36:21Z</time>
      </trkpt>
      <trkpt lat="43.72143" lon="6.5503">
        <ele>913.8</ele>
        <time>2011-11-13T13:36:26Z</time>
      </trkpt>
      <trkpt lat="43.72139" lon="6.55025">
        <ele>914.3</ele>
        <time>2011-11-13T13:36:31Z</time>
      </trkpt>
      <trkpt lat="43.72136" lon="6.55021">
        <ele>914.6</ele>
        <time>2011-11-13T13:36:36Z</time>
      </trkpt>
      <trkpt lat="43.72136" lon="6.5502">
        <ele>914.6</ele>
        <time>2011-11-13T13:36:37Z</time>
      </trkpt>
      <trkpt lat="43.72132" lon="6.55012">
        <ele>915.5</ele>
        <time>2011-11-13T13:36:46Z</time>
      </trkpt>
      <trkpt lat="43.7213" lon="6.55007">
        <ele>915.8</ele>
        <time>2011-11-13T13:36:51Z</time>
      </trkpt>
      <trkpt lat="43.72126" lon="6.55002">
        <ele>915.9</ele>
        <time>2011-11-13T13:36:56Z</time>
      </trkpt>
      <trkpt lat="43.72123" lon="6.54995">
        <ele>916</ele>
        <time>2011-11-13T13:37:01Z</time>
      </trkpt>
      <trkpt lat="43.7212" lon="6.5499">
        <ele>915.8</ele>
        <time>2011-11-13T13:37:06Z</time>
      </trkpt>
      <trkpt lat="43.72117" lon="6.54984">
        <ele>916.4</ele>
        <time>2011-11-13T13:37:11Z</time>
      </trkpt>
      <trkpt lat="43.72114" lon="6.54979">
        <ele>916.7</ele>
        <time>2011-11-13T13:37:16Z</time>
      </trkpt>
      <trkpt lat="43.72114" lon="6.54978">
        <ele>916.1</ele>
        <time>2011-11-13T13:37:21Z</time>
      </trkpt>
      <trkpt lat="43.72112" lon="6.54975">
        <ele>916.4</ele>
        <time>2011-11-13T13:37:26Z</time>
      </trkpt>
      <trkpt lat="43.72109" lon="6.54968">
        <ele>916</ele>
        <time>2011-11-13T13:37:31Z</time>
      </trkpt>
      <trkpt lat="43.72105" lon="6.54961">
        <ele>915.6</ele>
        <time>2011-11-13T13:37:36Z</time>
      </trkpt>
      <trkpt lat="43.72102" lon="6.54955">
        <ele>914.7</ele>
        <time>2011-11-13T13:37:41Z</time>
      </trkpt>
      <trkpt lat="43.72101" lon="6.54953">
        <ele>914.6</ele>
        <time>2011-11-13T13:37:42Z</time>
      </trkpt>
      <trkpt lat="43.72095" lon="6.54941">
        <ele>913.9</ele>
        <time>2011-11-13T13:37:51Z</time>
      </trkpt>
      <trkpt lat="43.72092" lon="6.54934">
        <ele>913.4</ele>
        <time>2011-11-13T13:37:56Z</time>
      </trkpt>
      <trkpt lat="43.72088" lon="6.54927">
        <ele>912.4</ele>
        <time>2011-11-13T13:38:01Z</time>
      </trkpt>
      <trkpt lat="43.72086" lon="6.54923">
        <ele>911.3</ele>
        <time>2011-11-13T13:38:06Z</time>
      </trkpt>
      <trkpt lat="43.72086" lon="6.54923">
        <ele>911.5</ele>
        <time>2011-11-13T13:38:11Z</time>
      </trkpt>
      <trkpt lat="43.72086" lon="6.54923">
        <ele>911.8</ele>
        <time>2011-11-13T13:38:16Z</time>
      </trkpt>
      <trkpt lat="43.72086" lon="6.54922">
        <ele>911.4</ele>
        <time>2011-11-13T13:38:21Z</time>
      </trkpt>
      <trkpt lat="43.72086" lon="6.54922">
        <ele>911.5</ele>
        <time>2011-11-13T13:38:26Z</time>
      </trkpt>
      <trkpt lat="43.72086" lon="6.54922">
        <ele>911.6</ele>
        <time>2011-11-13T13:38:31Z</time>
      </trkpt>
      <trkpt lat="43.72086" lon="6.54922">
        <ele>912</ele>
        <time>2011-11-13T13:38:36Z</time>
      </trkpt>
      <trkpt lat="43.72086" lon="6.54922">
        <ele>912.1</ele>
        <time>2011-11-13T13:38:41Z</time>
      </trkpt>
      <trkpt lat="43.72086" lon="6.54922">
        <ele>911.9</ele>
        <time>2011-11-13T13:38:46Z</time>
      </trkpt>
      <trkpt lat="43.72086" lon="6.54922">
        <ele>912</ele>
        <time>2011-11-13T13:38:47Z</time>
      </trkpt>
      <trkpt lat="43.72083" lon="6.54915">
        <ele>911.8</ele>
        <time>2011-11-13T13:38:56Z</time>
      </trkpt>
      <trkpt lat="43.7208" lon="6.54908">
        <ele>911.8</ele>
        <time>2011-11-13T13:39:01Z</time>
      </trkpt>
      <trkpt lat="43.72076" lon="6.54901">
        <ele>911.9</ele>
        <time>2011-11-13T13:39:06Z</time>
      </trkpt>
      <trkpt lat="43.72072" lon="6.54894">
        <ele>911</ele>
        <time>2011-11-13T13:39:11Z</time>
      </trkpt>
      <trkpt lat="43.72068" lon="6.54887">
        <ele>910.4</ele>
        <time>2011-11-13T13:39:16Z</time>
      </trkpt>
      <trkpt lat="43.72064" lon="6.5488">
        <ele>910.3</ele>
        <time>2011-11-13T13:39:21Z</time>
      </trkpt>
      <trkpt lat="43.7206" lon="6.54873">
        <ele>909.5</ele>
        <time>2011-11-13T13:39:26Z</time>
      </trkpt>
      <trkpt lat="43.72056" lon="6.54867">
        <ele>909.7</ele>
        <time>2011-11-13T13:39:31Z</time>
      </trkpt>
      <trkpt lat="43.72052" lon="6.5486">
        <ele>909.7</ele>
        <time>2011-11-13T13:39:36Z</time>
      </trkpt>
      <trkpt lat="43.72048" lon="6.54854">
        <ele>909.4</ele>
        <time>2011-11-13T13:39:41Z</time>
      </trkpt>
      <trkpt lat="43.72044" lon="6.54848">
        <ele>909.1</ele>
        <time>2011-11-13T13:39:46Z</time>
      </trkpt>
      <trkpt lat="43.72041" lon="6.54842">
        <ele>908.9</ele>
        <time>2011-11-13T13:39:51Z</time>
      </trkpt>
      <trkpt lat="43.7204" lon="6.5484">
        <ele>908.8</ele>
        <time>2011-11-13T13:39:52Z</time>
      </trkpt>
      <trkpt lat="43.72035" lon="6.54829">
        <ele>908.2</ele>
        <time>2011-11-13T13:40:01Z</time>
      </trkpt>
      <trkpt lat="43.72033" lon="6.54823">
        <ele>908.4</ele>
        <time>2011-11-13T13:40:06Z</time>
      </trkpt>
      <trkpt lat="43.72029" lon="6.54815">
        <ele>908</ele>
        <time>2011-11-13T13:40:12Z</time>
      </trkpt>
      <trkpt lat="43.72027" lon="6.5481">
        <ele>908.6</ele>
        <time>2011-11-13T13:40:17Z</time>
      </trkpt>
      <trkpt lat="43.72024" lon="6.54804">
        <ele>908.9</ele>
        <time>2011-11-13T13:40:22Z</time>
      </trkpt>
      <trkpt lat="43.72023" lon="6.548">
        <ele>908.6</ele>
        <time>2011-11-13T13:40:27Z</time>
      </trkpt>
      <trkpt lat="43.72023" lon="6.54799">
        <ele>908.2</ele>
        <time>2011-11-13T13:40:32Z</time>
      </trkpt>
      <trkpt lat="43.72022" lon="6.54797">
        <ele>908.3</ele>
        <time>2011-11-13T13:40:37Z</time>
      </trkpt>
      <trkpt lat="43.7202" lon="6.54793">
        <ele>907.9</ele>
        <time>2011-11-13T13:40:42Z</time>
      </trkpt>
      <trkpt lat="43.72016" lon="6.54787">
        <ele>908</ele>
        <time>2011-11-13T13:40:47Z</time>
      </trkpt>
      <trkpt lat="43.72013" lon="6.54781">
        <ele>907.4</ele>
        <time>2011-11-13T13:40:52Z</time>
      </trkpt>
      <trkpt lat="43.72012" lon="6.5478">
        <ele>907.4</ele>
        <time>2011-11-13T13:40:53Z</time>
      </trkpt>
      <trkpt lat="43.72006" lon="6.5477">
        <ele>907.7</ele>
        <time>2011-11-13T13:41:02Z</time>
      </trkpt>
      <trkpt lat="43.72004" lon="6.54768">
        <ele>907.4</ele>
        <time>2011-11-13T13:41:07Z</time>
      </trkpt>
      <trkpt lat="43.72001" lon="6.54761">
        <ele>907.3</ele>
        <time>2011-11-13T13:41:12Z</time>
      </trkpt>
      <trkpt lat="43.71999" lon="6.54755">
        <ele>907.2</ele>
        <time>2011-11-13T13:41:17Z</time>
      </trkpt>
      <trkpt lat="43.71995" lon="6.54746">
        <ele>906.8</ele>
        <time>2011-11-13T13:41:22Z</time>
      </trkpt>
      <trkpt lat="43.71992" lon="6.5474">
        <ele>906.5</ele>
        <time>2011-11-13T13:41:27Z</time>
      </trkpt>
      <trkpt lat="43.71987" lon="6.54731">
        <ele>906</ele>
        <time>2011-11-13T13:41:32Z</time>
      </trkpt>
      <trkpt lat="43.71984" lon="6.54724">
        <ele>905.8</ele>
        <time>2011-11-13T13:41:37Z</time>
      </trkpt>
      <trkpt lat="43.71982" lon="6.54718">
        <ele>906</ele>
        <time>2011-11-13T13:41:42Z</time>
      </trkpt>
      <trkpt lat="43.71981" lon="6.54717">
        <ele>905.8</ele>
        <time>2011-11-13T13:41:47Z</time>
      </trkpt>
      <trkpt lat="43.71981" lon="6.54715">
        <ele>905.9</ele>
        <time>2011-11-13T13:41:52Z</time>
      </trkpt>
      <trkpt lat="43.71981" lon="6.54713">
        <ele>905.8</ele>
        <time>2011-11-13T13:41:57Z</time>
      </trkpt>
      <trkpt lat="43.71981" lon="6.54713">
        <ele>905.8</ele>
        <time>2011-11-13T13:41:58Z</time>
      </trkpt>
      <trkpt lat="43.71981" lon="6.54712">
        <ele>906.3</ele>
        <time>2011-11-13T13:42:07Z</time>
      </trkpt>
      <trkpt lat="43.7198" lon="6.5471">
        <ele>906.2</ele>
        <time>2011-11-13T13:42:12Z</time>
      </trkpt>
      <trkpt lat="43.71979" lon="6.54708">
        <ele>906.5</ele>
        <time>2011-11-13T13:42:17Z</time>
      </trkpt>
      <trkpt lat="43.71979" lon="6.54705">
        <ele>906.2</ele>
        <time>2011-11-13T13:42:22Z</time>
      </trkpt>
      <trkpt lat="43.7198" lon="6.54704">
        <ele>906</ele>
        <time>2011-11-13T13:42:27Z</time>
      </trkpt>
      <trkpt lat="43.71982" lon="6.54703">
        <ele>906</ele>
        <time>2011-11-13T13:42:32Z</time>
      </trkpt>
      <trkpt lat="43.71982" lon="6.54703">
        <ele>905.4</ele>
        <time>2011-11-13T13:42:37Z</time>
      </trkpt>
      <trkpt lat="43.71983" lon="6.54704">
        <ele>905.1</ele>
        <time>2011-11-13T13:42:42Z</time>
      </trkpt>
      <trkpt lat="43.71983" lon="6.54705">
        <ele>905.8</ele>
        <time>2011-11-13T13:42:47Z</time>
      </trkpt>
      <trkpt lat="43.71983" lon="6.54706">
        <ele>905.6</ele>
        <time>2011-11-13T13:42:52Z</time>
      </trkpt>
      <trkpt lat="43.71983" lon="6.54706">
        <ele>905.3</ele>
        <time>2011-11-13T13:42:57Z</time>
      </trkpt>
      <trkpt lat="43.71982" lon="6.54705">
        <ele>905.1</ele>
        <time>2011-11-13T13:43:02Z</time>
      </trkpt>
      <trkpt lat="43.71983" lon="6.54705">
        <ele>905.2</ele>
        <time>2011-11-13T13:43:03Z</time>
      </trkpt>
      <trkpt lat="43.71983" lon="6.54702">
        <ele>905.7</ele>
        <time>2011-11-13T13:43:12Z</time>
      </trkpt>
      <trkpt lat="43.71982" lon="6.54702">
        <ele>905.6</ele>
        <time>2011-11-13T13:43:17Z</time>
      </trkpt>
      <trkpt lat="43.71981" lon="6.54703">
        <ele>905.4</ele>
        <time>2011-11-13T13:43:22Z</time>
      </trkpt>
      <trkpt lat="43.71981" lon="6.54702">
        <ele>905.8</ele>
        <time>2011-11-13T13:43:27Z</time>
      </trkpt>
      <trkpt lat="43.71981" lon="6.54702">
        <ele>905.5</ele>
        <time>2011-11-13T13:43:32Z</time>
      </trkpt>
      <trkpt lat="43.71981" lon="6.54702">
        <ele>905.8</ele>
        <time>2011-11-13T13:43:37Z</time>
      </trkpt>
      <trkpt lat="43.71981" lon="6.54701">
        <ele>906</ele>
        <time>2011-11-13T13:43:42Z</time>
      </trkpt>
      <trkpt lat="43.71979" lon="6.54703">
        <ele>905.9</ele>
        <time>2011-11-13T13:43:47Z</time>
      </trkpt>
      <trkpt lat="43.71979" lon="6.54704">
        <ele>906.6</ele>
        <time>2011-11-13T13:43:52Z</time>
      </trkpt>
      <trkpt lat="43.7198" lon="6.54705">
        <ele>906.5</ele>
        <time>2011-11-13T13:43:57Z</time>
      </trkpt>
      <trkpt lat="43.71981" lon="6.54703">
        <ele>906.3</ele>
        <time>2011-11-13T13:44:02Z</time>
      </trkpt>
      <trkpt lat="43.71982" lon="6.54701">
        <ele>906</ele>
        <time>2011-11-13T13:44:07Z</time>
      </trkpt>
      <trkpt lat="43.71982" lon="6.54701">
        <ele>906</ele>
        <time>2011-11-13T13:44:08Z</time>
      </trkpt>
      <trkpt lat="43.71978" lon="6.54696">
        <ele>906</ele>
        <time>2011-11-13T13:44:17Z</time>
      </trkpt>
      <trkpt lat="43.71976" lon="6.54691">
        <ele>906.5</ele>
        <time>2011-11-13T13:44:22Z</time>
      </trkpt>
      <trkpt lat="43.71973" lon="6.54686">
        <ele>906.6</ele>
        <time>2011-11-13T13:44:27Z</time>
      </trkpt>
      <trkpt lat="43.7197" lon="6.54681">
        <ele>906.6</ele>
        <time>2011-11-13T13:44:32Z</time>
      </trkpt>
      <trkpt lat="43.71967" lon="6.54676">
        <ele>906.8</ele>
        <time>2011-11-13T13:44:37Z</time>
      </trkpt>
      <trkpt lat="43.71963" lon="6.54672">
        <ele>906.9</ele>
        <time>2011-11-13T13:44:42Z</time>
      </trkpt>
      <trkpt lat="43.71958" lon="6.54669">
        <ele>906.9</ele>
        <time>2011-11-13T13:44:47Z</time>
      </trkpt>
      <trkpt lat="43.71954" lon="6.54663">
        <ele>907.2</ele>
        <time>2011-11-13T13:44:52Z</time>
      </trkpt>
      <trkpt lat="43.71949" lon="6.54658">
        <ele>907</ele>
        <time>2011-11-13T13:44:57Z</time>
      </trkpt>
      <trkpt lat="43.71945" lon="6.54653">
        <ele>907.7</ele>
        <time>2011-11-13T13:45:02Z</time>
      </trkpt>
      <trkpt lat="43.71941" lon="6.54648">
        <ele>907.4</ele>
        <time>2011-11-13T13:45:07Z</time>
      </trkpt>
      <trkpt lat="43.71936" lon="6.54643">
        <ele>907.1</ele>
        <time>2011-11-13T13:45:12Z</time>
      </trkpt>
      <trkpt lat="43.71935" lon="6.54642">
        <ele>907.2</ele>
        <time>2011-11-13T13:45:13Z</time>
      </trkpt>
      <trkpt lat="43.71928" lon="6.54633">
        <ele>907.2</ele>
        <time>2011-11-13T13:45:22Z</time>
      </trkpt>
      <trkpt lat="43.71924" lon="6.54629">
        <ele>907.2</ele>
        <time>2011-11-13T13:45:27Z</time>
      </trkpt>
      <trkpt lat="43.71921" lon="6.54622">
        <ele>906.8</ele>
        <time>2011-11-13T13:45:32Z</time>
      </trkpt>
      <trkpt lat="43.71918" lon="6.54615">
        <ele>906.3</ele>
        <time>2011-11-13T13:45:37Z</time>
      </trkpt>
      <trkpt lat="43.71916" lon="6.54607">
        <ele>905.9</ele>
        <time>2011-11-13T13:45:42Z</time>
      </trkpt>
      <trkpt lat="43.71914" lon="6.546">
        <ele>905.6</ele>
        <time>2011-11-13T13:45:47Z</time>
      </trkpt>
      <trkpt lat="43.71912" lon="6.54596">
        <ele>905.6</ele>
        <time>2011-11-13T13:45:52Z</time>
      </trkpt>
      <trkpt lat="43.71911" lon="6.54593">
        <ele>905.7</ele>
        <time>2011-11-13T13:45:57Z</time>
      </trkpt>
      <trkpt lat="43.71912" lon="6.54587">
        <ele>904.6</ele>
        <time>2011-11-13T13:46:02Z</time>
      </trkpt>
      <trkpt lat="43.71912" lon="6.5458">
        <ele>904.6</ele>
        <time>2011-11-13T13:46:07Z</time>
      </trkpt>
      <trkpt lat="43.71912" lon="6.54574">
        <ele>904.3</ele>
        <time>2011-11-13T13:46:12Z</time>
      </trkpt>
      <trkpt lat="43.71911" lon="6.54567">
        <ele>903.6</ele>
        <time>2011-11-13T13:46:17Z</time>
      </trkpt>
      <trkpt lat="43.71911" lon="6.54566">
        <ele>903.5</ele>
        <time>2011-11-13T13:46:18Z</time>
      </trkpt>
      <trkpt lat="43.71912" lon="6.54552">
        <ele>903.6</ele>
        <time>2011-11-13T13:46:27Z</time>
      </trkpt>
      <trkpt lat="43.71912" lon="6.54544">
        <ele>903.2</ele>
        <time>2011-11-13T13:46:32Z</time>
      </trkpt>
      <trkpt lat="43.71912" lon="6.54537">
        <ele>903.3</ele>
        <time>2011-11-13T13:46:37Z</time>
      </trkpt>
      <trkpt lat="43.71911" lon="6.54529">
        <ele>903</ele>
        <time>2011-11-13T13:46:42Z</time>
      </trkpt>
      <trkpt lat="43.7191" lon="6.54522">
        <ele>902.7</ele>
        <time>2011-11-13T13:46:47Z</time>
      </trkpt>
      <trkpt lat="43.71909" lon="6.54515">
        <ele>902.6</ele>
        <time>2011-11-13T13:46:52Z</time>
      </trkpt>
      <trkpt lat="43.71909" lon="6.54508">
        <ele>901.7</ele>
        <time>2011-11-13T13:46:57Z</time>
      </trkpt>
      <trkpt lat="43.7191" lon="6.54501">
        <ele>902.1</ele>
        <time>2011-11-13T13:47:02Z</time>
      </trkpt>
      <trkpt lat="43.7191" lon="6.54493">
        <ele>901.8</ele>
        <time>2011-11-13T13:47:07Z</time>
      </trkpt>
      <trkpt lat="43.7191" lon="6.54487">
        <ele>902.3</ele>
        <time>2011-11-13T13:47:12Z</time>
      </trkpt>
      <trkpt lat="43.71911" lon="6.5448">
        <ele>902.8</ele>
        <time>2011-11-13T13:47:17Z</time>
      </trkpt>
      <trkpt lat="43.71912" lon="6.54472">
        <ele>902.9</ele>
        <time>2011-11-13T13:47:22Z</time>
      </trkpt>
      <trkpt lat="43.71912" lon="6.54471">
        <ele>902.8</ele>
        <time>2011-11-13T13:47:23Z</time>
      </trkpt>
      <trkpt lat="43.71912" lon="6.54457">
        <ele>903.7</ele>
        <time>2011-11-13T13:47:32Z</time>
      </trkpt>
      <trkpt lat="43.71912" lon="6.54448">
        <ele>904</ele>
        <time>2011-11-13T13:47:37Z</time>
      </trkpt>
      <trkpt lat="43.71911" lon="6.54439">
        <ele>904.1</ele>
        <time>2011-11-13T13:47:42Z</time>
      </trkpt>
      <trkpt lat="43.7191" lon="6.54431">
        <ele>904.7</ele>
        <time>2011-11-13T13:47:47Z</time>
      </trkpt>
      <trkpt lat="43.71911" lon="6.54424">
        <ele>905</ele>
        <time>2011-11-13T13:47:52Z</time>
      </trkpt>
      <trkpt lat="43.71912" lon="6.54416">
        <ele>905.7</ele>
        <time>2011-11-13T13:47:57Z</time>
      </trkpt>
      <trkpt lat="43.71912" lon="6.54408">
        <ele>905.1</ele>
        <time>2011-11-13T13:48:02Z</time>
      </trkpt>
      <trkpt lat="43.71912" lon="6.54401">
        <ele>904.6</ele>
        <time>2011-11-13T13:48:07Z</time>
      </trkpt>
      <trkpt lat="43.71913" lon="6.54394">
        <ele>905</ele>
        <time>2011-11-13T13:48:12Z</time>
      </trkpt>
      <trkpt lat="43.71913" lon="6.54387">
        <ele>904.3</ele>
        <time>2011-11-13T13:48:17Z</time>
      </trkpt>
      <trkpt lat="43.71913" lon="6.54379">
        <ele>904</ele>
        <time>2011-11-13T13:48:22Z</time>
      </trkpt>
      <trkpt lat="43.71914" lon="6.54372">
        <ele>903</ele>
        <time>2011-11-13T13:48:27Z</time>
      </trkpt>
      <trkpt lat="43.71914" lon="6.54371">
        <ele>902.7</ele>
        <time>2011-11-13T13:48:28Z</time>
      </trkpt>
      <trkpt lat="43.71916" lon="6.54361">
        <ele>901.5</ele>
        <time>2011-11-13T13:48:37Z</time>
      </trkpt>
      <trkpt lat="43.71917" lon="6.54354">
        <ele>900.7</ele>
        <time>2011-11-13T13:48:42Z</time>
      </trkpt>
      <trkpt lat="43.71917" lon="6.54349">
        <ele>900.1</ele>
        <time>2011-11-13T13:48:47Z</time>
      </trkpt>
      <trkpt lat="43.71918" lon="6.54342">
        <ele>899.7</ele>
        <time>2011-11-13T13:48:52Z</time>
      </trkpt>
      <trkpt lat="43.71919" lon="6.54337">
        <ele>899.2</ele>
        <time>2011-11-13T13:48:57Z</time>
      </trkpt>
      <trkpt lat="43.71919" lon="6.54331">
        <ele>898.4</ele>
        <time>2011-11-13T13:49:02Z</time>
      </trkpt>
      <trkpt lat="43.71919" lon="6.54324">
        <ele>898</ele>
        <time>2011-11-13T13:49:07Z</time>
      </trkpt>
      <trkpt lat="43.71922" lon="6.54316">
        <ele>897.3</ele>
        <time>2011-11-13T13:49:12Z</time>
      </trkpt>
      <trkpt lat="43.71923" lon="6.54309">
        <ele>897.2</ele>
        <time>2011-11-13T13:49:17Z</time>
      </trkpt>
      <trkpt lat="43.71925" lon="6.54302">
        <ele>896.6</ele>
        <time>2011-11-13T13:49:22Z</time>
      </trkpt>
      <trkpt lat="43.71925" lon="6.54296">
        <ele>896.8</ele>
        <time>2011-11-13T13:49:27Z</time>
      </trkpt>
      <trkpt lat="43.71926" lon="6.5429">
        <ele>896.8</ele>
        <time>2011-11-13T13:49:32Z</time>
      </trkpt>
      <trkpt lat="43.71926" lon="6.54289">
        <ele>896.7</ele>
        <time>2011-11-13T13:49:33Z</time>
      </trkpt>
      <trkpt lat="43.71929" lon="6.54286">
        <ele>897.1</ele>
        <time>2011-11-13T13:49:42Z</time>
      </trkpt>
      <trkpt lat="43.71929" lon="6.54285">
        <ele>897</ele>
        <time>2011-11-13T13:49:47Z</time>
      </trkpt>
      <trkpt lat="43.7193" lon="6.54285">
        <ele>896.8</ele>
        <time>2011-11-13T13:49:52Z</time>
      </trkpt>
      <trkpt lat="43.7193" lon="6.54284">
        <ele>897.1</ele>
        <time>2011-11-13T13:49:57Z</time>
      </trkpt>
      <trkpt lat="43.7193" lon="6.54284">
        <ele>896.8</ele>
        <time>2011-11-13T13:50:02Z</time>
      </trkpt>
      <trkpt lat="43.7193" lon="6.54283">
        <ele>896.7</ele>
        <time>2011-11-13T13:50:07Z</time>
      </trkpt>
      <trkpt lat="43.71931" lon="6.54283">
        <ele>897</ele>
        <time>2011-11-13T13:50:12Z</time>
      </trkpt>
      <trkpt lat="43.71932" lon="6.54283">
        <ele>896.8</ele>
        <time>2011-11-13T13:50:17Z</time>
      </trkpt>
      <trkpt lat="43.71932" lon="6.54284">
        <ele>897</ele>
        <time>2011-11-13T13:50:22Z</time>
      </trkpt>
      <trkpt lat="43.71932" lon="6.54283">
        <ele>897.1</ele>
        <time>2011-11-13T13:50:27Z</time>
      </trkpt>
      <trkpt lat="43.71932" lon="6.54283">
        <ele>897.1</ele>
        <time>2011-11-13T13:50:32Z</time>
      </trkpt>
      <trkpt lat="43.71931" lon="6.54283">
        <ele>897.3</ele>
        <time>2011-11-13T13:50:37Z</time>
      </trkpt>
      <trkpt lat="43.71931" lon="6.54283">
        <ele>897.5</ele>
        <time>2011-11-13T13:50:38Z</time>
      </trkpt>
      <trkpt lat="43.71929" lon="6.54282">
        <ele>897</ele>
        <time>2011-11-13T13:50:47Z</time>
      </trkpt>
      <trkpt lat="43.71929" lon="6.54281">
        <ele>896.8</ele>
        <time>2011-11-13T13:50:52Z</time>
      </trkpt>
      <trkpt lat="43.71929" lon="6.54279">
        <ele>897</ele>
        <time>2011-11-13T13:50:57Z</time>
      </trkpt>
      <trkpt lat="43.71929" lon="6.54276">
        <ele>897</ele>
        <time>2011-11-13T13:51:02Z</time>
      </trkpt>
      <trkpt lat="43.71929" lon="6.54276">
        <ele>897.1</ele>
        <time>2011-11-13T13:51:07Z</time>
      </trkpt>
      <trkpt lat="43.71929" lon="6.54276">
        <ele>896.8</ele>
        <time>2011-11-13T13:51:12Z</time>
      </trkpt>
      <trkpt lat="43.71929" lon="6.54276">
        <ele>897</ele>
        <time>2011-11-13T13:51:17Z</time>
      </trkpt>
      <trkpt lat="43.71929" lon="6.54275">
        <ele>896.9</ele>
        <time>2011-11-13T13:51:22Z</time>
      </trkpt>
      <trkpt lat="43.71928" lon="6.54275">
        <ele>896.7</ele>
        <time>2011-11-13T13:51:27Z</time>
      </trkpt>
      <trkpt lat="43.71928" lon="6.54275">
        <ele>896.9</ele>
        <time>2011-11-13T13:51:32Z</time>
      </trkpt>
      <trkpt lat="43.71929" lon="6.54276">
        <ele>897</ele>
        <time>2011-11-13T13:51:37Z</time>
      </trkpt>
      <trkpt lat="43.7193" lon="6.54276">
        <ele>896.8</ele>
        <time>2011-11-13T13:51:42Z</time>
      </trkpt>
      <trkpt lat="43.7193" lon="6.54276">
        <ele>896.8</ele>
        <time>2011-11-13T13:51:43Z</time>
      </trkpt>
      <trkpt lat="43.7193" lon="6.54276">
        <ele>896.5</ele>
        <time>2011-11-13T13:51:52Z</time>
      </trkpt>
      <trkpt lat="43.7193" lon="6.54276">
        <ele>896.3</ele>
        <time>2011-11-13T13:51:57Z</time>
      </trkpt>
      <trkpt lat="43.71931" lon="6.54276">
        <ele>896.4</ele>
        <time>2011-11-13T13:52:02Z</time>
      </trkpt>
      <trkpt lat="43.71931" lon="6.54276">
        <ele>896.2</ele>
        <time>2011-11-13T13:52:07Z</time>
      </trkpt>
      <trkpt lat="43.7193" lon="6.54276">
        <ele>896.6</ele>
        <time>2011-11-13T13:52:12Z</time>
      </trkpt>
      <trkpt lat="43.7193" lon="6.54275">
        <ele>896.3</ele>
        <time>2011-11-13T13:52:17Z</time>
      </trkpt>
      <trkpt lat="43.71928" lon="6.54274">
        <ele>896.1</ele>
        <time>2011-11-13T13:52:22Z</time>
      </trkpt>
      <trkpt lat="43.71928" lon="6.54273">
        <ele>896.1</ele>
        <time>2011-11-13T13:52:27Z</time>
      </trkpt>
      <trkpt lat="43.71928" lon="6.54273">
        <ele>896.1</ele>
        <time>2011-11-13T13:52:32Z</time>
      </trkpt>
      <trkpt lat="43.71927" lon="6.54273">
        <ele>895.7</ele>
        <time>2011-11-13T13:52:37Z</time>
      </trkpt>
      <trkpt lat="43.71927" lon="6.54272">
        <ele>895.6</ele>
        <time>2011-11-13T13:52:42Z</time>
      </trkpt>
      <trkpt lat="43.71927" lon="6.54271">
        <ele>895.7</ele>
        <time>2011-11-13T13:52:47Z</time>
      </trkpt>
      <trkpt lat="43.71927" lon="6.54271">
        <ele>895.8</ele>
        <time>2011-11-13T13:52:48Z</time>
      </trkpt>
      <trkpt lat="43.71926" lon="6.5427">
        <ele>895.9</ele>
        <time>2011-11-13T13:52:57Z</time>
      </trkpt>
      <trkpt lat="43.71926" lon="6.5427">
        <ele>896</ele>
        <time>2011-11-13T13:53:02Z</time>
      </trkpt>
      <trkpt lat="43.71926" lon="6.5427">
        <ele>895.9</ele>
        <time>2011-11-13T13:53:07Z</time>
      </trkpt>
      <trkpt lat="43.71926" lon="6.5427">
        <ele>895.6</ele>
        <time>2011-11-13T13:53:12Z</time>
      </trkpt>
      <trkpt lat="43.71926" lon="6.5427">
        <ele>896</ele>
        <time>2011-11-13T13:53:17Z</time>
      </trkpt>
      <trkpt lat="43.71926" lon="6.5427">
        <ele>895.8</ele>
        <time>2011-11-13T13:53:22Z</time>
      </trkpt>
      <trkpt lat="43.71925" lon="6.5427">
        <ele>895.7</ele>
        <time>2011-11-13T13:53:27Z</time>
      </trkpt>
      <trkpt lat="43.71925" lon="6.5427">
        <ele>895.4</ele>
        <time>2011-11-13T13:53:32Z</time>
      </trkpt>
      <trkpt lat="43.71925" lon="6.54269">
        <ele>895.5</ele>
        <time>2011-11-13T13:53:37Z</time>
      </trkpt>
      <trkpt lat="43.71925" lon="6.54269">
        <ele>895.5</ele>
        <time>2011-11-13T13:53:42Z</time>
      </trkpt>
      <trkpt lat="43.71925" lon="6.5427">
        <ele>895.6</ele>
        <time>2011-11-13T13:53:47Z</time>
      </trkpt>
      <trkpt lat="43.71926" lon="6.54267">
        <ele>896</ele>
        <time>2011-11-13T13:53:52Z</time>
      </trkpt>
      <trkpt lat="43.71926" lon="6.54266">
        <ele>895.7</ele>
        <time>2011-11-13T13:53:53Z</time>
      </trkpt>
      <trkpt lat="43.71925" lon="6.54255">
        <ele>893.6</ele>
        <time>2011-11-13T13:54:02Z</time>
      </trkpt>
      <trkpt lat="43.71925" lon="6.5425">
        <ele>893.6</ele>
        <time>2011-11-13T13:54:07Z</time>
      </trkpt>
      <trkpt lat="43.71925" lon="6.54245">
        <ele>893.3</ele>
        <time>2011-11-13T13:54:12Z</time>
      </trkpt>
      <trkpt lat="43.71924" lon="6.54238">
        <ele>892.6</ele>
        <time>2011-11-13T13:54:17Z</time>
      </trkpt>
      <trkpt lat="43.71925" lon="6.54232">
        <ele>891.8</ele>
        <time>2011-11-13T13:54:22Z</time>
      </trkpt>
      <trkpt lat="43.71925" lon="6.54226">
        <ele>891.3</ele>
        <time>2011-11-13T13:54:27Z</time>
      </trkpt>
      <trkpt lat="43.71925" lon="6.54219">
        <ele>889.8</ele>
        <time>2011-11-13T13:54:32Z</time>
      </trkpt>
      <trkpt lat="43.71924" lon="6.54213">
        <ele>888.4</ele>
        <time>2011-11-13T13:54:37Z</time>
      </trkpt>
      <trkpt lat="43.71924" lon="6.54206">
        <ele>887.3</ele>
        <time>2011-11-13T13:54:42Z</time>
      </trkpt>
      <trkpt lat="43.71924" lon="6.542">
        <ele>887.1</ele>
        <time>2011-11-13T13:54:47Z</time>
      </trkpt>
      <trkpt lat="43.71923" lon="6.54196">
        <ele>885.5</ele>
        <time>2011-11-13T13:54:52Z</time>
      </trkpt>
      <trkpt lat="43.71922" lon="6.54191">
        <ele>885.4</ele>
        <time>2011-11-13T13:54:57Z</time>
      </trkpt>
      <trkpt lat="43.71922" lon="6.54189">
        <ele>885.4</ele>
        <time>2011-11-13T13:54:58Z</time>
      </trkpt>
      <trkpt lat="43.7192" lon="6.54176">
        <ele>884.4</ele>
        <time>2011-11-13T13:55:07Z</time>
      </trkpt>
      <trkpt lat="43.7192" lon="6.54169">
        <ele>883.5</ele>
        <time>2011-11-13T13:55:12Z</time>
      </trkpt>
      <trkpt lat="43.7192" lon="6.54161">
        <ele>883</ele>
        <time>2011-11-13T13:55:17Z</time>
      </trkpt>
      <trkpt lat="43.7192" lon="6.54154">
        <ele>882.3</ele>
        <time>2011-11-13T13:55:22Z</time>
      </trkpt>
      <trkpt lat="43.71919" lon="6.54146">
        <ele>882</ele>
        <time>2011-11-13T13:55:27Z</time>
      </trkpt>
      <trkpt lat="43.71919" lon="6.54137">
        <ele>882.3</ele>
        <time>2011-11-13T13:55:32Z</time>
      </trkpt>
      <trkpt lat="43.71918" lon="6.5413">
        <ele>881</ele>
        <time>2011-11-13T13:55:37Z</time>
      </trkpt>
      <trkpt lat="43.71918" lon="6.54122">
        <ele>880.2</ele>
        <time>2011-11-13T13:55:42Z</time>
      </trkpt>
      <trkpt lat="43.71919" lon="6.54118">
        <ele>880</ele>
        <time>2011-11-13T13:55:47Z</time>
      </trkpt>
      <trkpt lat="43.71921" lon="6.54113">
        <ele>879.5</ele>
        <time>2011-11-13T13:55:52Z</time>
      </trkpt>
      <trkpt lat="43.71925" lon="6.5411">
        <ele>879.8</ele>
        <time>2011-11-13T13:55:57Z</time>
      </trkpt>
      <trkpt lat="43.71929" lon="6.54107">
        <ele>878.8</ele>
        <time>2011-11-13T13:56:02Z</time>
      </trkpt>
      <trkpt lat="43.7193" lon="6.54107">
        <ele>878.8</ele>
        <time>2011-11-13T13:56:03Z</time>
      </trkpt>
      <trkpt lat="43.71933" lon="6.54099">
        <ele>878.2</ele>
        <time>2011-11-13T13:56:12Z</time>
      </trkpt>
      <trkpt lat="43.71935" lon="6.54093">
        <ele>877.6</ele>
        <time>2011-11-13T13:56:17Z</time>
      </trkpt>
      <trkpt lat="43.71935" lon="6.54087">
        <ele>877.6</ele>
        <time>2011-11-13T13:56:22Z</time>
      </trkpt>
      <trkpt lat="43.71933" lon="6.54087">
        <ele>877.5</ele>
        <time>2011-11-13T13:56:27Z</time>
      </trkpt>
      <trkpt lat="43.71932" lon="6.54088">
        <ele>878</ele>
        <time>2011-11-13T13:56:32Z</time>
      </trkpt>
      <trkpt lat="43.71932" lon="6.5409">
        <ele>877.6</ele>
        <time>2011-11-13T13:56:37Z</time>
      </trkpt>
      <trkpt lat="43.7193" lon="6.54092">
        <ele>877.7</ele>
        <time>2011-11-13T13:56:42Z</time>
      </trkpt>
      <trkpt lat="43.71929" lon="6.54096">
        <ele>878.7</ele>
        <time>2011-11-13T13:56:47Z</time>
      </trkpt>
      <trkpt lat="43.71927" lon="6.54099">
        <ele>878.9</ele>
        <time>2011-11-13T13:56:52Z</time>
      </trkpt>
      <trkpt lat="43.71924" lon="6.54102">
        <ele>879.2</ele>
        <time>2011-11-13T13:56:57Z</time>
      </trkpt>
      <trkpt lat="43.71922" lon="6.54105">
        <ele>879.8</ele>
        <time>2011-11-13T13:57:02Z</time>
      </trkpt>
      <trkpt lat="43.71921" lon="6.54107">
        <ele>879.6</ele>
        <time>2011-11-13T13:57:07Z</time>
      </trkpt>
      <trkpt lat="43.71921" lon="6.54108">
        <ele>879.2</ele>
        <time>2011-11-13T13:57:08Z</time>
      </trkpt>
      <trkpt lat="43.71916" lon="6.54105">
        <ele>878.3</ele>
        <time>2011-11-13T13:57:17Z</time>
      </trkpt>
      <trkpt lat="43.71915" lon="6.54102">
        <ele>877.1</ele>
        <time>2011-11-13T13:57:22Z</time>
      </trkpt>
      <trkpt lat="43.71913" lon="6.54099">
        <ele>876.3</ele>
        <time>2011-11-13T13:57:27Z</time>
      </trkpt>
      <trkpt lat="43.71911" lon="6.54096">
        <ele>875.8</ele>
        <time>2011-11-13T13:57:32Z</time>
      </trkpt>
      <trkpt lat="43.7191" lon="6.54095">
        <ele>875.3</ele>
        <time>2011-11-13T13:57:37Z</time>
      </trkpt>
      <trkpt lat="43.71909" lon="6.54091">
        <ele>874.7</ele>
        <time>2011-11-13T13:57:42Z</time>
      </trkpt>
      <trkpt lat="43.71907" lon="6.54086">
        <ele>873.6</ele>
        <time>2011-11-13T13:57:47Z</time>
      </trkpt>
      <trkpt lat="43.71906" lon="6.54082">
        <ele>872.7</ele>
        <time>2011-11-13T13:57:52Z</time>
      </trkpt>
      <trkpt lat="43.71905" lon="6.54079">
        <ele>871.4</ele>
        <time>2011-11-13T13:57:57Z</time>
      </trkpt>
      <trkpt lat="43.71904" lon="6.54075">
        <ele>870.4</ele>
        <time>2011-11-13T13:58:02Z</time>
      </trkpt>
      <trkpt lat="43.71902" lon="6.54071">
        <ele>869.7</ele>
        <time>2011-11-13T13:58:07Z</time>
      </trkpt>
      <trkpt lat="43.71901" lon="6.54067">
        <ele>868.7</ele>
        <time>2011-11-13T13:58:12Z</time>
      </trkpt>
      <trkpt lat="43.71901" lon="6.54066">
        <ele>868.5</ele>
        <time>2011-11-13T13:58:13Z</time>
      </trkpt>
      <trkpt lat="43.71897" lon="6.54059">
        <ele>866.5</ele>
        <time>2011-11-13T13:58:22Z</time>
      </trkpt>
      <trkpt lat="43.71896" lon="6.54055">
        <ele>864.9</ele>
        <time>2011-11-13T13:58:27Z</time>
      </trkpt>
      <trkpt lat="43.71894" lon="6.54052">
        <ele>863.8</ele>
        <time>2011-11-13T13:58:32Z</time>
      </trkpt>
      <trkpt lat="43.71892" lon="6.54049">
        <ele>862.4</ele>
        <time>2011-11-13T13:58:37Z</time>
      </trkpt>
      <trkpt lat="43.71889" lon="6.54045">
        <ele>861.2</ele>
        <time>2011-11-13T13:58:42Z</time>
      </trkpt>
      <trkpt lat="43.71887" lon="6.54039">
        <ele>860.1</ele>
        <time>2011-11-13T13:58:47Z</time>
      </trkpt>
      <trkpt lat="43.71884" lon="6.54032">
        <ele>858.7</ele>
        <time>2011-11-13T13:58:52Z</time>
      </trkpt>
      <trkpt lat="43.71882" lon="6.54027">
        <ele>858.2</ele>
        <time>2011-11-13T13:58:57Z</time>
      </trkpt>
      <trkpt lat="43.7188" lon="6.54022">
        <ele>857.2</ele>
        <time>2011-11-13T13:59:02Z</time>
      </trkpt>
      <trkpt lat="43.71879" lon="6.54016">
        <ele>856.4</ele>
        <time>2011-11-13T13:59:07Z</time>
      </trkpt>
      <trkpt lat="43.71879" lon="6.54011">
        <ele>855.3</ele>
        <time>2011-11-13T13:59:12Z</time>
      </trkpt>
      <trkpt lat="43.7188" lon="6.54008">
        <ele>855.5</ele>
        <time>2011-11-13T13:59:17Z</time>
      </trkpt>
      <trkpt lat="43.7188" lon="6.54008">
        <ele>855.5</ele>
        <time>2011-11-13T13:59:18Z</time>
      </trkpt>
      <trkpt lat="43.71879" lon="6.54004">
        <ele>855</ele>
        <time>2011-11-13T13:59:27Z</time>
      </trkpt>
      <trkpt lat="43.71878" lon="6.54003">
        <ele>854.4</ele>
        <time>2011-11-13T13:59:32Z</time>
      </trkpt>
      <trkpt lat="43.71877" lon="6.54005">
        <ele>854.6</ele>
        <time>2011-11-13T13:59:37Z</time>
      </trkpt>
      <trkpt lat="43.71876" lon="6.54008">
        <ele>854.5</ele>
        <time>2011-11-13T13:59:42Z</time>
      </trkpt>
      <trkpt lat="43.71874" lon="6.54011">
        <ele>854.7</ele>
        <time>2011-11-13T13:59:47Z</time>
      </trkpt>
      <trkpt lat="43.7187" lon="6.54012">
        <ele>854.4</ele>
        <time>2011-11-13T13:59:52Z</time>
      </trkpt>
      <trkpt lat="43.71866" lon="6.54013">
        <ele>854.3</ele>
        <time>2011-11-13T13:59:57Z</time>
      </trkpt>
      <trkpt lat="43.71862" lon="6.54013">
        <ele>853.6</ele>
        <time>2011-11-13T14:00:02Z</time>
      </trkpt>
      <trkpt lat="43.71859" lon="6.54011">
        <ele>853.4</ele>
        <time>2011-11-13T14:00:07Z</time>
      </trkpt>
      <trkpt lat="43.71856" lon="6.54009">
        <ele>853.5</ele>
        <time>2011-11-13T14:00:12Z</time>
      </trkpt>
      <trkpt lat="43.71853" lon="6.54008">
        <ele>854.2</ele>
        <time>2011-11-13T14:00:17Z</time>
      </trkpt>
      <trkpt lat="43.7185" lon="6.54008">
        <ele>855.2</ele>
        <time>2011-11-13T14:00:22Z</time>
      </trkpt>
      <trkpt lat="43.71849" lon="6.54008">
        <ele>855.2</ele>
        <time>2011-11-13T14:00:23Z</time>
      </trkpt>
      <trkpt lat="43.71842" lon="6.54005">
        <ele>856.7</ele>
        <time>2011-11-13T14:00:32Z</time>
      </trkpt>
      <trkpt lat="43.71839" lon="6.54">
        <ele>856.9</ele>
        <time>2011-11-13T14:00:37Z</time>
      </trkpt>
      <trkpt lat="43.71837" lon="6.53994">
        <ele>856.9</ele>
        <time>2011-11-13T14:00:42Z</time>
      </trkpt>
      <trkpt lat="43.71835" lon="6.53987">
        <ele>856.5</ele>
        <time>2011-11-13T14:00:47Z</time>
      </trkpt>
      <trkpt lat="43.71833" lon="6.5398">
        <ele>855.5</ele>
        <time>2011-11-13T14:00:52Z</time>
      </trkpt>
      <trkpt lat="43.71831" lon="6.53973">
        <ele>855.9</ele>
        <time>2011-11-13T14:00:57Z</time>
      </trkpt>
      <trkpt lat="43.71829" lon="6.53966">
        <ele>856</ele>
        <time>2011-11-13T14:01:02Z</time>
      </trkpt>
      <trkpt lat="43.71828" lon="6.5396">
        <ele>855.9</ele>
        <time>2011-11-13T14:01:07Z</time>
      </trkpt>
      <trkpt lat="43.71826" lon="6.53953">
        <ele>855.9</ele>
        <time>2011-11-13T14:01:12Z</time>
      </trkpt>
      <trkpt lat="43.71825" lon="6.53945">
        <ele>855.7</ele>
        <time>2011-11-13T14:01:17Z</time>
      </trkpt>
      <trkpt lat="43.71824" lon="6.53938">
        <ele>855.8</ele>
        <time>2011-11-13T14:01:22Z</time>
      </trkpt>
      <trkpt lat="43.71822" lon="6.53932">
        <ele>855.9</ele>
        <time>2011-11-13T14:01:27Z</time>
      </trkpt>
      <trkpt lat="43.71822" lon="6.53931">
        <ele>856</ele>
        <time>2011-11-13T14:01:28Z</time>
      </trkpt>
      <trkpt lat="43.7182" lon="6.53921">
        <ele>856</ele>
        <time>2011-11-13T14:01:37Z</time>
      </trkpt>
      <trkpt lat="43.71818" lon="6.53916">
        <ele>855.8</ele>
        <time>2011-11-13T14:01:42Z</time>
      </trkpt>
      <trkpt lat="43.71815" lon="6.53908">
        <ele>855.5</ele>
        <time>2011-11-13T14:01:47Z</time>
      </trkpt>
      <trkpt lat="43.71812" lon="6.539">
        <ele>855.3</ele>
        <time>2011-11-13T14:01:52Z</time>
      </trkpt>
      <trkpt lat="43.71809" lon="6.53893">
        <ele>854.7</ele>
        <time>2011-11-13T14:01:57Z</time>
      </trkpt>
      <trkpt lat="43.71807" lon="6.53887">
        <ele>854.9</ele>
        <time>2011-11-13T14:02:02Z</time>
      </trkpt>
      <trkpt lat="43.71805" lon="6.53881">
        <ele>855</ele>
        <time>2011-11-13T14:02:07Z</time>
      </trkpt>
      <trkpt lat="43.71802" lon="6.53874">
        <ele>854.9</ele>
        <time>2011-11-13T14:02:12Z</time>
      </trkpt>
      <trkpt lat="43.718" lon="6.53867">
        <ele>854.9</ele>
        <time>2011-11-13T14:02:17Z</time>
      </trkpt>
      <trkpt lat="43.71797" lon="6.5386">
        <ele>854.4</ele>
        <time>2011-11-13T14:02:22Z</time>
      </trkpt>
      <trkpt lat="43.71794" lon="6.53854">
        <ele>854.2</ele>
        <time>2011-11-13T14:02:27Z</time>
      </trkpt>
      <trkpt lat="43.71792" lon="6.53848">
        <ele>854.5</ele>
        <time>2011-11-13T14:02:32Z</time>
      </trkpt>
      <trkpt lat="43.71791" lon="6.53847">
        <ele>854.5</ele>
        <time>2011-11-13T14:02:33Z</time>
      </trkpt>
      <trkpt lat="43.71785" lon="6.53835">
        <ele>853.2</ele>
        <time>2011-11-13T14:02:42Z</time>
      </trkpt>
      <trkpt lat="43.71781" lon="6.53828">
        <ele>852.5</ele>
        <time>2011-11-13T14:02:47Z</time>
      </trkpt>
      <trkpt lat="43.71777" lon="6.53822">
        <ele>852.2</ele>
        <time>2011-11-13T14:02:52Z</time>
      </trkpt>
      <trkpt lat="43.71773" lon="6.53816">
        <ele>851.7</ele>
        <time>2011-11-13T14:02:57Z</time>
      </trkpt>
      <trkpt lat="43.71769" lon="6.5381">
        <ele>851.2</ele>
        <time>2011-11-13T14:03:02Z</time>
      </trkpt>
      <trkpt lat="43.71766" lon="6.53803">
        <ele>849.6</ele>
        <time>2011-11-13T14:03:07Z</time>
      </trkpt>
      <trkpt lat="43.71762" lon="6.53795">
        <ele>848.4</ele>
        <time>2011-11-13T14:03:12Z</time>
      </trkpt>
      <trkpt lat="43.71759" lon="6.53788">
        <ele>847.6</ele>
        <time>2011-11-13T14:03:17Z</time>
      </trkpt>
      <trkpt lat="43.71756" lon="6.53782">
        <ele>847.7</ele>
        <time>2011-11-13T14:03:22Z</time>
      </trkpt>
      <trkpt lat="43.71753" lon="6.53776">
        <ele>847</ele>
        <time>2011-11-13T14:03:27Z</time>
      </trkpt>
      <trkpt lat="43.71751" lon="6.53769">
        <ele>846.1</ele>
        <time>2011-11-13T14:03:32Z</time>
      </trkpt>
      <trkpt lat="43.71748" lon="6.53762">
        <ele>845.9</ele>
        <time>2011-11-13T14:03:37Z</time>
      </trkpt>
      <trkpt lat="43.71747" lon="6.53761">
        <ele>845.5</ele>
        <time>2011-11-13T14:03:38Z</time>
      </trkpt>
      <trkpt lat="43.71742" lon="6.53749">
        <ele>844.2</ele>
        <time>2011-11-13T14:03:47Z</time>
      </trkpt>
      <trkpt lat="43.71738" lon="6.53744">
        <ele>842.9</ele>
        <time>2011-11-13T14:03:52Z</time>
      </trkpt>
      <trkpt lat="43.71734" lon="6.53738">
        <ele>842.7</ele>
        <time>2011-11-13T14:03:57Z</time>
      </trkpt>
      <trkpt lat="43.71731" lon="6.53733">
        <ele>841.9</ele>
        <time>2011-11-13T14:04:02Z</time>
      </trkpt>
      <trkpt lat="43.71727" lon="6.5373">
        <ele>841.5</ele>
        <time>2011-11-13T14:04:07Z</time>
      </trkpt>
      <trkpt lat="43.71722" lon="6.53728">
        <ele>840.1</ele>
        <time>2011-11-13T14:04:12Z</time>
      </trkpt>
      <trkpt lat="43.71717" lon="6.53726">
        <ele>839.7</ele>
        <time>2011-11-13T14:04:17Z</time>
      </trkpt>
      <trkpt lat="43.71712" lon="6.53724">
        <ele>838.5</ele>
        <time>2011-11-13T14:04:22Z</time>
      </trkpt>
      <trkpt lat="43.71707" lon="6.53722">
        <ele>837.8</ele>
        <time>2011-11-13T14:04:27Z</time>
      </trkpt>
      <trkpt lat="43.71702" lon="6.53719">
        <ele>837.7</ele>
        <time>2011-11-13T14:04:32Z</time>
      </trkpt>
      <trkpt lat="43.71696" lon="6.53715">
        <ele>836.6</ele>
        <time>2011-11-13T14:04:37Z</time>
      </trkpt>
      <trkpt lat="43.71691" lon="6.53711">
        <ele>834.8</ele>
        <time>2011-11-13T14:04:42Z</time>
      </trkpt>
      <trkpt lat="43.7169" lon="6.5371">
        <ele>834.8</ele>
        <time>2011-11-13T14:04:43Z</time>
      </trkpt>
      <trkpt lat="43.71681" lon="6.53704">
        <ele>834.3</ele>
        <time>2011-11-13T14:04:52Z</time>
      </trkpt>
      <trkpt lat="43.71676" lon="6.53701">
        <ele>833.7</ele>
        <time>2011-11-13T14:04:57Z</time>
      </trkpt>
      <trkpt lat="43.71672" lon="6.53698">
        <ele>832.8</ele>
        <time>2011-11-13T14:05:02Z</time>
      </trkpt>
      <trkpt lat="43.71667" lon="6.53695">
        <ele>832.6</ele>
        <time>2011-11-13T14:05:07Z</time>
      </trkpt>
      <trkpt lat="43.71663" lon="6.53692">
        <ele>832.2</ele>
        <time>2011-11-13T14:05:12Z</time>
      </trkpt>
      <trkpt lat="43.71658" lon="6.53688">
        <ele>830.9</ele>
        <time>2011-11-13T14:05:17Z</time>
      </trkpt>
      <trkpt lat="43.71654" lon="6.53685">
        <ele>830</ele>
        <time>2011-11-13T14:05:22Z</time>
      </trkpt>
      <trkpt lat="43.71649" lon="6.53682">
        <ele>829.4</ele>
        <time>2011-11-13T14:05:27Z</time>
      </trkpt>
      <trkpt lat="43.71645" lon="6.53679">
        <ele>829.2</ele>
        <time>2011-11-13T14:05:32Z</time>
      </trkpt>
      <trkpt lat="43.71642" lon="6.53676">
        <ele>828.6</ele>
        <time>2011-11-13T14:05:37Z</time>
      </trkpt>
      <trkpt lat="43.71637" lon="6.53675">
        <ele>828.6</ele>
        <time>2011-11-13T14:05:42Z</time>
      </trkpt>
      <trkpt lat="43.71631" lon="6.53672">
        <ele>828.3</ele>
        <time>2011-11-13T14:05:47Z</time>
      </trkpt>
      <trkpt lat="43.7163" lon="6.53672">
        <ele>828.3</ele>
        <time>2011-11-13T14:05:48Z</time>
      </trkpt>
      <trkpt lat="43.71619" lon="6.5367">
        <ele>828.2</ele>
        <time>2011-11-13T14:05:57Z</time>
      </trkpt>
      <trkpt lat="43.71614" lon="6.53669">
        <ele>827.5</ele>
        <time>2011-11-13T14:06:02Z</time>
      </trkpt>
      <trkpt lat="43.7161" lon="6.53667">
        <ele>827.9</ele>
        <time>2011-11-13T14:06:07Z</time>
      </trkpt>
      <trkpt lat="43.71607" lon="6.53662">
        <ele>828</ele>
        <time>2011-11-13T14:06:12Z</time>
      </trkpt>
      <trkpt lat="43.71605" lon="6.53656">
        <ele>828.1</ele>
        <time>2011-11-13T14:06:17Z</time>
      </trkpt>
      <trkpt lat="43.71603" lon="6.53649">
        <ele>827.6</ele>
        <time>2011-11-13T14:06:22Z</time>
      </trkpt>
      <trkpt lat="43.71601" lon="6.53642">
        <ele>828.2</ele>
        <time>2011-11-13T14:06:27Z</time>
      </trkpt>
      <trkpt lat="43.71598" lon="6.53633">
        <ele>828</ele>
        <time>2011-11-13T14:06:34Z</time>
      </trkpt>
      <trkpt lat="43.71597" lon="6.5363">
        <ele>828</ele>
        <time>2011-11-13T14:06:42Z</time>
      </trkpt>
      <trkpt lat="43.71595" lon="6.53624">
        <ele>828.2</ele>
        <time>2011-11-13T14:06:47Z</time>
      </trkpt>
      <trkpt lat="43.71593" lon="6.53616">
        <ele>828</ele>
        <time>2011-11-13T14:06:52Z</time>
      </trkpt>
      <trkpt lat="43.71593" lon="6.53614">
        <ele>827.9</ele>
        <time>2011-11-13T14:06:53Z</time>
      </trkpt>
      <trkpt lat="43.71588" lon="6.53599">
        <ele>827.5</ele>
        <time>2011-11-13T14:07:02Z</time>
      </trkpt>
      <trkpt lat="43.71585" lon="6.53591">
        <ele>827.7</ele>
        <time>2011-11-13T14:07:07Z</time>
      </trkpt>
      <trkpt lat="43.71583" lon="6.53582">
        <ele>827.7</ele>
        <time>2011-11-13T14:07:12Z</time>
      </trkpt>
      <trkpt lat="43.7158" lon="6.53574">
        <ele>827.9</ele>
        <time>2011-11-13T14:07:17Z</time>
      </trkpt>
      <trkpt lat="43.71578" lon="6.53566">
        <ele>827.8</ele>
        <time>2011-11-13T14:07:22Z</time>
      </trkpt>
      <trkpt lat="43.71576" lon="6.53558">
        <ele>827.8</ele>
        <time>2011-11-13T14:07:27Z</time>
      </trkpt>
      <trkpt lat="43.71574" lon="6.53551">
        <ele>827.7</ele>
        <time>2011-11-13T14:07:32Z</time>
      </trkpt>
      <trkpt lat="43.71572" lon="6.53544">
        <ele>827.6</ele>
        <time>2011-11-13T14:07:37Z</time>
      </trkpt>
      <trkpt lat="43.7157" lon="6.53538">
        <ele>827.7</ele>
        <time>2011-11-13T14:07:42Z</time>
      </trkpt>
      <trkpt lat="43.71568" lon="6.53531">
        <ele>827.8</ele>
        <time>2011-11-13T14:07:47Z</time>
      </trkpt>
      <trkpt lat="43.71566" lon="6.53523">
        <ele>827.2</ele>
        <time>2011-11-13T14:07:52Z</time>
      </trkpt>
      <trkpt lat="43.71564" lon="6.53516">
        <ele>827.5</ele>
        <time>2011-11-13T14:07:57Z</time>
      </trkpt>
      <trkpt lat="43.71564" lon="6.53515">
        <ele>828</ele>
        <time>2011-11-13T14:07:58Z</time>
      </trkpt>
      <trkpt lat="43.7156" lon="6.53502">
        <ele>826.9</ele>
        <time>2011-11-13T14:08:07Z</time>
      </trkpt>
      <trkpt lat="43.71558" lon="6.53495">
        <ele>826.8</ele>
        <time>2011-11-13T14:08:12Z</time>
      </trkpt>
      <trkpt lat="43.71556" lon="6.53489">
        <ele>826.5</ele>
        <time>2011-11-13T14:08:17Z</time>
      </trkpt>
      <trkpt lat="43.71554" lon="6.53482">
        <ele>826.3</ele>
        <time>2011-11-13T14:08:22Z</time>
      </trkpt>
      <trkpt lat="43.71551" lon="6.53475">
        <ele>827.2</ele>
        <time>2011-11-13T14:08:27Z</time>
      </trkpt>
      <trkpt lat="43.71549" lon="6.53468">
        <ele>827.1</ele>
        <time>2011-11-13T14:08:32Z</time>
      </trkpt>
      <trkpt lat="43.71547" lon="6.53461">
        <ele>826.5</ele>
        <time>2011-11-13T14:08:37Z</time>
      </trkpt>
      <trkpt lat="43.71545" lon="6.53454">
        <ele>826.4</ele>
        <time>2011-11-13T14:08:42Z</time>
      </trkpt>
      <trkpt lat="43.71543" lon="6.53446">
        <ele>826.3</ele>
        <time>2011-11-13T14:08:47Z</time>
      </trkpt>
      <trkpt lat="43.71541" lon="6.53439">
        <ele>826.6</ele>
        <time>2011-11-13T14:08:52Z</time>
      </trkpt>
      <trkpt lat="43.71539" lon="6.53432">
        <ele>826.5</ele>
        <time>2011-11-13T14:08:57Z</time>
      </trkpt>
      <trkpt lat="43.71537" lon="6.53425">
        <ele>826.9</ele>
        <time>2011-11-13T14:09:02Z</time>
      </trkpt>
      <trkpt lat="43.71537" lon="6.53423">
        <ele>826.6</ele>
        <time>2011-11-13T14:09:03Z</time>
      </trkpt>
      <trkpt lat="43.71533" lon="6.5341">
        <ele>826.6</ele>
        <time>2011-11-13T14:09:12Z</time>
      </trkpt>
      <trkpt lat="43.71531" lon="6.53402">
        <ele>826.7</ele>
        <time>2011-11-13T14:09:17Z</time>
      </trkpt>
      <trkpt lat="43.71529" lon="6.53395">
        <ele>826.6</ele>
        <time>2011-11-13T14:09:22Z</time>
      </trkpt>
      <trkpt lat="43.71528" lon="6.53387">
        <ele>825.9</ele>
        <time>2011-11-13T14:09:27Z</time>
      </trkpt>
      <trkpt lat="43.71527" lon="6.5338">
        <ele>824.9</ele>
        <time>2011-11-13T14:09:32Z</time>
      </trkpt>
      <trkpt lat="43.71525" lon="6.53372">
        <ele>825.9</ele>
        <time>2011-11-13T14:09:37Z</time>
      </trkpt>
      <trkpt lat="43.71523" lon="6.53365">
        <ele>825.2</ele>
        <time>2011-11-13T14:09:42Z</time>
      </trkpt>
      <trkpt lat="43.71521" lon="6.53357">
        <ele>824.9</ele>
        <time>2011-11-13T14:09:47Z</time>
      </trkpt>
      <trkpt lat="43.71519" lon="6.53349">
        <ele>825.1</ele>
        <time>2011-11-13T14:09:52Z</time>
      </trkpt>
      <trkpt lat="43.71518" lon="6.53342">
        <ele>825.1</ele>
        <time>2011-11-13T14:09:57Z</time>
      </trkpt>
      <trkpt lat="43.71517" lon="6.53335">
        <ele>825</ele>
        <time>2011-11-13T14:10:02Z</time>
      </trkpt>
      <trkpt lat="43.71517" lon="6.53327">
        <ele>825.2</ele>
        <time>2011-11-13T14:10:07Z</time>
      </trkpt>
      <trkpt lat="43.71518" lon="6.53325">
        <ele>825.5</ele>
        <time>2011-11-13T14:10:08Z</time>
      </trkpt>
      <trkpt lat="43.71518" lon="6.53311">
        <ele>824.8</ele>
        <time>2011-11-13T14:10:17Z</time>
      </trkpt>
      <trkpt lat="43.71518" lon="6.53304">
        <ele>824.1</ele>
        <time>2011-11-13T14:10:22Z</time>
      </trkpt>
      <trkpt lat="43.71519" lon="6.53296">
        <ele>824.4</ele>
        <time>2011-11-13T14:10:27Z</time>
      </trkpt>
      <trkpt lat="43.7152" lon="6.53287">
        <ele>823.7</ele>
        <time>2011-11-13T14:10:32Z</time>
      </trkpt>
      <trkpt lat="43.71521" lon="6.5328">
        <ele>824.7</ele>
        <time>2011-11-13T14:10:37Z</time>
      </trkpt>
      <trkpt lat="43.71521" lon="6.53272">
        <ele>824.6</ele>
        <time>2011-11-13T14:10:42Z</time>
      </trkpt>
      <trkpt lat="43.71523" lon="6.53265">
        <ele>824.3</ele>
        <time>2011-11-13T14:10:47Z</time>
      </trkpt>
      <trkpt lat="43.71524" lon="6.53257">
        <ele>824.7</ele>
        <time>2011-11-13T14:10:52Z</time>
      </trkpt>
      <trkpt lat="43.71526" lon="6.53249">
        <ele>824.3</ele>
        <time>2011-11-13T14:10:57Z</time>
      </trkpt>
      <trkpt lat="43.71528" lon="6.53241">
        <ele>824.3</ele>
        <time>2011-11-13T14:11:02Z</time>
      </trkpt>
      <trkpt lat="43.7153" lon="6.53234">
        <ele>824.3</ele>
        <time>2011-11-13T14:11:07Z</time>
      </trkpt>
      <trkpt lat="43.71533" lon="6.53226">
        <ele>825</ele>
        <time>2011-11-13T14:11:12Z</time>
      </trkpt>
      <trkpt lat="43.71533" lon="6.53224">
        <ele>825.1</ele>
        <time>2011-11-13T14:11:13Z</time>
      </trkpt>
      <trkpt lat="43.71537" lon="6.53209">
        <ele>823.9</ele>
        <time>2011-11-13T14:11:22Z</time>
      </trkpt>
      <trkpt lat="43.7154" lon="6.53201">
        <ele>824</ele>
        <time>2011-11-13T14:11:27Z</time>
      </trkpt>
      <trkpt lat="43.71543" lon="6.53193">
        <ele>824.2</ele>
        <time>2011-11-13T14:11:32Z</time>
      </trkpt>
      <trkpt lat="43.71546" lon="6.53186">
        <ele>824.4</ele>
        <time>2011-11-13T14:11:37Z</time>
      </trkpt>
      <trkpt lat="43.7155" lon="6.53178">
        <ele>824.3</ele>
        <time>2011-11-13T14:11:42Z</time>
      </trkpt>
      <trkpt lat="43.71553" lon="6.53171">
        <ele>824.6</ele>
        <time>2011-11-13T14:11:47Z</time>
      </trkpt>
      <trkpt lat="43.71557" lon="6.53163">
        <ele>824.9</ele>
        <time>2011-11-13T14:11:52Z</time>
      </trkpt>
      <trkpt lat="43.71561" lon="6.53156">
        <ele>824.9</ele>
        <time>2011-11-13T14:11:57Z</time>
      </trkpt>
      <trkpt lat="43.71565" lon="6.53149">
        <ele>825.3</ele>
        <time>2011-11-13T14:12:02Z</time>
      </trkpt>
      <trkpt lat="43.71569" lon="6.53144">
        <ele>824.8</ele>
        <time>2011-11-13T14:12:07Z</time>
      </trkpt>
      <trkpt lat="43.71573" lon="6.53137">
        <ele>825</ele>
        <time>2011-11-13T14:12:12Z</time>
      </trkpt>
      <trkpt lat="43.71577" lon="6.53132">
        <ele>824.9</ele>
        <time>2011-11-13T14:12:17Z</time>
      </trkpt>
      <trkpt lat="43.71578" lon="6.53131">
        <ele>825</ele>
        <time>2011-11-13T14:12:18Z</time>
      </trkpt>
      <trkpt lat="43.71586" lon="6.5312">
        <ele>825.1</ele>
        <time>2011-11-13T14:12:27Z</time>
      </trkpt>
      <trkpt lat="43.7159" lon="6.53115">
        <ele>825</ele>
        <time>2011-11-13T14:12:32Z</time>
      </trkpt>
      <trkpt lat="43.71595" lon="6.53111">
        <ele>825.1</ele>
        <time>2011-11-13T14:12:37Z</time>
      </trkpt>
      <trkpt lat="43.716" lon="6.53107">
        <ele>824.6</ele>
        <time>2011-11-13T14:12:42Z</time>
      </trkpt>
      <trkpt lat="43.71605" lon="6.53103">
        <ele>824.6</ele>
        <time>2011-11-13T14:12:47Z</time>
      </trkpt>
      <trkpt lat="43.7161" lon="6.531">
        <ele>824.6</ele>
        <time>2011-11-13T14:12:52Z</time>
      </trkpt>
      <trkpt lat="43.71615" lon="6.53096">
        <ele>825.5</ele>
        <time>2011-11-13T14:12:57Z</time>
      </trkpt>
      <trkpt lat="43.71619" lon="6.53091">
        <ele>825.9</ele>
        <time>2011-11-13T14:13:02Z</time>
      </trkpt>
      <trkpt lat="43.71623" lon="6.53087">
        <ele>826.3</ele>
        <time>2011-11-13T14:13:07Z</time>
      </trkpt>
      <trkpt lat="43.71628" lon="6.53084">
        <ele>827.1</ele>
        <time>2011-11-13T14:13:12Z</time>
      </trkpt>
      <trkpt lat="43.71633" lon="6.53082">
        <ele>827.5</ele>
        <time>2011-11-13T14:13:17Z</time>
      </trkpt>
      <trkpt lat="43.71637" lon="6.53082">
        <ele>828.1</ele>
        <time>2011-11-13T14:13:22Z</time>
      </trkpt>
      <trkpt lat="43.71638" lon="6.53082">
        <ele>828.6</ele>
        <time>2011-11-13T14:13:23Z</time>
      </trkpt>
      <trkpt lat="43.7164" lon="6.53079">
        <ele>828.1</ele>
        <time>2011-11-13T14:13:32Z</time>
      </trkpt>
      <trkpt lat="43.7164" lon="6.53079">
        <ele>828.1</ele>
        <time>2011-11-13T14:13:37Z</time>
      </trkpt>
      <trkpt lat="43.7164" lon="6.53082">
        <ele>827.8</ele>
        <time>2011-11-13T14:13:42Z</time>
      </trkpt>
      <trkpt lat="43.7164" lon="6.53085">
        <ele>828.3</ele>
        <time>2011-11-13T14:13:47Z</time>
      </trkpt>
      <trkpt lat="43.71641" lon="6.53082">
        <ele>827.9</ele>
        <time>2011-11-13T14:13:52Z</time>
      </trkpt>
      <trkpt lat="43.71642" lon="6.53081">
        <ele>828.3</ele>
        <time>2011-11-13T14:13:57Z</time>
      </trkpt>
      <trkpt lat="43.71643" lon="6.53082">
        <ele>828</ele>
        <time>2011-11-13T14:14:02Z</time>
      </trkpt>
      <trkpt lat="43.71645" lon="6.53084">
        <ele>828.6</ele>
        <time>2011-11-13T14:14:07Z</time>
      </trkpt>
      <trkpt lat="43.71648" lon="6.53085">
        <ele>828.5</ele>
        <time>2011-11-13T14:14:12Z</time>
      </trkpt>
      <trkpt lat="43.71653" lon="6.53083">
        <ele>828.3</ele>
        <time>2011-11-13T14:14:17Z</time>
      </trkpt>
      <trkpt lat="43.71655" lon="6.53079">
        <ele>828</ele>
        <time>2011-11-13T14:14:22Z</time>
      </trkpt>
      <trkpt lat="43.71655" lon="6.53077">
        <ele>827.5</ele>
        <time>2011-11-13T14:14:27Z</time>
      </trkpt>
      <trkpt lat="43.71655" lon="6.53077">
        <ele>827.6</ele>
        <time>2011-11-13T14:14:28Z</time>
      </trkpt>
      <trkpt lat="43.71659" lon="6.53071">
        <ele>827.9</ele>
        <time>2011-11-13T14:14:37Z</time>
      </trkpt>
      <trkpt lat="43.71661" lon="6.53065">
        <ele>827.3</ele>
        <time>2011-11-13T14:14:42Z</time>
      </trkpt>
      <trkpt lat="43.71663" lon="6.5306">
        <ele>827.2</ele>
        <time>2011-11-13T14:14:47Z</time>
      </trkpt>
      <trkpt lat="43.71665" lon="6.53056">
        <ele>827.5</ele>
        <time>2011-11-13T14:14:52Z</time>
      </trkpt>
      <trkpt lat="43.71667" lon="6.5305">
        <ele>827.4</ele>
        <time>2011-11-13T14:14:57Z</time>
      </trkpt>
      <trkpt lat="43.71671" lon="6.53044">
        <ele>826.8</ele>
        <time>2011-11-13T14:15:02Z</time>
      </trkpt>
      <trkpt lat="43.71675" lon="6.53038">
        <ele>826.9</ele>
        <time>2011-11-13T14:15:07Z</time>
      </trkpt>
      <trkpt lat="43.71679" lon="6.53031">
        <ele>826.4</ele>
        <time>2011-11-13T14:15:12Z</time>
      </trkpt>
      <trkpt lat="43.71684" lon="6.53026">
        <ele>827</ele>
        <time>2011-11-13T14:15:17Z</time>
      </trkpt>
      <trkpt lat="43.71689" lon="6.53022">
        <ele>827.3</ele>
        <time>2011-11-13T14:15:22Z</time>
      </trkpt>
      <trkpt lat="43.71695" lon="6.5302">
        <ele>827.3</ele>
        <time>2011-11-13T14:15:27Z</time>
      </trkpt>
      <trkpt lat="43.717" lon="6.53018">
        <ele>827.6</ele>
        <time>2011-11-13T14:15:32Z</time>
      </trkpt>
      <trkpt lat="43.71701" lon="6.53017">
        <ele>827.5</ele>
        <time>2011-11-13T14:15:33Z</time>
      </trkpt>
      <trkpt lat="43.7171" lon="6.53012">
        <ele>827.9</ele>
        <time>2011-11-13T14:15:42Z</time>
      </trkpt>
      <trkpt lat="43.71714" lon="6.53008">
        <ele>827.8</ele>
        <time>2011-11-13T14:15:47Z</time>
      </trkpt>
      <trkpt lat="43.71717" lon="6.53003">
        <ele>828.7</ele>
        <time>2011-11-13T14:15:52Z</time>
      </trkpt>
      <trkpt lat="43.7172" lon="6.52997">
        <ele>828.9</ele>
        <time>2011-11-13T14:15:57Z</time>
      </trkpt>
      <trkpt lat="43.71722" lon="6.52991">
        <ele>829.1</ele>
        <time>2011-11-13T14:16:02Z</time>
      </trkpt>
      <trkpt lat="43.71725" lon="6.52984">
        <ele>829.7</ele>
        <time>2011-11-13T14:16:07Z</time>
      </trkpt>
      <trkpt lat="43.71727" lon="6.52978">
        <ele>829.9</ele>
        <time>2011-11-13T14:16:12Z</time>
      </trkpt>
      <trkpt lat="43.7173" lon="6.52971">
        <ele>829.1</ele>
        <time>2011-11-13T14:16:17Z</time>
      </trkpt>
      <trkpt lat="43.71733" lon="6.52964">
        <ele>829.4</ele>
        <time>2011-11-13T14:16:22Z</time>
      </trkpt>
      <trkpt lat="43.71735" lon="6.52957">
        <ele>829.6</ele>
        <time>2011-11-13T14:16:27Z</time>
      </trkpt>
      <trkpt lat="43.71737" lon="6.5295">
        <ele>829.9</ele>
        <time>2011-11-13T14:16:32Z</time>
      </trkpt>
      <trkpt lat="43.7174" lon="6.52943">
        <ele>830.5</ele>
        <time>2011-11-13T14:16:37Z</time>
      </trkpt>
      <trkpt lat="43.7174" lon="6.52942">
        <ele>830.5</ele>
        <time>2011-11-13T14:16:38Z</time>
      </trkpt>
      <trkpt lat="43.71746" lon="6.5293">
        <ele>830.6</ele>
        <time>2011-11-13T14:16:47Z</time>
      </trkpt>
      <trkpt lat="43.71749" lon="6.52923">
        <ele>830.2</ele>
        <time>2011-11-13T14:16:52Z</time>
      </trkpt>
      <trkpt lat="43.71751" lon="6.52916">
        <ele>830.4</ele>
        <time>2011-11-13T14:16:57Z</time>
      </trkpt>
      <trkpt lat="43.71752" lon="6.52909">
        <ele>830.1</ele>
        <time>2011-11-13T14:17:02Z</time>
      </trkpt>
      <trkpt lat="43.71752" lon="6.52902">
        <ele>830.4</ele>
        <time>2011-11-13T14:17:07Z</time>
      </trkpt>
      <trkpt lat="43.71753" lon="6.52895">
        <ele>829.2</ele>
        <time>2011-11-13T14:17:12Z</time>
      </trkpt>
      <trkpt lat="43.71752" lon="6.52888">
        <ele>829.9</ele>
        <time>2011-11-13T14:17:17Z</time>
      </trkpt>
      <trkpt lat="43.71752" lon="6.52886">
        <ele>829.9</ele>
        <time>2011-11-13T14:17:22Z</time>
      </trkpt>
      <trkpt lat="43.71752" lon="6.52886">
        <ele>829.6</ele>
        <time>2011-11-13T14:17:27Z</time>
      </trkpt>
      <trkpt lat="43.71752" lon="6.52885">
        <ele>829.7</ele>
        <time>2011-11-13T14:17:32Z</time>
      </trkpt>
      <trkpt lat="43.71751" lon="6.52881">
        <ele>830.1</ele>
        <time>2011-11-13T14:17:37Z</time>
      </trkpt>
      <trkpt lat="43.7175" lon="6.52879">
        <ele>829.6</ele>
        <time>2011-11-13T14:17:42Z</time>
      </trkpt>
      <trkpt lat="43.7175" lon="6.52878">
        <ele>829.7</ele>
        <time>2011-11-13T14:17:43Z</time>
      </trkpt>
      <trkpt lat="43.71751" lon="6.52875">
        <ele>830.3</ele>
        <time>2011-11-13T14:17:52Z</time>
      </trkpt>
      <trkpt lat="43.71751" lon="6.52875">
        <ele>829.7</ele>
        <time>2011-11-13T14:17:57Z</time>
      </trkpt>
      <trkpt lat="43.71751" lon="6.52875">
        <ele>829.9</ele>
        <time>2011-11-13T14:18:02Z</time>
      </trkpt>
      <trkpt lat="43.71751" lon="6.52875">
        <ele>830.1</ele>
        <time>2011-11-13T14:18:07Z</time>
      </trkpt>
      <trkpt lat="43.71752" lon="6.52874">
        <ele>830.1</ele>
        <time>2011-11-13T14:18:12Z</time>
      </trkpt>
      <trkpt lat="43.71752" lon="6.52872">
        <ele>830.1</ele>
        <time>2011-11-13T14:18:17Z</time>
      </trkpt>
      <trkpt lat="43.71752" lon="6.52865">
        <ele>829.5</ele>
        <time>2011-11-13T14:18:22Z</time>
      </trkpt>
      <trkpt lat="43.71751" lon="6.52858">
        <ele>829.6</ele>
        <time>2011-11-13T14:18:27Z</time>
      </trkpt>
      <trkpt lat="43.7175" lon="6.52851">
        <ele>829</ele>
        <time>2011-11-13T14:18:32Z</time>
      </trkpt>
      <trkpt lat="43.71749" lon="6.52843">
        <ele>828.8</ele>
        <time>2011-11-13T14:18:37Z</time>
      </trkpt>
      <trkpt lat="43.71748" lon="6.52836">
        <ele>828.7</ele>
        <time>2011-11-13T14:18:42Z</time>
      </trkpt>
      <trkpt lat="43.71747" lon="6.52828">
        <ele>828.9</ele>
        <time>2011-11-13T14:18:47Z</time>
      </trkpt>
      <trkpt lat="43.71746" lon="6.52827">
        <ele>829.1</ele>
        <time>2011-11-13T14:18:48Z</time>
      </trkpt>
      <trkpt lat="43.71744" lon="6.52814">
        <ele>828.2</ele>
        <time>2011-11-13T14:18:57Z</time>
      </trkpt>
      <trkpt lat="43.71743" lon="6.52807">
        <ele>828.4</ele>
        <time>2011-11-13T14:19:02Z</time>
      </trkpt>
      <trkpt lat="43.71742" lon="6.528">
        <ele>828.7</ele>
        <time>2011-11-13T14:19:07Z</time>
      </trkpt>
      <trkpt lat="43.71742" lon="6.52793">
        <ele>828.5</ele>
        <time>2011-11-13T14:19:12Z</time>
      </trkpt>
      <trkpt lat="43.71741" lon="6.52785">
        <ele>829</ele>
        <time>2011-11-13T14:19:17Z</time>
      </trkpt>
      <trkpt lat="43.7174" lon="6.52777">
        <ele>828.9</ele>
        <time>2011-11-13T14:19:22Z</time>
      </trkpt>
      <trkpt lat="43.7174" lon="6.52769">
        <ele>829.9</ele>
        <time>2011-11-13T14:19:27Z</time>
      </trkpt>
      <trkpt lat="43.71741" lon="6.52761">
        <ele>829.1</ele>
        <time>2011-11-13T14:19:32Z</time>
      </trkpt>
      <trkpt lat="43.71744" lon="6.52756">
        <ele>829.4</ele>
        <time>2011-11-13T14:19:37Z</time>
      </trkpt>
      <trkpt lat="43.71746" lon="6.52754">
        <ele>830.1</ele>
        <time>2011-11-13T14:19:42Z</time>
      </trkpt>
      <trkpt lat="43.71749" lon="6.52753">
        <ele>829.6</ele>
        <time>2011-11-13T14:19:47Z</time>
      </trkpt>
      <trkpt lat="43.71751" lon="6.52753">
        <ele>830</ele>
        <time>2011-11-13T14:19:52Z</time>
      </trkpt>
      <trkpt lat="43.71752" lon="6.52754">
        <ele>829.6</ele>
        <time>2011-11-13T14:19:53Z</time>
      </trkpt>
      <trkpt lat="43.71753" lon="6.52753">
        <ele>829.9</ele>
        <time>2011-11-13T14:20:02Z</time>
      </trkpt>
      <trkpt lat="43.71753" lon="6.52753">
        <ele>829.8</ele>
        <time>2011-11-13T14:20:07Z</time>
      </trkpt>
      <trkpt lat="43.71753" lon="6.52753">
        <ele>829.7</ele>
        <time>2011-11-13T14:20:12Z</time>
      </trkpt>
      <trkpt lat="43.71755" lon="6.52754">
        <ele>830</ele>
        <time>2011-11-13T14:20:17Z</time>
      </trkpt>
      <trkpt lat="43.71756" lon="6.52754">
        <ele>830.6</ele>
        <time>2011-11-13T14:20:22Z</time>
      </trkpt>
      <trkpt lat="43.71756" lon="6.52755">
        <ele>830</ele>
        <time>2011-11-13T14:20:27Z</time>
      </trkpt>
      <trkpt lat="43.71756" lon="6.52755">
        <ele>830.5</ele>
        <time>2011-11-13T14:20:32Z</time>
      </trkpt>
      <trkpt lat="43.71754" lon="6.52754">
        <ele>830.9</ele>
        <time>2011-11-13T14:20:37Z</time>
      </trkpt>
      <trkpt lat="43.71754" lon="6.52753">
        <ele>830.1</ele>
        <time>2011-11-13T14:20:42Z</time>
      </trkpt>
      <trkpt lat="43.71756" lon="6.52755">
        <ele>831.1</ele>
        <time>2011-11-13T14:20:47Z</time>
      </trkpt>
      <trkpt lat="43.71757" lon="6.52755">
        <ele>830.9</ele>
        <time>2011-11-13T14:20:52Z</time>
      </trkpt>
      <trkpt lat="43.71756" lon="6.52755">
        <ele>831.2</ele>
        <time>2011-11-13T14:20:57Z</time>
      </trkpt>
      <trkpt lat="43.71756" lon="6.52755">
        <ele>831.2</ele>
        <time>2011-11-13T14:20:58Z</time>
      </trkpt>
      <trkpt lat="43.71757" lon="6.52755">
        <ele>831</ele>
        <time>2011-11-13T14:21:07Z</time>
      </trkpt>
      <trkpt lat="43.71754" lon="6.52754">
        <ele>830.5</ele>
        <time>2011-11-13T14:21:12Z</time>
      </trkpt>
      <trkpt lat="43.71753" lon="6.52755">
        <ele>830.8</ele>
        <time>2011-11-13T14:21:17Z</time>
      </trkpt>
      <trkpt lat="43.71751" lon="6.52754">
        <ele>829.8</ele>
        <time>2011-11-13T14:21:22Z</time>
      </trkpt>
      <trkpt lat="43.71749" lon="6.52751">
        <ele>829.4</ele>
        <time>2011-11-13T14:21:27Z</time>
      </trkpt>
      <trkpt lat="43.71747" lon="6.52745">
        <ele>828.7</ele>
        <time>2011-11-13T14:21:32Z</time>
      </trkpt>
      <trkpt lat="43.71747" lon="6.52738">
        <ele>828.8</ele>
        <time>2011-11-13T14:21:37Z</time>
      </trkpt>
      <trkpt lat="43.71747" lon="6.52731">
        <ele>828.1</ele>
        <time>2011-11-13T14:21:42Z</time>
      </trkpt>
      <trkpt lat="43.71747" lon="6.52724">
        <ele>828.3</ele>
        <time>2011-11-13T14:21:47Z</time>
      </trkpt>
      <trkpt lat="43.71747" lon="6.52716">
        <ele>828.2</ele>
        <time>2011-11-13T14:21:52Z</time>
      </trkpt>
      <trkpt lat="43.71748" lon="6.52708">
        <ele>828.1</ele>
        <time>2011-11-13T14:21:57Z</time>
      </trkpt>
      <trkpt lat="43.71748" lon="6.52703">
        <ele>827.9</ele>
        <time>2011-11-13T14:22:02Z</time>
      </trkpt>
      <trkpt lat="43.71749" lon="6.52703">
        <ele>828.1</ele>
        <time>2011-11-13T14:22:03Z</time>
      </trkpt>
      <trkpt lat="43.7175" lon="6.52694">
        <ele>827.8</ele>
        <time>2011-11-13T14:22:12Z</time>
      </trkpt>
      <trkpt lat="43.71752" lon="6.52689">
        <ele>827.8</ele>
        <time>2011-11-13T14:22:17Z</time>
      </trkpt>
      <trkpt lat="43.71753" lon="6.52682">
        <ele>827.3</ele>
        <time>2011-11-13T14:22:22Z</time>
      </trkpt>
      <trkpt lat="43.71756" lon="6.52671">
        <ele>827</ele>
        <time>2011-11-13T14:22:29Z</time>
      </trkpt>
      <trkpt lat="43.71756" lon="6.52667">
        <ele>826.8</ele>
        <time>2011-11-13T14:22:34Z</time>
      </trkpt>
      <trkpt lat="43.71755" lon="6.52666">
        <ele>826.4</ele>
        <time>2011-11-13T14:22:39Z</time>
      </trkpt>
      <trkpt lat="43.71758" lon="6.5266">
        <ele>826.8</ele>
        <time>2011-11-13T14:22:44Z</time>
      </trkpt>
      <trkpt lat="43.71759" lon="6.52659">
        <ele>826.7</ele>
        <time>2011-11-13T14:22:49Z</time>
      </trkpt>
      <trkpt lat="43.71759" lon="6.52658">
        <ele>827.3</ele>
        <time>2011-11-13T14:22:54Z</time>
      </trkpt>
      <trkpt lat="43.7176" lon="6.52657">
        <ele>827.1</ele>
        <time>2011-11-13T14:22:59Z</time>
      </trkpt>
      <trkpt lat="43.71761" lon="6.52652">
        <ele>826.7</ele>
        <time>2011-11-13T14:23:04Z</time>
      </trkpt>
      <trkpt lat="43.71761" lon="6.52652">
        <ele>826.7</ele>
        <time>2011-11-13T14:23:05Z</time>
      </trkpt>
      <trkpt lat="43.71762" lon="6.52649">
        <ele>826.5</ele>
        <time>2011-11-13T14:23:14Z</time>
      </trkpt>
      <trkpt lat="43.71762" lon="6.52648">
        <ele>826.6</ele>
        <time>2011-11-13T14:23:19Z</time>
      </trkpt>
      <trkpt lat="43.71762" lon="6.52645">
        <ele>826.7</ele>
        <time>2011-11-13T14:23:24Z</time>
      </trkpt>
      <trkpt lat="43.71763" lon="6.52638">
        <ele>826.7</ele>
        <time>2011-11-13T14:23:29Z</time>
      </trkpt>
      <trkpt lat="43.71765" lon="6.52632">
        <ele>826.4</ele>
        <time>2011-11-13T14:23:34Z</time>
      </trkpt>
      <trkpt lat="43.71766" lon="6.52626">
        <ele>826.5</ele>
        <time>2011-11-13T14:23:39Z</time>
      </trkpt>
      <trkpt lat="43.71766" lon="6.52619">
        <ele>827.2</ele>
        <time>2011-11-13T14:23:44Z</time>
      </trkpt>
      <trkpt lat="43.71766" lon="6.52613">
        <ele>827.3</ele>
        <time>2011-11-13T14:23:49Z</time>
      </trkpt>
      <trkpt lat="43.71767" lon="6.52606">
        <ele>827.7</ele>
        <time>2011-11-13T14:23:54Z</time>
      </trkpt>
      <trkpt lat="43.71767" lon="6.52597">
        <ele>827.6</ele>
        <time>2011-11-13T14:23:59Z</time>
      </trkpt>
      <trkpt lat="43.71768" lon="6.5259">
        <ele>827</ele>
        <time>2011-11-13T14:24:04Z</time>
      </trkpt>
      <trkpt lat="43.71768" lon="6.52583">
        <ele>827.4</ele>
        <time>2011-11-13T14:24:09Z</time>
      </trkpt>
      <trkpt lat="43.71768" lon="6.52582">
        <ele>827.4</ele>
        <time>2011-11-13T14:24:10Z</time>
      </trkpt>
      <trkpt lat="43.71769" lon="6.5257">
        <ele>828.2</ele>
        <time>2011-11-13T14:24:19Z</time>
      </trkpt>
      <trkpt lat="43.71768" lon="6.52563">
        <ele>828</ele>
        <time>2011-11-13T14:24:24Z</time>
      </trkpt>
      <trkpt lat="43.71768" lon="6.52558">
        <ele>827.3</ele>
        <time>2011-11-13T14:24:29Z</time>
      </trkpt>
      <trkpt lat="43.71768" lon="6.5255">
        <ele>827.4</ele>
        <time>2011-11-13T14:24:34Z</time>
      </trkpt>
      <trkpt lat="43.71768" lon="6.52544">
        <ele>827.9</ele>
        <time>2011-11-13T14:24:39Z</time>
      </trkpt>
      <trkpt lat="43.71769" lon="6.52538">
        <ele>827.4</ele>
        <time>2011-11-13T14:24:44Z</time>
      </trkpt>
      <trkpt lat="43.71769" lon="6.52533">
        <ele>827.3</ele>
        <time>2011-11-13T14:24:49Z</time>
      </trkpt>
      <trkpt lat="43.71769" lon="6.52526">
        <ele>827.8</ele>
        <time>2011-11-13T14:24:54Z</time>
      </trkpt>
      <trkpt lat="43.71769" lon="6.52522">
        <ele>827.7</ele>
        <time>2011-11-13T14:24:59Z</time>
      </trkpt>
      <trkpt lat="43.71769" lon="6.52521">
        <ele>827.8</ele>
        <time>2011-11-13T14:25:04Z</time>
      </trkpt>
      <trkpt lat="43.71768" lon="6.52521">
        <ele>826.7</ele>
        <time>2011-11-13T14:25:09Z</time>
      </trkpt>
      <trkpt lat="43.71769" lon="6.5252">
        <ele>827.3</ele>
        <time>2011-11-13T14:25:14Z</time>
      </trkpt>
      <trkpt lat="43.71769" lon="6.5252">
        <ele>827.3</ele>
        <time>2011-11-13T14:25:15Z</time>
      </trkpt>
      <trkpt lat="43.7177" lon="6.52518">
        <ele>827</ele>
        <time>2011-11-13T14:25:24Z</time>
      </trkpt>
      <trkpt lat="43.7177" lon="6.52516">
        <ele>827.4</ele>
        <time>2011-11-13T14:25:29Z</time>
      </trkpt>
      <trkpt lat="43.7177" lon="6.52514">
        <ele>827.7</ele>
        <time>2011-11-13T14:25:34Z</time>
      </trkpt>
      <trkpt lat="43.71769" lon="6.5251">
        <ele>827.6</ele>
        <time>2011-11-13T14:25:39Z</time>
      </trkpt>
      <trkpt lat="43.71769" lon="6.52504">
        <ele>827.7</ele>
        <time>2011-11-13T14:25:44Z</time>
      </trkpt>
      <trkpt lat="43.71768" lon="6.52497">
        <ele>827.2</ele>
        <time>2011-11-13T14:25:49Z</time>
      </trkpt>
      <trkpt lat="43.71763" lon="6.52491">
        <ele>826.8</ele>
        <time>2011-11-13T14:25:54Z</time>
      </trkpt>
      <trkpt lat="43.71763" lon="6.52484">
        <ele>827.3</ele>
        <time>2011-11-13T14:25:59Z</time>
      </trkpt>
      <trkpt lat="43.71763" lon="6.52477">
        <ele>827</ele>
        <time>2011-11-13T14:26:04Z</time>
      </trkpt>
      <trkpt lat="43.71763" lon="6.5247">
        <ele>826.7</ele>
        <time>2011-11-13T14:26:09Z</time>
      </trkpt>
      <trkpt lat="43.71763" lon="6.52463">
        <ele>826.9</ele>
        <time>2011-11-13T14:26:14Z</time>
      </trkpt>
      <trkpt lat="43.71762" lon="6.52457">
        <ele>826.5</ele>
        <time>2011-11-13T14:26:19Z</time>
      </trkpt>
      <trkpt lat="43.71762" lon="6.52455">
        <ele>826.5</ele>
        <time>2011-11-13T14:26:20Z</time>
      </trkpt>
      <trkpt lat="43.71762" lon="6.52444">
        <ele>826.5</ele>
        <time>2011-11-13T14:26:29Z</time>
      </trkpt>
      <trkpt lat="43.71763" lon="6.52437">
        <ele>826.9</ele>
        <time>2011-11-13T14:26:34Z</time>
      </trkpt>
      <trkpt lat="43.71763" lon="6.52429">
        <ele>826.1</ele>
        <time>2011-11-13T14:26:39Z</time>
      </trkpt>
      <trkpt lat="43.7176" lon="6.52424">
        <ele>825.6</ele>
        <time>2011-11-13T14:26:44Z</time>
      </trkpt>
      <trkpt lat="43.71759" lon="6.52417">
        <ele>826.1</ele>
        <time>2011-11-13T14:26:49Z</time>
      </trkpt>
      <trkpt lat="43.71757" lon="6.5241">
        <ele>825.7</ele>
        <time>2011-11-13T14:26:54Z</time>
      </trkpt>
      <trkpt lat="43.71755" lon="6.52408">
        <ele>826.1</ele>
        <time>2011-11-13T14:26:59Z</time>
      </trkpt>
      <trkpt lat="43.71753" lon="6.52408">
        <ele>825.7</ele>
        <time>2011-11-13T14:27:04Z</time>
      </trkpt>
      <trkpt lat="43.71752" lon="6.52407">
        <ele>825.5</ele>
        <time>2011-11-13T14:27:09Z</time>
      </trkpt>
      <trkpt lat="43.71752" lon="6.52406">
        <ele>825</ele>
        <time>2011-11-13T14:27:14Z</time>
      </trkpt>
      <trkpt lat="43.71751" lon="6.52405">
        <ele>824.9</ele>
        <time>2011-11-13T14:27:19Z</time>
      </trkpt>
      <trkpt lat="43.71751" lon="6.52404">
        <ele>825</ele>
        <time>2011-11-13T14:27:24Z</time>
      </trkpt>
      <trkpt lat="43.71751" lon="6.52404">
        <ele>825.1</ele>
        <time>2011-11-13T14:27:25Z</time>
      </trkpt>
    </trkseg>
  </trk>
</gpx>